<?xml version="1.0" encoding="UTF-8" standalone="no" ?>
<gpx xmlns="http://www.topografix.com/GPX/1/1" xmlns:xsi="http://www.w3.org/2001/XMLSchema-instance" xsi:schemaLocation="http://www.topografix.com/GPX/1/1 http://www.topografix.com/GPX/1/1/gpx.xsd" version="1.1" creator="VisuGPX - https://www.visugpx.com">
  <metadata>
    <name>Tour en Thur 2023-05 17-21</name>
  </metadata>
  <trk>
    <name><![CDATA[19 mai 2023 à 08:08:52]]></name>
    <extensions>
      <line xmlns="http://www.topografix.com/GPX/gpx_style/0/2">
        <color>ff0000</color>
        <width>9</width>
      </line>
    </extensions>
    <trkseg>
      <trkpt lat="47.90385" lon="7.08127">
        <ele>1338.8</ele>
        <time>2023-05-19T06:08:53Z</time>
      </trkpt>
      <trkpt lat="47.90385" lon="7.08127">
        <ele>1338.8</ele>
        <time>2023-05-19T06:08:54Z</time>
      </trkpt>
      <trkpt lat="47.90383" lon="7.08117">
        <ele>1338.7</ele>
        <time>2023-05-19T06:09:04Z</time>
      </trkpt>
      <trkpt lat="47.9038" lon="7.08112">
        <ele>1338.7</ele>
        <time>2023-05-19T06:09:10Z</time>
      </trkpt>
      <trkpt lat="47.90377" lon="7.08105">
        <ele>1338.7</ele>
        <time>2023-05-19T06:09:22Z</time>
      </trkpt>
      <trkpt lat="47.90375" lon="7.08099">
        <ele>1338.7</ele>
        <time>2023-05-19T06:09:28Z</time>
      </trkpt>
      <trkpt lat="47.90373" lon="7.08088">
        <ele>1338.9</ele>
        <time>2023-05-19T06:09:43Z</time>
      </trkpt>
      <trkpt lat="47.90372" lon="7.08081">
        <ele>1339.1</ele>
        <time>2023-05-19T06:09:47Z</time>
      </trkpt>
      <trkpt lat="47.90369" lon="7.08073">
        <ele>1339.3</ele>
        <time>2023-05-19T06:09:54Z</time>
      </trkpt>
      <trkpt lat="47.90355" lon="7.08039">
        <ele>1340.4</ele>
        <time>2023-05-19T06:10:19Z</time>
      </trkpt>
      <trkpt lat="47.90353" lon="7.08034">
        <ele>1340.5</ele>
        <time>2023-05-19T06:10:23Z</time>
      </trkpt>
      <trkpt lat="47.90349" lon="7.08025">
        <ele>1340.9</ele>
        <time>2023-05-19T06:10:30Z</time>
      </trkpt>
      <trkpt lat="47.90346" lon="7.08019">
        <ele>1341.2</ele>
        <time>2023-05-19T06:10:35Z</time>
      </trkpt>
      <trkpt lat="47.9034" lon="7.08008">
        <ele>1341.7</ele>
        <time>2023-05-19T06:10:45Z</time>
      </trkpt>
      <trkpt lat="47.90312" lon="7.07972">
        <ele>1343.8</ele>
        <time>2023-05-19T06:11:18Z</time>
      </trkpt>
      <trkpt lat="47.90304" lon="7.07964">
        <ele>1344.1</ele>
        <time>2023-05-19T06:11:26Z</time>
      </trkpt>
      <trkpt lat="47.903" lon="7.07961">
        <ele>1344.2</ele>
        <time>2023-05-19T06:11:30Z</time>
      </trkpt>
      <trkpt lat="47.90296" lon="7.07958">
        <ele>1344.3</ele>
        <time>2023-05-19T06:11:34Z</time>
      </trkpt>
      <trkpt lat="47.90282" lon="7.07941">
        <ele>1343.8</ele>
        <time>2023-05-19T06:11:49Z</time>
      </trkpt>
      <trkpt lat="47.90278" lon="7.07937">
        <ele>1343.5</ele>
        <time>2023-05-19T06:11:54Z</time>
      </trkpt>
      <trkpt lat="47.90266" lon="7.07927">
        <ele>1342.1</ele>
        <time>2023-05-19T06:12:10Z</time>
      </trkpt>
      <trkpt lat="47.90265" lon="7.07915">
        <ele>1340.9</ele>
        <time>2023-05-19T06:12:23Z</time>
      </trkpt>
      <trkpt lat="47.90264" lon="7.07909">
        <ele>1340.3</ele>
        <time>2023-05-19T06:12:27Z</time>
      </trkpt>
      <trkpt lat="47.9027" lon="7.07884">
        <ele>1337.7</ele>
        <time>2023-05-19T06:12:49Z</time>
      </trkpt>
      <trkpt lat="47.90274" lon="7.0788">
        <ele>1336.9</ele>
        <time>2023-05-19T06:12:53Z</time>
      </trkpt>
      <trkpt lat="47.90279" lon="7.07871">
        <ele>1335.3</ele>
        <time>2023-05-19T06:13:02Z</time>
      </trkpt>
      <trkpt lat="47.90282" lon="7.07867">
        <ele>1334.7</ele>
        <time>2023-05-19T06:13:07Z</time>
      </trkpt>
      <trkpt lat="47.90286" lon="7.07863">
        <ele>1334.3</ele>
        <time>2023-05-19T06:13:12Z</time>
      </trkpt>
      <trkpt lat="47.90294" lon="7.07854">
        <ele>1332.8</ele>
        <time>2023-05-19T06:13:24Z</time>
      </trkpt>
      <trkpt lat="47.90298" lon="7.07848">
        <ele>1331.5</ele>
        <time>2023-05-19T06:13:28Z</time>
      </trkpt>
      <trkpt lat="47.90305" lon="7.07834">
        <ele>1328.2</ele>
        <time>2023-05-19T06:13:41Z</time>
      </trkpt>
      <trkpt lat="47.90308" lon="7.07826">
        <ele>1326.2</ele>
        <time>2023-05-19T06:13:48Z</time>
      </trkpt>
      <trkpt lat="47.9031" lon="7.07821">
        <ele>1325</ele>
        <time>2023-05-19T06:13:52Z</time>
      </trkpt>
      <trkpt lat="47.90314" lon="7.07816">
        <ele>1324.1</ele>
        <time>2023-05-19T06:13:56Z</time>
      </trkpt>
      <trkpt lat="47.90315" lon="7.0781">
        <ele>1322.6</ele>
        <time>2023-05-19T06:14:00Z</time>
      </trkpt>
      <trkpt lat="47.90318" lon="7.07804">
        <ele>1321.4</ele>
        <time>2023-05-19T06:14:05Z</time>
      </trkpt>
      <trkpt lat="47.90322" lon="7.07797">
        <ele>1320.3</ele>
        <time>2023-05-19T06:14:11Z</time>
      </trkpt>
      <trkpt lat="47.90323" lon="7.0779">
        <ele>1318.7</ele>
        <time>2023-05-19T06:14:15Z</time>
      </trkpt>
      <trkpt lat="47.90325" lon="7.07784">
        <ele>1317.7</ele>
        <time>2023-05-19T06:14:19Z</time>
      </trkpt>
      <trkpt lat="47.90331" lon="7.0778">
        <ele>1318</ele>
        <time>2023-05-19T06:14:26Z</time>
      </trkpt>
      <trkpt lat="47.90334" lon="7.07775">
        <ele>1317.3</ele>
        <time>2023-05-19T06:14:31Z</time>
      </trkpt>
      <trkpt lat="47.90336" lon="7.07761">
        <ele>1313.6</ele>
        <time>2023-05-19T06:14:39Z</time>
      </trkpt>
      <trkpt lat="47.9034" lon="7.07757">
        <ele>1313.1</ele>
        <time>2023-05-19T06:14:43Z</time>
      </trkpt>
      <trkpt lat="47.90354" lon="7.07729">
        <ele>1308.2</ele>
        <time>2023-05-19T06:15:05Z</time>
      </trkpt>
      <trkpt lat="47.9036" lon="7.07719">
        <ele>1307.1</ele>
        <time>2023-05-19T06:15:12Z</time>
      </trkpt>
      <trkpt lat="47.90363" lon="7.07713">
        <ele>1306.4</ele>
        <time>2023-05-19T06:15:16Z</time>
      </trkpt>
      <trkpt lat="47.90364" lon="7.07707">
        <ele>1305.3</ele>
        <time>2023-05-19T06:15:20Z</time>
      </trkpt>
      <trkpt lat="47.90367" lon="7.07702">
        <ele>1304.8</ele>
        <time>2023-05-19T06:15:23Z</time>
      </trkpt>
      <trkpt lat="47.90371" lon="7.07699">
        <ele>1305.1</ele>
        <time>2023-05-19T06:15:27Z</time>
      </trkpt>
      <trkpt lat="47.90374" lon="7.07694">
        <ele>1304.7</ele>
        <time>2023-05-19T06:15:32Z</time>
      </trkpt>
      <trkpt lat="47.90378" lon="7.07681">
        <ele>1302.4</ele>
        <time>2023-05-19T06:15:40Z</time>
      </trkpt>
      <trkpt lat="47.90382" lon="7.07678">
        <ele>1302.7</ele>
        <time>2023-05-19T06:15:43Z</time>
      </trkpt>
      <trkpt lat="47.90387" lon="7.07676">
        <ele>1303.5</ele>
        <time>2023-05-19T06:15:46Z</time>
      </trkpt>
      <trkpt lat="47.90391" lon="7.07673">
        <ele>1303.7</ele>
        <time>2023-05-19T06:15:50Z</time>
      </trkpt>
      <trkpt lat="47.90394" lon="7.07668">
        <ele>1303.2</ele>
        <time>2023-05-19T06:16:05Z</time>
      </trkpt>
      <trkpt lat="47.90401" lon="7.07653">
        <ele>1300.5</ele>
        <time>2023-05-19T06:16:27Z</time>
      </trkpt>
      <trkpt lat="47.90403" lon="7.07645">
        <ele>1298.7</ele>
        <time>2023-05-19T06:16:31Z</time>
      </trkpt>
      <trkpt lat="47.90408" lon="7.0764">
        <ele>1298.4</ele>
        <time>2023-05-19T06:17:03Z</time>
      </trkpt>
      <trkpt lat="47.90416" lon="7.07617">
        <ele>1294.3</ele>
        <time>2023-05-19T06:17:23Z</time>
      </trkpt>
      <trkpt lat="47.90418" lon="7.07611">
        <ele>1293.2</ele>
        <time>2023-05-19T06:17:27Z</time>
      </trkpt>
      <trkpt lat="47.90423" lon="7.07561">
        <ele>1288.5</ele>
        <time>2023-05-19T06:17:48Z</time>
      </trkpt>
      <trkpt lat="47.90426" lon="7.07549">
        <ele>1287.5</ele>
        <time>2023-05-19T06:17:55Z</time>
      </trkpt>
      <trkpt lat="47.90429" lon="7.07543">
        <ele>1287.2</ele>
        <time>2023-05-19T06:18:01Z</time>
      </trkpt>
      <trkpt lat="47.90439" lon="7.07493">
        <ele>1284.5</ele>
        <time>2023-05-19T06:18:25Z</time>
      </trkpt>
      <trkpt lat="47.90439" lon="7.07479">
        <ele>1283.5</ele>
        <time>2023-05-19T06:18:33Z</time>
      </trkpt>
      <trkpt lat="47.90441" lon="7.07472">
        <ele>1283.4</ele>
        <time>2023-05-19T06:18:36Z</time>
      </trkpt>
      <trkpt lat="47.90439" lon="7.07466">
        <ele>1283</ele>
        <time>2023-05-19T06:18:39Z</time>
      </trkpt>
      <trkpt lat="47.90441" lon="7.07458">
        <ele>1283.3</ele>
        <time>2023-05-19T06:18:42Z</time>
      </trkpt>
      <trkpt lat="47.90441" lon="7.07437">
        <ele>1283.5</ele>
        <time>2023-05-19T06:18:51Z</time>
      </trkpt>
      <trkpt lat="47.90445" lon="7.07432">
        <ele>1284.5</ele>
        <time>2023-05-19T06:18:56Z</time>
      </trkpt>
      <trkpt lat="47.90451" lon="7.07413">
        <ele>1285.5</ele>
        <time>2023-05-19T06:19:08Z</time>
      </trkpt>
      <trkpt lat="47.90451" lon="7.07406">
        <ele>1285.5</ele>
        <time>2023-05-19T06:19:11Z</time>
      </trkpt>
      <trkpt lat="47.90452" lon="7.074">
        <ele>1285.5</ele>
        <time>2023-05-19T06:19:15Z</time>
      </trkpt>
      <trkpt lat="47.90452" lon="7.07393">
        <ele>1285.5</ele>
        <time>2023-05-19T06:19:18Z</time>
      </trkpt>
      <trkpt lat="47.90453" lon="7.07387">
        <ele>1285.5</ele>
        <time>2023-05-19T06:19:21Z</time>
      </trkpt>
      <trkpt lat="47.90453" lon="7.07381">
        <ele>1285.1</ele>
        <time>2023-05-19T06:19:24Z</time>
      </trkpt>
      <trkpt lat="47.90455" lon="7.07365">
        <ele>1284.4</ele>
        <time>2023-05-19T06:19:32Z</time>
      </trkpt>
      <trkpt lat="47.90456" lon="7.07351">
        <ele>1283.3</ele>
        <time>2023-05-19T06:19:39Z</time>
      </trkpt>
      <trkpt lat="47.90459" lon="7.07338">
        <ele>1282.5</ele>
        <time>2023-05-19T06:19:46Z</time>
      </trkpt>
      <trkpt lat="47.90457" lon="7.07331">
        <ele>1281.5</ele>
        <time>2023-05-19T06:19:51Z</time>
      </trkpt>
      <trkpt lat="47.90462" lon="7.07315">
        <ele>1279.9</ele>
        <time>2023-05-19T06:20:02Z</time>
      </trkpt>
      <trkpt lat="47.90468" lon="7.07305">
        <ele>1279.3</ele>
        <time>2023-05-19T06:20:10Z</time>
      </trkpt>
      <trkpt lat="47.9047" lon="7.07297">
        <ele>1278.8</ele>
        <time>2023-05-19T06:20:15Z</time>
      </trkpt>
      <trkpt lat="47.90472" lon="7.07292">
        <ele>1278.5</ele>
        <time>2023-05-19T06:20:18Z</time>
      </trkpt>
      <trkpt lat="47.90475" lon="7.07286">
        <ele>1278</ele>
        <time>2023-05-19T06:20:23Z</time>
      </trkpt>
      <trkpt lat="47.9048" lon="7.07277">
        <ele>1277.5</ele>
        <time>2023-05-19T06:20:31Z</time>
      </trkpt>
      <trkpt lat="47.90484" lon="7.07273">
        <ele>1277.5</ele>
        <time>2023-05-19T06:20:34Z</time>
      </trkpt>
      <trkpt lat="47.90487" lon="7.07269">
        <ele>1277.5</ele>
        <time>2023-05-19T06:20:37Z</time>
      </trkpt>
      <trkpt lat="47.90489" lon="7.07261">
        <ele>1277.3</ele>
        <time>2023-05-19T06:20:40Z</time>
      </trkpt>
      <trkpt lat="47.90489" lon="7.07255">
        <ele>1276.9</ele>
        <time>2023-05-19T06:20:44Z</time>
      </trkpt>
      <trkpt lat="47.90492" lon="7.0725">
        <ele>1277.3</ele>
        <time>2023-05-19T06:20:48Z</time>
      </trkpt>
      <trkpt lat="47.90493" lon="7.07243">
        <ele>1276.7</ele>
        <time>2023-05-19T06:20:52Z</time>
      </trkpt>
      <trkpt lat="47.9049" lon="7.07236">
        <ele>1275.3</ele>
        <time>2023-05-19T06:20:56Z</time>
      </trkpt>
      <trkpt lat="47.90493" lon="7.07228">
        <ele>1275.1</ele>
        <time>2023-05-19T06:21:00Z</time>
      </trkpt>
      <trkpt lat="47.90497" lon="7.07224">
        <ele>1275.5</ele>
        <time>2023-05-19T06:21:03Z</time>
      </trkpt>
      <trkpt lat="47.90499" lon="7.07219">
        <ele>1275.2</ele>
        <time>2023-05-19T06:21:07Z</time>
      </trkpt>
      <trkpt lat="47.90499" lon="7.07204">
        <ele>1272.6</ele>
        <time>2023-05-19T06:21:17Z</time>
      </trkpt>
      <trkpt lat="47.90499" lon="7.07197">
        <ele>1271.3</ele>
        <time>2023-05-19T06:21:22Z</time>
      </trkpt>
      <trkpt lat="47.90501" lon="7.07189">
        <ele>1270.8</ele>
        <time>2023-05-19T06:21:26Z</time>
      </trkpt>
      <trkpt lat="47.90501" lon="7.07181">
        <ele>1270.5</ele>
        <time>2023-05-19T06:21:29Z</time>
      </trkpt>
      <trkpt lat="47.90504" lon="7.07167">
        <ele>1269.7</ele>
        <time>2023-05-19T06:21:35Z</time>
      </trkpt>
      <trkpt lat="47.90504" lon="7.07161">
        <ele>1269.1</ele>
        <time>2023-05-19T06:21:38Z</time>
      </trkpt>
      <trkpt lat="47.90508" lon="7.07155">
        <ele>1268.3</ele>
        <time>2023-05-19T06:21:43Z</time>
      </trkpt>
      <trkpt lat="47.90507" lon="7.07146">
        <ele>1267.5</ele>
        <time>2023-05-19T06:21:47Z</time>
      </trkpt>
      <trkpt lat="47.90504" lon="7.07132">
        <ele>1266.1</ele>
        <time>2023-05-19T06:21:54Z</time>
      </trkpt>
      <trkpt lat="47.90505" lon="7.07119">
        <ele>1264.5</ele>
        <time>2023-05-19T06:22:00Z</time>
      </trkpt>
      <trkpt lat="47.90506" lon="7.07111">
        <ele>1263.6</ele>
        <time>2023-05-19T06:22:04Z</time>
      </trkpt>
      <trkpt lat="47.90505" lon="7.07104">
        <ele>1262.6</ele>
        <time>2023-05-19T06:22:07Z</time>
      </trkpt>
      <trkpt lat="47.90507" lon="7.07098">
        <ele>1261.5</ele>
        <time>2023-05-19T06:22:12Z</time>
      </trkpt>
      <trkpt lat="47.90511" lon="7.0709">
        <ele>1259.9</ele>
        <time>2023-05-19T06:22:18Z</time>
      </trkpt>
      <trkpt lat="47.90512" lon="7.07069">
        <ele>1256.3</ele>
        <time>2023-05-19T06:22:30Z</time>
      </trkpt>
      <trkpt lat="47.9051" lon="7.07063">
        <ele>1255.5</ele>
        <time>2023-05-19T06:22:33Z</time>
      </trkpt>
      <trkpt lat="47.90517" lon="7.07054">
        <ele>1253.7</ele>
        <time>2023-05-19T06:22:41Z</time>
      </trkpt>
      <trkpt lat="47.9052" lon="7.07048">
        <ele>1252.9</ele>
        <time>2023-05-19T06:22:45Z</time>
      </trkpt>
      <trkpt lat="47.90528" lon="7.0704">
        <ele>1251.2</ele>
        <time>2023-05-19T06:22:54Z</time>
      </trkpt>
      <trkpt lat="47.90532" lon="7.07041">
        <ele>1250.1</ele>
        <time>2023-05-19T06:22:58Z</time>
      </trkpt>
      <trkpt lat="47.90541" lon="7.07034">
        <ele>1246.4</ele>
        <time>2023-05-19T06:23:07Z</time>
      </trkpt>
      <trkpt lat="47.90546" lon="7.07022">
        <ele>1243.5</ele>
        <time>2023-05-19T06:23:18Z</time>
      </trkpt>
      <trkpt lat="47.90551" lon="7.07018">
        <ele>1241.5</ele>
        <time>2023-05-19T06:23:27Z</time>
      </trkpt>
      <trkpt lat="47.90561" lon="7.07015">
        <ele>1238</ele>
        <time>2023-05-19T06:23:38Z</time>
      </trkpt>
      <trkpt lat="47.90572" lon="7.07009">
        <ele>1234.4</ele>
        <time>2023-05-19T06:23:50Z</time>
      </trkpt>
      <trkpt lat="47.90593" lon="7.07002">
        <ele>1230</ele>
        <time>2023-05-19T06:24:06Z</time>
      </trkpt>
      <trkpt lat="47.90597" lon="7.07003">
        <ele>1229.6</ele>
        <time>2023-05-19T06:24:09Z</time>
      </trkpt>
      <trkpt lat="47.90607" lon="7.07001">
        <ele>1228.4</ele>
        <time>2023-05-19T06:24:16Z</time>
      </trkpt>
      <trkpt lat="47.90649" lon="7.06981">
        <ele>1221.2</ele>
        <time>2023-05-19T06:24:48Z</time>
      </trkpt>
      <trkpt lat="47.90654" lon="7.06979">
        <ele>1220.1</ele>
        <time>2023-05-19T06:24:52Z</time>
      </trkpt>
      <trkpt lat="47.90658" lon="7.06974">
        <ele>1219</ele>
        <time>2023-05-19T06:24:56Z</time>
      </trkpt>
      <trkpt lat="47.90667" lon="7.06969">
        <ele>1216.8</ele>
        <time>2023-05-19T06:25:03Z</time>
      </trkpt>
      <trkpt lat="47.90672" lon="7.06963">
        <ele>1215.7</ele>
        <time>2023-05-19T06:25:07Z</time>
      </trkpt>
      <trkpt lat="47.90673" lon="7.06956">
        <ele>1215.3</ele>
        <time>2023-05-19T06:25:11Z</time>
      </trkpt>
      <trkpt lat="47.90684" lon="7.06937">
        <ele>1212.9</ele>
        <time>2023-05-19T06:25:23Z</time>
      </trkpt>
      <trkpt lat="47.9069" lon="7.06927">
        <ele>1211.8</ele>
        <time>2023-05-19T06:25:29Z</time>
      </trkpt>
      <trkpt lat="47.90711" lon="7.0689">
        <ele>1207.7</ele>
        <time>2023-05-19T06:25:53Z</time>
      </trkpt>
      <trkpt lat="47.90733" lon="7.06867">
        <ele>1204.4</ele>
        <time>2023-05-19T06:26:12Z</time>
      </trkpt>
      <trkpt lat="47.90738" lon="7.06864">
        <ele>1203.7</ele>
        <time>2023-05-19T06:26:16Z</time>
      </trkpt>
      <trkpt lat="47.90778" lon="7.06823">
        <ele>1198</ele>
        <time>2023-05-19T06:26:48Z</time>
      </trkpt>
      <trkpt lat="47.90785" lon="7.06816">
        <ele>1197.5</ele>
        <time>2023-05-19T06:26:54Z</time>
      </trkpt>
      <trkpt lat="47.90788" lon="7.06814">
        <ele>1197.3</ele>
        <time>2023-05-19T06:26:57Z</time>
      </trkpt>
      <trkpt lat="47.90793" lon="7.0681">
        <ele>1196.9</ele>
        <time>2023-05-19T06:27:01Z</time>
      </trkpt>
      <trkpt lat="47.90797" lon="7.06805">
        <ele>1196.6</ele>
        <time>2023-05-19T06:27:05Z</time>
      </trkpt>
      <trkpt lat="47.90806" lon="7.06796">
        <ele>1196</ele>
        <time>2023-05-19T06:27:12Z</time>
      </trkpt>
      <trkpt lat="47.90814" lon="7.0679">
        <ele>1195.7</ele>
        <time>2023-05-19T06:27:19Z</time>
      </trkpt>
      <trkpt lat="47.9082" lon="7.06786">
        <ele>1195.5</ele>
        <time>2023-05-19T06:27:23Z</time>
      </trkpt>
      <trkpt lat="47.90824" lon="7.06781">
        <ele>1195.3</ele>
        <time>2023-05-19T06:27:27Z</time>
      </trkpt>
      <trkpt lat="47.90831" lon="7.06772">
        <ele>1194.9</ele>
        <time>2023-05-19T06:27:34Z</time>
      </trkpt>
      <trkpt lat="47.90836" lon="7.06767">
        <ele>1194.6</ele>
        <time>2023-05-19T06:27:39Z</time>
      </trkpt>
      <trkpt lat="47.90839" lon="7.06764">
        <ele>1194.4</ele>
        <time>2023-05-19T06:27:42Z</time>
      </trkpt>
      <trkpt lat="47.90844" lon="7.06762">
        <ele>1194.3</ele>
        <time>2023-05-19T06:27:46Z</time>
      </trkpt>
      <trkpt lat="47.90849" lon="7.06765">
        <ele>1194.2</ele>
        <time>2023-05-19T06:27:52Z</time>
      </trkpt>
      <trkpt lat="47.90854" lon="7.06765">
        <ele>1194.1</ele>
        <time>2023-05-19T06:27:56Z</time>
      </trkpt>
      <trkpt lat="47.9086" lon="7.06756">
        <ele>1194</ele>
        <time>2023-05-19T06:29:12Z</time>
      </trkpt>
      <trkpt lat="47.90864" lon="7.06752">
        <ele>1194.1</ele>
        <time>2023-05-19T06:29:15Z</time>
      </trkpt>
      <trkpt lat="47.90868" lon="7.06748">
        <ele>1194.2</ele>
        <time>2023-05-19T06:29:19Z</time>
      </trkpt>
      <trkpt lat="47.90872" lon="7.06744">
        <ele>1194.3</ele>
        <time>2023-05-19T06:29:22Z</time>
      </trkpt>
      <trkpt lat="47.90875" lon="7.0674">
        <ele>1194.3</ele>
        <time>2023-05-19T06:29:26Z</time>
      </trkpt>
      <trkpt lat="47.90879" lon="7.06735">
        <ele>1194.5</ele>
        <time>2023-05-19T06:29:30Z</time>
      </trkpt>
      <trkpt lat="47.90883" lon="7.06731">
        <ele>1194.6</ele>
        <time>2023-05-19T06:29:34Z</time>
      </trkpt>
      <trkpt lat="47.90893" lon="7.06723">
        <ele>1195.1</ele>
        <time>2023-05-19T06:29:42Z</time>
      </trkpt>
      <trkpt lat="47.90901" lon="7.06717">
        <ele>1195</ele>
        <time>2023-05-19T06:29:50Z</time>
      </trkpt>
      <trkpt lat="47.90905" lon="7.06714">
        <ele>1194.9</ele>
        <time>2023-05-19T06:29:53Z</time>
      </trkpt>
      <trkpt lat="47.90909" lon="7.0671">
        <ele>1194.7</ele>
        <time>2023-05-19T06:29:56Z</time>
      </trkpt>
      <trkpt lat="47.90913" lon="7.06707">
        <ele>1194.7</ele>
        <time>2023-05-19T06:29:59Z</time>
      </trkpt>
      <trkpt lat="47.9093" lon="7.06689">
        <ele>1195.1</ele>
        <time>2023-05-19T06:30:14Z</time>
      </trkpt>
      <trkpt lat="47.90934" lon="7.06683">
        <ele>1195.3</ele>
        <time>2023-05-19T06:30:18Z</time>
      </trkpt>
      <trkpt lat="47.90952" lon="7.06657">
        <ele>1196.6</ele>
        <time>2023-05-19T06:30:36Z</time>
      </trkpt>
      <trkpt lat="47.90955" lon="7.06651">
        <ele>1196.8</ele>
        <time>2023-05-19T06:30:42Z</time>
      </trkpt>
      <trkpt lat="47.9097" lon="7.06634">
        <ele>1199.3</ele>
        <time>2023-05-19T06:30:57Z</time>
      </trkpt>
      <trkpt lat="47.90973" lon="7.06629">
        <ele>1199.8</ele>
        <time>2023-05-19T06:31:01Z</time>
      </trkpt>
      <trkpt lat="47.90977" lon="7.06625">
        <ele>1200.4</ele>
        <time>2023-05-19T06:31:06Z</time>
      </trkpt>
      <trkpt lat="47.9099" lon="7.06604">
        <ele>1202</ele>
        <time>2023-05-19T06:31:21Z</time>
      </trkpt>
      <trkpt lat="47.90994" lon="7.06598">
        <ele>1202.2</ele>
        <time>2023-05-19T06:31:25Z</time>
      </trkpt>
      <trkpt lat="47.90998" lon="7.06593">
        <ele>1202.6</ele>
        <time>2023-05-19T06:31:29Z</time>
      </trkpt>
      <trkpt lat="47.91003" lon="7.0658">
        <ele>1202</ele>
        <time>2023-05-19T06:31:37Z</time>
      </trkpt>
      <trkpt lat="47.91007" lon="7.06576">
        <ele>1202.1</ele>
        <time>2023-05-19T06:31:40Z</time>
      </trkpt>
      <trkpt lat="47.91013" lon="7.06565">
        <ele>1201.6</ele>
        <time>2023-05-19T06:31:47Z</time>
      </trkpt>
      <trkpt lat="47.9102" lon="7.06552">
        <ele>1201.6</ele>
        <time>2023-05-19T06:31:56Z</time>
      </trkpt>
      <trkpt lat="47.91026" lon="7.06538">
        <ele>1201.3</ele>
        <time>2023-05-19T06:32:04Z</time>
      </trkpt>
      <trkpt lat="47.91029" lon="7.06532">
        <ele>1201.1</ele>
        <time>2023-05-19T06:32:08Z</time>
      </trkpt>
      <trkpt lat="47.91047" lon="7.06503">
        <ele>1201.7</ele>
        <time>2023-05-19T06:32:29Z</time>
      </trkpt>
      <trkpt lat="47.91052" lon="7.06488">
        <ele>1201.2</ele>
        <time>2023-05-19T06:32:37Z</time>
      </trkpt>
      <trkpt lat="47.91058" lon="7.06478">
        <ele>1201.6</ele>
        <time>2023-05-19T06:32:45Z</time>
      </trkpt>
      <trkpt lat="47.91061" lon="7.06473">
        <ele>1201.9</ele>
        <time>2023-05-19T06:32:48Z</time>
      </trkpt>
      <trkpt lat="47.91065" lon="7.0647">
        <ele>1202.7</ele>
        <time>2023-05-19T06:32:53Z</time>
      </trkpt>
      <trkpt lat="47.91068" lon="7.06464">
        <ele>1202.7</ele>
        <time>2023-05-19T06:32:57Z</time>
      </trkpt>
      <trkpt lat="47.91069" lon="7.06457">
        <ele>1201.9</ele>
        <time>2023-05-19T06:33:00Z</time>
      </trkpt>
      <trkpt lat="47.91072" lon="7.06451">
        <ele>1202</ele>
        <time>2023-05-19T06:33:04Z</time>
      </trkpt>
      <trkpt lat="47.91074" lon="7.06445">
        <ele>1201.7</ele>
        <time>2023-05-19T06:33:07Z</time>
      </trkpt>
      <trkpt lat="47.9108" lon="7.06432">
        <ele>1202.4</ele>
        <time>2023-05-19T06:33:15Z</time>
      </trkpt>
      <trkpt lat="47.91084" lon="7.0642">
        <ele>1202.6</ele>
        <time>2023-05-19T06:33:23Z</time>
      </trkpt>
      <trkpt lat="47.91092" lon="7.06396">
        <ele>1201</ele>
        <time>2023-05-19T06:33:37Z</time>
      </trkpt>
      <trkpt lat="47.91096" lon="7.0639">
        <ele>1201.7</ele>
        <time>2023-05-19T06:33:41Z</time>
      </trkpt>
      <trkpt lat="47.91105" lon="7.06374">
        <ele>1203.8</ele>
        <time>2023-05-19T06:33:52Z</time>
      </trkpt>
      <trkpt lat="47.91106" lon="7.06367">
        <ele>1203.4</ele>
        <time>2023-05-19T06:33:55Z</time>
      </trkpt>
      <trkpt lat="47.91112" lon="7.06348">
        <ele>1204.4</ele>
        <time>2023-05-19T06:34:08Z</time>
      </trkpt>
      <trkpt lat="47.91114" lon="7.06342">
        <ele>1204.7</ele>
        <time>2023-05-19T06:34:11Z</time>
      </trkpt>
      <trkpt lat="47.91117" lon="7.0632">
        <ele>1204.5</ele>
        <time>2023-05-19T06:34:24Z</time>
      </trkpt>
      <trkpt lat="47.91116" lon="7.06313">
        <ele>1203.6</ele>
        <time>2023-05-19T06:34:27Z</time>
      </trkpt>
      <trkpt lat="47.91116" lon="7.06306">
        <ele>1203.1</ele>
        <time>2023-05-19T06:34:31Z</time>
      </trkpt>
      <trkpt lat="47.91115" lon="7.06299">
        <ele>1202.5</ele>
        <time>2023-05-19T06:34:35Z</time>
      </trkpt>
      <trkpt lat="47.91117" lon="7.06291">
        <ele>1203.1</ele>
        <time>2023-05-19T06:34:39Z</time>
      </trkpt>
      <trkpt lat="47.91116" lon="7.06284">
        <ele>1202.5</ele>
        <time>2023-05-19T06:34:42Z</time>
      </trkpt>
      <trkpt lat="47.91116" lon="7.06276">
        <ele>1202.2</ele>
        <time>2023-05-19T06:34:46Z</time>
      </trkpt>
      <trkpt lat="47.91117" lon="7.06268">
        <ele>1202.1</ele>
        <time>2023-05-19T06:34:50Z</time>
      </trkpt>
      <trkpt lat="47.91117" lon="7.06252">
        <ele>1201.1</ele>
        <time>2023-05-19T06:34:58Z</time>
      </trkpt>
      <trkpt lat="47.9112" lon="7.0623">
        <ele>1200.1</ele>
        <time>2023-05-19T06:35:10Z</time>
      </trkpt>
      <trkpt lat="47.91122" lon="7.06225">
        <ele>1200.6</ele>
        <time>2023-05-19T06:35:13Z</time>
      </trkpt>
      <trkpt lat="47.91124" lon="7.06217">
        <ele>1201</ele>
        <time>2023-05-19T06:35:17Z</time>
      </trkpt>
      <trkpt lat="47.91124" lon="7.0621">
        <ele>1200.3</ele>
        <time>2023-05-19T06:35:20Z</time>
      </trkpt>
      <trkpt lat="47.91126" lon="7.06202">
        <ele>1200.7</ele>
        <time>2023-05-19T06:35:24Z</time>
      </trkpt>
      <trkpt lat="47.91128" lon="7.06197">
        <ele>1201.4</ele>
        <time>2023-05-19T06:35:28Z</time>
      </trkpt>
      <trkpt lat="47.91129" lon="7.06189">
        <ele>1201</ele>
        <time>2023-05-19T06:35:32Z</time>
      </trkpt>
      <trkpt lat="47.91132" lon="7.06175">
        <ele>1200.8</ele>
        <time>2023-05-19T06:35:39Z</time>
      </trkpt>
      <trkpt lat="47.91135" lon="7.0617">
        <ele>1201.6</ele>
        <time>2023-05-19T06:35:43Z</time>
      </trkpt>
      <trkpt lat="47.91136" lon="7.06163">
        <ele>1201.1</ele>
        <time>2023-05-19T06:35:47Z</time>
      </trkpt>
      <trkpt lat="47.91138" lon="7.06157">
        <ele>1201.2</ele>
        <time>2023-05-19T06:35:51Z</time>
      </trkpt>
      <trkpt lat="47.91142" lon="7.06136">
        <ele>1200</ele>
        <time>2023-05-19T06:36:01Z</time>
      </trkpt>
      <trkpt lat="47.91144" lon="7.0613">
        <ele>1200.2</ele>
        <time>2023-05-19T06:36:07Z</time>
      </trkpt>
      <trkpt lat="47.91148" lon="7.0611">
        <ele>1199.5</ele>
        <time>2023-05-19T06:36:18Z</time>
      </trkpt>
      <trkpt lat="47.9115" lon="7.06104">
        <ele>1199.8</ele>
        <time>2023-05-19T06:36:21Z</time>
      </trkpt>
      <trkpt lat="47.91152" lon="7.06089">
        <ele>1199.2</ele>
        <time>2023-05-19T06:36:28Z</time>
      </trkpt>
      <trkpt lat="47.91153" lon="7.06082">
        <ele>1199</ele>
        <time>2023-05-19T06:36:32Z</time>
      </trkpt>
      <trkpt lat="47.91156" lon="7.06068">
        <ele>1198.9</ele>
        <time>2023-05-19T06:36:40Z</time>
      </trkpt>
      <trkpt lat="47.91158" lon="7.06062">
        <ele>1199.1</ele>
        <time>2023-05-19T06:36:44Z</time>
      </trkpt>
      <trkpt lat="47.91157" lon="7.06055">
        <ele>1198.2</ele>
        <time>2023-05-19T06:36:47Z</time>
      </trkpt>
      <trkpt lat="47.91156" lon="7.06015">
        <ele>1198</ele>
        <time>2023-05-19T06:37:05Z</time>
      </trkpt>
      <trkpt lat="47.91155" lon="7.06007">
        <ele>1198.1</ele>
        <time>2023-05-19T06:37:10Z</time>
      </trkpt>
      <trkpt lat="47.91154" lon="7.06">
        <ele>1198.2</ele>
        <time>2023-05-19T06:37:13Z</time>
      </trkpt>
      <trkpt lat="47.91149" lon="7.05969">
        <ele>1199.9</ele>
        <time>2023-05-19T06:37:32Z</time>
      </trkpt>
      <trkpt lat="47.91142" lon="7.05958">
        <ele>1200.6</ele>
        <time>2023-05-19T06:37:39Z</time>
      </trkpt>
      <trkpt lat="47.91141" lon="7.05951">
        <ele>1201.3</ele>
        <time>2023-05-19T06:37:42Z</time>
      </trkpt>
      <trkpt lat="47.91142" lon="7.05945">
        <ele>1201.8</ele>
        <time>2023-05-19T06:37:45Z</time>
      </trkpt>
      <trkpt lat="47.91141" lon="7.05938">
        <ele>1202.6</ele>
        <time>2023-05-19T06:37:48Z</time>
      </trkpt>
      <trkpt lat="47.91135" lon="7.05922">
        <ele>1203.8</ele>
        <time>2023-05-19T06:37:59Z</time>
      </trkpt>
      <trkpt lat="47.91131" lon="7.05912">
        <ele>1204.6</ele>
        <time>2023-05-19T06:38:07Z</time>
      </trkpt>
      <trkpt lat="47.91125" lon="7.05903">
        <ele>1205.2</ele>
        <time>2023-05-19T06:38:16Z</time>
      </trkpt>
      <trkpt lat="47.91123" lon="7.05896">
        <ele>1206.1</ele>
        <time>2023-05-19T06:38:20Z</time>
      </trkpt>
      <trkpt lat="47.9112" lon="7.05889">
        <ele>1206.9</ele>
        <time>2023-05-19T06:38:26Z</time>
      </trkpt>
      <trkpt lat="47.91114" lon="7.05878">
        <ele>1209</ele>
        <time>2023-05-19T06:38:35Z</time>
      </trkpt>
      <trkpt lat="47.91108" lon="7.05866">
        <ele>1210.4</ele>
        <time>2023-05-19T06:38:47Z</time>
      </trkpt>
      <trkpt lat="47.91103" lon="7.05859">
        <ele>1209.3</ele>
        <time>2023-05-19T06:38:55Z</time>
      </trkpt>
      <trkpt lat="47.91102" lon="7.05853">
        <ele>1209.2</ele>
        <time>2023-05-19T06:38:59Z</time>
      </trkpt>
      <trkpt lat="47.91099" lon="7.05848">
        <ele>1208.1</ele>
        <time>2023-05-19T06:39:03Z</time>
      </trkpt>
      <trkpt lat="47.911" lon="7.05839">
        <ele>1209.1</ele>
        <time>2023-05-19T06:39:05Z</time>
      </trkpt>
      <trkpt lat="47.91101" lon="7.05832">
        <ele>1209.9</ele>
        <time>2023-05-19T06:39:09Z</time>
      </trkpt>
      <trkpt lat="47.91101" lon="7.05824">
        <ele>1210.1</ele>
        <time>2023-05-19T06:39:13Z</time>
      </trkpt>
      <trkpt lat="47.91098" lon="7.05803">
        <ele>1209.6</ele>
        <time>2023-05-19T06:39:22Z</time>
      </trkpt>
      <trkpt lat="47.91097" lon="7.05795">
        <ele>1209.9</ele>
        <time>2023-05-19T06:39:28Z</time>
      </trkpt>
      <trkpt lat="47.91098" lon="7.05787">
        <ele>1211</ele>
        <time>2023-05-19T06:39:33Z</time>
      </trkpt>
      <trkpt lat="47.91094" lon="7.0578">
        <ele>1210</ele>
        <time>2023-05-19T06:39:39Z</time>
      </trkpt>
      <trkpt lat="47.91093" lon="7.05772">
        <ele>1210.3</ele>
        <time>2023-05-19T06:39:44Z</time>
      </trkpt>
      <trkpt lat="47.91091" lon="7.05766">
        <ele>1209.9</ele>
        <time>2023-05-19T06:39:48Z</time>
      </trkpt>
      <trkpt lat="47.91088" lon="7.0576">
        <ele>1208.9</ele>
        <time>2023-05-19T06:39:53Z</time>
      </trkpt>
      <trkpt lat="47.91088" lon="7.05746">
        <ele>1210</ele>
        <time>2023-05-19T06:40:00Z</time>
      </trkpt>
      <trkpt lat="47.91089" lon="7.05739">
        <ele>1211.3</ele>
        <time>2023-05-19T06:40:03Z</time>
      </trkpt>
      <trkpt lat="47.91081" lon="7.05703">
        <ele>1209.4</ele>
        <time>2023-05-19T06:40:30Z</time>
      </trkpt>
      <trkpt lat="47.91082" lon="7.05689">
        <ele>1210.9</ele>
        <time>2023-05-19T06:40:38Z</time>
      </trkpt>
      <trkpt lat="47.91082" lon="7.05681">
        <ele>1211</ele>
        <time>2023-05-19T06:40:42Z</time>
      </trkpt>
      <trkpt lat="47.91081" lon="7.05675">
        <ele>1210.3</ele>
        <time>2023-05-19T06:40:46Z</time>
      </trkpt>
      <trkpt lat="47.91081" lon="7.05668">
        <ele>1210.5</ele>
        <time>2023-05-19T06:40:50Z</time>
      </trkpt>
      <trkpt lat="47.91083" lon="7.05654">
        <ele>1212.3</ele>
        <time>2023-05-19T06:40:59Z</time>
      </trkpt>
      <trkpt lat="47.91082" lon="7.0564">
        <ele>1212.2</ele>
        <time>2023-05-19T06:41:07Z</time>
      </trkpt>
      <trkpt lat="47.9108" lon="7.05634">
        <ele>1211.1</ele>
        <time>2023-05-19T06:41:09Z</time>
      </trkpt>
      <trkpt lat="47.91081" lon="7.05616">
        <ele>1211.2</ele>
        <time>2023-05-19T06:41:17Z</time>
      </trkpt>
      <trkpt lat="47.91081" lon="7.0561">
        <ele>1211</ele>
        <time>2023-05-19T06:41:20Z</time>
      </trkpt>
      <trkpt lat="47.91085" lon="7.05587">
        <ele>1210.6</ele>
        <time>2023-05-19T06:41:31Z</time>
      </trkpt>
      <trkpt lat="47.91084" lon="7.0555">
        <ele>1209.3</ele>
        <time>2023-05-19T06:41:48Z</time>
      </trkpt>
      <trkpt lat="47.91082" lon="7.05535">
        <ele>1209.4</ele>
        <time>2023-05-19T06:41:56Z</time>
      </trkpt>
      <trkpt lat="47.91084" lon="7.05515">
        <ele>1210.5</ele>
        <time>2023-05-19T06:42:08Z</time>
      </trkpt>
      <trkpt lat="47.91081" lon="7.05506">
        <ele>1210.4</ele>
        <time>2023-05-19T06:42:14Z</time>
      </trkpt>
      <trkpt lat="47.9108" lon="7.05484">
        <ele>1210.1</ele>
        <time>2023-05-19T06:42:26Z</time>
      </trkpt>
      <trkpt lat="47.9108" lon="7.05477">
        <ele>1209.9</ele>
        <time>2023-05-19T06:42:30Z</time>
      </trkpt>
      <trkpt lat="47.91078" lon="7.0547">
        <ele>1209.4</ele>
        <time>2023-05-19T06:42:34Z</time>
      </trkpt>
      <trkpt lat="47.91075" lon="7.05412">
        <ele>1203.3</ele>
        <time>2023-05-19T06:43:05Z</time>
      </trkpt>
      <trkpt lat="47.91074" lon="7.05405">
        <ele>1202.4</ele>
        <time>2023-05-19T06:43:09Z</time>
      </trkpt>
      <trkpt lat="47.91075" lon="7.05396">
        <ele>1201.6</ele>
        <time>2023-05-19T06:43:15Z</time>
      </trkpt>
      <trkpt lat="47.91075" lon="7.05389">
        <ele>1200.8</ele>
        <time>2023-05-19T06:43:18Z</time>
      </trkpt>
      <trkpt lat="47.91071" lon="7.05382">
        <ele>1199.7</ele>
        <time>2023-05-19T06:43:22Z</time>
      </trkpt>
      <trkpt lat="47.91069" lon="7.05369">
        <ele>1198.5</ele>
        <time>2023-05-19T06:43:29Z</time>
      </trkpt>
      <trkpt lat="47.91068" lon="7.05347">
        <ele>1196</ele>
        <time>2023-05-19T06:43:41Z</time>
      </trkpt>
      <trkpt lat="47.91067" lon="7.0534">
        <ele>1195.1</ele>
        <time>2023-05-19T06:43:45Z</time>
      </trkpt>
      <trkpt lat="47.91068" lon="7.05332">
        <ele>1194.2</ele>
        <time>2023-05-19T06:43:49Z</time>
      </trkpt>
      <trkpt lat="47.91071" lon="7.05328">
        <ele>1194</ele>
        <time>2023-05-19T06:43:54Z</time>
      </trkpt>
      <trkpt lat="47.91073" lon="7.05322">
        <ele>1193.4</ele>
        <time>2023-05-19T06:43:58Z</time>
      </trkpt>
      <trkpt lat="47.9107" lon="7.05309">
        <ele>1191.5</ele>
        <time>2023-05-19T06:44:07Z</time>
      </trkpt>
      <trkpt lat="47.9107" lon="7.0529">
        <ele>1188.8</ele>
        <time>2023-05-19T06:44:22Z</time>
      </trkpt>
      <trkpt lat="47.91064" lon="7.05277">
        <ele>1186.5</ele>
        <time>2023-05-19T06:44:32Z</time>
      </trkpt>
      <trkpt lat="47.91064" lon="7.0527">
        <ele>1186</ele>
        <time>2023-05-19T06:44:35Z</time>
      </trkpt>
      <trkpt lat="47.91066" lon="7.05256">
        <ele>1184.9</ele>
        <time>2023-05-19T06:44:42Z</time>
      </trkpt>
      <trkpt lat="47.91066" lon="7.05249">
        <ele>1184.3</ele>
        <time>2023-05-19T06:44:46Z</time>
      </trkpt>
      <trkpt lat="47.91064" lon="7.05221">
        <ele>1183.3</ele>
        <time>2023-05-19T06:45:01Z</time>
      </trkpt>
      <trkpt lat="47.91065" lon="7.05207">
        <ele>1183.3</ele>
        <time>2023-05-19T06:45:08Z</time>
      </trkpt>
      <trkpt lat="47.91064" lon="7.0519">
        <ele>1183.6</ele>
        <time>2023-05-19T06:45:16Z</time>
      </trkpt>
      <trkpt lat="47.91065" lon="7.05183">
        <ele>1184.2</ele>
        <time>2023-05-19T06:45:19Z</time>
      </trkpt>
      <trkpt lat="47.91065" lon="7.05175">
        <ele>1184.7</ele>
        <time>2023-05-19T06:45:23Z</time>
      </trkpt>
      <trkpt lat="47.91066" lon="7.05168">
        <ele>1185.3</ele>
        <time>2023-05-19T06:45:28Z</time>
      </trkpt>
      <trkpt lat="47.91066" lon="7.05161">
        <ele>1186.2</ele>
        <time>2023-05-19T06:45:33Z</time>
      </trkpt>
      <trkpt lat="47.91066" lon="7.05153">
        <ele>1187.3</ele>
        <time>2023-05-19T06:45:38Z</time>
      </trkpt>
      <trkpt lat="47.91067" lon="7.05145">
        <ele>1188.5</ele>
        <time>2023-05-19T06:45:44Z</time>
      </trkpt>
      <trkpt lat="47.91067" lon="7.05137">
        <ele>1189.5</ele>
        <time>2023-05-19T06:45:48Z</time>
      </trkpt>
      <trkpt lat="47.91068" lon="7.05131">
        <ele>1190</ele>
        <time>2023-05-19T06:45:52Z</time>
      </trkpt>
      <trkpt lat="47.91071" lon="7.05091">
        <ele>1192.3</ele>
        <time>2023-05-19T06:46:18Z</time>
      </trkpt>
      <trkpt lat="47.91072" lon="7.05084">
        <ele>1192.6</ele>
        <time>2023-05-19T06:46:22Z</time>
      </trkpt>
      <trkpt lat="47.91074" lon="7.05078">
        <ele>1192.5</ele>
        <time>2023-05-19T06:46:26Z</time>
      </trkpt>
      <trkpt lat="47.91081" lon="7.05066">
        <ele>1192.3</ele>
        <time>2023-05-19T06:46:37Z</time>
      </trkpt>
      <trkpt lat="47.91084" lon="7.0506">
        <ele>1192.1</ele>
        <time>2023-05-19T06:46:41Z</time>
      </trkpt>
      <trkpt lat="47.91091" lon="7.05051">
        <ele>1191.4</ele>
        <time>2023-05-19T06:46:49Z</time>
      </trkpt>
      <trkpt lat="47.91095" lon="7.05046">
        <ele>1190.9</ele>
        <time>2023-05-19T06:46:53Z</time>
      </trkpt>
      <trkpt lat="47.91108" lon="7.05033">
        <ele>1189.5</ele>
        <time>2023-05-19T06:47:08Z</time>
      </trkpt>
      <trkpt lat="47.91112" lon="7.05022">
        <ele>1188.1</ele>
        <time>2023-05-19T06:47:15Z</time>
      </trkpt>
      <trkpt lat="47.91114" lon="7.05016">
        <ele>1187.1</ele>
        <time>2023-05-19T06:47:18Z</time>
      </trkpt>
      <trkpt lat="47.91118" lon="7.05015">
        <ele>1186.8</ele>
        <time>2023-05-19T06:47:22Z</time>
      </trkpt>
      <trkpt lat="47.91128" lon="7.05001">
        <ele>1184.5</ele>
        <time>2023-05-19T06:47:34Z</time>
      </trkpt>
      <trkpt lat="47.91131" lon="7.04995">
        <ele>1183.5</ele>
        <time>2023-05-19T06:47:38Z</time>
      </trkpt>
      <trkpt lat="47.91164" lon="7.04952">
        <ele>1177.7</ele>
        <time>2023-05-19T06:48:11Z</time>
      </trkpt>
      <trkpt lat="47.91168" lon="7.0495">
        <ele>1177.6</ele>
        <time>2023-05-19T06:48:14Z</time>
      </trkpt>
      <trkpt lat="47.91172" lon="7.04946">
        <ele>1177.1</ele>
        <time>2023-05-19T06:48:18Z</time>
      </trkpt>
      <trkpt lat="47.91174" lon="7.0494">
        <ele>1176.6</ele>
        <time>2023-05-19T06:48:21Z</time>
      </trkpt>
      <trkpt lat="47.91178" lon="7.04934">
        <ele>1176.3</ele>
        <time>2023-05-19T06:48:25Z</time>
      </trkpt>
      <trkpt lat="47.91183" lon="7.04931">
        <ele>1176.4</ele>
        <time>2023-05-19T06:48:29Z</time>
      </trkpt>
      <trkpt lat="47.91186" lon="7.04925">
        <ele>1176.4</ele>
        <time>2023-05-19T06:48:33Z</time>
      </trkpt>
      <trkpt lat="47.91189" lon="7.0492">
        <ele>1176.5</ele>
        <time>2023-05-19T06:48:36Z</time>
      </trkpt>
      <trkpt lat="47.91193" lon="7.04915">
        <ele>1176.7</ele>
        <time>2023-05-19T06:48:41Z</time>
      </trkpt>
      <trkpt lat="47.91197" lon="7.04912">
        <ele>1176.7</ele>
        <time>2023-05-19T06:48:49Z</time>
      </trkpt>
      <trkpt lat="47.91204" lon="7.04902">
        <ele>1176.5</ele>
        <time>2023-05-19T06:48:59Z</time>
      </trkpt>
      <trkpt lat="47.91208" lon="7.04895">
        <ele>1176.6</ele>
        <time>2023-05-19T06:49:04Z</time>
      </trkpt>
      <trkpt lat="47.91212" lon="7.04891">
        <ele>1176.9</ele>
        <time>2023-05-19T06:49:08Z</time>
      </trkpt>
      <trkpt lat="47.91215" lon="7.04887">
        <ele>1177.1</ele>
        <time>2023-05-19T06:49:12Z</time>
      </trkpt>
      <trkpt lat="47.91221" lon="7.04878">
        <ele>1177.8</ele>
        <time>2023-05-19T06:49:20Z</time>
      </trkpt>
      <trkpt lat="47.91227" lon="7.04869">
        <ele>1178.2</ele>
        <time>2023-05-19T06:49:28Z</time>
      </trkpt>
      <trkpt lat="47.91234" lon="7.04861">
        <ele>1178.8</ele>
        <time>2023-05-19T06:49:35Z</time>
      </trkpt>
      <trkpt lat="47.91241" lon="7.04852">
        <ele>1178.6</ele>
        <time>2023-05-19T06:49:42Z</time>
      </trkpt>
      <trkpt lat="47.91248" lon="7.04842">
        <ele>1179</ele>
        <time>2023-05-19T06:49:51Z</time>
      </trkpt>
      <trkpt lat="47.91254" lon="7.04831">
        <ele>1179.3</ele>
        <time>2023-05-19T06:49:58Z</time>
      </trkpt>
      <trkpt lat="47.91256" lon="7.04819">
        <ele>1179.2</ele>
        <time>2023-05-19T06:50:05Z</time>
      </trkpt>
      <trkpt lat="47.91264" lon="7.04789">
        <ele>1181.3</ele>
        <time>2023-05-19T06:50:24Z</time>
      </trkpt>
      <trkpt lat="47.91266" lon="7.04783">
        <ele>1182.1</ele>
        <time>2023-05-19T06:50:28Z</time>
      </trkpt>
      <trkpt lat="47.91268" lon="7.04777">
        <ele>1182.9</ele>
        <time>2023-05-19T06:50:32Z</time>
      </trkpt>
      <trkpt lat="47.91271" lon="7.04764">
        <ele>1184.7</ele>
        <time>2023-05-19T06:50:41Z</time>
      </trkpt>
      <trkpt lat="47.91282" lon="7.04727">
        <ele>1191.6</ele>
        <time>2023-05-19T06:51:13Z</time>
      </trkpt>
      <trkpt lat="47.91286" lon="7.04714">
        <ele>1192.9</ele>
        <time>2023-05-19T06:51:23Z</time>
      </trkpt>
      <trkpt lat="47.91289" lon="7.04705">
        <ele>1193.3</ele>
        <time>2023-05-19T06:51:30Z</time>
      </trkpt>
      <trkpt lat="47.91293" lon="7.047">
        <ele>1194</ele>
        <time>2023-05-19T06:51:35Z</time>
      </trkpt>
      <trkpt lat="47.91294" lon="7.04693">
        <ele>1193.6</ele>
        <time>2023-05-19T06:51:41Z</time>
      </trkpt>
      <trkpt lat="47.91296" lon="7.04685">
        <ele>1192.3</ele>
        <time>2023-05-19T06:51:46Z</time>
      </trkpt>
      <trkpt lat="47.91301" lon="7.04655">
        <ele>1188.2</ele>
        <time>2023-05-19T06:52:04Z</time>
      </trkpt>
      <trkpt lat="47.91305" lon="7.04647">
        <ele>1188.2</ele>
        <time>2023-05-19T06:52:10Z</time>
      </trkpt>
      <trkpt lat="47.91311" lon="7.04635">
        <ele>1188</ele>
        <time>2023-05-19T06:52:17Z</time>
      </trkpt>
      <trkpt lat="47.91329" lon="7.04593">
        <ele>1185.4</ele>
        <time>2023-05-19T06:52:42Z</time>
      </trkpt>
      <trkpt lat="47.91341" lon="7.04567">
        <ele>1184.2</ele>
        <time>2023-05-19T06:52:57Z</time>
      </trkpt>
      <trkpt lat="47.91344" lon="7.04562">
        <ele>1184.4</ele>
        <time>2023-05-19T06:53:00Z</time>
      </trkpt>
      <trkpt lat="47.91351" lon="7.04543">
        <ele>1184.2</ele>
        <time>2023-05-19T06:53:10Z</time>
      </trkpt>
      <trkpt lat="47.9136" lon="7.04526">
        <ele>1185.1</ele>
        <time>2023-05-19T06:53:22Z</time>
      </trkpt>
      <trkpt lat="47.91364" lon="7.04523">
        <ele>1185.9</ele>
        <time>2023-05-19T06:53:26Z</time>
      </trkpt>
      <trkpt lat="47.91367" lon="7.04518">
        <ele>1185.9</ele>
        <time>2023-05-19T06:53:30Z</time>
      </trkpt>
      <trkpt lat="47.91369" lon="7.04511">
        <ele>1185.1</ele>
        <time>2023-05-19T06:53:34Z</time>
      </trkpt>
      <trkpt lat="47.91373" lon="7.04506">
        <ele>1185.8</ele>
        <time>2023-05-19T06:53:38Z</time>
      </trkpt>
      <trkpt lat="47.91375" lon="7.04498">
        <ele>1185.2</ele>
        <time>2023-05-19T06:53:42Z</time>
      </trkpt>
      <trkpt lat="47.91381" lon="7.04486">
        <ele>1185.7</ele>
        <time>2023-05-19T06:53:49Z</time>
      </trkpt>
      <trkpt lat="47.91392" lon="7.04468">
        <ele>1186.3</ele>
        <time>2023-05-19T06:54:00Z</time>
      </trkpt>
      <trkpt lat="47.91399" lon="7.04461">
        <ele>1187.1</ele>
        <time>2023-05-19T06:54:10Z</time>
      </trkpt>
      <trkpt lat="47.91407" lon="7.04447">
        <ele>1187</ele>
        <time>2023-05-19T06:54:19Z</time>
      </trkpt>
      <trkpt lat="47.91415" lon="7.0444">
        <ele>1187.5</ele>
        <time>2023-05-19T06:54:26Z</time>
      </trkpt>
      <trkpt lat="47.9142" lon="7.0444">
        <ele>1188.6</ele>
        <time>2023-05-19T06:54:30Z</time>
      </trkpt>
      <trkpt lat="47.9145" lon="7.04426">
        <ele>1190.3</ele>
        <time>2023-05-19T06:55:01Z</time>
      </trkpt>
      <trkpt lat="47.91454" lon="7.04424">
        <ele>1190.1</ele>
        <time>2023-05-19T06:55:05Z</time>
      </trkpt>
      <trkpt lat="47.91459" lon="7.04423">
        <ele>1190.4</ele>
        <time>2023-05-19T06:55:08Z</time>
      </trkpt>
      <trkpt lat="47.91465" lon="7.04423">
        <ele>1191</ele>
        <time>2023-05-19T06:55:12Z</time>
      </trkpt>
      <trkpt lat="47.9147" lon="7.04423">
        <ele>1191.6</ele>
        <time>2023-05-19T06:55:16Z</time>
      </trkpt>
      <trkpt lat="47.91479" lon="7.04424">
        <ele>1192.6</ele>
        <time>2023-05-19T06:55:23Z</time>
      </trkpt>
      <trkpt lat="47.91484" lon="7.04424">
        <ele>1193</ele>
        <time>2023-05-19T06:55:27Z</time>
      </trkpt>
      <trkpt lat="47.91514" lon="7.04421">
        <ele>1194.8</ele>
        <time>2023-05-19T06:55:50Z</time>
      </trkpt>
      <trkpt lat="47.91525" lon="7.04419">
        <ele>1195.4</ele>
        <time>2023-05-19T06:55:59Z</time>
      </trkpt>
      <trkpt lat="47.91529" lon="7.04418">
        <ele>1195.5</ele>
        <time>2023-05-19T06:56:03Z</time>
      </trkpt>
      <trkpt lat="47.91538" lon="7.04418">
        <ele>1196.1</ele>
        <time>2023-05-19T06:56:10Z</time>
      </trkpt>
      <trkpt lat="47.91542" lon="7.04414">
        <ele>1195.1</ele>
        <time>2023-05-19T06:56:13Z</time>
      </trkpt>
      <trkpt lat="47.91547" lon="7.04412">
        <ele>1194.8</ele>
        <time>2023-05-19T06:56:17Z</time>
      </trkpt>
      <trkpt lat="47.91552" lon="7.04411">
        <ele>1194.9</ele>
        <time>2023-05-19T06:56:21Z</time>
      </trkpt>
      <trkpt lat="47.91557" lon="7.04407">
        <ele>1194.1</ele>
        <time>2023-05-19T06:56:25Z</time>
      </trkpt>
      <trkpt lat="47.91571" lon="7.04398">
        <ele>1193.4</ele>
        <time>2023-05-19T06:56:36Z</time>
      </trkpt>
      <trkpt lat="47.9158" lon="7.04395">
        <ele>1193.7</ele>
        <time>2023-05-19T06:56:42Z</time>
      </trkpt>
      <trkpt lat="47.91587" lon="7.04388">
        <ele>1192.6</ele>
        <time>2023-05-19T06:56:48Z</time>
      </trkpt>
      <trkpt lat="47.91592" lon="7.04386">
        <ele>1193.2</ele>
        <time>2023-05-19T06:56:51Z</time>
      </trkpt>
      <trkpt lat="47.91597" lon="7.04383">
        <ele>1193.4</ele>
        <time>2023-05-19T06:56:55Z</time>
      </trkpt>
      <trkpt lat="47.9162" lon="7.04375">
        <ele>1196.7</ele>
        <time>2023-05-19T06:57:18Z</time>
      </trkpt>
      <trkpt lat="47.91624" lon="7.0437">
        <ele>1196.1</ele>
        <time>2023-05-19T06:57:22Z</time>
      </trkpt>
      <trkpt lat="47.91629" lon="7.04366">
        <ele>1196.1</ele>
        <time>2023-05-19T06:57:25Z</time>
      </trkpt>
      <trkpt lat="47.91633" lon="7.0436">
        <ele>1195.1</ele>
        <time>2023-05-19T06:57:29Z</time>
      </trkpt>
      <trkpt lat="47.91649" lon="7.04347">
        <ele>1195.4</ele>
        <time>2023-05-19T06:57:46Z</time>
      </trkpt>
      <trkpt lat="47.91659" lon="7.04333">
        <ele>1194.1</ele>
        <time>2023-05-19T06:57:57Z</time>
      </trkpt>
      <trkpt lat="47.91667" lon="7.04325">
        <ele>1194.4</ele>
        <time>2023-05-19T06:58:04Z</time>
      </trkpt>
      <trkpt lat="47.91691" lon="7.04291">
        <ele>1191</ele>
        <time>2023-05-19T06:58:29Z</time>
      </trkpt>
      <trkpt lat="47.91696" lon="7.04289">
        <ele>1192.1</ele>
        <time>2023-05-19T06:58:33Z</time>
      </trkpt>
      <trkpt lat="47.91699" lon="7.04284">
        <ele>1191.5</ele>
        <time>2023-05-19T06:58:37Z</time>
      </trkpt>
      <trkpt lat="47.91704" lon="7.04269">
        <ele>1188.3</ele>
        <time>2023-05-19T06:58:47Z</time>
      </trkpt>
      <trkpt lat="47.91709" lon="7.04262">
        <ele>1187.9</ele>
        <time>2023-05-19T06:58:56Z</time>
      </trkpt>
      <trkpt lat="47.91711" lon="7.04255">
        <ele>1186.6</ele>
        <time>2023-05-19T06:59:00Z</time>
      </trkpt>
      <trkpt lat="47.91715" lon="7.04249">
        <ele>1186.5</ele>
        <time>2023-05-19T06:59:04Z</time>
      </trkpt>
      <trkpt lat="47.91719" lon="7.04235">
        <ele>1183.4</ele>
        <time>2023-05-19T06:59:13Z</time>
      </trkpt>
      <trkpt lat="47.91723" lon="7.04232">
        <ele>1183.8</ele>
        <time>2023-05-19T06:59:17Z</time>
      </trkpt>
      <trkpt lat="47.91727" lon="7.04223">
        <ele>1181.8</ele>
        <time>2023-05-19T06:59:23Z</time>
      </trkpt>
      <trkpt lat="47.91728" lon="7.04217">
        <ele>1180.7</ele>
        <time>2023-05-19T06:59:27Z</time>
      </trkpt>
      <trkpt lat="47.91737" lon="7.04208">
        <ele>1181.4</ele>
        <time>2023-05-19T06:59:35Z</time>
      </trkpt>
      <trkpt lat="47.91741" lon="7.04203">
        <ele>1181.5</ele>
        <time>2023-05-19T06:59:39Z</time>
      </trkpt>
      <trkpt lat="47.91745" lon="7.04199">
        <ele>1181.7</ele>
        <time>2023-05-19T06:59:42Z</time>
      </trkpt>
      <trkpt lat="47.91748" lon="7.04194">
        <ele>1181.3</ele>
        <time>2023-05-19T06:59:45Z</time>
      </trkpt>
      <trkpt lat="47.91755" lon="7.04186">
        <ele>1181.7</ele>
        <time>2023-05-19T06:59:53Z</time>
      </trkpt>
      <trkpt lat="47.91758" lon="7.04181">
        <ele>1181.5</ele>
        <time>2023-05-19T06:59:57Z</time>
      </trkpt>
      <trkpt lat="47.91771" lon="7.04171">
        <ele>1183.7</ele>
        <time>2023-05-19T07:00:10Z</time>
      </trkpt>
      <trkpt lat="47.91776" lon="7.04167">
        <ele>1184.4</ele>
        <time>2023-05-19T07:00:14Z</time>
      </trkpt>
      <trkpt lat="47.91784" lon="7.04162">
        <ele>1185.4</ele>
        <time>2023-05-19T07:00:21Z</time>
      </trkpt>
      <trkpt lat="47.91791" lon="7.04158">
        <ele>1186.4</ele>
        <time>2023-05-19T07:00:28Z</time>
      </trkpt>
      <trkpt lat="47.91795" lon="7.04154">
        <ele>1186.7</ele>
        <time>2023-05-19T07:00:32Z</time>
      </trkpt>
      <trkpt lat="47.91805" lon="7.04145">
        <ele>1188.1</ele>
        <time>2023-05-19T07:00:41Z</time>
      </trkpt>
      <trkpt lat="47.91814" lon="7.04143">
        <ele>1188.8</ele>
        <time>2023-05-19T07:00:48Z</time>
      </trkpt>
      <trkpt lat="47.91818" lon="7.04139">
        <ele>1188.4</ele>
        <time>2023-05-19T07:00:52Z</time>
      </trkpt>
      <trkpt lat="47.91823" lon="7.04139">
        <ele>1188.9</ele>
        <time>2023-05-19T07:00:55Z</time>
      </trkpt>
      <trkpt lat="47.91837" lon="7.0413">
        <ele>1187.5</ele>
        <time>2023-05-19T07:01:07Z</time>
      </trkpt>
      <trkpt lat="47.91841" lon="7.04127">
        <ele>1187</ele>
        <time>2023-05-19T07:01:10Z</time>
      </trkpt>
      <trkpt lat="47.91847" lon="7.04125">
        <ele>1187</ele>
        <time>2023-05-19T07:01:15Z</time>
      </trkpt>
      <trkpt lat="47.91852" lon="7.04123">
        <ele>1186.9</ele>
        <time>2023-05-19T07:01:19Z</time>
      </trkpt>
      <trkpt lat="47.91861" lon="7.04118">
        <ele>1186.2</ele>
        <time>2023-05-19T07:01:27Z</time>
      </trkpt>
      <trkpt lat="47.91866" lon="7.04117">
        <ele>1187</ele>
        <time>2023-05-19T07:01:32Z</time>
      </trkpt>
      <trkpt lat="47.91871" lon="7.04115">
        <ele>1187.4</ele>
        <time>2023-05-19T07:01:36Z</time>
      </trkpt>
      <trkpt lat="47.91875" lon="7.04114">
        <ele>1187.9</ele>
        <time>2023-05-19T07:01:41Z</time>
      </trkpt>
      <trkpt lat="47.91882" lon="7.0411">
        <ele>1188</ele>
        <time>2023-05-19T07:01:48Z</time>
      </trkpt>
      <trkpt lat="47.91888" lon="7.04105">
        <ele>1187</ele>
        <time>2023-05-19T07:01:54Z</time>
      </trkpt>
      <trkpt lat="47.91899" lon="7.04101">
        <ele>1187.1</ele>
        <time>2023-05-19T07:02:03Z</time>
      </trkpt>
      <trkpt lat="47.91903" lon="7.04099">
        <ele>1187</ele>
        <time>2023-05-19T07:02:06Z</time>
      </trkpt>
      <trkpt lat="47.91908" lon="7.04099">
        <ele>1188</ele>
        <time>2023-05-19T07:02:09Z</time>
      </trkpt>
      <trkpt lat="47.91917" lon="7.04094">
        <ele>1187.9</ele>
        <time>2023-05-19T07:02:16Z</time>
      </trkpt>
      <trkpt lat="47.91921" lon="7.04089">
        <ele>1187.1</ele>
        <time>2023-05-19T07:02:19Z</time>
      </trkpt>
      <trkpt lat="47.91926" lon="7.04085">
        <ele>1186.9</ele>
        <time>2023-05-19T07:02:22Z</time>
      </trkpt>
      <trkpt lat="47.9193" lon="7.04083">
        <ele>1187.3</ele>
        <time>2023-05-19T07:02:25Z</time>
      </trkpt>
      <trkpt lat="47.91935" lon="7.04079">
        <ele>1187.2</ele>
        <time>2023-05-19T07:02:31Z</time>
      </trkpt>
      <trkpt lat="47.91939" lon="7.04075">
        <ele>1186.9</ele>
        <time>2023-05-19T07:02:35Z</time>
      </trkpt>
      <trkpt lat="47.9195" lon="7.0407">
        <ele>1188.2</ele>
        <time>2023-05-19T07:02:44Z</time>
      </trkpt>
      <trkpt lat="47.91954" lon="7.04065">
        <ele>1187.7</ele>
        <time>2023-05-19T07:02:48Z</time>
      </trkpt>
      <trkpt lat="47.91959" lon="7.0406">
        <ele>1187.5</ele>
        <time>2023-05-19T07:02:52Z</time>
      </trkpt>
      <trkpt lat="47.91979" lon="7.04047">
        <ele>1188.6</ele>
        <time>2023-05-19T07:03:08Z</time>
      </trkpt>
      <trkpt lat="47.91995" lon="7.04039">
        <ele>1189.8</ele>
        <time>2023-05-19T07:03:21Z</time>
      </trkpt>
      <trkpt lat="47.91999" lon="7.04035">
        <ele>1189.3</ele>
        <time>2023-05-19T07:03:25Z</time>
      </trkpt>
      <trkpt lat="47.92008" lon="7.04032">
        <ele>1190.2</ele>
        <time>2023-05-19T07:03:34Z</time>
      </trkpt>
      <trkpt lat="47.92018" lon="7.04025">
        <ele>1189.9</ele>
        <time>2023-05-19T07:03:42Z</time>
      </trkpt>
      <trkpt lat="47.92023" lon="7.04023">
        <ele>1190.2</ele>
        <time>2023-05-19T07:03:46Z</time>
      </trkpt>
      <trkpt lat="47.92028" lon="7.04018">
        <ele>1189.5</ele>
        <time>2023-05-19T07:03:51Z</time>
      </trkpt>
      <trkpt lat="47.92032" lon="7.04014">
        <ele>1189.1</ele>
        <time>2023-05-19T07:03:54Z</time>
      </trkpt>
      <trkpt lat="47.92036" lon="7.04011">
        <ele>1189</ele>
        <time>2023-05-19T07:03:57Z</time>
      </trkpt>
      <trkpt lat="47.92044" lon="7.04001">
        <ele>1187.4</ele>
        <time>2023-05-19T07:04:05Z</time>
      </trkpt>
      <trkpt lat="47.92048" lon="7.03997">
        <ele>1186.8</ele>
        <time>2023-05-19T07:04:08Z</time>
      </trkpt>
      <trkpt lat="47.92053" lon="7.03996">
        <ele>1187.4</ele>
        <time>2023-05-19T07:04:12Z</time>
      </trkpt>
      <trkpt lat="47.92057" lon="7.03996">
        <ele>1188.2</ele>
        <time>2023-05-19T07:04:16Z</time>
      </trkpt>
      <trkpt lat="47.92062" lon="7.03993">
        <ele>1187.5</ele>
        <time>2023-05-19T07:04:20Z</time>
      </trkpt>
      <trkpt lat="47.92066" lon="7.0399">
        <ele>1186.7</ele>
        <time>2023-05-19T07:04:24Z</time>
      </trkpt>
      <trkpt lat="47.92085" lon="7.03983">
        <ele>1187.1</ele>
        <time>2023-05-19T07:04:40Z</time>
      </trkpt>
      <trkpt lat="47.9209" lon="7.03983">
        <ele>1188.4</ele>
        <time>2023-05-19T07:04:44Z</time>
      </trkpt>
      <trkpt lat="47.92106" lon="7.03972">
        <ele>1188.4</ele>
        <time>2023-05-19T07:04:56Z</time>
      </trkpt>
      <trkpt lat="47.92123" lon="7.03954">
        <ele>1187.7</ele>
        <time>2023-05-19T07:05:11Z</time>
      </trkpt>
      <trkpt lat="47.92133" lon="7.03938">
        <ele>1188.3</ele>
        <time>2023-05-19T07:05:22Z</time>
      </trkpt>
      <trkpt lat="47.92136" lon="7.03931">
        <ele>1188.2</ele>
        <time>2023-05-19T07:05:27Z</time>
      </trkpt>
      <trkpt lat="47.9214" lon="7.03924">
        <ele>1188.2</ele>
        <time>2023-05-19T07:05:35Z</time>
      </trkpt>
      <trkpt lat="47.92155" lon="7.03892">
        <ele>1184.8</ele>
        <time>2023-05-19T07:05:56Z</time>
      </trkpt>
      <trkpt lat="47.92166" lon="7.03877">
        <ele>1185.3</ele>
        <time>2023-05-19T07:06:07Z</time>
      </trkpt>
      <trkpt lat="47.92172" lon="7.03871">
        <ele>1185.2</ele>
        <time>2023-05-19T07:06:14Z</time>
      </trkpt>
      <trkpt lat="47.92175" lon="7.03867">
        <ele>1185</ele>
        <time>2023-05-19T07:06:16Z</time>
      </trkpt>
      <trkpt lat="47.92178" lon="7.03861">
        <ele>1184.2</ele>
        <time>2023-05-19T07:06:19Z</time>
      </trkpt>
      <trkpt lat="47.92187" lon="7.03847">
        <ele>1184.3</ele>
        <time>2023-05-19T07:06:28Z</time>
      </trkpt>
      <trkpt lat="47.92194" lon="7.03837">
        <ele>1184.5</ele>
        <time>2023-05-19T07:06:35Z</time>
      </trkpt>
      <trkpt lat="47.92198" lon="7.03834">
        <ele>1185</ele>
        <time>2023-05-19T07:06:39Z</time>
      </trkpt>
      <trkpt lat="47.92202" lon="7.03828">
        <ele>1184.5</ele>
        <time>2023-05-19T07:06:43Z</time>
      </trkpt>
      <trkpt lat="47.92206" lon="7.03823">
        <ele>1184.2</ele>
        <time>2023-05-19T07:06:47Z</time>
      </trkpt>
      <trkpt lat="47.92221" lon="7.03805">
        <ele>1184.5</ele>
        <time>2023-05-19T07:07:02Z</time>
      </trkpt>
      <trkpt lat="47.92225" lon="7.038">
        <ele>1184.5</ele>
        <time>2023-05-19T07:07:06Z</time>
      </trkpt>
      <trkpt lat="47.92242" lon="7.03766">
        <ele>1183.7</ele>
        <time>2023-05-19T07:07:30Z</time>
      </trkpt>
      <trkpt lat="47.92246" lon="7.03753">
        <ele>1183.1</ele>
        <time>2023-05-19T07:07:39Z</time>
      </trkpt>
      <trkpt lat="47.92247" lon="7.03746">
        <ele>1182</ele>
        <time>2023-05-19T07:07:42Z</time>
      </trkpt>
      <trkpt lat="47.9225" lon="7.0374">
        <ele>1181.5</ele>
        <time>2023-05-19T07:07:46Z</time>
      </trkpt>
      <trkpt lat="47.92262" lon="7.03713">
        <ele>1180</ele>
        <time>2023-05-19T07:08:02Z</time>
      </trkpt>
      <trkpt lat="47.92266" lon="7.03709">
        <ele>1180.8</ele>
        <time>2023-05-19T07:08:06Z</time>
      </trkpt>
      <trkpt lat="47.92269" lon="7.03704">
        <ele>1181</ele>
        <time>2023-05-19T07:08:10Z</time>
      </trkpt>
      <trkpt lat="47.92272" lon="7.03699">
        <ele>1181.1</ele>
        <time>2023-05-19T07:08:14Z</time>
      </trkpt>
      <trkpt lat="47.92278" lon="7.03687">
        <ele>1180.5</ele>
        <time>2023-05-19T07:08:22Z</time>
      </trkpt>
      <trkpt lat="47.92281" lon="7.03681">
        <ele>1180</ele>
        <time>2023-05-19T07:08:25Z</time>
      </trkpt>
      <trkpt lat="47.92283" lon="7.03675">
        <ele>1179.4</ele>
        <time>2023-05-19T07:08:28Z</time>
      </trkpt>
      <trkpt lat="47.92288" lon="7.03661">
        <ele>1179</ele>
        <time>2023-05-19T07:08:36Z</time>
      </trkpt>
      <trkpt lat="47.92291" lon="7.03639">
        <ele>1178.3</ele>
        <time>2023-05-19T07:08:48Z</time>
      </trkpt>
      <trkpt lat="47.92291" lon="7.03593">
        <ele>1177.2</ele>
        <time>2023-05-19T07:09:12Z</time>
      </trkpt>
      <trkpt lat="47.9229" lon="7.03579">
        <ele>1176.7</ele>
        <time>2023-05-19T07:09:20Z</time>
      </trkpt>
      <trkpt lat="47.92284" lon="7.03519">
        <ele>1175.7</ele>
        <time>2023-05-19T07:09:53Z</time>
      </trkpt>
      <trkpt lat="47.92283" lon="7.03511">
        <ele>1175.6</ele>
        <time>2023-05-19T07:09:57Z</time>
      </trkpt>
      <trkpt lat="47.92283" lon="7.03504">
        <ele>1175.6</ele>
        <time>2023-05-19T07:10:01Z</time>
      </trkpt>
      <trkpt lat="47.92282" lon="7.03496">
        <ele>1175.5</ele>
        <time>2023-05-19T07:10:08Z</time>
      </trkpt>
      <trkpt lat="47.92281" lon="7.0349">
        <ele>1175.3</ele>
        <time>2023-05-19T07:10:12Z</time>
      </trkpt>
      <trkpt lat="47.92281" lon="7.03482">
        <ele>1175.3</ele>
        <time>2023-05-19T07:10:17Z</time>
      </trkpt>
      <trkpt lat="47.9228" lon="7.03476">
        <ele>1175.2</ele>
        <time>2023-05-19T07:10:21Z</time>
      </trkpt>
      <trkpt lat="47.92274" lon="7.03469">
        <ele>1174.6</ele>
        <time>2023-05-19T07:10:30Z</time>
      </trkpt>
      <trkpt lat="47.9227" lon="7.0347">
        <ele>1174.2</ele>
        <time>2023-05-19T07:10:35Z</time>
      </trkpt>
      <trkpt lat="47.92265" lon="7.03477">
        <ele>1173.7</ele>
        <time>2023-05-19T07:10:41Z</time>
      </trkpt>
      <trkpt lat="47.92262" lon="7.03476">
        <ele>1173.4</ele>
        <time>2023-05-19T07:10:50Z</time>
      </trkpt>
      <trkpt lat="47.92258" lon="7.0347">
        <ele>1172.9</ele>
        <time>2023-05-19T07:10:56Z</time>
      </trkpt>
      <trkpt lat="47.92255" lon="7.03466">
        <ele>1172.5</ele>
        <time>2023-05-19T07:11:01Z</time>
      </trkpt>
      <trkpt lat="47.92249" lon="7.03466">
        <ele>1171.8</ele>
        <time>2023-05-19T07:11:06Z</time>
      </trkpt>
      <trkpt lat="47.92245" lon="7.03464">
        <ele>1171.2</ele>
        <time>2023-05-19T07:11:10Z</time>
      </trkpt>
      <trkpt lat="47.92242" lon="7.03459">
        <ele>1170.8</ele>
        <time>2023-05-19T07:11:14Z</time>
      </trkpt>
      <trkpt lat="47.92239" lon="7.03454">
        <ele>1170.5</ele>
        <time>2023-05-19T07:11:22Z</time>
      </trkpt>
      <trkpt lat="47.92237" lon="7.03442">
        <ele>1170.6</ele>
        <time>2023-05-19T07:11:36Z</time>
      </trkpt>
      <trkpt lat="47.92243" lon="7.0344">
        <ele>1171.4</ele>
        <time>2023-05-19T07:11:57Z</time>
      </trkpt>
      <trkpt lat="47.92236" lon="7.0345">
        <ele>1170.3</ele>
        <time>2023-05-19T07:12:22Z</time>
      </trkpt>
      <trkpt lat="47.92258" lon="7.03436">
        <ele>1173.2</ele>
        <time>2023-05-19T07:59:59Z</time>
      </trkpt>
      <trkpt lat="47.92262" lon="7.0342">
        <ele>1174.2</ele>
        <time>2023-05-19T08:00:13Z</time>
      </trkpt>
      <trkpt lat="47.92263" lon="7.03411">
        <ele>1174.7</ele>
        <time>2023-05-19T08:00:20Z</time>
      </trkpt>
      <trkpt lat="47.92266" lon="7.034">
        <ele>1175.6</ele>
        <time>2023-05-19T08:00:28Z</time>
      </trkpt>
      <trkpt lat="47.92266" lon="7.03394">
        <ele>1175.9</ele>
        <time>2023-05-19T08:00:33Z</time>
      </trkpt>
      <trkpt lat="47.92269" lon="7.0338">
        <ele>1176.8</ele>
        <time>2023-05-19T08:00:45Z</time>
      </trkpt>
      <trkpt lat="47.92271" lon="7.03366">
        <ele>1177.5</ele>
        <time>2023-05-19T08:00:54Z</time>
      </trkpt>
      <trkpt lat="47.92276" lon="7.03349">
        <ele>1178.8</ele>
        <time>2023-05-19T08:01:06Z</time>
      </trkpt>
      <trkpt lat="47.92277" lon="7.03343">
        <ele>1179.3</ele>
        <time>2023-05-19T08:01:11Z</time>
      </trkpt>
      <trkpt lat="47.92284" lon="7.03307">
        <ele>1181.7</ele>
        <time>2023-05-19T08:01:36Z</time>
      </trkpt>
      <trkpt lat="47.92284" lon="7.03299">
        <ele>1182.2</ele>
        <time>2023-05-19T08:01:41Z</time>
      </trkpt>
      <trkpt lat="47.92293" lon="7.0326">
        <ele>1183.5</ele>
        <time>2023-05-19T08:02:06Z</time>
      </trkpt>
      <trkpt lat="47.92299" lon="7.03232">
        <ele>1183.9</ele>
        <time>2023-05-19T08:02:25Z</time>
      </trkpt>
      <trkpt lat="47.92302" lon="7.0321">
        <ele>1184.6</ele>
        <time>2023-05-19T08:02:37Z</time>
      </trkpt>
      <trkpt lat="47.92316" lon="7.03156">
        <ele>1185.4</ele>
        <time>2023-05-19T08:03:08Z</time>
      </trkpt>
      <trkpt lat="47.9232" lon="7.03143">
        <ele>1185.4</ele>
        <time>2023-05-19T08:03:16Z</time>
      </trkpt>
      <trkpt lat="47.92322" lon="7.03136">
        <ele>1185.5</ele>
        <time>2023-05-19T08:03:20Z</time>
      </trkpt>
      <trkpt lat="47.92325" lon="7.0313">
        <ele>1185.6</ele>
        <time>2023-05-19T08:03:24Z</time>
      </trkpt>
      <trkpt lat="47.92327" lon="7.03123">
        <ele>1185.8</ele>
        <time>2023-05-19T08:03:28Z</time>
      </trkpt>
      <trkpt lat="47.92336" lon="7.03104">
        <ele>1186.3</ele>
        <time>2023-05-19T08:03:40Z</time>
      </trkpt>
      <trkpt lat="47.92347" lon="7.03087">
        <ele>1186.9</ele>
        <time>2023-05-19T08:03:52Z</time>
      </trkpt>
      <trkpt lat="47.92351" lon="7.03084">
        <ele>1187</ele>
        <time>2023-05-19T08:03:58Z</time>
      </trkpt>
      <trkpt lat="47.92365" lon="7.03066">
        <ele>1187.6</ele>
        <time>2023-05-19T08:04:28Z</time>
      </trkpt>
      <trkpt lat="47.92374" lon="7.03058">
        <ele>1187.9</ele>
        <time>2023-05-19T08:04:36Z</time>
      </trkpt>
      <trkpt lat="47.92379" lon="7.03053">
        <ele>1188.2</ele>
        <time>2023-05-19T08:04:41Z</time>
      </trkpt>
      <trkpt lat="47.92382" lon="7.03049">
        <ele>1188.4</ele>
        <time>2023-05-19T08:04:45Z</time>
      </trkpt>
      <trkpt lat="47.92386" lon="7.03045">
        <ele>1188.7</ele>
        <time>2023-05-19T08:04:48Z</time>
      </trkpt>
      <trkpt lat="47.92394" lon="7.03034">
        <ele>1189.5</ele>
        <time>2023-05-19T08:04:57Z</time>
      </trkpt>
      <trkpt lat="47.92398" lon="7.0303">
        <ele>1189.6</ele>
        <time>2023-05-19T08:05:01Z</time>
      </trkpt>
      <trkpt lat="47.92402" lon="7.03027">
        <ele>1189.6</ele>
        <time>2023-05-19T08:05:05Z</time>
      </trkpt>
      <trkpt lat="47.92412" lon="7.03024">
        <ele>1189.4</ele>
        <time>2023-05-19T08:05:12Z</time>
      </trkpt>
      <trkpt lat="47.92416" lon="7.03021">
        <ele>1189.5</ele>
        <time>2023-05-19T08:05:15Z</time>
      </trkpt>
      <trkpt lat="47.92421" lon="7.03021">
        <ele>1189.5</ele>
        <time>2023-05-19T08:05:18Z</time>
      </trkpt>
      <trkpt lat="47.92426" lon="7.03021">
        <ele>1189.5</ele>
        <time>2023-05-19T08:05:21Z</time>
      </trkpt>
      <trkpt lat="47.9243" lon="7.03025">
        <ele>1189.2</ele>
        <time>2023-05-19T08:05:24Z</time>
      </trkpt>
      <trkpt lat="47.92433" lon="7.03029">
        <ele>1188.9</ele>
        <time>2023-05-19T08:05:27Z</time>
      </trkpt>
      <trkpt lat="47.92421" lon="7.02993">
        <ele>1191.5</ele>
        <time>2023-05-19T08:06:37Z</time>
      </trkpt>
      <trkpt lat="47.92425" lon="7.03008">
        <ele>1190.4</ele>
        <time>2023-05-19T08:06:44Z</time>
      </trkpt>
      <trkpt lat="47.92428" lon="7.02996">
        <ele>1191.3</ele>
        <time>2023-05-19T08:06:56Z</time>
      </trkpt>
      <trkpt lat="47.9243" lon="7.0299">
        <ele>1191.9</ele>
        <time>2023-05-19T08:07:01Z</time>
      </trkpt>
      <trkpt lat="47.92432" lon="7.02984">
        <ele>1192.5</ele>
        <time>2023-05-19T08:07:05Z</time>
      </trkpt>
      <trkpt lat="47.92432" lon="7.0296">
        <ele>1194.2</ele>
        <time>2023-05-19T08:07:19Z</time>
      </trkpt>
      <trkpt lat="47.92433" lon="7.02954">
        <ele>1194.5</ele>
        <time>2023-05-19T08:07:23Z</time>
      </trkpt>
      <trkpt lat="47.92436" lon="7.02941">
        <ele>1195.4</ele>
        <time>2023-05-19T08:07:31Z</time>
      </trkpt>
      <trkpt lat="47.92439" lon="7.02937">
        <ele>1195.8</ele>
        <time>2023-05-19T08:07:35Z</time>
      </trkpt>
      <trkpt lat="47.92449" lon="7.02932">
        <ele>1196.6</ele>
        <time>2023-05-19T08:07:43Z</time>
      </trkpt>
      <trkpt lat="47.92454" lon="7.02931">
        <ele>1197</ele>
        <time>2023-05-19T08:07:46Z</time>
      </trkpt>
      <trkpt lat="47.92459" lon="7.0293">
        <ele>1197.4</ele>
        <time>2023-05-19T08:07:51Z</time>
      </trkpt>
      <trkpt lat="47.92464" lon="7.02929">
        <ele>1197.8</ele>
        <time>2023-05-19T08:07:55Z</time>
      </trkpt>
      <trkpt lat="47.92469" lon="7.02929">
        <ele>1198</ele>
        <time>2023-05-19T08:07:59Z</time>
      </trkpt>
      <trkpt lat="47.92473" lon="7.02927">
        <ele>1198.5</ele>
        <time>2023-05-19T08:08:03Z</time>
      </trkpt>
      <trkpt lat="47.92478" lon="7.02927">
        <ele>1198.8</ele>
        <time>2023-05-19T08:08:07Z</time>
      </trkpt>
      <trkpt lat="47.92502" lon="7.02922">
        <ele>1200.9</ele>
        <time>2023-05-19T08:08:29Z</time>
      </trkpt>
      <trkpt lat="47.92507" lon="7.02919">
        <ele>1201.7</ele>
        <time>2023-05-19T08:08:34Z</time>
      </trkpt>
      <trkpt lat="47.92512" lon="7.02917">
        <ele>1202.4</ele>
        <time>2023-05-19T08:08:38Z</time>
      </trkpt>
      <trkpt lat="47.92516" lon="7.02915">
        <ele>1202.9</ele>
        <time>2023-05-19T08:08:42Z</time>
      </trkpt>
      <trkpt lat="47.9255" lon="7.0289">
        <ele>1207.8</ele>
        <time>2023-05-19T08:09:16Z</time>
      </trkpt>
      <trkpt lat="47.92575" lon="7.02869">
        <ele>1211.6</ele>
        <time>2023-05-19T08:09:42Z</time>
      </trkpt>
      <trkpt lat="47.92579" lon="7.02866">
        <ele>1212.1</ele>
        <time>2023-05-19T08:09:45Z</time>
      </trkpt>
      <trkpt lat="47.92583" lon="7.02863">
        <ele>1212.7</ele>
        <time>2023-05-19T08:09:49Z</time>
      </trkpt>
      <trkpt lat="47.92616" lon="7.02834">
        <ele>1215.9</ele>
        <time>2023-05-19T08:10:24Z</time>
      </trkpt>
      <trkpt lat="47.92624" lon="7.02827">
        <ele>1217.2</ele>
        <time>2023-05-19T08:10:32Z</time>
      </trkpt>
      <trkpt lat="47.92635" lon="7.02815">
        <ele>1218.8</ele>
        <time>2023-05-19T08:10:44Z</time>
      </trkpt>
      <trkpt lat="47.92639" lon="7.02811">
        <ele>1219.2</ele>
        <time>2023-05-19T08:10:48Z</time>
      </trkpt>
      <trkpt lat="47.92654" lon="7.02795">
        <ele>1219.8</ele>
        <time>2023-05-19T08:11:05Z</time>
      </trkpt>
      <trkpt lat="47.92661" lon="7.02784">
        <ele>1220.1</ele>
        <time>2023-05-19T08:11:13Z</time>
      </trkpt>
      <trkpt lat="47.92663" lon="7.02778">
        <ele>1220.4</ele>
        <time>2023-05-19T08:11:17Z</time>
      </trkpt>
      <trkpt lat="47.92665" lon="7.0277">
        <ele>1220.5</ele>
        <time>2023-05-19T08:11:21Z</time>
      </trkpt>
      <trkpt lat="47.92667" lon="7.02764">
        <ele>1220.4</ele>
        <time>2023-05-19T08:11:25Z</time>
      </trkpt>
      <trkpt lat="47.92673" lon="7.02745">
        <ele>1220.3</ele>
        <time>2023-05-19T08:11:37Z</time>
      </trkpt>
      <trkpt lat="47.92675" lon="7.02739">
        <ele>1220.2</ele>
        <time>2023-05-19T08:11:41Z</time>
      </trkpt>
      <trkpt lat="47.92677" lon="7.02732">
        <ele>1220.2</ele>
        <time>2023-05-19T08:11:45Z</time>
      </trkpt>
      <trkpt lat="47.92679" lon="7.02724">
        <ele>1220.2</ele>
        <time>2023-05-19T08:11:49Z</time>
      </trkpt>
      <trkpt lat="47.92687" lon="7.02704">
        <ele>1219.7</ele>
        <time>2023-05-19T08:12:00Z</time>
      </trkpt>
      <trkpt lat="47.92689" lon="7.02698">
        <ele>1219.7</ele>
        <time>2023-05-19T08:12:04Z</time>
      </trkpt>
      <trkpt lat="47.92691" lon="7.02691">
        <ele>1219.6</ele>
        <time>2023-05-19T08:12:08Z</time>
      </trkpt>
      <trkpt lat="47.92694" lon="7.02685">
        <ele>1219.4</ele>
        <time>2023-05-19T08:12:12Z</time>
      </trkpt>
      <trkpt lat="47.92696" lon="7.02678">
        <ele>1219.3</ele>
        <time>2023-05-19T08:12:16Z</time>
      </trkpt>
      <trkpt lat="47.92705" lon="7.02659">
        <ele>1219.3</ele>
        <time>2023-05-19T08:12:28Z</time>
      </trkpt>
      <trkpt lat="47.92725" lon="7.02627">
        <ele>1219.9</ele>
        <time>2023-05-19T08:12:51Z</time>
      </trkpt>
      <trkpt lat="47.92728" lon="7.02621">
        <ele>1219.8</ele>
        <time>2023-05-19T08:12:55Z</time>
      </trkpt>
      <trkpt lat="47.9273" lon="7.02606">
        <ele>1221.3</ele>
        <time>2023-05-19T08:13:04Z</time>
      </trkpt>
      <trkpt lat="47.92734" lon="7.02601">
        <ele>1220.9</ele>
        <time>2023-05-19T08:13:08Z</time>
      </trkpt>
      <trkpt lat="47.92752" lon="7.02586">
        <ele>1218.9</ele>
        <time>2023-05-19T08:13:24Z</time>
      </trkpt>
      <trkpt lat="47.92755" lon="7.0258">
        <ele>1219.1</ele>
        <time>2023-05-19T08:13:28Z</time>
      </trkpt>
      <trkpt lat="47.92758" lon="7.02574">
        <ele>1219.1</ele>
        <time>2023-05-19T08:13:32Z</time>
      </trkpt>
      <trkpt lat="47.9276" lon="7.02567">
        <ele>1219.7</ele>
        <time>2023-05-19T08:13:36Z</time>
      </trkpt>
      <trkpt lat="47.92765" lon="7.02546">
        <ele>1221.8</ele>
        <time>2023-05-19T08:13:49Z</time>
      </trkpt>
      <trkpt lat="47.92774" lon="7.02528">
        <ele>1222.1</ele>
        <time>2023-05-19T08:14:01Z</time>
      </trkpt>
      <trkpt lat="47.92785" lon="7.02495">
        <ele>1223</ele>
        <time>2023-05-19T08:14:21Z</time>
      </trkpt>
      <trkpt lat="47.92787" lon="7.0248">
        <ele>1223.5</ele>
        <time>2023-05-19T08:14:29Z</time>
      </trkpt>
      <trkpt lat="47.92789" lon="7.02474">
        <ele>1223.2</ele>
        <time>2023-05-19T08:14:33Z</time>
      </trkpt>
      <trkpt lat="47.92792" lon="7.0246">
        <ele>1223.5</ele>
        <time>2023-05-19T08:14:41Z</time>
      </trkpt>
      <trkpt lat="47.92794" lon="7.02453">
        <ele>1223.5</ele>
        <time>2023-05-19T08:14:45Z</time>
      </trkpt>
      <trkpt lat="47.92799" lon="7.02433">
        <ele>1223.3</ele>
        <time>2023-05-19T08:14:57Z</time>
      </trkpt>
      <trkpt lat="47.92801" lon="7.02426">
        <ele>1223</ele>
        <time>2023-05-19T08:15:01Z</time>
      </trkpt>
      <trkpt lat="47.92803" lon="7.02412">
        <ele>1223.1</ele>
        <time>2023-05-19T08:15:10Z</time>
      </trkpt>
      <trkpt lat="47.92803" lon="7.02381">
        <ele>1225</ele>
        <time>2023-05-19T08:15:26Z</time>
      </trkpt>
      <trkpt lat="47.92805" lon="7.02366">
        <ele>1225</ele>
        <time>2023-05-19T08:15:34Z</time>
      </trkpt>
      <trkpt lat="47.92807" lon="7.0236">
        <ele>1224.6</ele>
        <time>2023-05-19T08:15:38Z</time>
      </trkpt>
      <trkpt lat="47.92808" lon="7.02331">
        <ele>1224.3</ele>
        <time>2023-05-19T08:15:53Z</time>
      </trkpt>
      <trkpt lat="47.92809" lon="7.02272">
        <ele>1224.4</ele>
        <time>2023-05-19T08:16:23Z</time>
      </trkpt>
      <trkpt lat="47.92809" lon="7.02235">
        <ele>1225.2</ele>
        <time>2023-05-19T08:16:43Z</time>
      </trkpt>
      <trkpt lat="47.92807" lon="7.02229">
        <ele>1225.7</ele>
        <time>2023-05-19T08:16:47Z</time>
      </trkpt>
      <trkpt lat="47.92805" lon="7.02223">
        <ele>1226.1</ele>
        <time>2023-05-19T08:16:51Z</time>
      </trkpt>
      <trkpt lat="47.92796" lon="7.02212">
        <ele>1227.5</ele>
        <time>2023-05-19T08:17:01Z</time>
      </trkpt>
      <trkpt lat="47.92793" lon="7.02208">
        <ele>1228</ele>
        <time>2023-05-19T08:17:05Z</time>
      </trkpt>
      <trkpt lat="47.92792" lon="7.022">
        <ele>1228</ele>
        <time>2023-05-19T08:17:09Z</time>
      </trkpt>
      <trkpt lat="47.92792" lon="7.02193">
        <ele>1227.9</ele>
        <time>2023-05-19T08:17:14Z</time>
      </trkpt>
      <trkpt lat="47.92793" lon="7.02186">
        <ele>1227.7</ele>
        <time>2023-05-19T08:17:18Z</time>
      </trkpt>
      <trkpt lat="47.92801" lon="7.02143">
        <ele>1226</ele>
        <time>2023-05-19T08:17:42Z</time>
      </trkpt>
      <trkpt lat="47.92801" lon="7.02136">
        <ele>1225.7</ele>
        <time>2023-05-19T08:17:46Z</time>
      </trkpt>
      <trkpt lat="47.928" lon="7.02129">
        <ele>1225.3</ele>
        <time>2023-05-19T08:17:50Z</time>
      </trkpt>
      <trkpt lat="47.92799" lon="7.02122">
        <ele>1225</ele>
        <time>2023-05-19T08:17:54Z</time>
      </trkpt>
      <trkpt lat="47.92799" lon="7.02115">
        <ele>1224.4</ele>
        <time>2023-05-19T08:17:58Z</time>
      </trkpt>
      <trkpt lat="47.92797" lon="7.02108">
        <ele>1224.5</ele>
        <time>2023-05-19T08:18:02Z</time>
      </trkpt>
      <trkpt lat="47.92796" lon="7.02102">
        <ele>1224.5</ele>
        <time>2023-05-19T08:18:05Z</time>
      </trkpt>
      <trkpt lat="47.92794" lon="7.02094">
        <ele>1224.7</ele>
        <time>2023-05-19T08:18:09Z</time>
      </trkpt>
      <trkpt lat="47.92791" lon="7.02081">
        <ele>1225.1</ele>
        <time>2023-05-19T08:18:16Z</time>
      </trkpt>
      <trkpt lat="47.92787" lon="7.02067">
        <ele>1225.8</ele>
        <time>2023-05-19T08:18:24Z</time>
      </trkpt>
      <trkpt lat="47.92786" lon="7.02061">
        <ele>1225.8</ele>
        <time>2023-05-19T08:18:28Z</time>
      </trkpt>
      <trkpt lat="47.92783" lon="7.02055">
        <ele>1226.7</ele>
        <time>2023-05-19T08:18:31Z</time>
      </trkpt>
      <trkpt lat="47.92782" lon="7.02049">
        <ele>1226.5</ele>
        <time>2023-05-19T08:18:34Z</time>
      </trkpt>
      <trkpt lat="47.92777" lon="7.02036">
        <ele>1227.2</ele>
        <time>2023-05-19T08:18:42Z</time>
      </trkpt>
      <trkpt lat="47.92769" lon="7.02007">
        <ele>1227.5</ele>
        <time>2023-05-19T08:18:59Z</time>
      </trkpt>
      <trkpt lat="47.92767" lon="7.01995">
        <ele>1227.5</ele>
        <time>2023-05-19T08:19:05Z</time>
      </trkpt>
      <trkpt lat="47.92762" lon="7.01974">
        <ele>1228.8</ele>
        <time>2023-05-19T08:19:16Z</time>
      </trkpt>
      <trkpt lat="47.92762" lon="7.01966">
        <ele>1229.1</ele>
        <time>2023-05-19T08:19:21Z</time>
      </trkpt>
      <trkpt lat="47.92765" lon="7.01958">
        <ele>1229</ele>
        <time>2023-05-19T08:19:25Z</time>
      </trkpt>
      <trkpt lat="47.92768" lon="7.01954">
        <ele>1228.8</ele>
        <time>2023-05-19T08:19:28Z</time>
      </trkpt>
      <trkpt lat="47.92772" lon="7.01951">
        <ele>1228.6</ele>
        <time>2023-05-19T08:19:32Z</time>
      </trkpt>
      <trkpt lat="47.92778" lon="7.0195">
        <ele>1227.8</ele>
        <time>2023-05-19T08:19:36Z</time>
      </trkpt>
      <trkpt lat="47.92783" lon="7.01948">
        <ele>1228</ele>
        <time>2023-05-19T08:19:40Z</time>
      </trkpt>
      <trkpt lat="47.92794" lon="7.01944">
        <ele>1228.6</ele>
        <time>2023-05-19T08:19:48Z</time>
      </trkpt>
      <trkpt lat="47.9281" lon="7.01943">
        <ele>1228.7</ele>
        <time>2023-05-19T08:20:00Z</time>
      </trkpt>
      <trkpt lat="47.92831" lon="7.01937">
        <ele>1231.4</ele>
        <time>2023-05-19T08:20:15Z</time>
      </trkpt>
      <trkpt lat="47.92842" lon="7.01936">
        <ele>1231.2</ele>
        <time>2023-05-19T08:20:23Z</time>
      </trkpt>
      <trkpt lat="47.92852" lon="7.01934">
        <ele>1231.2</ele>
        <time>2023-05-19T08:20:31Z</time>
      </trkpt>
      <trkpt lat="47.92858" lon="7.01934">
        <ele>1230.8</ele>
        <time>2023-05-19T08:20:35Z</time>
      </trkpt>
      <trkpt lat="47.92868" lon="7.01935">
        <ele>1230.6</ele>
        <time>2023-05-19T08:20:43Z</time>
      </trkpt>
      <trkpt lat="47.92882" lon="7.01943">
        <ele>1229.8</ele>
        <time>2023-05-19T08:20:54Z</time>
      </trkpt>
      <trkpt lat="47.92887" lon="7.01945">
        <ele>1229.7</ele>
        <time>2023-05-19T08:20:58Z</time>
      </trkpt>
      <trkpt lat="47.92892" lon="7.01947">
        <ele>1229.4</ele>
        <time>2023-05-19T08:21:02Z</time>
      </trkpt>
      <trkpt lat="47.92902" lon="7.01952">
        <ele>1228.5</ele>
        <time>2023-05-19T08:21:10Z</time>
      </trkpt>
      <trkpt lat="47.92907" lon="7.01954">
        <ele>1228.3</ele>
        <time>2023-05-19T08:21:14Z</time>
      </trkpt>
      <trkpt lat="47.92921" lon="7.01959">
        <ele>1227.7</ele>
        <time>2023-05-19T08:21:27Z</time>
      </trkpt>
      <trkpt lat="47.92934" lon="7.01957">
        <ele>1227.2</ele>
        <time>2023-05-19T08:21:42Z</time>
      </trkpt>
      <trkpt lat="47.92963" lon="7.01945">
        <ele>1225.9</ele>
        <time>2023-05-19T08:22:06Z</time>
      </trkpt>
      <trkpt lat="47.92978" lon="7.01944">
        <ele>1224.6</ele>
        <time>2023-05-19T08:22:18Z</time>
      </trkpt>
      <trkpt lat="47.92983" lon="7.01944">
        <ele>1224.2</ele>
        <time>2023-05-19T08:22:21Z</time>
      </trkpt>
      <trkpt lat="47.92988" lon="7.01944">
        <ele>1223.9</ele>
        <time>2023-05-19T08:22:24Z</time>
      </trkpt>
      <trkpt lat="47.92993" lon="7.01944">
        <ele>1223.5</ele>
        <time>2023-05-19T08:22:28Z</time>
      </trkpt>
      <trkpt lat="47.93033" lon="7.01941">
        <ele>1220.9</ele>
        <time>2023-05-19T08:23:00Z</time>
      </trkpt>
      <trkpt lat="47.93072" lon="7.01939">
        <ele>1218.2</ele>
        <time>2023-05-19T08:23:34Z</time>
      </trkpt>
      <trkpt lat="47.93098" lon="7.0194">
        <ele>1215.5</ele>
        <time>2023-05-19T08:23:55Z</time>
      </trkpt>
      <trkpt lat="47.93102" lon="7.01942">
        <ele>1215</ele>
        <time>2023-05-19T08:23:58Z</time>
      </trkpt>
      <trkpt lat="47.93122" lon="7.01943">
        <ele>1213.6</ele>
        <time>2023-05-19T08:24:14Z</time>
      </trkpt>
      <trkpt lat="47.93128" lon="7.01944">
        <ele>1213.4</ele>
        <time>2023-05-19T08:24:19Z</time>
      </trkpt>
      <trkpt lat="47.93133" lon="7.01944">
        <ele>1213.2</ele>
        <time>2023-05-19T08:24:23Z</time>
      </trkpt>
      <trkpt lat="47.93138" lon="7.01946">
        <ele>1213</ele>
        <time>2023-05-19T08:24:27Z</time>
      </trkpt>
      <trkpt lat="47.93152" lon="7.01949">
        <ele>1212.1</ele>
        <time>2023-05-19T08:24:37Z</time>
      </trkpt>
      <trkpt lat="47.93157" lon="7.01952">
        <ele>1211.7</ele>
        <time>2023-05-19T08:24:41Z</time>
      </trkpt>
      <trkpt lat="47.93167" lon="7.01955">
        <ele>1211</ele>
        <time>2023-05-19T08:24:49Z</time>
      </trkpt>
      <trkpt lat="47.93181" lon="7.01956">
        <ele>1210.3</ele>
        <time>2023-05-19T08:25:00Z</time>
      </trkpt>
      <trkpt lat="47.93186" lon="7.01964">
        <ele>1209.8</ele>
        <time>2023-05-19T08:25:12Z</time>
      </trkpt>
      <trkpt lat="47.93191" lon="7.01968">
        <ele>1209.4</ele>
        <time>2023-05-19T08:25:16Z</time>
      </trkpt>
      <trkpt lat="47.93196" lon="7.01969">
        <ele>1209.1</ele>
        <time>2023-05-19T08:25:20Z</time>
      </trkpt>
      <trkpt lat="47.932" lon="7.01971">
        <ele>1209</ele>
        <time>2023-05-19T08:25:24Z</time>
      </trkpt>
      <trkpt lat="47.93205" lon="7.01971">
        <ele>1209</ele>
        <time>2023-05-19T08:25:28Z</time>
      </trkpt>
      <trkpt lat="47.93214" lon="7.0197">
        <ele>1209</ele>
        <time>2023-05-19T08:25:35Z</time>
      </trkpt>
      <trkpt lat="47.93218" lon="7.0197">
        <ele>1209</ele>
        <time>2023-05-19T08:25:39Z</time>
      </trkpt>
      <trkpt lat="47.93239" lon="7.0197">
        <ele>1209.6</ele>
        <time>2023-05-19T08:25:54Z</time>
      </trkpt>
      <trkpt lat="47.93244" lon="7.01971">
        <ele>1209.8</ele>
        <time>2023-05-19T08:25:58Z</time>
      </trkpt>
      <trkpt lat="47.9325" lon="7.01971">
        <ele>1210</ele>
        <time>2023-05-19T08:26:02Z</time>
      </trkpt>
      <trkpt lat="47.93265" lon="7.0197">
        <ele>1210.5</ele>
        <time>2023-05-19T08:26:14Z</time>
      </trkpt>
      <trkpt lat="47.9328" lon="7.01971">
        <ele>1211.2</ele>
        <time>2023-05-19T08:26:26Z</time>
      </trkpt>
      <trkpt lat="47.93285" lon="7.01971">
        <ele>1211.5</ele>
        <time>2023-05-19T08:26:30Z</time>
      </trkpt>
      <trkpt lat="47.9329" lon="7.0197">
        <ele>1211.8</ele>
        <time>2023-05-19T08:26:33Z</time>
      </trkpt>
      <trkpt lat="47.93331" lon="7.01973">
        <ele>1214.9</ele>
        <time>2023-05-19T08:27:05Z</time>
      </trkpt>
      <trkpt lat="47.93336" lon="7.01975">
        <ele>1215.3</ele>
        <time>2023-05-19T08:27:09Z</time>
      </trkpt>
      <trkpt lat="47.93356" lon="7.01981">
        <ele>1216.9</ele>
        <time>2023-05-19T08:27:25Z</time>
      </trkpt>
      <trkpt lat="47.93361" lon="7.01982">
        <ele>1217.3</ele>
        <time>2023-05-19T08:27:29Z</time>
      </trkpt>
      <trkpt lat="47.93366" lon="7.01985">
        <ele>1217.7</ele>
        <time>2023-05-19T08:27:34Z</time>
      </trkpt>
      <trkpt lat="47.9337" lon="7.01985">
        <ele>1217.9</ele>
        <time>2023-05-19T08:27:37Z</time>
      </trkpt>
      <trkpt lat="47.93385" lon="7.01993">
        <ele>1219.3</ele>
        <time>2023-05-19T08:27:50Z</time>
      </trkpt>
      <trkpt lat="47.93389" lon="7.01994">
        <ele>1219.6</ele>
        <time>2023-05-19T08:27:54Z</time>
      </trkpt>
      <trkpt lat="47.93399" lon="7.01999">
        <ele>1219.6</ele>
        <time>2023-05-19T08:28:02Z</time>
      </trkpt>
      <trkpt lat="47.93404" lon="7.02">
        <ele>1219.5</ele>
        <time>2023-05-19T08:28:06Z</time>
      </trkpt>
      <trkpt lat="47.93415" lon="7.02003">
        <ele>1219.2</ele>
        <time>2023-05-19T08:28:14Z</time>
      </trkpt>
      <trkpt lat="47.93419" lon="7.02007">
        <ele>1219.2</ele>
        <time>2023-05-19T08:28:18Z</time>
      </trkpt>
      <trkpt lat="47.93424" lon="7.02008">
        <ele>1219</ele>
        <time>2023-05-19T08:28:22Z</time>
      </trkpt>
      <trkpt lat="47.93433" lon="7.02009">
        <ele>1218.7</ele>
        <time>2023-05-19T08:28:29Z</time>
      </trkpt>
      <trkpt lat="47.93446" lon="7.02021">
        <ele>1218.6</ele>
        <time>2023-05-19T08:28:39Z</time>
      </trkpt>
      <trkpt lat="47.9345" lon="7.02027">
        <ele>1218.6</ele>
        <time>2023-05-19T08:28:43Z</time>
      </trkpt>
      <trkpt lat="47.93453" lon="7.02032">
        <ele>1218.4</ele>
        <time>2023-05-19T08:28:47Z</time>
      </trkpt>
      <trkpt lat="47.93458" lon="7.02037">
        <ele>1218.2</ele>
        <time>2023-05-19T08:28:51Z</time>
      </trkpt>
      <trkpt lat="47.93461" lon="7.02042">
        <ele>1218.1</ele>
        <time>2023-05-19T08:28:55Z</time>
      </trkpt>
      <trkpt lat="47.93466" lon="7.02047">
        <ele>1218</ele>
        <time>2023-05-19T08:28:59Z</time>
      </trkpt>
      <trkpt lat="47.9347" lon="7.0205">
        <ele>1217.9</ele>
        <time>2023-05-19T08:29:02Z</time>
      </trkpt>
      <trkpt lat="47.93479" lon="7.02057">
        <ele>1217.7</ele>
        <time>2023-05-19T08:29:10Z</time>
      </trkpt>
      <trkpt lat="47.93492" lon="7.02067">
        <ele>1216.9</ele>
        <time>2023-05-19T08:29:22Z</time>
      </trkpt>
      <trkpt lat="47.93497" lon="7.02067">
        <ele>1216.7</ele>
        <time>2023-05-19T08:29:27Z</time>
      </trkpt>
      <trkpt lat="47.93507" lon="7.02057">
        <ele>1216.2</ele>
        <time>2023-05-19T08:29:37Z</time>
      </trkpt>
      <trkpt lat="47.93511" lon="7.02054">
        <ele>1215.7</ele>
        <time>2023-05-19T08:29:41Z</time>
      </trkpt>
      <trkpt lat="47.93516" lon="7.02053">
        <ele>1215.1</ele>
        <time>2023-05-19T08:29:45Z</time>
      </trkpt>
      <trkpt lat="47.93526" lon="7.02057">
        <ele>1214.2</ele>
        <time>2023-05-19T08:29:54Z</time>
      </trkpt>
      <trkpt lat="47.9353" lon="7.0206">
        <ele>1213.8</ele>
        <time>2023-05-19T08:29:57Z</time>
      </trkpt>
      <trkpt lat="47.93538" lon="7.02068">
        <ele>1213.3</ele>
        <time>2023-05-19T08:30:04Z</time>
      </trkpt>
      <trkpt lat="47.93543" lon="7.02071">
        <ele>1212.9</ele>
        <time>2023-05-19T08:30:08Z</time>
      </trkpt>
      <trkpt lat="47.93546" lon="7.02077">
        <ele>1212.7</ele>
        <time>2023-05-19T08:30:12Z</time>
      </trkpt>
      <trkpt lat="47.9355" lon="7.02083">
        <ele>1212.4</ele>
        <time>2023-05-19T08:30:16Z</time>
      </trkpt>
      <trkpt lat="47.93558" lon="7.0209">
        <ele>1211.9</ele>
        <time>2023-05-19T08:30:23Z</time>
      </trkpt>
      <trkpt lat="47.93567" lon="7.02098">
        <ele>1211.8</ele>
        <time>2023-05-19T08:30:31Z</time>
      </trkpt>
      <trkpt lat="47.93572" lon="7.02103">
        <ele>1211.8</ele>
        <time>2023-05-19T08:30:35Z</time>
      </trkpt>
      <trkpt lat="47.93589" lon="7.02122">
        <ele>1212</ele>
        <time>2023-05-19T08:30:50Z</time>
      </trkpt>
      <trkpt lat="47.93596" lon="7.02131">
        <ele>1212</ele>
        <time>2023-05-19T08:30:57Z</time>
      </trkpt>
      <trkpt lat="47.93599" lon="7.02136">
        <ele>1212</ele>
        <time>2023-05-19T08:31:00Z</time>
      </trkpt>
      <trkpt lat="47.93602" lon="7.0214">
        <ele>1212</ele>
        <time>2023-05-19T08:31:03Z</time>
      </trkpt>
      <trkpt lat="47.93622" lon="7.02165">
        <ele>1212.9</ele>
        <time>2023-05-19T08:31:22Z</time>
      </trkpt>
      <trkpt lat="47.9363" lon="7.02174">
        <ele>1213</ele>
        <time>2023-05-19T08:31:30Z</time>
      </trkpt>
      <trkpt lat="47.93653" lon="7.02189">
        <ele>1213</ele>
        <time>2023-05-19T08:31:48Z</time>
      </trkpt>
      <trkpt lat="47.93662" lon="7.02195">
        <ele>1213</ele>
        <time>2023-05-19T08:31:57Z</time>
      </trkpt>
      <trkpt lat="47.93667" lon="7.02197">
        <ele>1213</ele>
        <time>2023-05-19T08:32:01Z</time>
      </trkpt>
      <trkpt lat="47.93673" lon="7.022">
        <ele>1213</ele>
        <time>2023-05-19T08:32:05Z</time>
      </trkpt>
      <trkpt lat="47.93678" lon="7.02202">
        <ele>1213</ele>
        <time>2023-05-19T08:32:09Z</time>
      </trkpt>
      <trkpt lat="47.93698" lon="7.02212">
        <ele>1212.8</ele>
        <time>2023-05-19T08:32:25Z</time>
      </trkpt>
      <trkpt lat="47.93708" lon="7.02217">
        <ele>1212.4</ele>
        <time>2023-05-19T08:32:33Z</time>
      </trkpt>
      <trkpt lat="47.93718" lon="7.02221">
        <ele>1212.1</ele>
        <time>2023-05-19T08:32:40Z</time>
      </trkpt>
      <trkpt lat="47.93727" lon="7.02227">
        <ele>1211.7</ele>
        <time>2023-05-19T08:32:47Z</time>
      </trkpt>
      <trkpt lat="47.93732" lon="7.02229">
        <ele>1211.3</ele>
        <time>2023-05-19T08:32:50Z</time>
      </trkpt>
      <trkpt lat="47.93737" lon="7.02232">
        <ele>1210.9</ele>
        <time>2023-05-19T08:32:54Z</time>
      </trkpt>
      <trkpt lat="47.93741" lon="7.02234">
        <ele>1210.6</ele>
        <time>2023-05-19T08:32:57Z</time>
      </trkpt>
      <trkpt lat="47.9375" lon="7.02237">
        <ele>1210</ele>
        <time>2023-05-19T08:33:03Z</time>
      </trkpt>
      <trkpt lat="47.9376" lon="7.02241">
        <ele>1209.9</ele>
        <time>2023-05-19T08:33:11Z</time>
      </trkpt>
      <trkpt lat="47.93764" lon="7.02244">
        <ele>1209.9</ele>
        <time>2023-05-19T08:33:14Z</time>
      </trkpt>
      <trkpt lat="47.93769" lon="7.02245">
        <ele>1209.9</ele>
        <time>2023-05-19T08:33:17Z</time>
      </trkpt>
      <trkpt lat="47.93774" lon="7.02247">
        <ele>1209.9</ele>
        <time>2023-05-19T08:33:21Z</time>
      </trkpt>
      <trkpt lat="47.93783" lon="7.02251">
        <ele>1210</ele>
        <time>2023-05-19T08:33:28Z</time>
      </trkpt>
      <trkpt lat="47.93799" lon="7.02257">
        <ele>1210.2</ele>
        <time>2023-05-19T08:33:40Z</time>
      </trkpt>
      <trkpt lat="47.93804" lon="7.0226">
        <ele>1210.3</ele>
        <time>2023-05-19T08:33:44Z</time>
      </trkpt>
      <trkpt lat="47.93835" lon="7.02272">
        <ele>1211.1</ele>
        <time>2023-05-19T08:34:09Z</time>
      </trkpt>
      <trkpt lat="47.9384" lon="7.02274">
        <ele>1211.5</ele>
        <time>2023-05-19T08:34:13Z</time>
      </trkpt>
      <trkpt lat="47.93851" lon="7.02279">
        <ele>1212.3</ele>
        <time>2023-05-19T08:34:23Z</time>
      </trkpt>
      <trkpt lat="47.93856" lon="7.02281">
        <ele>1212.7</ele>
        <time>2023-05-19T08:34:27Z</time>
      </trkpt>
      <trkpt lat="47.93861" lon="7.02283">
        <ele>1213</ele>
        <time>2023-05-19T08:34:31Z</time>
      </trkpt>
      <trkpt lat="47.93865" lon="7.02285">
        <ele>1213.4</ele>
        <time>2023-05-19T08:34:35Z</time>
      </trkpt>
      <trkpt lat="47.93874" lon="7.02288">
        <ele>1214.4</ele>
        <time>2023-05-19T08:34:43Z</time>
      </trkpt>
      <trkpt lat="47.93882" lon="7.02292">
        <ele>1215.3</ele>
        <time>2023-05-19T08:34:52Z</time>
      </trkpt>
      <trkpt lat="47.93901" lon="7.02299">
        <ele>1216.9</ele>
        <time>2023-05-19T08:35:06Z</time>
      </trkpt>
      <trkpt lat="47.93906" lon="7.02301">
        <ele>1217.2</ele>
        <time>2023-05-19T08:35:10Z</time>
      </trkpt>
      <trkpt lat="47.93944" lon="7.02311">
        <ele>1220</ele>
        <time>2023-05-19T08:35:42Z</time>
      </trkpt>
      <trkpt lat="47.93983" lon="7.02323">
        <ele>1223.4</ele>
        <time>2023-05-19T08:36:15Z</time>
      </trkpt>
      <trkpt lat="47.93999" lon="7.02323">
        <ele>1224.9</ele>
        <time>2023-05-19T08:36:27Z</time>
      </trkpt>
      <trkpt lat="47.94004" lon="7.02324">
        <ele>1225</ele>
        <time>2023-05-19T08:36:31Z</time>
      </trkpt>
      <trkpt lat="47.94025" lon="7.02326">
        <ele>1224.8</ele>
        <time>2023-05-19T08:36:47Z</time>
      </trkpt>
      <trkpt lat="47.94046" lon="7.02327">
        <ele>1223.6</ele>
        <time>2023-05-19T08:37:02Z</time>
      </trkpt>
      <trkpt lat="47.94088" lon="7.02335">
        <ele>1220.5</ele>
        <time>2023-05-19T08:37:34Z</time>
      </trkpt>
      <trkpt lat="47.94093" lon="7.02335">
        <ele>1220</ele>
        <time>2023-05-19T08:37:38Z</time>
      </trkpt>
      <trkpt lat="47.94098" lon="7.02336">
        <ele>1219.5</ele>
        <time>2023-05-19T08:37:42Z</time>
      </trkpt>
      <trkpt lat="47.94112" lon="7.02337">
        <ele>1218.1</ele>
        <time>2023-05-19T08:37:52Z</time>
      </trkpt>
      <trkpt lat="47.94122" lon="7.02339">
        <ele>1217.8</ele>
        <time>2023-05-19T08:37:59Z</time>
      </trkpt>
      <trkpt lat="47.94132" lon="7.0234">
        <ele>1217.5</ele>
        <time>2023-05-19T08:38:06Z</time>
      </trkpt>
      <trkpt lat="47.94148" lon="7.02342">
        <ele>1217.6</ele>
        <time>2023-05-19T08:38:19Z</time>
      </trkpt>
      <trkpt lat="47.94152" lon="7.02343">
        <ele>1217.8</ele>
        <time>2023-05-19T08:38:29Z</time>
      </trkpt>
      <trkpt lat="47.94158" lon="7.02341">
        <ele>1218</ele>
        <time>2023-05-19T08:38:34Z</time>
      </trkpt>
      <trkpt lat="47.94162" lon="7.02342">
        <ele>1218.1</ele>
        <time>2023-05-19T08:38:38Z</time>
      </trkpt>
      <trkpt lat="47.94197" lon="7.02343">
        <ele>1220.6</ele>
        <time>2023-05-19T08:39:07Z</time>
      </trkpt>
      <trkpt lat="47.94202" lon="7.02344">
        <ele>1221.1</ele>
        <time>2023-05-19T08:39:11Z</time>
      </trkpt>
      <trkpt lat="47.94208" lon="7.02343">
        <ele>1221.6</ele>
        <time>2023-05-19T08:39:24Z</time>
      </trkpt>
      <trkpt lat="47.94223" lon="7.02341">
        <ele>1223.1</ele>
        <time>2023-05-19T08:39:36Z</time>
      </trkpt>
      <trkpt lat="47.94233" lon="7.02344">
        <ele>1224.2</ele>
        <time>2023-05-19T08:39:44Z</time>
      </trkpt>
      <trkpt lat="47.94238" lon="7.02345">
        <ele>1224.7</ele>
        <time>2023-05-19T08:39:48Z</time>
      </trkpt>
      <trkpt lat="47.94245" lon="7.02344">
        <ele>1225.5</ele>
        <time>2023-05-19T08:39:52Z</time>
      </trkpt>
      <trkpt lat="47.9426" lon="7.02343">
        <ele>1227.9</ele>
        <time>2023-05-19T08:40:04Z</time>
      </trkpt>
      <trkpt lat="47.94272" lon="7.02339">
        <ele>1230.4</ele>
        <time>2023-05-19T08:40:22Z</time>
      </trkpt>
      <trkpt lat="47.94274" lon="7.02332">
        <ele>1231.2</ele>
        <time>2023-05-19T08:40:27Z</time>
      </trkpt>
      <trkpt lat="47.94279" lon="7.0233">
        <ele>1232.3</ele>
        <time>2023-05-19T08:40:31Z</time>
      </trkpt>
      <trkpt lat="47.9429" lon="7.0233">
        <ele>1234.3</ele>
        <time>2023-05-19T08:40:42Z</time>
      </trkpt>
      <trkpt lat="47.94297" lon="7.02331">
        <ele>1235.5</ele>
        <time>2023-05-19T08:40:51Z</time>
      </trkpt>
      <trkpt lat="47.94305" lon="7.02329">
        <ele>1237.1</ele>
        <time>2023-05-19T08:41:00Z</time>
      </trkpt>
      <trkpt lat="47.94311" lon="7.02329">
        <ele>1238.1</ele>
        <time>2023-05-19T08:41:04Z</time>
      </trkpt>
      <trkpt lat="47.94317" lon="7.02334">
        <ele>1239</ele>
        <time>2023-05-19T08:41:09Z</time>
      </trkpt>
      <trkpt lat="47.94332" lon="7.02326">
        <ele>1241.8</ele>
        <time>2023-05-19T08:41:29Z</time>
      </trkpt>
      <trkpt lat="47.94336" lon="7.02321">
        <ele>1242.5</ele>
        <time>2023-05-19T08:41:34Z</time>
      </trkpt>
      <trkpt lat="47.94356" lon="7.02324">
        <ele>1245.8</ele>
        <time>2023-05-19T08:42:01Z</time>
      </trkpt>
      <trkpt lat="47.94362" lon="7.02327">
        <ele>1246.6</ele>
        <time>2023-05-19T08:42:09Z</time>
      </trkpt>
      <trkpt lat="47.94367" lon="7.02322">
        <ele>1247.8</ele>
        <time>2023-05-19T08:42:17Z</time>
      </trkpt>
      <trkpt lat="47.94383" lon="7.02328">
        <ele>1250.2</ele>
        <time>2023-05-19T08:42:35Z</time>
      </trkpt>
      <trkpt lat="47.94388" lon="7.02327">
        <ele>1251.1</ele>
        <time>2023-05-19T08:42:39Z</time>
      </trkpt>
      <trkpt lat="47.94393" lon="7.02326">
        <ele>1251.7</ele>
        <time>2023-05-19T08:42:44Z</time>
      </trkpt>
      <trkpt lat="47.94397" lon="7.0233">
        <ele>1252</ele>
        <time>2023-05-19T08:42:48Z</time>
      </trkpt>
      <trkpt lat="47.94401" lon="7.02333">
        <ele>1252.3</ele>
        <time>2023-05-19T08:42:52Z</time>
      </trkpt>
      <trkpt lat="47.94409" lon="7.0234">
        <ele>1253</ele>
        <time>2023-05-19T08:43:00Z</time>
      </trkpt>
      <trkpt lat="47.94414" lon="7.02341">
        <ele>1253.5</ele>
        <time>2023-05-19T08:43:04Z</time>
      </trkpt>
      <trkpt lat="47.94419" lon="7.02341">
        <ele>1254</ele>
        <time>2023-05-19T08:43:08Z</time>
      </trkpt>
      <trkpt lat="47.94424" lon="7.02339">
        <ele>1254.6</ele>
        <time>2023-05-19T08:43:12Z</time>
      </trkpt>
      <trkpt lat="47.94432" lon="7.02334">
        <ele>1255.6</ele>
        <time>2023-05-19T08:43:18Z</time>
      </trkpt>
      <trkpt lat="47.94436" lon="7.02331">
        <ele>1256</ele>
        <time>2023-05-19T08:43:23Z</time>
      </trkpt>
      <trkpt lat="47.94443" lon="7.0233">
        <ele>1256.7</ele>
        <time>2023-05-19T08:43:29Z</time>
      </trkpt>
      <trkpt lat="47.94447" lon="7.02327">
        <ele>1257.1</ele>
        <time>2023-05-19T08:43:33Z</time>
      </trkpt>
      <trkpt lat="47.94457" lon="7.02317">
        <ele>1258</ele>
        <time>2023-05-19T08:43:47Z</time>
      </trkpt>
      <trkpt lat="47.94463" lon="7.02315">
        <ele>1258.8</ele>
        <time>2023-05-19T08:43:51Z</time>
      </trkpt>
      <trkpt lat="47.9447" lon="7.02313">
        <ele>1259.7</ele>
        <time>2023-05-19T08:43:59Z</time>
      </trkpt>
      <trkpt lat="47.94479" lon="7.02318">
        <ele>1260.6</ele>
        <time>2023-05-19T08:44:07Z</time>
      </trkpt>
      <trkpt lat="47.94486" lon="7.02326">
        <ele>1261.1</ele>
        <time>2023-05-19T08:44:14Z</time>
      </trkpt>
      <trkpt lat="47.94491" lon="7.0233">
        <ele>1261.4</ele>
        <time>2023-05-19T08:44:18Z</time>
      </trkpt>
      <trkpt lat="47.94496" lon="7.0233">
        <ele>1261.8</ele>
        <time>2023-05-19T08:44:22Z</time>
      </trkpt>
      <trkpt lat="47.945" lon="7.02328">
        <ele>1262.2</ele>
        <time>2023-05-19T08:44:27Z</time>
      </trkpt>
      <trkpt lat="47.94504" lon="7.02321">
        <ele>1262.7</ele>
        <time>2023-05-19T08:44:35Z</time>
      </trkpt>
      <trkpt lat="47.94509" lon="7.02319">
        <ele>1263</ele>
        <time>2023-05-19T08:44:39Z</time>
      </trkpt>
      <trkpt lat="47.94515" lon="7.0231">
        <ele>1263.5</ele>
        <time>2023-05-19T08:44:48Z</time>
      </trkpt>
      <trkpt lat="47.9452" lon="7.02308">
        <ele>1263.7</ele>
        <time>2023-05-19T08:44:52Z</time>
      </trkpt>
      <trkpt lat="47.94535" lon="7.02307">
        <ele>1263.7</ele>
        <time>2023-05-19T08:45:03Z</time>
      </trkpt>
      <trkpt lat="47.9454" lon="7.02307">
        <ele>1263.6</ele>
        <time>2023-05-19T08:45:07Z</time>
      </trkpt>
      <trkpt lat="47.94545" lon="7.02309">
        <ele>1263.4</ele>
        <time>2023-05-19T08:45:11Z</time>
      </trkpt>
      <trkpt lat="47.94549" lon="7.02312">
        <ele>1263.2</ele>
        <time>2023-05-19T08:45:15Z</time>
      </trkpt>
      <trkpt lat="47.94566" lon="7.02314">
        <ele>1262.5</ele>
        <time>2023-05-19T08:45:31Z</time>
      </trkpt>
      <trkpt lat="47.9457" lon="7.02312">
        <ele>1262.2</ele>
        <time>2023-05-19T08:45:35Z</time>
      </trkpt>
      <trkpt lat="47.94574" lon="7.02312">
        <ele>1262</ele>
        <time>2023-05-19T08:45:39Z</time>
      </trkpt>
      <trkpt lat="47.94579" lon="7.02309">
        <ele>1261.5</ele>
        <time>2023-05-19T08:45:43Z</time>
      </trkpt>
      <trkpt lat="47.94584" lon="7.02312">
        <ele>1261.5</ele>
        <time>2023-05-19T08:45:47Z</time>
      </trkpt>
      <trkpt lat="47.94589" lon="7.02312">
        <ele>1261.5</ele>
        <time>2023-05-19T08:45:51Z</time>
      </trkpt>
      <trkpt lat="47.94594" lon="7.0231">
        <ele>1261.4</ele>
        <time>2023-05-19T08:45:57Z</time>
      </trkpt>
      <trkpt lat="47.94604" lon="7.02301">
        <ele>1260.4</ele>
        <time>2023-05-19T08:46:06Z</time>
      </trkpt>
      <trkpt lat="47.94609" lon="7.02299">
        <ele>1260.1</ele>
        <time>2023-05-19T08:46:10Z</time>
      </trkpt>
      <trkpt lat="47.94614" lon="7.02299">
        <ele>1260.1</ele>
        <time>2023-05-19T08:46:13Z</time>
      </trkpt>
      <trkpt lat="47.94623" lon="7.02296">
        <ele>1259.6</ele>
        <time>2023-05-19T08:46:22Z</time>
      </trkpt>
      <trkpt lat="47.94628" lon="7.0229">
        <ele>1258.8</ele>
        <time>2023-05-19T08:46:28Z</time>
      </trkpt>
      <trkpt lat="47.94629" lon="7.02284">
        <ele>1257.9</ele>
        <time>2023-05-19T08:46:32Z</time>
      </trkpt>
      <trkpt lat="47.94628" lon="7.02277">
        <ele>1256.9</ele>
        <time>2023-05-19T08:46:36Z</time>
      </trkpt>
      <trkpt lat="47.94631" lon="7.02271">
        <ele>1256</ele>
        <time>2023-05-19T08:46:41Z</time>
      </trkpt>
      <trkpt lat="47.94656" lon="7.02235">
        <ele>1251.2</ele>
        <time>2023-05-19T08:47:13Z</time>
      </trkpt>
      <trkpt lat="47.94672" lon="7.02216">
        <ele>1247.8</ele>
        <time>2023-05-19T08:47:29Z</time>
      </trkpt>
      <trkpt lat="47.94677" lon="7.02215">
        <ele>1247.9</ele>
        <time>2023-05-19T08:47:32Z</time>
      </trkpt>
      <trkpt lat="47.94686" lon="7.02208">
        <ele>1246.8</ele>
        <time>2023-05-19T08:47:41Z</time>
      </trkpt>
      <trkpt lat="47.94713" lon="7.0218">
        <ele>1241.2</ele>
        <time>2023-05-19T08:48:10Z</time>
      </trkpt>
      <trkpt lat="47.94718" lon="7.02177">
        <ele>1240.7</ele>
        <time>2023-05-19T08:48:13Z</time>
      </trkpt>
      <trkpt lat="47.94725" lon="7.02169">
        <ele>1239</ele>
        <time>2023-05-19T08:48:21Z</time>
      </trkpt>
      <trkpt lat="47.94734" lon="7.02162">
        <ele>1237.8</ele>
        <time>2023-05-19T08:48:29Z</time>
      </trkpt>
      <trkpt lat="47.94741" lon="7.02153">
        <ele>1235.6</ele>
        <time>2023-05-19T08:48:37Z</time>
      </trkpt>
      <trkpt lat="47.94745" lon="7.02151">
        <ele>1235.4</ele>
        <time>2023-05-19T08:48:41Z</time>
      </trkpt>
      <trkpt lat="47.94749" lon="7.02146">
        <ele>1234.2</ele>
        <time>2023-05-19T08:48:47Z</time>
      </trkpt>
      <trkpt lat="47.9476" lon="7.02137">
        <ele>1232.5</ele>
        <time>2023-05-19T08:48:58Z</time>
      </trkpt>
      <trkpt lat="47.94779" lon="7.02117">
        <ele>1228.8</ele>
        <time>2023-05-19T08:49:18Z</time>
      </trkpt>
      <trkpt lat="47.94783" lon="7.02115">
        <ele>1228.7</ele>
        <time>2023-05-19T08:49:22Z</time>
      </trkpt>
      <trkpt lat="47.94787" lon="7.02109">
        <ele>1227.4</ele>
        <time>2023-05-19T08:49:26Z</time>
      </trkpt>
      <trkpt lat="47.94809" lon="7.02089">
        <ele>1224.6</ele>
        <time>2023-05-19T08:49:49Z</time>
      </trkpt>
      <trkpt lat="47.94814" lon="7.02087">
        <ele>1224.2</ele>
        <time>2023-05-19T08:49:53Z</time>
      </trkpt>
      <trkpt lat="47.94817" lon="7.02083">
        <ele>1223.3</ele>
        <time>2023-05-19T08:49:57Z</time>
      </trkpt>
      <trkpt lat="47.94822" lon="7.02082">
        <ele>1223.3</ele>
        <time>2023-05-19T08:50:00Z</time>
      </trkpt>
      <trkpt lat="47.94827" lon="7.0208">
        <ele>1223</ele>
        <time>2023-05-19T08:50:04Z</time>
      </trkpt>
      <trkpt lat="47.94837" lon="7.02076">
        <ele>1222.3</ele>
        <time>2023-05-19T08:50:12Z</time>
      </trkpt>
      <trkpt lat="47.94841" lon="7.02075">
        <ele>1221.9</ele>
        <time>2023-05-19T08:50:16Z</time>
      </trkpt>
      <trkpt lat="47.94845" lon="7.02073">
        <ele>1221.3</ele>
        <time>2023-05-19T08:50:19Z</time>
      </trkpt>
      <trkpt lat="47.94882" lon="7.02054">
        <ele>1215.9</ele>
        <time>2023-05-19T08:50:54Z</time>
      </trkpt>
      <trkpt lat="47.949" lon="7.02047">
        <ele>1213.1</ele>
        <time>2023-05-19T08:51:09Z</time>
      </trkpt>
      <trkpt lat="47.94904" lon="7.02045">
        <ele>1212.3</ele>
        <time>2023-05-19T08:51:13Z</time>
      </trkpt>
      <trkpt lat="47.94909" lon="7.02044">
        <ele>1211.6</ele>
        <time>2023-05-19T08:51:17Z</time>
      </trkpt>
      <trkpt lat="47.94912" lon="7.02042">
        <ele>1211</ele>
        <time>2023-05-19T08:52:02Z</time>
      </trkpt>
      <trkpt lat="47.94939" lon="7.02031">
        <ele>1207.8</ele>
        <time>2023-05-19T08:55:33Z</time>
      </trkpt>
      <trkpt lat="47.9494" lon="7.0203">
        <ele>1207.6</ele>
        <time>2023-05-19T08:55:34Z</time>
      </trkpt>
      <trkpt lat="47.94948" lon="7.02025">
        <ele>1206.4</ele>
        <time>2023-05-19T08:55:41Z</time>
      </trkpt>
      <trkpt lat="47.94952" lon="7.02022">
        <ele>1205.7</ele>
        <time>2023-05-19T08:55:45Z</time>
      </trkpt>
      <trkpt lat="47.94957" lon="7.0202">
        <ele>1205.3</ele>
        <time>2023-05-19T08:55:49Z</time>
      </trkpt>
      <trkpt lat="47.9497" lon="7.02014">
        <ele>1204.1</ele>
        <time>2023-05-19T08:55:59Z</time>
      </trkpt>
      <trkpt lat="47.94977" lon="7.02011">
        <ele>1203.3</ele>
        <time>2023-05-19T08:56:05Z</time>
      </trkpt>
      <trkpt lat="47.94986" lon="7.02009">
        <ele>1202.6</ele>
        <time>2023-05-19T08:56:13Z</time>
      </trkpt>
      <trkpt lat="47.9499" lon="7.02007">
        <ele>1202.2</ele>
        <time>2023-05-19T08:56:17Z</time>
      </trkpt>
      <trkpt lat="47.94995" lon="7.02004">
        <ele>1201.6</ele>
        <time>2023-05-19T08:56:21Z</time>
      </trkpt>
      <trkpt lat="47.95032" lon="7.01987">
        <ele>1197.9</ele>
        <time>2023-05-19T08:56:52Z</time>
      </trkpt>
      <trkpt lat="47.95036" lon="7.01985">
        <ele>1197.4</ele>
        <time>2023-05-19T08:56:56Z</time>
      </trkpt>
      <trkpt lat="47.95061" lon="7.01978">
        <ele>1194.6</ele>
        <time>2023-05-19T08:57:17Z</time>
      </trkpt>
      <trkpt lat="47.95066" lon="7.01977">
        <ele>1194</ele>
        <time>2023-05-19T08:57:21Z</time>
      </trkpt>
      <trkpt lat="47.95073" lon="7.01974">
        <ele>1193</ele>
        <time>2023-05-19T08:57:30Z</time>
      </trkpt>
      <trkpt lat="47.95083" lon="7.01974">
        <ele>1192.3</ele>
        <time>2023-05-19T08:57:37Z</time>
      </trkpt>
      <trkpt lat="47.95088" lon="7.01972">
        <ele>1191.6</ele>
        <time>2023-05-19T08:57:41Z</time>
      </trkpt>
      <trkpt lat="47.95092" lon="7.01972">
        <ele>1191.3</ele>
        <time>2023-05-19T08:57:45Z</time>
      </trkpt>
      <trkpt lat="47.95102" lon="7.0197">
        <ele>1190.3</ele>
        <time>2023-05-19T08:57:53Z</time>
      </trkpt>
      <trkpt lat="47.95107" lon="7.0197">
        <ele>1190</ele>
        <time>2023-05-19T08:57:57Z</time>
      </trkpt>
      <trkpt lat="47.95146" lon="7.01969">
        <ele>1187.5</ele>
        <time>2023-05-19T08:58:27Z</time>
      </trkpt>
      <trkpt lat="47.95149" lon="7.01962">
        <ele>1186.9</ele>
        <time>2023-05-19T08:58:31Z</time>
      </trkpt>
      <trkpt lat="47.95153" lon="7.01957">
        <ele>1186.4</ele>
        <time>2023-05-19T08:58:35Z</time>
      </trkpt>
      <trkpt lat="47.95157" lon="7.01954">
        <ele>1186</ele>
        <time>2023-05-19T08:58:39Z</time>
      </trkpt>
      <trkpt lat="47.95184" lon="7.01934">
        <ele>1184.6</ele>
        <time>2023-05-19T08:59:03Z</time>
      </trkpt>
      <trkpt lat="47.95188" lon="7.0193">
        <ele>1184.5</ele>
        <time>2023-05-19T08:59:07Z</time>
      </trkpt>
      <trkpt lat="47.95193" lon="7.01926">
        <ele>1184.3</ele>
        <time>2023-05-19T08:59:11Z</time>
      </trkpt>
      <trkpt lat="47.95197" lon="7.01926">
        <ele>1184.2</ele>
        <time>2023-05-19T08:59:16Z</time>
      </trkpt>
      <trkpt lat="47.95203" lon="7.01922">
        <ele>1183.8</ele>
        <time>2023-05-19T08:59:28Z</time>
      </trkpt>
      <trkpt lat="47.95208" lon="7.01918">
        <ele>1183.5</ele>
        <time>2023-05-19T08:59:32Z</time>
      </trkpt>
      <trkpt lat="47.95213" lon="7.01916">
        <ele>1183.3</ele>
        <time>2023-05-19T08:59:36Z</time>
      </trkpt>
      <trkpt lat="47.95218" lon="7.01913">
        <ele>1183.1</ele>
        <time>2023-05-19T08:59:40Z</time>
      </trkpt>
      <trkpt lat="47.95222" lon="7.01908">
        <ele>1183</ele>
        <time>2023-05-19T08:59:44Z</time>
      </trkpt>
      <trkpt lat="47.95226" lon="7.01906">
        <ele>1182.8</ele>
        <time>2023-05-19T08:59:48Z</time>
      </trkpt>
      <trkpt lat="47.9523" lon="7.01903">
        <ele>1182.6</ele>
        <time>2023-05-19T08:59:52Z</time>
      </trkpt>
      <trkpt lat="47.95235" lon="7.01901">
        <ele>1182.3</ele>
        <time>2023-05-19T08:59:56Z</time>
      </trkpt>
      <trkpt lat="47.95239" lon="7.01905">
        <ele>1182</ele>
        <time>2023-05-19T08:59:59Z</time>
      </trkpt>
      <trkpt lat="47.95242" lon="7.01933">
        <ele>1181.2</ele>
        <time>2023-05-19T09:00:16Z</time>
      </trkpt>
      <trkpt lat="47.95245" lon="7.01941">
        <ele>1180.6</ele>
        <time>2023-05-19T09:00:19Z</time>
      </trkpt>
      <trkpt lat="47.95242" lon="7.01942">
        <ele>1180.9</ele>
        <time>2023-05-19T09:01:09Z</time>
      </trkpt>
      <trkpt lat="47.95243" lon="7.01898">
        <ele>1182</ele>
        <time>2023-05-19T09:05:03Z</time>
      </trkpt>
      <trkpt lat="47.95244" lon="7.01897">
        <ele>1182</ele>
        <time>2023-05-19T09:05:04Z</time>
      </trkpt>
      <trkpt lat="47.95251" lon="7.01892">
        <ele>1181.7</ele>
        <time>2023-05-19T09:05:12Z</time>
      </trkpt>
      <trkpt lat="47.95255" lon="7.01888">
        <ele>1180.9</ele>
        <time>2023-05-19T09:05:16Z</time>
      </trkpt>
      <trkpt lat="47.95262" lon="7.01882">
        <ele>1179.7</ele>
        <time>2023-05-19T09:05:25Z</time>
      </trkpt>
      <trkpt lat="47.95265" lon="7.01876">
        <ele>1179.5</ele>
        <time>2023-05-19T09:05:29Z</time>
      </trkpt>
      <trkpt lat="47.95266" lon="7.0187">
        <ele>1179.7</ele>
        <time>2023-05-19T09:05:33Z</time>
      </trkpt>
      <trkpt lat="47.95269" lon="7.01863">
        <ele>1179.8</ele>
        <time>2023-05-19T09:05:37Z</time>
      </trkpt>
      <trkpt lat="47.95272" lon="7.01857">
        <ele>1179.9</ele>
        <time>2023-05-19T09:05:41Z</time>
      </trkpt>
      <trkpt lat="47.95275" lon="7.01851">
        <ele>1180</ele>
        <time>2023-05-19T09:05:45Z</time>
      </trkpt>
      <trkpt lat="47.95278" lon="7.01841">
        <ele>1180.3</ele>
        <time>2023-05-19T09:05:54Z</time>
      </trkpt>
      <trkpt lat="47.95281" lon="7.01834">
        <ele>1179.1</ele>
        <time>2023-05-19T09:05:58Z</time>
      </trkpt>
      <trkpt lat="47.95285" lon="7.01818">
        <ele>1178.3</ele>
        <time>2023-05-19T09:06:06Z</time>
      </trkpt>
      <trkpt lat="47.95289" lon="7.01804">
        <ele>1178.2</ele>
        <time>2023-05-19T09:06:15Z</time>
      </trkpt>
      <trkpt lat="47.95292" lon="7.01798">
        <ele>1178</ele>
        <time>2023-05-19T09:06:18Z</time>
      </trkpt>
      <trkpt lat="47.95294" lon="7.01791">
        <ele>1178.5</ele>
        <time>2023-05-19T09:06:22Z</time>
      </trkpt>
      <trkpt lat="47.95296" lon="7.01785">
        <ele>1179.1</ele>
        <time>2023-05-19T09:06:26Z</time>
      </trkpt>
      <trkpt lat="47.953" lon="7.0178">
        <ele>1179.3</ele>
        <time>2023-05-19T09:06:29Z</time>
      </trkpt>
      <trkpt lat="47.95303" lon="7.01775">
        <ele>1179.6</ele>
        <time>2023-05-19T09:06:33Z</time>
      </trkpt>
      <trkpt lat="47.95308" lon="7.01771">
        <ele>1178.5</ele>
        <time>2023-05-19T09:06:36Z</time>
      </trkpt>
      <trkpt lat="47.95309" lon="7.01763">
        <ele>1178.8</ele>
        <time>2023-05-19T09:06:40Z</time>
      </trkpt>
      <trkpt lat="47.95314" lon="7.0175">
        <ele>1178.9</ele>
        <time>2023-05-19T09:06:48Z</time>
      </trkpt>
      <trkpt lat="47.95318" lon="7.01746">
        <ele>1178.3</ele>
        <time>2023-05-19T09:06:51Z</time>
      </trkpt>
      <trkpt lat="47.9532" lon="7.01741">
        <ele>1178.5</ele>
        <time>2023-05-19T09:06:55Z</time>
      </trkpt>
      <trkpt lat="47.95326" lon="7.01733">
        <ele>1178.4</ele>
        <time>2023-05-19T09:07:01Z</time>
      </trkpt>
      <trkpt lat="47.95337" lon="7.01701">
        <ele>1179.4</ele>
        <time>2023-05-19T09:07:22Z</time>
      </trkpt>
      <trkpt lat="47.9534" lon="7.01694">
        <ele>1179.3</ele>
        <time>2023-05-19T09:07:26Z</time>
      </trkpt>
      <trkpt lat="47.95349" lon="7.01675">
        <ele>1178.2</ele>
        <time>2023-05-19T09:07:39Z</time>
      </trkpt>
      <trkpt lat="47.95351" lon="7.01654">
        <ele>1178.7</ele>
        <time>2023-05-19T09:07:50Z</time>
      </trkpt>
      <trkpt lat="47.95348" lon="7.01633">
        <ele>1179.3</ele>
        <time>2023-05-19T09:08:01Z</time>
      </trkpt>
      <trkpt lat="47.95348" lon="7.01618">
        <ele>1179.1</ele>
        <time>2023-05-19T09:08:09Z</time>
      </trkpt>
      <trkpt lat="47.95349" lon="7.01605">
        <ele>1178.8</ele>
        <time>2023-05-19T09:08:16Z</time>
      </trkpt>
      <trkpt lat="47.95351" lon="7.01597">
        <ele>1178.5</ele>
        <time>2023-05-19T09:08:20Z</time>
      </trkpt>
      <trkpt lat="47.95367" lon="7.01536">
        <ele>1176.4</ele>
        <time>2023-05-19T09:08:53Z</time>
      </trkpt>
      <trkpt lat="47.95368" lon="7.01528">
        <ele>1176.3</ele>
        <time>2023-05-19T09:08:57Z</time>
      </trkpt>
      <trkpt lat="47.9537" lon="7.01523">
        <ele>1176.2</ele>
        <time>2023-05-19T09:09:00Z</time>
      </trkpt>
      <trkpt lat="47.95373" lon="7.01514">
        <ele>1176.1</ele>
        <time>2023-05-19T09:09:08Z</time>
      </trkpt>
      <trkpt lat="47.95374" lon="7.01507">
        <ele>1176.1</ele>
        <time>2023-05-19T09:09:12Z</time>
      </trkpt>
      <trkpt lat="47.95375" lon="7.01492">
        <ele>1176</ele>
        <time>2023-05-19T09:09:20Z</time>
      </trkpt>
      <trkpt lat="47.95375" lon="7.01477">
        <ele>1176</ele>
        <time>2023-05-19T09:09:28Z</time>
      </trkpt>
      <trkpt lat="47.95377" lon="7.0147">
        <ele>1176.2</ele>
        <time>2023-05-19T09:09:33Z</time>
      </trkpt>
      <trkpt lat="47.95379" lon="7.01463">
        <ele>1176.3</ele>
        <time>2023-05-19T09:09:37Z</time>
      </trkpt>
      <trkpt lat="47.9538" lon="7.01457">
        <ele>1176.4</ele>
        <time>2023-05-19T09:09:40Z</time>
      </trkpt>
      <trkpt lat="47.95383" lon="7.01451">
        <ele>1176.8</ele>
        <time>2023-05-19T09:09:48Z</time>
      </trkpt>
      <trkpt lat="47.95384" lon="7.01443">
        <ele>1176.9</ele>
        <time>2023-05-19T09:09:52Z</time>
      </trkpt>
      <trkpt lat="47.95385" lon="7.01437">
        <ele>1177.1</ele>
        <time>2023-05-19T09:09:55Z</time>
      </trkpt>
      <trkpt lat="47.95387" lon="7.01422">
        <ele>1177.5</ele>
        <time>2023-05-19T09:10:03Z</time>
      </trkpt>
      <trkpt lat="47.95388" lon="7.01415">
        <ele>1177.7</ele>
        <time>2023-05-19T09:10:07Z</time>
      </trkpt>
      <trkpt lat="47.9539" lon="7.01408">
        <ele>1177.9</ele>
        <time>2023-05-19T09:10:12Z</time>
      </trkpt>
      <trkpt lat="47.95391" lon="7.01401">
        <ele>1177.8</ele>
        <time>2023-05-19T09:10:16Z</time>
      </trkpt>
      <trkpt lat="47.95403" lon="7.01346">
        <ele>1178.7</ele>
        <time>2023-05-19T09:10:46Z</time>
      </trkpt>
      <trkpt lat="47.95405" lon="7.01339">
        <ele>1178.9</ele>
        <time>2023-05-19T09:10:50Z</time>
      </trkpt>
      <trkpt lat="47.95414" lon="7.01311">
        <ele>1179.5</ele>
        <time>2023-05-19T09:11:07Z</time>
      </trkpt>
      <trkpt lat="47.95416" lon="7.01298">
        <ele>1179.2</ele>
        <time>2023-05-19T09:11:14Z</time>
      </trkpt>
      <trkpt lat="47.95428" lon="7.01264">
        <ele>1180.7</ele>
        <time>2023-05-19T09:11:35Z</time>
      </trkpt>
      <trkpt lat="47.95433" lon="7.01252">
        <ele>1181.9</ele>
        <time>2023-05-19T09:11:43Z</time>
      </trkpt>
      <trkpt lat="47.95438" lon="7.01233">
        <ele>1182.3</ele>
        <time>2023-05-19T09:11:55Z</time>
      </trkpt>
      <trkpt lat="47.95441" lon="7.0122">
        <ele>1182.5</ele>
        <time>2023-05-19T09:12:03Z</time>
      </trkpt>
      <trkpt lat="47.95455" lon="7.01163">
        <ele>1184.4</ele>
        <time>2023-05-19T09:12:35Z</time>
      </trkpt>
      <trkpt lat="47.95458" lon="7.01151">
        <ele>1185.3</ele>
        <time>2023-05-19T09:12:42Z</time>
      </trkpt>
      <trkpt lat="47.9546" lon="7.01144">
        <ele>1185.9</ele>
        <time>2023-05-19T09:12:45Z</time>
      </trkpt>
      <trkpt lat="47.95459" lon="7.01137">
        <ele>1185.2</ele>
        <time>2023-05-19T09:12:49Z</time>
      </trkpt>
      <trkpt lat="47.95467" lon="7.01103">
        <ele>1187</ele>
        <time>2023-05-19T09:13:08Z</time>
      </trkpt>
      <trkpt lat="47.95469" lon="7.01098">
        <ele>1187.5</ele>
        <time>2023-05-19T09:13:12Z</time>
      </trkpt>
      <trkpt lat="47.95474" lon="7.01079">
        <ele>1188.5</ele>
        <time>2023-05-19T09:13:23Z</time>
      </trkpt>
      <trkpt lat="47.95478" lon="7.01053">
        <ele>1189.2</ele>
        <time>2023-05-19T09:13:37Z</time>
      </trkpt>
      <trkpt lat="47.9548" lon="7.01033">
        <ele>1189.3</ele>
        <time>2023-05-19T09:13:48Z</time>
      </trkpt>
      <trkpt lat="47.95487" lon="7.00979">
        <ele>1191.9</ele>
        <time>2023-05-19T09:14:19Z</time>
      </trkpt>
      <trkpt lat="47.95491" lon="7.00943">
        <ele>1192.8</ele>
        <time>2023-05-19T09:14:37Z</time>
      </trkpt>
      <trkpt lat="47.95493" lon="7.00938">
        <ele>1193.7</ele>
        <time>2023-05-19T09:14:41Z</time>
      </trkpt>
      <trkpt lat="47.95498" lon="7.00884">
        <ele>1194.8</ele>
        <time>2023-05-19T09:15:09Z</time>
      </trkpt>
      <trkpt lat="47.95501" lon="7.00877">
        <ele>1196</ele>
        <time>2023-05-19T09:15:13Z</time>
      </trkpt>
      <trkpt lat="47.95507" lon="7.00852">
        <ele>1197.9</ele>
        <time>2023-05-19T09:15:28Z</time>
      </trkpt>
      <trkpt lat="47.95508" lon="7.00837">
        <ele>1197.9</ele>
        <time>2023-05-19T09:15:37Z</time>
      </trkpt>
      <trkpt lat="47.95509" lon="7.0083">
        <ele>1198</ele>
        <time>2023-05-19T09:15:40Z</time>
      </trkpt>
      <trkpt lat="47.95511" lon="7.00824">
        <ele>1198.6</ele>
        <time>2023-05-19T09:15:44Z</time>
      </trkpt>
      <trkpt lat="47.95511" lon="7.00815">
        <ele>1198.1</ele>
        <time>2023-05-19T09:15:48Z</time>
      </trkpt>
      <trkpt lat="47.95514" lon="7.00802">
        <ele>1198.7</ele>
        <time>2023-05-19T09:15:56Z</time>
      </trkpt>
      <trkpt lat="47.95514" lon="7.00794">
        <ele>1198</ele>
        <time>2023-05-19T09:16:00Z</time>
      </trkpt>
      <trkpt lat="47.95522" lon="7.00764">
        <ele>1199.2</ele>
        <time>2023-05-19T09:16:19Z</time>
      </trkpt>
      <trkpt lat="47.95525" lon="7.00757">
        <ele>1200.1</ele>
        <time>2023-05-19T09:16:23Z</time>
      </trkpt>
      <trkpt lat="47.95527" lon="7.00737">
        <ele>1199.2</ele>
        <time>2023-05-19T09:16:33Z</time>
      </trkpt>
      <trkpt lat="47.95546" lon="7.00679">
        <ele>1200.8</ele>
        <time>2023-05-19T09:17:05Z</time>
      </trkpt>
      <trkpt lat="47.95547" lon="7.00673">
        <ele>1200.5</ele>
        <time>2023-05-19T09:17:08Z</time>
      </trkpt>
      <trkpt lat="47.95551" lon="7.00666">
        <ele>1201.1</ele>
        <time>2023-05-19T09:17:12Z</time>
      </trkpt>
      <trkpt lat="47.95565" lon="7.00644">
        <ele>1200.7</ele>
        <time>2023-05-19T09:17:27Z</time>
      </trkpt>
      <trkpt lat="47.95567" lon="7.00637">
        <ele>1199.6</ele>
        <time>2023-05-19T09:17:31Z</time>
      </trkpt>
      <trkpt lat="47.95575" lon="7.00629">
        <ele>1199.1</ele>
        <time>2023-05-19T09:17:39Z</time>
      </trkpt>
      <trkpt lat="47.9558" lon="7.00627">
        <ele>1199.5</ele>
        <time>2023-05-19T09:17:44Z</time>
      </trkpt>
      <trkpt lat="47.95584" lon="7.00625">
        <ele>1199.6</ele>
        <time>2023-05-19T09:17:47Z</time>
      </trkpt>
      <trkpt lat="47.95596" lon="7.00621">
        <ele>1200</ele>
        <time>2023-05-19T09:17:55Z</time>
      </trkpt>
      <trkpt lat="47.95601" lon="7.0062">
        <ele>1200.4</ele>
        <time>2023-05-19T09:17:58Z</time>
      </trkpt>
      <trkpt lat="47.95607" lon="7.00622">
        <ele>1201.6</ele>
        <time>2023-05-19T09:18:01Z</time>
      </trkpt>
      <trkpt lat="47.95611" lon="7.00619">
        <ele>1201.3</ele>
        <time>2023-05-19T09:18:03Z</time>
      </trkpt>
      <trkpt lat="47.95613" lon="7.00615">
        <ele>1200.2</ele>
        <time>2023-05-19T09:18:08Z</time>
      </trkpt>
      <trkpt lat="47.9562" lon="7.00617">
        <ele>1201.3</ele>
        <time>2023-05-19T09:18:14Z</time>
      </trkpt>
      <trkpt lat="47.95626" lon="7.00617">
        <ele>1201.7</ele>
        <time>2023-05-19T09:18:19Z</time>
      </trkpt>
      <trkpt lat="47.95631" lon="7.00613">
        <ele>1200.9</ele>
        <time>2023-05-19T09:18:23Z</time>
      </trkpt>
      <trkpt lat="47.95635" lon="7.00612">
        <ele>1200.9</ele>
        <time>2023-05-19T09:18:26Z</time>
      </trkpt>
      <trkpt lat="47.95639" lon="7.00609">
        <ele>1200.5</ele>
        <time>2023-05-19T09:18:29Z</time>
      </trkpt>
      <trkpt lat="47.9565" lon="7.00603">
        <ele>1200.2</ele>
        <time>2023-05-19T09:18:37Z</time>
      </trkpt>
      <trkpt lat="47.95654" lon="7.00601">
        <ele>1200.1</ele>
        <time>2023-05-19T09:18:41Z</time>
      </trkpt>
      <trkpt lat="47.95659" lon="7.00601">
        <ele>1200.6</ele>
        <time>2023-05-19T09:18:45Z</time>
      </trkpt>
      <trkpt lat="47.95662" lon="7.00597">
        <ele>1199.9</ele>
        <time>2023-05-19T09:18:48Z</time>
      </trkpt>
      <trkpt lat="47.95677" lon="7.00591">
        <ele>1200.3</ele>
        <time>2023-05-19T09:19:00Z</time>
      </trkpt>
      <trkpt lat="47.95691" lon="7.00585">
        <ele>1200.9</ele>
        <time>2023-05-19T09:19:11Z</time>
      </trkpt>
      <trkpt lat="47.95713" lon="7.00569">
        <ele>1200.9</ele>
        <time>2023-05-19T09:19:31Z</time>
      </trkpt>
      <trkpt lat="47.95725" lon="7.00558">
        <ele>1200.8</ele>
        <time>2023-05-19T09:19:42Z</time>
      </trkpt>
      <trkpt lat="47.95737" lon="7.00548">
        <ele>1200.6</ele>
        <time>2023-05-19T09:19:51Z</time>
      </trkpt>
      <trkpt lat="47.95742" lon="7.00544">
        <ele>1200.6</ele>
        <time>2023-05-19T09:19:54Z</time>
      </trkpt>
      <trkpt lat="47.95748" lon="7.00539">
        <ele>1200.7</ele>
        <time>2023-05-19T09:20:00Z</time>
      </trkpt>
      <trkpt lat="47.95761" lon="7.00531">
        <ele>1200.7</ele>
        <time>2023-05-19T09:20:10Z</time>
      </trkpt>
      <trkpt lat="47.95769" lon="7.00524">
        <ele>1200.4</ele>
        <time>2023-05-19T09:20:18Z</time>
      </trkpt>
      <trkpt lat="47.95775" lon="7.00522">
        <ele>1200.8</ele>
        <time>2023-05-19T09:20:22Z</time>
      </trkpt>
      <trkpt lat="47.95783" lon="7.00516">
        <ele>1201.1</ele>
        <time>2023-05-19T09:20:30Z</time>
      </trkpt>
      <trkpt lat="47.95792" lon="7.0051">
        <ele>1201.8</ele>
        <time>2023-05-19T09:20:37Z</time>
      </trkpt>
      <trkpt lat="47.95821" lon="7.00494">
        <ele>1203.9</ele>
        <time>2023-05-19T09:21:02Z</time>
      </trkpt>
      <trkpt lat="47.95825" lon="7.00493">
        <ele>1204.3</ele>
        <time>2023-05-19T09:21:05Z</time>
      </trkpt>
      <trkpt lat="47.9583" lon="7.00491">
        <ele>1204.6</ele>
        <time>2023-05-19T09:21:08Z</time>
      </trkpt>
      <trkpt lat="47.95834" lon="7.00488">
        <ele>1204.7</ele>
        <time>2023-05-19T09:21:12Z</time>
      </trkpt>
      <trkpt lat="47.95839" lon="7.00489">
        <ele>1205.1</ele>
        <time>2023-05-19T09:21:16Z</time>
      </trkpt>
      <trkpt lat="47.95848" lon="7.00485">
        <ele>1205.2</ele>
        <time>2023-05-19T09:21:23Z</time>
      </trkpt>
      <trkpt lat="47.95852" lon="7.00484">
        <ele>1205.3</ele>
        <time>2023-05-19T09:21:27Z</time>
      </trkpt>
      <trkpt lat="47.95858" lon="7.00485">
        <ele>1205.7</ele>
        <time>2023-05-19T09:21:30Z</time>
      </trkpt>
      <trkpt lat="47.95867" lon="7.00485">
        <ele>1205.5</ele>
        <time>2023-05-19T09:21:38Z</time>
      </trkpt>
      <trkpt lat="47.95882" lon="7.00481">
        <ele>1204.1</ele>
        <time>2023-05-19T09:21:50Z</time>
      </trkpt>
      <trkpt lat="47.95889" lon="7.00481">
        <ele>1203.6</ele>
        <time>2023-05-19T09:21:55Z</time>
      </trkpt>
      <trkpt lat="47.95894" lon="7.00482">
        <ele>1203.2</ele>
        <time>2023-05-19T09:21:58Z</time>
      </trkpt>
      <trkpt lat="47.95899" lon="7.00481">
        <ele>1202.5</ele>
        <time>2023-05-19T09:22:03Z</time>
      </trkpt>
      <trkpt lat="47.95909" lon="7.00485">
        <ele>1201.7</ele>
        <time>2023-05-19T09:22:10Z</time>
      </trkpt>
      <trkpt lat="47.95915" lon="7.00486">
        <ele>1201.2</ele>
        <time>2023-05-19T09:22:14Z</time>
      </trkpt>
      <trkpt lat="47.9593" lon="7.00478">
        <ele>1200.3</ele>
        <time>2023-05-19T09:22:29Z</time>
      </trkpt>
      <trkpt lat="47.95929" lon="7.00486">
        <ele>1200.8</ele>
        <time>2023-05-19T09:23:06Z</time>
      </trkpt>
      <trkpt lat="47.95936" lon="7.00476">
        <ele>1200.2</ele>
        <time>2023-05-19T09:23:30Z</time>
      </trkpt>
      <trkpt lat="47.9594" lon="7.00474">
        <ele>1200.1</ele>
        <time>2023-05-19T09:23:33Z</time>
      </trkpt>
      <trkpt lat="47.95944" lon="7.0047">
        <ele>1199.9</ele>
        <time>2023-05-19T09:23:37Z</time>
      </trkpt>
      <trkpt lat="47.95948" lon="7.00463">
        <ele>1200</ele>
        <time>2023-05-19T09:23:44Z</time>
      </trkpt>
      <trkpt lat="47.95952" lon="7.0046">
        <ele>1200.2</ele>
        <time>2023-05-19T09:23:48Z</time>
      </trkpt>
      <trkpt lat="47.95958" lon="7.00455">
        <ele>1200.7</ele>
        <time>2023-05-19T09:23:53Z</time>
      </trkpt>
      <trkpt lat="47.95962" lon="7.00448">
        <ele>1200.9</ele>
        <time>2023-05-19T09:23:57Z</time>
      </trkpt>
      <trkpt lat="47.95967" lon="7.00445">
        <ele>1201.4</ele>
        <time>2023-05-19T09:24:01Z</time>
      </trkpt>
      <trkpt lat="47.95971" lon="7.00442">
        <ele>1201.8</ele>
        <time>2023-05-19T09:24:06Z</time>
      </trkpt>
      <trkpt lat="47.95974" lon="7.00436">
        <ele>1201.9</ele>
        <time>2023-05-19T09:24:11Z</time>
      </trkpt>
      <trkpt lat="47.95977" lon="7.00429">
        <ele>1202.1</ele>
        <time>2023-05-19T09:24:16Z</time>
      </trkpt>
      <trkpt lat="47.95981" lon="7.00425">
        <ele>1202.5</ele>
        <time>2023-05-19T09:24:20Z</time>
      </trkpt>
      <trkpt lat="47.95984" lon="7.00418">
        <ele>1202.7</ele>
        <time>2023-05-19T09:24:26Z</time>
      </trkpt>
      <trkpt lat="47.95989" lon="7.00413">
        <ele>1203.4</ele>
        <time>2023-05-19T09:24:29Z</time>
      </trkpt>
      <trkpt lat="47.95995" lon="7.00403">
        <ele>1204.2</ele>
        <time>2023-05-19T09:24:35Z</time>
      </trkpt>
      <trkpt lat="47.96002" lon="7.00386">
        <ele>1205.3</ele>
        <time>2023-05-19T09:24:46Z</time>
      </trkpt>
      <trkpt lat="47.96006" lon="7.00381">
        <ele>1205.9</ele>
        <time>2023-05-19T09:24:50Z</time>
      </trkpt>
      <trkpt lat="47.96007" lon="7.00374">
        <ele>1205.7</ele>
        <time>2023-05-19T09:24:54Z</time>
      </trkpt>
      <trkpt lat="47.9601" lon="7.00369">
        <ele>1206.1</ele>
        <time>2023-05-19T09:24:58Z</time>
      </trkpt>
      <trkpt lat="47.96014" lon="7.00367">
        <ele>1207</ele>
        <time>2023-05-19T09:25:02Z</time>
      </trkpt>
      <trkpt lat="47.96033" lon="7.00331">
        <ele>1209.2</ele>
        <time>2023-05-19T09:25:29Z</time>
      </trkpt>
      <trkpt lat="47.96038" lon="7.00323">
        <ele>1209.6</ele>
        <time>2023-05-19T09:25:37Z</time>
      </trkpt>
      <trkpt lat="47.96042" lon="7.00314">
        <ele>1209.7</ele>
        <time>2023-05-19T09:25:41Z</time>
      </trkpt>
      <trkpt lat="47.96046" lon="7.00309">
        <ele>1210.3</ele>
        <time>2023-05-19T09:25:48Z</time>
      </trkpt>
      <trkpt lat="47.9605" lon="7.00304">
        <ele>1210.9</ele>
        <time>2023-05-19T09:25:53Z</time>
      </trkpt>
      <trkpt lat="47.9606" lon="7.00293">
        <ele>1212</ele>
        <time>2023-05-19T09:26:06Z</time>
      </trkpt>
      <trkpt lat="47.96065" lon="7.0029">
        <ele>1212.9</ele>
        <time>2023-05-19T09:26:10Z</time>
      </trkpt>
      <trkpt lat="47.96072" lon="7.0028">
        <ele>1213.1</ele>
        <time>2023-05-19T09:26:19Z</time>
      </trkpt>
      <trkpt lat="47.96081" lon="7.00271">
        <ele>1214.4</ele>
        <time>2023-05-19T09:26:28Z</time>
      </trkpt>
      <trkpt lat="47.96085" lon="7.00268">
        <ele>1215.1</ele>
        <time>2023-05-19T09:26:33Z</time>
      </trkpt>
      <trkpt lat="47.96091" lon="7.00258">
        <ele>1215.2</ele>
        <time>2023-05-19T09:26:39Z</time>
      </trkpt>
      <trkpt lat="47.96094" lon="7.00253">
        <ele>1215.2</ele>
        <time>2023-05-19T09:26:43Z</time>
      </trkpt>
      <trkpt lat="47.96096" lon="7.00247">
        <ele>1214.6</ele>
        <time>2023-05-19T09:26:47Z</time>
      </trkpt>
      <trkpt lat="47.961" lon="7.00242">
        <ele>1214.6</ele>
        <time>2023-05-19T09:26:50Z</time>
      </trkpt>
      <trkpt lat="47.96104" lon="7.00238">
        <ele>1214.9</ele>
        <time>2023-05-19T09:26:54Z</time>
      </trkpt>
      <trkpt lat="47.96108" lon="7.00233">
        <ele>1215.1</ele>
        <time>2023-05-19T09:26:58Z</time>
      </trkpt>
      <trkpt lat="47.96116" lon="7.00223">
        <ele>1215.5</ele>
        <time>2023-05-19T09:27:08Z</time>
      </trkpt>
      <trkpt lat="47.96132" lon="7.00208">
        <ele>1217.8</ele>
        <time>2023-05-19T09:27:24Z</time>
      </trkpt>
      <trkpt lat="47.9614" lon="7.00197">
        <ele>1218.6</ele>
        <time>2023-05-19T09:27:32Z</time>
      </trkpt>
      <trkpt lat="47.96143" lon="7.00192">
        <ele>1218.7</ele>
        <time>2023-05-19T09:27:36Z</time>
      </trkpt>
      <trkpt lat="47.96146" lon="7.00186">
        <ele>1218.7</ele>
        <time>2023-05-19T09:27:40Z</time>
      </trkpt>
      <trkpt lat="47.9615" lon="7.00183">
        <ele>1219.3</ele>
        <time>2023-05-19T09:27:44Z</time>
      </trkpt>
      <trkpt lat="47.96155" lon="7.00178">
        <ele>1220</ele>
        <time>2023-05-19T09:27:49Z</time>
      </trkpt>
      <trkpt lat="47.96158" lon="7.00172">
        <ele>1220.1</ele>
        <time>2023-05-19T09:27:53Z</time>
      </trkpt>
      <trkpt lat="47.96159" lon="7.00167">
        <ele>1219.8</ele>
        <time>2023-05-19T09:27:56Z</time>
      </trkpt>
      <trkpt lat="47.96173" lon="7.0014">
        <ele>1220.3</ele>
        <time>2023-05-19T09:28:16Z</time>
      </trkpt>
      <trkpt lat="47.96176" lon="7.00135">
        <ele>1220.2</ele>
        <time>2023-05-19T09:28:19Z</time>
      </trkpt>
      <trkpt lat="47.96178" lon="7.0013">
        <ele>1220</ele>
        <time>2023-05-19T09:28:23Z</time>
      </trkpt>
      <trkpt lat="47.96184" lon="7.00117">
        <ele>1220</ele>
        <time>2023-05-19T09:28:30Z</time>
      </trkpt>
      <trkpt lat="47.96187" lon="7.00112">
        <ele>1220.2</ele>
        <time>2023-05-19T09:28:34Z</time>
      </trkpt>
      <trkpt lat="47.96189" lon="7.00106">
        <ele>1220.3</ele>
        <time>2023-05-19T09:28:39Z</time>
      </trkpt>
      <trkpt lat="47.96192" lon="7.00092">
        <ele>1220</ele>
        <time>2023-05-19T09:28:47Z</time>
      </trkpt>
      <trkpt lat="47.96194" lon="7.00085">
        <ele>1220</ele>
        <time>2023-05-19T09:28:52Z</time>
      </trkpt>
      <trkpt lat="47.96198" lon="7.00063">
        <ele>1220.1</ele>
        <time>2023-05-19T09:29:03Z</time>
      </trkpt>
      <trkpt lat="47.962" lon="7.00055">
        <ele>1220.4</ele>
        <time>2023-05-19T09:29:08Z</time>
      </trkpt>
      <trkpt lat="47.96202" lon="7.00046">
        <ele>1220.9</ele>
        <time>2023-05-19T09:29:14Z</time>
      </trkpt>
      <trkpt lat="47.96204" lon="7.00012">
        <ele>1221.2</ele>
        <time>2023-05-19T09:29:30Z</time>
      </trkpt>
      <trkpt lat="47.96204" lon="7.00004">
        <ele>1221.1</ele>
        <time>2023-05-19T09:29:33Z</time>
      </trkpt>
      <trkpt lat="47.96205" lon="6.99997">
        <ele>1221.3</ele>
        <time>2023-05-19T09:29:37Z</time>
      </trkpt>
      <trkpt lat="47.96209" lon="6.99972">
        <ele>1221.7</ele>
        <time>2023-05-19T09:29:53Z</time>
      </trkpt>
      <trkpt lat="47.9621" lon="6.99959">
        <ele>1221.4</ele>
        <time>2023-05-19T09:29:59Z</time>
      </trkpt>
      <trkpt lat="47.96211" lon="6.99952">
        <ele>1221.3</ele>
        <time>2023-05-19T09:30:02Z</time>
      </trkpt>
      <trkpt lat="47.96214" lon="6.99936">
        <ele>1221.5</ele>
        <time>2023-05-19T09:30:10Z</time>
      </trkpt>
      <trkpt lat="47.96216" lon="6.9993">
        <ele>1221.8</ele>
        <time>2023-05-19T09:30:14Z</time>
      </trkpt>
      <trkpt lat="47.96219" lon="6.99924">
        <ele>1222.5</ele>
        <time>2023-05-19T09:30:18Z</time>
      </trkpt>
      <trkpt lat="47.96222" lon="6.99917">
        <ele>1223</ele>
        <time>2023-05-19T09:30:22Z</time>
      </trkpt>
      <trkpt lat="47.96227" lon="6.99897">
        <ele>1222.8</ele>
        <time>2023-05-19T09:30:32Z</time>
      </trkpt>
      <trkpt lat="47.9623" lon="6.99889">
        <ele>1223</ele>
        <time>2023-05-19T09:30:40Z</time>
      </trkpt>
      <trkpt lat="47.96234" lon="6.99875">
        <ele>1222.7</ele>
        <time>2023-05-19T09:30:48Z</time>
      </trkpt>
      <trkpt lat="47.96236" lon="6.99869">
        <ele>1222.7</ele>
        <time>2023-05-19T09:30:52Z</time>
      </trkpt>
      <trkpt lat="47.96245" lon="6.99848">
        <ele>1222.8</ele>
        <time>2023-05-19T09:31:03Z</time>
      </trkpt>
      <trkpt lat="47.96246" lon="6.9984">
        <ele>1221.9</ele>
        <time>2023-05-19T09:31:07Z</time>
      </trkpt>
      <trkpt lat="47.96249" lon="6.99833">
        <ele>1221.7</ele>
        <time>2023-05-19T09:31:12Z</time>
      </trkpt>
      <trkpt lat="47.96263" lon="6.99814">
        <ele>1221.3</ele>
        <time>2023-05-19T09:31:25Z</time>
      </trkpt>
      <trkpt lat="47.96267" lon="6.99809">
        <ele>1221.3</ele>
        <time>2023-05-19T09:31:29Z</time>
      </trkpt>
      <trkpt lat="47.96278" lon="6.99794">
        <ele>1220.5</ele>
        <time>2023-05-19T09:31:40Z</time>
      </trkpt>
      <trkpt lat="47.96287" lon="6.99787">
        <ele>1220.2</ele>
        <time>2023-05-19T09:31:46Z</time>
      </trkpt>
      <trkpt lat="47.96296" lon="6.99783">
        <ele>1220.6</ele>
        <time>2023-05-19T09:31:53Z</time>
      </trkpt>
      <trkpt lat="47.963" lon="6.99779">
        <ele>1220.4</ele>
        <time>2023-05-19T09:31:56Z</time>
      </trkpt>
      <trkpt lat="47.96305" lon="6.99778">
        <ele>1221</ele>
        <time>2023-05-19T09:32:00Z</time>
      </trkpt>
      <trkpt lat="47.9631" lon="6.99776">
        <ele>1220.9</ele>
        <time>2023-05-19T09:32:04Z</time>
      </trkpt>
      <trkpt lat="47.96315" lon="6.99772">
        <ele>1220.5</ele>
        <time>2023-05-19T09:32:08Z</time>
      </trkpt>
      <trkpt lat="47.96319" lon="6.99772">
        <ele>1220.8</ele>
        <time>2023-05-19T09:32:11Z</time>
      </trkpt>
      <trkpt lat="47.96324" lon="6.9977">
        <ele>1220.8</ele>
        <time>2023-05-19T09:32:14Z</time>
      </trkpt>
      <trkpt lat="47.96328" lon="6.99768">
        <ele>1220.8</ele>
        <time>2023-05-19T09:32:18Z</time>
      </trkpt>
      <trkpt lat="47.96332" lon="6.99768">
        <ele>1221.1</ele>
        <time>2023-05-19T09:32:23Z</time>
      </trkpt>
      <trkpt lat="47.96338" lon="6.99769">
        <ele>1221.9</ele>
        <time>2023-05-19T09:32:27Z</time>
      </trkpt>
      <trkpt lat="47.96341" lon="6.99763">
        <ele>1221.2</ele>
        <time>2023-05-19T09:32:30Z</time>
      </trkpt>
      <trkpt lat="47.96346" lon="6.9976">
        <ele>1221.2</ele>
        <time>2023-05-19T09:32:35Z</time>
      </trkpt>
      <trkpt lat="47.96356" lon="6.99751">
        <ele>1220.6</ele>
        <time>2023-05-19T09:32:46Z</time>
      </trkpt>
      <trkpt lat="47.96364" lon="6.99745">
        <ele>1220.2</ele>
        <time>2023-05-19T09:32:54Z</time>
      </trkpt>
      <trkpt lat="47.96379" lon="6.9974">
        <ele>1220.1</ele>
        <time>2023-05-19T09:33:03Z</time>
      </trkpt>
      <trkpt lat="47.96383" lon="6.99741">
        <ele>1220.4</ele>
        <time>2023-05-19T09:33:06Z</time>
      </trkpt>
      <trkpt lat="47.96393" lon="6.99741">
        <ele>1220.8</ele>
        <time>2023-05-19T09:33:15Z</time>
      </trkpt>
      <trkpt lat="47.96398" lon="6.9974">
        <ele>1220.7</ele>
        <time>2023-05-19T09:33:18Z</time>
      </trkpt>
      <trkpt lat="47.96403" lon="6.99742">
        <ele>1221</ele>
        <time>2023-05-19T09:33:22Z</time>
      </trkpt>
      <trkpt lat="47.9641" lon="6.99737">
        <ele>1220.5</ele>
        <time>2023-05-19T09:33:28Z</time>
      </trkpt>
      <trkpt lat="47.96415" lon="6.99734">
        <ele>1220.2</ele>
        <time>2023-05-19T09:33:32Z</time>
      </trkpt>
      <trkpt lat="47.96424" lon="6.99732">
        <ele>1220.1</ele>
        <time>2023-05-19T09:33:39Z</time>
      </trkpt>
      <trkpt lat="47.96434" lon="6.99727">
        <ele>1219.9</ele>
        <time>2023-05-19T09:33:47Z</time>
      </trkpt>
      <trkpt lat="47.96438" lon="6.99725">
        <ele>1219.9</ele>
        <time>2023-05-19T09:33:50Z</time>
      </trkpt>
      <trkpt lat="47.96448" lon="6.9972">
        <ele>1219.8</ele>
        <time>2023-05-19T09:33:58Z</time>
      </trkpt>
      <trkpt lat="47.96458" lon="6.99717">
        <ele>1219.6</ele>
        <time>2023-05-19T09:34:05Z</time>
      </trkpt>
      <trkpt lat="47.96463" lon="6.99716">
        <ele>1219.6</ele>
        <time>2023-05-19T09:34:09Z</time>
      </trkpt>
      <trkpt lat="47.96468" lon="6.99715">
        <ele>1219.5</ele>
        <time>2023-05-19T09:34:13Z</time>
      </trkpt>
      <trkpt lat="47.96472" lon="6.99715">
        <ele>1219.5</ele>
        <time>2023-05-19T09:34:16Z</time>
      </trkpt>
      <trkpt lat="47.96487" lon="6.99707">
        <ele>1217.6</ele>
        <time>2023-05-19T09:34:28Z</time>
      </trkpt>
      <trkpt lat="47.96495" lon="6.99704">
        <ele>1216.8</ele>
        <time>2023-05-19T09:34:35Z</time>
      </trkpt>
      <trkpt lat="47.965" lon="6.99699">
        <ele>1216.2</ele>
        <time>2023-05-19T09:34:39Z</time>
      </trkpt>
      <trkpt lat="47.96504" lon="6.99695">
        <ele>1215.7</ele>
        <time>2023-05-19T09:34:43Z</time>
      </trkpt>
      <trkpt lat="47.96509" lon="6.99694">
        <ele>1215.3</ele>
        <time>2023-05-19T09:34:47Z</time>
      </trkpt>
      <trkpt lat="47.96514" lon="6.99691">
        <ele>1214.7</ele>
        <time>2023-05-19T09:34:51Z</time>
      </trkpt>
      <trkpt lat="47.96519" lon="6.99687">
        <ele>1213.9</ele>
        <time>2023-05-19T09:34:56Z</time>
      </trkpt>
      <trkpt lat="47.96524" lon="6.99685">
        <ele>1213.3</ele>
        <time>2023-05-19T09:35:00Z</time>
      </trkpt>
      <trkpt lat="47.96527" lon="6.99681">
        <ele>1212.6</ele>
        <time>2023-05-19T09:35:03Z</time>
      </trkpt>
      <trkpt lat="47.96532" lon="6.99679">
        <ele>1212</ele>
        <time>2023-05-19T09:35:07Z</time>
      </trkpt>
      <trkpt lat="47.96541" lon="6.99671">
        <ele>1210.4</ele>
        <time>2023-05-19T09:35:15Z</time>
      </trkpt>
      <trkpt lat="47.96545" lon="6.99668">
        <ele>1209.9</ele>
        <time>2023-05-19T09:35:19Z</time>
      </trkpt>
      <trkpt lat="47.96549" lon="6.99663">
        <ele>1209.1</ele>
        <time>2023-05-19T09:35:23Z</time>
      </trkpt>
      <trkpt lat="47.96553" lon="6.99661">
        <ele>1208.6</ele>
        <time>2023-05-19T09:35:27Z</time>
      </trkpt>
      <trkpt lat="47.96557" lon="6.99658">
        <ele>1208</ele>
        <time>2023-05-19T09:35:30Z</time>
      </trkpt>
      <trkpt lat="47.96561" lon="6.99653">
        <ele>1207.2</ele>
        <time>2023-05-19T09:35:34Z</time>
      </trkpt>
      <trkpt lat="47.96566" lon="6.99649">
        <ele>1206.6</ele>
        <time>2023-05-19T09:35:38Z</time>
      </trkpt>
      <trkpt lat="47.96573" lon="6.99638">
        <ele>1205.3</ele>
        <time>2023-05-19T09:35:46Z</time>
      </trkpt>
      <trkpt lat="47.96577" lon="6.99635">
        <ele>1204.9</ele>
        <time>2023-05-19T09:35:49Z</time>
      </trkpt>
      <trkpt lat="47.96586" lon="6.99626">
        <ele>1204</ele>
        <time>2023-05-19T09:35:56Z</time>
      </trkpt>
      <trkpt lat="47.96591" lon="6.99625">
        <ele>1203.7</ele>
        <time>2023-05-19T09:36:00Z</time>
      </trkpt>
      <trkpt lat="47.96596" lon="6.99621">
        <ele>1203.3</ele>
        <time>2023-05-19T09:36:04Z</time>
      </trkpt>
      <trkpt lat="47.96609" lon="6.99612">
        <ele>1202.1</ele>
        <time>2023-05-19T09:36:14Z</time>
      </trkpt>
      <trkpt lat="47.96613" lon="6.99611">
        <ele>1201.9</ele>
        <time>2023-05-19T09:36:18Z</time>
      </trkpt>
      <trkpt lat="47.96617" lon="6.99606">
        <ele>1201.5</ele>
        <time>2023-05-19T09:36:22Z</time>
      </trkpt>
      <trkpt lat="47.96621" lon="6.99601">
        <ele>1201</ele>
        <time>2023-05-19T09:36:25Z</time>
      </trkpt>
      <trkpt lat="47.96626" lon="6.99598">
        <ele>1200.8</ele>
        <time>2023-05-19T09:36:29Z</time>
      </trkpt>
      <trkpt lat="47.9663" lon="6.99596">
        <ele>1200.6</ele>
        <time>2023-05-19T09:36:32Z</time>
      </trkpt>
      <trkpt lat="47.96634" lon="6.99592">
        <ele>1200.4</ele>
        <time>2023-05-19T09:36:35Z</time>
      </trkpt>
      <trkpt lat="47.96636" lon="6.99586">
        <ele>1200.1</ele>
        <time>2023-05-19T09:36:38Z</time>
      </trkpt>
      <trkpt lat="47.96641" lon="6.99582">
        <ele>1199.9</ele>
        <time>2023-05-19T09:36:42Z</time>
      </trkpt>
      <trkpt lat="47.96648" lon="6.99574">
        <ele>1199.6</ele>
        <time>2023-05-19T09:36:49Z</time>
      </trkpt>
      <trkpt lat="47.96652" lon="6.99568">
        <ele>1199.5</ele>
        <time>2023-05-19T09:36:53Z</time>
      </trkpt>
      <trkpt lat="47.96657" lon="6.99563">
        <ele>1199.6</ele>
        <time>2023-05-19T09:36:57Z</time>
      </trkpt>
      <trkpt lat="47.96664" lon="6.99551">
        <ele>1199.7</ele>
        <time>2023-05-19T09:37:06Z</time>
      </trkpt>
      <trkpt lat="47.96667" lon="6.99546">
        <ele>1199.7</ele>
        <time>2023-05-19T09:37:09Z</time>
      </trkpt>
      <trkpt lat="47.9667" lon="6.9954">
        <ele>1199.5</ele>
        <time>2023-05-19T09:37:13Z</time>
      </trkpt>
      <trkpt lat="47.96675" lon="6.99535">
        <ele>1199.4</ele>
        <time>2023-05-19T09:37:17Z</time>
      </trkpt>
      <trkpt lat="47.96678" lon="6.9953">
        <ele>1199.4</ele>
        <time>2023-05-19T09:37:21Z</time>
      </trkpt>
      <trkpt lat="47.9669" lon="6.99515">
        <ele>1199.2</ele>
        <time>2023-05-19T09:37:33Z</time>
      </trkpt>
      <trkpt lat="47.96693" lon="6.99512">
        <ele>1199.3</ele>
        <time>2023-05-19T09:37:36Z</time>
      </trkpt>
      <trkpt lat="47.96698" lon="6.99509">
        <ele>1199.4</ele>
        <time>2023-05-19T09:37:40Z</time>
      </trkpt>
      <trkpt lat="47.96707" lon="6.99504">
        <ele>1199.5</ele>
        <time>2023-05-19T09:37:48Z</time>
      </trkpt>
      <trkpt lat="47.96711" lon="6.99501">
        <ele>1199.6</ele>
        <time>2023-05-19T09:37:51Z</time>
      </trkpt>
      <trkpt lat="47.96726" lon="6.99492">
        <ele>1199.5</ele>
        <time>2023-05-19T09:38:02Z</time>
      </trkpt>
      <trkpt lat="47.96731" lon="6.99488">
        <ele>1199.5</ele>
        <time>2023-05-19T09:38:06Z</time>
      </trkpt>
      <trkpt lat="47.96739" lon="6.99481">
        <ele>1199.9</ele>
        <time>2023-05-19T09:38:13Z</time>
      </trkpt>
      <trkpt lat="47.96743" lon="6.99476">
        <ele>1200.2</ele>
        <time>2023-05-19T09:38:17Z</time>
      </trkpt>
      <trkpt lat="47.96748" lon="6.99472">
        <ele>1200.8</ele>
        <time>2023-05-19T09:38:21Z</time>
      </trkpt>
      <trkpt lat="47.96753" lon="6.99468">
        <ele>1200.7</ele>
        <time>2023-05-19T09:38:25Z</time>
      </trkpt>
      <trkpt lat="47.96758" lon="6.99467">
        <ele>1200.8</ele>
        <time>2023-05-19T09:38:29Z</time>
      </trkpt>
      <trkpt lat="47.96762" lon="6.99464">
        <ele>1200.8</ele>
        <time>2023-05-19T09:38:33Z</time>
      </trkpt>
      <trkpt lat="47.96766" lon="6.99459">
        <ele>1200.9</ele>
        <time>2023-05-19T09:38:37Z</time>
      </trkpt>
      <trkpt lat="47.96771" lon="6.99455">
        <ele>1201.2</ele>
        <time>2023-05-19T09:38:41Z</time>
      </trkpt>
      <trkpt lat="47.96775" lon="6.99451">
        <ele>1201.5</ele>
        <time>2023-05-19T09:38:45Z</time>
      </trkpt>
      <trkpt lat="47.96779" lon="6.99446">
        <ele>1202</ele>
        <time>2023-05-19T09:38:49Z</time>
      </trkpt>
      <trkpt lat="47.96784" lon="6.99442">
        <ele>1202.4</ele>
        <time>2023-05-19T09:38:53Z</time>
      </trkpt>
      <trkpt lat="47.96788" lon="6.99438">
        <ele>1202.7</ele>
        <time>2023-05-19T09:38:57Z</time>
      </trkpt>
      <trkpt lat="47.96812" lon="6.99407">
        <ele>1206.2</ele>
        <time>2023-05-19T09:39:26Z</time>
      </trkpt>
      <trkpt lat="47.96816" lon="6.99402">
        <ele>1207.1</ele>
        <time>2023-05-19T09:39:31Z</time>
      </trkpt>
      <trkpt lat="47.96822" lon="6.99395">
        <ele>1208.5</ele>
        <time>2023-05-19T09:39:39Z</time>
      </trkpt>
      <trkpt lat="47.96827" lon="6.99388">
        <ele>1209.9</ele>
        <time>2023-05-19T09:39:47Z</time>
      </trkpt>
      <trkpt lat="47.96832" lon="6.99385">
        <ele>1211.2</ele>
        <time>2023-05-19T09:39:52Z</time>
      </trkpt>
      <trkpt lat="47.96845" lon="6.99347">
        <ele>1216.9</ele>
        <time>2023-05-19T09:42:11Z</time>
      </trkpt>
      <trkpt lat="47.96846" lon="6.99347">
        <ele>1217.1</ele>
        <time>2023-05-19T09:42:12Z</time>
      </trkpt>
      <trkpt lat="47.96849" lon="6.99333">
        <ele>1218.9</ele>
        <time>2023-05-19T09:42:20Z</time>
      </trkpt>
      <trkpt lat="47.96871" lon="6.99312">
        <ele>1226.5</ele>
        <time>2023-05-19T09:42:52Z</time>
      </trkpt>
      <trkpt lat="47.96878" lon="6.99312">
        <ele>1228.2</ele>
        <time>2023-05-19T09:42:59Z</time>
      </trkpt>
      <trkpt lat="47.96884" lon="6.99312">
        <ele>1229.6</ele>
        <time>2023-05-19T09:43:08Z</time>
      </trkpt>
      <trkpt lat="47.96888" lon="6.99301">
        <ele>1232.4</ele>
        <time>2023-05-19T09:43:21Z</time>
      </trkpt>
      <trkpt lat="47.96893" lon="6.99294">
        <ele>1234.2</ele>
        <time>2023-05-19T09:43:33Z</time>
      </trkpt>
      <trkpt lat="47.96899" lon="6.99284">
        <ele>1236.3</ele>
        <time>2023-05-19T09:43:45Z</time>
      </trkpt>
      <trkpt lat="47.96903" lon="6.99278">
        <ele>1237.5</ele>
        <time>2023-05-19T09:43:53Z</time>
      </trkpt>
      <trkpt lat="47.96904" lon="6.99272">
        <ele>1238.2</ele>
        <time>2023-05-19T09:43:58Z</time>
      </trkpt>
      <trkpt lat="47.96908" lon="6.99267">
        <ele>1239.1</ele>
        <time>2023-05-19T09:44:02Z</time>
      </trkpt>
      <trkpt lat="47.96912" lon="6.9926">
        <ele>1240.3</ele>
        <time>2023-05-19T09:44:09Z</time>
      </trkpt>
      <trkpt lat="47.96921" lon="6.99241">
        <ele>1242.5</ele>
        <time>2023-05-19T09:44:23Z</time>
      </trkpt>
      <trkpt lat="47.96924" lon="6.99237">
        <ele>1242.7</ele>
        <time>2023-05-19T09:44:28Z</time>
      </trkpt>
      <trkpt lat="47.96928" lon="6.99234">
        <ele>1243</ele>
        <time>2023-05-19T09:44:32Z</time>
      </trkpt>
      <trkpt lat="47.96941" lon="6.99223">
        <ele>1243.8</ele>
        <time>2023-05-19T09:44:44Z</time>
      </trkpt>
      <trkpt lat="47.96945" lon="6.99221">
        <ele>1244</ele>
        <time>2023-05-19T09:44:49Z</time>
      </trkpt>
      <trkpt lat="47.9695" lon="6.99221">
        <ele>1244.2</ele>
        <time>2023-05-19T09:44:53Z</time>
      </trkpt>
      <trkpt lat="47.96955" lon="6.9922">
        <ele>1244.4</ele>
        <time>2023-05-19T09:44:57Z</time>
      </trkpt>
      <trkpt lat="47.96961" lon="6.99218">
        <ele>1244.6</ele>
        <time>2023-05-19T09:45:01Z</time>
      </trkpt>
      <trkpt lat="47.96965" lon="6.99217">
        <ele>1244.7</ele>
        <time>2023-05-19T09:45:05Z</time>
      </trkpt>
      <trkpt lat="47.9697" lon="6.99216">
        <ele>1244.9</ele>
        <time>2023-05-19T09:45:09Z</time>
      </trkpt>
      <trkpt lat="47.96979" lon="6.99214">
        <ele>1245</ele>
        <time>2023-05-19T09:45:15Z</time>
      </trkpt>
      <trkpt lat="47.96984" lon="6.99214">
        <ele>1245</ele>
        <time>2023-05-19T09:45:19Z</time>
      </trkpt>
      <trkpt lat="47.96993" lon="6.99213">
        <ele>1245</ele>
        <time>2023-05-19T09:45:28Z</time>
      </trkpt>
      <trkpt lat="47.96998" lon="6.99213">
        <ele>1245</ele>
        <time>2023-05-19T09:45:32Z</time>
      </trkpt>
      <trkpt lat="47.97007" lon="6.9921">
        <ele>1245</ele>
        <time>2023-05-19T09:45:40Z</time>
      </trkpt>
      <trkpt lat="47.97012" lon="6.9921">
        <ele>1245</ele>
        <time>2023-05-19T09:45:44Z</time>
      </trkpt>
      <trkpt lat="47.97017" lon="6.99209">
        <ele>1245</ele>
        <time>2023-05-19T09:45:48Z</time>
      </trkpt>
      <trkpt lat="47.97027" lon="6.99208">
        <ele>1245</ele>
        <time>2023-05-19T09:45:56Z</time>
      </trkpt>
      <trkpt lat="47.97036" lon="6.99207">
        <ele>1244.9</ele>
        <time>2023-05-19T09:46:04Z</time>
      </trkpt>
      <trkpt lat="47.97047" lon="6.99205">
        <ele>1244.7</ele>
        <time>2023-05-19T09:46:12Z</time>
      </trkpt>
      <trkpt lat="47.97051" lon="6.99205">
        <ele>1244.7</ele>
        <time>2023-05-19T09:46:15Z</time>
      </trkpt>
      <trkpt lat="47.97056" lon="6.99204">
        <ele>1244.7</ele>
        <time>2023-05-19T09:46:19Z</time>
      </trkpt>
      <trkpt lat="47.97063" lon="6.99199">
        <ele>1244.8</ele>
        <time>2023-05-19T09:46:27Z</time>
      </trkpt>
      <trkpt lat="47.97068" lon="6.99197">
        <ele>1244.9</ele>
        <time>2023-05-19T09:46:31Z</time>
      </trkpt>
      <trkpt lat="47.97072" lon="6.99194">
        <ele>1245</ele>
        <time>2023-05-19T09:46:35Z</time>
      </trkpt>
      <trkpt lat="47.97082" lon="6.99188">
        <ele>1245</ele>
        <time>2023-05-19T09:46:43Z</time>
      </trkpt>
      <trkpt lat="47.97086" lon="6.99184">
        <ele>1245.1</ele>
        <time>2023-05-19T09:46:47Z</time>
      </trkpt>
      <trkpt lat="47.9709" lon="6.99182">
        <ele>1245.3</ele>
        <time>2023-05-19T09:46:51Z</time>
      </trkpt>
      <trkpt lat="47.97095" lon="6.9918">
        <ele>1245.6</ele>
        <time>2023-05-19T09:46:55Z</time>
      </trkpt>
      <trkpt lat="47.97101" lon="6.99177">
        <ele>1246</ele>
        <time>2023-05-19T09:47:01Z</time>
      </trkpt>
      <trkpt lat="47.97105" lon="6.99172">
        <ele>1246.4</ele>
        <time>2023-05-19T09:47:06Z</time>
      </trkpt>
      <trkpt lat="47.9711" lon="6.99168">
        <ele>1246.9</ele>
        <time>2023-05-19T09:47:10Z</time>
      </trkpt>
      <trkpt lat="47.97115" lon="6.99167">
        <ele>1247.4</ele>
        <time>2023-05-19T09:47:14Z</time>
      </trkpt>
      <trkpt lat="47.97118" lon="6.99163">
        <ele>1248.1</ele>
        <time>2023-05-19T09:47:17Z</time>
      </trkpt>
      <trkpt lat="47.97122" lon="6.99162">
        <ele>1248.6</ele>
        <time>2023-05-19T09:47:22Z</time>
      </trkpt>
      <trkpt lat="47.97127" lon="6.9916">
        <ele>1249.3</ele>
        <time>2023-05-19T09:47:27Z</time>
      </trkpt>
      <trkpt lat="47.97132" lon="6.99157">
        <ele>1250</ele>
        <time>2023-05-19T09:47:30Z</time>
      </trkpt>
      <trkpt lat="47.97142" lon="6.99151">
        <ele>1251.2</ele>
        <time>2023-05-19T09:47:40Z</time>
      </trkpt>
      <trkpt lat="47.97146" lon="6.99149">
        <ele>1251.5</ele>
        <time>2023-05-19T09:47:44Z</time>
      </trkpt>
      <trkpt lat="47.97151" lon="6.99146">
        <ele>1251.9</ele>
        <time>2023-05-19T09:47:48Z</time>
      </trkpt>
      <trkpt lat="47.9716" lon="6.99141">
        <ele>1252.6</ele>
        <time>2023-05-19T09:47:56Z</time>
      </trkpt>
      <trkpt lat="47.97164" lon="6.9914">
        <ele>1252.8</ele>
        <time>2023-05-19T09:48:00Z</time>
      </trkpt>
      <trkpt lat="47.97169" lon="6.99138">
        <ele>1253.1</ele>
        <time>2023-05-19T09:48:04Z</time>
      </trkpt>
      <trkpt lat="47.97183" lon="6.99137">
        <ele>1253.6</ele>
        <time>2023-05-19T09:48:16Z</time>
      </trkpt>
      <trkpt lat="47.97194" lon="6.99139">
        <ele>1254</ele>
        <time>2023-05-19T09:48:25Z</time>
      </trkpt>
      <trkpt lat="47.97213" lon="6.99137">
        <ele>1255.3</ele>
        <time>2023-05-19T09:48:40Z</time>
      </trkpt>
      <trkpt lat="47.97218" lon="6.99136">
        <ele>1255.7</ele>
        <time>2023-05-19T09:48:44Z</time>
      </trkpt>
      <trkpt lat="47.97223" lon="6.99136">
        <ele>1256.1</ele>
        <time>2023-05-19T09:48:48Z</time>
      </trkpt>
      <trkpt lat="47.97232" lon="6.99137">
        <ele>1256.7</ele>
        <time>2023-05-19T09:48:55Z</time>
      </trkpt>
      <trkpt lat="47.97243" lon="6.99136">
        <ele>1257.6</ele>
        <time>2023-05-19T09:49:04Z</time>
      </trkpt>
      <trkpt lat="47.97248" lon="6.99135">
        <ele>1258</ele>
        <time>2023-05-19T09:49:08Z</time>
      </trkpt>
      <trkpt lat="47.97253" lon="6.99134">
        <ele>1258.5</ele>
        <time>2023-05-19T09:49:12Z</time>
      </trkpt>
      <trkpt lat="47.97258" lon="6.99133">
        <ele>1259</ele>
        <time>2023-05-19T09:49:16Z</time>
      </trkpt>
      <trkpt lat="47.97267" lon="6.99132">
        <ele>1259.9</ele>
        <time>2023-05-19T09:49:23Z</time>
      </trkpt>
      <trkpt lat="47.97282" lon="6.99131">
        <ele>1261.2</ele>
        <time>2023-05-19T09:49:36Z</time>
      </trkpt>
      <trkpt lat="47.97287" lon="6.9913">
        <ele>1261.4</ele>
        <time>2023-05-19T09:49:40Z</time>
      </trkpt>
      <trkpt lat="47.97291" lon="6.99131">
        <ele>1261.6</ele>
        <time>2023-05-19T09:49:44Z</time>
      </trkpt>
      <trkpt lat="47.97317" lon="6.99126">
        <ele>1263.1</ele>
        <time>2023-05-19T09:50:04Z</time>
      </trkpt>
      <trkpt lat="47.97321" lon="6.99125">
        <ele>1263.3</ele>
        <time>2023-05-19T09:50:08Z</time>
      </trkpt>
      <trkpt lat="47.97327" lon="6.99124">
        <ele>1263.7</ele>
        <time>2023-05-19T09:50:13Z</time>
      </trkpt>
      <trkpt lat="47.97332" lon="6.99123">
        <ele>1263.9</ele>
        <time>2023-05-19T09:50:17Z</time>
      </trkpt>
      <trkpt lat="47.9734" lon="6.99117">
        <ele>1264.1</ele>
        <time>2023-05-19T09:50:24Z</time>
      </trkpt>
      <trkpt lat="47.97346" lon="6.99115">
        <ele>1264.3</ele>
        <time>2023-05-19T09:50:28Z</time>
      </trkpt>
      <trkpt lat="47.97355" lon="6.9911">
        <ele>1264.8</ele>
        <time>2023-05-19T09:50:35Z</time>
      </trkpt>
      <trkpt lat="47.9736" lon="6.99108">
        <ele>1265.1</ele>
        <time>2023-05-19T09:50:39Z</time>
      </trkpt>
      <trkpt lat="47.974" lon="6.99088">
        <ele>1266.2</ele>
        <time>2023-05-19T09:51:11Z</time>
      </trkpt>
      <trkpt lat="47.9741" lon="6.99083">
        <ele>1266.8</ele>
        <time>2023-05-19T09:51:19Z</time>
      </trkpt>
      <trkpt lat="47.97424" lon="6.99077">
        <ele>1267.4</ele>
        <time>2023-05-19T09:51:31Z</time>
      </trkpt>
      <trkpt lat="47.97439" lon="6.99069">
        <ele>1269</ele>
        <time>2023-05-19T09:51:45Z</time>
      </trkpt>
      <trkpt lat="47.97451" lon="6.99061">
        <ele>1269.6</ele>
        <time>2023-05-19T09:52:00Z</time>
      </trkpt>
      <trkpt lat="47.97469" lon="6.99046">
        <ele>1267.3</ele>
        <time>2023-05-19T09:52:18Z</time>
      </trkpt>
      <trkpt lat="47.97473" lon="6.99042">
        <ele>1267</ele>
        <time>2023-05-19T09:52:22Z</time>
      </trkpt>
      <trkpt lat="47.97476" lon="6.99036">
        <ele>1267.1</ele>
        <time>2023-05-19T09:52:26Z</time>
      </trkpt>
      <trkpt lat="47.97484" lon="6.99025">
        <ele>1267.4</ele>
        <time>2023-05-19T09:52:34Z</time>
      </trkpt>
      <trkpt lat="47.97491" lon="6.99016">
        <ele>1267.8</ele>
        <time>2023-05-19T09:52:42Z</time>
      </trkpt>
      <trkpt lat="47.97494" lon="6.99011">
        <ele>1268.1</ele>
        <time>2023-05-19T09:52:45Z</time>
      </trkpt>
      <trkpt lat="47.97498" lon="6.99006">
        <ele>1268.6</ele>
        <time>2023-05-19T09:52:49Z</time>
      </trkpt>
      <trkpt lat="47.97501" lon="6.99002">
        <ele>1269</ele>
        <time>2023-05-19T09:52:53Z</time>
      </trkpt>
      <trkpt lat="47.97509" lon="6.98994">
        <ele>1269.3</ele>
        <time>2023-05-19T09:53:01Z</time>
      </trkpt>
      <trkpt lat="47.97513" lon="6.9899">
        <ele>1269.5</ele>
        <time>2023-05-19T09:53:05Z</time>
      </trkpt>
      <trkpt lat="47.97522" lon="6.98981">
        <ele>1269.8</ele>
        <time>2023-05-19T09:53:13Z</time>
      </trkpt>
      <trkpt lat="47.97526" lon="6.98973">
        <ele>1269.9</ele>
        <time>2023-05-19T09:53:23Z</time>
      </trkpt>
      <trkpt lat="47.9753" lon="6.98969">
        <ele>1269.4</ele>
        <time>2023-05-19T09:53:27Z</time>
      </trkpt>
      <trkpt lat="47.97536" lon="6.9896">
        <ele>1267.8</ele>
        <time>2023-05-19T09:53:35Z</time>
      </trkpt>
      <trkpt lat="47.97541" lon="6.98956">
        <ele>1266.7</ele>
        <time>2023-05-19T09:53:40Z</time>
      </trkpt>
      <trkpt lat="47.97548" lon="6.98941">
        <ele>1264</ele>
        <time>2023-05-19T09:53:52Z</time>
      </trkpt>
      <trkpt lat="47.97556" lon="6.98934">
        <ele>1262.2</ele>
        <time>2023-05-19T09:54:02Z</time>
      </trkpt>
      <trkpt lat="47.97567" lon="6.9892">
        <ele>1259.6</ele>
        <time>2023-05-19T09:54:15Z</time>
      </trkpt>
      <trkpt lat="47.97569" lon="6.98913">
        <ele>1258.5</ele>
        <time>2023-05-19T09:54:20Z</time>
      </trkpt>
      <trkpt lat="47.97565" lon="6.98892">
        <ele>1256.1</ele>
        <time>2023-05-19T09:54:33Z</time>
      </trkpt>
      <trkpt lat="47.9755" lon="6.98847">
        <ele>1249.3</ele>
        <time>2023-05-19T09:55:01Z</time>
      </trkpt>
      <trkpt lat="47.97552" lon="6.9884">
        <ele>1248.1</ele>
        <time>2023-05-19T09:55:05Z</time>
      </trkpt>
      <trkpt lat="47.97556" lon="6.98836">
        <ele>1247.4</ele>
        <time>2023-05-19T09:55:09Z</time>
      </trkpt>
      <trkpt lat="47.97559" lon="6.9883">
        <ele>1246.3</ele>
        <time>2023-05-19T09:55:13Z</time>
      </trkpt>
      <trkpt lat="47.97577" lon="6.98805">
        <ele>1242.2</ele>
        <time>2023-05-19T09:55:34Z</time>
      </trkpt>
      <trkpt lat="47.97582" lon="6.98802">
        <ele>1241.7</ele>
        <time>2023-05-19T09:55:38Z</time>
      </trkpt>
      <trkpt lat="47.9759" lon="6.98794">
        <ele>1240.7</ele>
        <time>2023-05-19T09:55:46Z</time>
      </trkpt>
      <trkpt lat="47.97593" lon="6.98789">
        <ele>1240</ele>
        <time>2023-05-19T09:55:50Z</time>
      </trkpt>
      <trkpt lat="47.976" lon="6.9878">
        <ele>1238.7</ele>
        <time>2023-05-19T09:55:59Z</time>
      </trkpt>
      <trkpt lat="47.97604" lon="6.98776">
        <ele>1238</ele>
        <time>2023-05-19T09:56:03Z</time>
      </trkpt>
      <trkpt lat="47.97607" lon="6.98772">
        <ele>1237.5</ele>
        <time>2023-05-19T09:56:07Z</time>
      </trkpt>
      <trkpt lat="47.97614" lon="6.98763">
        <ele>1236.3</ele>
        <time>2023-05-19T09:56:15Z</time>
      </trkpt>
      <trkpt lat="47.97618" lon="6.9876">
        <ele>1235.8</ele>
        <time>2023-05-19T09:56:19Z</time>
      </trkpt>
      <trkpt lat="47.97622" lon="6.98756">
        <ele>1235.3</ele>
        <time>2023-05-19T09:56:23Z</time>
      </trkpt>
      <trkpt lat="47.97631" lon="6.9875">
        <ele>1234.3</ele>
        <time>2023-05-19T09:56:31Z</time>
      </trkpt>
      <trkpt lat="47.9764" lon="6.98745">
        <ele>1233.2</ele>
        <time>2023-05-19T09:56:39Z</time>
      </trkpt>
      <trkpt lat="47.97649" lon="6.9874">
        <ele>1232</ele>
        <time>2023-05-19T09:56:47Z</time>
      </trkpt>
      <trkpt lat="47.97657" lon="6.98734">
        <ele>1230.8</ele>
        <time>2023-05-19T09:56:55Z</time>
      </trkpt>
      <trkpt lat="47.97662" lon="6.98734">
        <ele>1230.5</ele>
        <time>2023-05-19T09:56:58Z</time>
      </trkpt>
      <trkpt lat="47.97667" lon="6.98733">
        <ele>1230.1</ele>
        <time>2023-05-19T09:57:02Z</time>
      </trkpt>
      <trkpt lat="47.97672" lon="6.98732">
        <ele>1229.3</ele>
        <time>2023-05-19T09:57:06Z</time>
      </trkpt>
      <trkpt lat="47.97676" lon="6.98731">
        <ele>1228.6</ele>
        <time>2023-05-19T09:57:10Z</time>
      </trkpt>
      <trkpt lat="47.97686" lon="6.98732">
        <ele>1227.3</ele>
        <time>2023-05-19T09:57:18Z</time>
      </trkpt>
      <trkpt lat="47.9769" lon="6.98733">
        <ele>1226.8</ele>
        <time>2023-05-19T09:57:22Z</time>
      </trkpt>
      <trkpt lat="47.97695" lon="6.98733">
        <ele>1226.1</ele>
        <time>2023-05-19T09:57:26Z</time>
      </trkpt>
      <trkpt lat="47.977" lon="6.98734">
        <ele>1225.5</ele>
        <time>2023-05-19T09:57:30Z</time>
      </trkpt>
      <trkpt lat="47.97703" lon="6.98727">
        <ele>1224.5</ele>
        <time>2023-05-19T09:57:34Z</time>
      </trkpt>
      <trkpt lat="47.97705" lon="6.98721">
        <ele>1223.8</ele>
        <time>2023-05-19T09:57:38Z</time>
      </trkpt>
      <trkpt lat="47.97709" lon="6.98715">
        <ele>1222.9</ele>
        <time>2023-05-19T09:57:42Z</time>
      </trkpt>
      <trkpt lat="47.97713" lon="6.9871">
        <ele>1222.1</ele>
        <time>2023-05-19T09:57:47Z</time>
      </trkpt>
      <trkpt lat="47.97716" lon="6.98704">
        <ele>1221.4</ele>
        <time>2023-05-19T09:57:51Z</time>
      </trkpt>
      <trkpt lat="47.97728" lon="6.98691">
        <ele>1219.3</ele>
        <time>2023-05-19T09:58:05Z</time>
      </trkpt>
      <trkpt lat="47.97732" lon="6.98687">
        <ele>1218.7</ele>
        <time>2023-05-19T09:58:09Z</time>
      </trkpt>
      <trkpt lat="47.97736" lon="6.98683">
        <ele>1218.1</ele>
        <time>2023-05-19T09:58:13Z</time>
      </trkpt>
      <trkpt lat="47.9774" lon="6.98678">
        <ele>1217.5</ele>
        <time>2023-05-19T09:58:17Z</time>
      </trkpt>
      <trkpt lat="47.97744" lon="6.98675">
        <ele>1216.9</ele>
        <time>2023-05-19T09:58:21Z</time>
      </trkpt>
      <trkpt lat="47.97748" lon="6.98671">
        <ele>1216.4</ele>
        <time>2023-05-19T09:58:25Z</time>
      </trkpt>
      <trkpt lat="47.97781" lon="6.98641">
        <ele>1210.7</ele>
        <time>2023-05-19T09:58:56Z</time>
      </trkpt>
      <trkpt lat="47.97794" lon="6.98629">
        <ele>1209.1</ele>
        <time>2023-05-19T09:59:08Z</time>
      </trkpt>
      <trkpt lat="47.97803" lon="6.98622">
        <ele>1208.2</ele>
        <time>2023-05-19T09:59:16Z</time>
      </trkpt>
      <trkpt lat="47.97808" lon="6.98618">
        <ele>1207.7</ele>
        <time>2023-05-19T09:59:20Z</time>
      </trkpt>
      <trkpt lat="47.97826" lon="6.98602">
        <ele>1204.9</ele>
        <time>2023-05-19T09:59:36Z</time>
      </trkpt>
      <trkpt lat="47.9783" lon="6.98598">
        <ele>1204.4</ele>
        <time>2023-05-19T09:59:40Z</time>
      </trkpt>
      <trkpt lat="47.97834" lon="6.98594">
        <ele>1204</ele>
        <time>2023-05-19T09:59:44Z</time>
      </trkpt>
      <trkpt lat="47.97838" lon="6.9859">
        <ele>1203.7</ele>
        <time>2023-05-19T09:59:48Z</time>
      </trkpt>
      <trkpt lat="47.97846" lon="6.98582">
        <ele>1203</ele>
        <time>2023-05-19T09:59:56Z</time>
      </trkpt>
      <trkpt lat="47.9785" lon="6.9858">
        <ele>1202.7</ele>
        <time>2023-05-19T10:00:00Z</time>
      </trkpt>
      <trkpt lat="47.97854" lon="6.98576">
        <ele>1202.2</ele>
        <time>2023-05-19T10:00:04Z</time>
      </trkpt>
      <trkpt lat="47.97863" lon="6.9857">
        <ele>1201.3</ele>
        <time>2023-05-19T10:00:13Z</time>
      </trkpt>
      <trkpt lat="47.97867" lon="6.98565">
        <ele>1200.7</ele>
        <time>2023-05-19T10:00:17Z</time>
      </trkpt>
      <trkpt lat="47.97871" lon="6.9856">
        <ele>1200.1</ele>
        <time>2023-05-19T10:00:21Z</time>
      </trkpt>
      <trkpt lat="47.97875" lon="6.98556">
        <ele>1199.5</ele>
        <time>2023-05-19T10:00:25Z</time>
      </trkpt>
      <trkpt lat="47.97879" lon="6.98552">
        <ele>1198.8</ele>
        <time>2023-05-19T10:00:29Z</time>
      </trkpt>
      <trkpt lat="47.97884" lon="6.98552">
        <ele>1198.3</ele>
        <time>2023-05-19T10:00:33Z</time>
      </trkpt>
      <trkpt lat="47.97889" lon="6.98552">
        <ele>1197.7</ele>
        <time>2023-05-19T10:00:37Z</time>
      </trkpt>
      <trkpt lat="47.97893" lon="6.9855">
        <ele>1197.2</ele>
        <time>2023-05-19T10:00:41Z</time>
      </trkpt>
      <trkpt lat="47.97898" lon="6.98545">
        <ele>1196.5</ele>
        <time>2023-05-19T10:00:45Z</time>
      </trkpt>
      <trkpt lat="47.97902" lon="6.98543">
        <ele>1196.1</ele>
        <time>2023-05-19T10:00:49Z</time>
      </trkpt>
      <trkpt lat="47.97921" lon="6.9853">
        <ele>1194.7</ele>
        <time>2023-05-19T10:01:04Z</time>
      </trkpt>
      <trkpt lat="47.97925" lon="6.98526">
        <ele>1194.3</ele>
        <time>2023-05-19T10:01:08Z</time>
      </trkpt>
      <trkpt lat="47.9793" lon="6.98523">
        <ele>1193.8</ele>
        <time>2023-05-19T10:01:12Z</time>
      </trkpt>
      <trkpt lat="47.97935" lon="6.9852">
        <ele>1193.3</ele>
        <time>2023-05-19T10:01:16Z</time>
      </trkpt>
      <trkpt lat="47.97939" lon="6.98518">
        <ele>1193</ele>
        <time>2023-05-19T10:01:20Z</time>
      </trkpt>
      <trkpt lat="47.97948" lon="6.9851">
        <ele>1192.2</ele>
        <time>2023-05-19T10:01:28Z</time>
      </trkpt>
      <trkpt lat="47.97953" lon="6.98507">
        <ele>1191.9</ele>
        <time>2023-05-19T10:01:32Z</time>
      </trkpt>
      <trkpt lat="47.97958" lon="6.98505">
        <ele>1191.6</ele>
        <time>2023-05-19T10:01:36Z</time>
      </trkpt>
      <trkpt lat="47.97962" lon="6.98503">
        <ele>1191.4</ele>
        <time>2023-05-19T10:01:39Z</time>
      </trkpt>
      <trkpt lat="47.97968" lon="6.985">
        <ele>1191.2</ele>
        <time>2023-05-19T10:01:43Z</time>
      </trkpt>
      <trkpt lat="47.97977" lon="6.98495">
        <ele>1190.9</ele>
        <time>2023-05-19T10:01:50Z</time>
      </trkpt>
      <trkpt lat="47.97982" lon="6.98492">
        <ele>1190.8</ele>
        <time>2023-05-19T10:01:54Z</time>
      </trkpt>
      <trkpt lat="47.97986" lon="6.98488">
        <ele>1190.8</ele>
        <time>2023-05-19T10:01:57Z</time>
      </trkpt>
      <trkpt lat="47.9799" lon="6.98484">
        <ele>1190.8</ele>
        <time>2023-05-19T10:02:01Z</time>
      </trkpt>
      <trkpt lat="47.97994" lon="6.98483">
        <ele>1190.9</ele>
        <time>2023-05-19T10:02:04Z</time>
      </trkpt>
      <trkpt lat="47.97999" lon="6.9848">
        <ele>1191</ele>
        <time>2023-05-19T10:02:08Z</time>
      </trkpt>
      <trkpt lat="47.98007" lon="6.98475">
        <ele>1191.5</ele>
        <time>2023-05-19T10:02:16Z</time>
      </trkpt>
      <trkpt lat="47.98011" lon="6.9847">
        <ele>1191.8</ele>
        <time>2023-05-19T10:02:19Z</time>
      </trkpt>
      <trkpt lat="47.98015" lon="6.98467">
        <ele>1192.2</ele>
        <time>2023-05-19T10:02:23Z</time>
      </trkpt>
      <trkpt lat="47.9802" lon="6.98463">
        <ele>1192.7</ele>
        <time>2023-05-19T10:02:27Z</time>
      </trkpt>
      <trkpt lat="47.98024" lon="6.98461">
        <ele>1193.1</ele>
        <time>2023-05-19T10:02:31Z</time>
      </trkpt>
      <trkpt lat="47.9803" lon="6.98456">
        <ele>1193.8</ele>
        <time>2023-05-19T10:02:37Z</time>
      </trkpt>
      <trkpt lat="47.98039" lon="6.98451">
        <ele>1194.9</ele>
        <time>2023-05-19T10:02:45Z</time>
      </trkpt>
      <trkpt lat="47.98043" lon="6.98447">
        <ele>1195.5</ele>
        <time>2023-05-19T10:02:49Z</time>
      </trkpt>
      <trkpt lat="47.9805" lon="6.98442">
        <ele>1196.4</ele>
        <time>2023-05-19T10:02:56Z</time>
      </trkpt>
      <trkpt lat="47.98054" lon="6.98441">
        <ele>1196.8</ele>
        <time>2023-05-19T10:03:00Z</time>
      </trkpt>
      <trkpt lat="47.98058" lon="6.98438">
        <ele>1197.2</ele>
        <time>2023-05-19T10:03:03Z</time>
      </trkpt>
      <trkpt lat="47.98074" lon="6.98427">
        <ele>1198.7</ele>
        <time>2023-05-19T10:03:19Z</time>
      </trkpt>
      <trkpt lat="47.98083" lon="6.98421">
        <ele>1199.8</ele>
        <time>2023-05-19T10:03:27Z</time>
      </trkpt>
      <trkpt lat="47.98087" lon="6.98418">
        <ele>1200.3</ele>
        <time>2023-05-19T10:03:31Z</time>
      </trkpt>
      <trkpt lat="47.98091" lon="6.98416">
        <ele>1200.9</ele>
        <time>2023-05-19T10:03:35Z</time>
      </trkpt>
      <trkpt lat="47.98096" lon="6.98412">
        <ele>1201.6</ele>
        <time>2023-05-19T10:03:40Z</time>
      </trkpt>
      <trkpt lat="47.981" lon="6.98407">
        <ele>1202.4</ele>
        <time>2023-05-19T10:03:48Z</time>
      </trkpt>
      <trkpt lat="47.98104" lon="6.98405">
        <ele>1203</ele>
        <time>2023-05-19T10:03:52Z</time>
      </trkpt>
      <trkpt lat="47.9811" lon="6.98401">
        <ele>1204</ele>
        <time>2023-05-19T10:03:59Z</time>
      </trkpt>
      <trkpt lat="47.98117" lon="6.98398">
        <ele>1205</ele>
        <time>2023-05-19T10:04:05Z</time>
      </trkpt>
      <trkpt lat="47.98125" lon="6.98394">
        <ele>1206.2</ele>
        <time>2023-05-19T10:04:13Z</time>
      </trkpt>
      <trkpt lat="47.98132" lon="6.98393">
        <ele>1207.1</ele>
        <time>2023-05-19T10:04:45Z</time>
      </trkpt>
      <trkpt lat="47.98136" lon="6.98392">
        <ele>1207.6</ele>
        <time>2023-05-19T10:04:49Z</time>
      </trkpt>
      <trkpt lat="47.98142" lon="6.98391">
        <ele>1208.1</ele>
        <time>2023-05-19T10:04:55Z</time>
      </trkpt>
      <trkpt lat="47.98147" lon="6.98388">
        <ele>1208.6</ele>
        <time>2023-05-19T10:04:59Z</time>
      </trkpt>
      <trkpt lat="47.98153" lon="6.98388">
        <ele>1209</ele>
        <time>2023-05-19T10:05:03Z</time>
      </trkpt>
      <trkpt lat="47.98162" lon="6.98384">
        <ele>1209.8</ele>
        <time>2023-05-19T10:05:11Z</time>
      </trkpt>
      <trkpt lat="47.98173" lon="6.98379">
        <ele>1211</ele>
        <time>2023-05-19T10:05:21Z</time>
      </trkpt>
      <trkpt lat="47.98178" lon="6.98379">
        <ele>1211.6</ele>
        <time>2023-05-19T10:05:25Z</time>
      </trkpt>
      <trkpt lat="47.98187" lon="6.98377">
        <ele>1212.6</ele>
        <time>2023-05-19T10:05:33Z</time>
      </trkpt>
      <trkpt lat="47.98196" lon="6.98374">
        <ele>1213.7</ele>
        <time>2023-05-19T10:05:42Z</time>
      </trkpt>
      <trkpt lat="47.98205" lon="6.98371">
        <ele>1214.8</ele>
        <time>2023-05-19T10:05:50Z</time>
      </trkpt>
      <trkpt lat="47.98211" lon="6.9837">
        <ele>1215.5</ele>
        <time>2023-05-19T10:05:56Z</time>
      </trkpt>
      <trkpt lat="47.98216" lon="6.98368">
        <ele>1216.1</ele>
        <time>2023-05-19T10:06:00Z</time>
      </trkpt>
      <trkpt lat="47.98226" lon="6.98364">
        <ele>1217.2</ele>
        <time>2023-05-19T10:06:08Z</time>
      </trkpt>
      <trkpt lat="47.9823" lon="6.98363">
        <ele>1217.5</ele>
        <time>2023-05-19T10:06:12Z</time>
      </trkpt>
      <trkpt lat="47.98244" lon="6.98356">
        <ele>1218.4</ele>
        <time>2023-05-19T10:06:26Z</time>
      </trkpt>
      <trkpt lat="47.98254" lon="6.9835">
        <ele>1218.7</ele>
        <time>2023-05-19T10:06:34Z</time>
      </trkpt>
      <trkpt lat="47.98259" lon="6.98348">
        <ele>1218.8</ele>
        <time>2023-05-19T10:06:38Z</time>
      </trkpt>
      <trkpt lat="47.98263" lon="6.98344">
        <ele>1219</ele>
        <time>2023-05-19T10:06:42Z</time>
      </trkpt>
      <trkpt lat="47.98267" lon="6.98339">
        <ele>1219.2</ele>
        <time>2023-05-19T10:06:46Z</time>
      </trkpt>
      <trkpt lat="47.98273" lon="6.98338">
        <ele>1219.5</ele>
        <time>2023-05-19T10:06:51Z</time>
      </trkpt>
      <trkpt lat="47.98277" lon="6.98336">
        <ele>1219.9</ele>
        <time>2023-05-19T10:06:55Z</time>
      </trkpt>
      <trkpt lat="47.98289" lon="6.98335">
        <ele>1221.1</ele>
        <time>2023-05-19T10:07:07Z</time>
      </trkpt>
      <trkpt lat="47.98293" lon="6.98339">
        <ele>1221.2</ele>
        <time>2023-05-19T10:07:10Z</time>
      </trkpt>
      <trkpt lat="47.98299" lon="6.98338">
        <ele>1221.9</ele>
        <time>2023-05-19T10:07:15Z</time>
      </trkpt>
      <trkpt lat="47.98305" lon="6.98336">
        <ele>1222.7</ele>
        <time>2023-05-19T10:07:19Z</time>
      </trkpt>
      <trkpt lat="47.9831" lon="6.98332">
        <ele>1223.3</ele>
        <time>2023-05-19T10:07:23Z</time>
      </trkpt>
      <trkpt lat="47.98331" lon="6.98313">
        <ele>1226.1</ele>
        <time>2023-05-19T10:07:45Z</time>
      </trkpt>
      <trkpt lat="47.98333" lon="6.98305">
        <ele>1227</ele>
        <time>2023-05-19T10:07:50Z</time>
      </trkpt>
      <trkpt lat="47.98338" lon="6.98298">
        <ele>1227.4</ele>
        <time>2023-05-19T10:07:56Z</time>
      </trkpt>
      <trkpt lat="47.98342" lon="6.98295">
        <ele>1227.6</ele>
        <time>2023-05-19T10:08:00Z</time>
      </trkpt>
      <trkpt lat="47.98345" lon="6.9829">
        <ele>1227.9</ele>
        <time>2023-05-19T10:08:05Z</time>
      </trkpt>
      <trkpt lat="47.98349" lon="6.98284">
        <ele>1228.4</ele>
        <time>2023-05-19T10:08:09Z</time>
      </trkpt>
      <trkpt lat="47.98356" lon="6.98277">
        <ele>1229</ele>
        <time>2023-05-19T10:08:18Z</time>
      </trkpt>
      <trkpt lat="47.9836" lon="6.98272">
        <ele>1228.8</ele>
        <time>2023-05-19T10:08:22Z</time>
      </trkpt>
      <trkpt lat="47.98362" lon="6.98266">
        <ele>1228.5</ele>
        <time>2023-05-19T10:08:25Z</time>
      </trkpt>
      <trkpt lat="47.98366" lon="6.98261">
        <ele>1228</ele>
        <time>2023-05-19T10:08:35Z</time>
      </trkpt>
      <trkpt lat="47.98362" lon="6.98257">
        <ele>1228.2</ele>
        <time>2023-05-19T10:09:36Z</time>
      </trkpt>
      <trkpt lat="47.98363" lon="6.98257">
        <ele>1228.1</ele>
        <time>2023-05-19T10:13:59Z</time>
      </trkpt>
      <trkpt lat="47.98365" lon="6.98263">
        <ele>1228.1</ele>
        <time>2023-05-19T11:01:53Z</time>
      </trkpt>
      <trkpt lat="47.98366" lon="6.98263">
        <ele>1228</ele>
        <time>2023-05-19T11:01:54Z</time>
      </trkpt>
      <trkpt lat="47.98381" lon="6.98264">
        <ele>1226.7</ele>
        <time>2023-05-19T11:02:13Z</time>
      </trkpt>
      <trkpt lat="47.98386" lon="6.98263">
        <ele>1226.3</ele>
        <time>2023-05-19T11:02:18Z</time>
      </trkpt>
      <trkpt lat="47.9839" lon="6.98262">
        <ele>1225.8</ele>
        <time>2023-05-19T11:02:22Z</time>
      </trkpt>
      <trkpt lat="47.98399" lon="6.98256">
        <ele>1224.5</ele>
        <time>2023-05-19T11:02:30Z</time>
      </trkpt>
      <trkpt lat="47.98403" lon="6.98253">
        <ele>1224</ele>
        <time>2023-05-19T11:02:34Z</time>
      </trkpt>
      <trkpt lat="47.98407" lon="6.9825">
        <ele>1223.4</ele>
        <time>2023-05-19T11:02:38Z</time>
      </trkpt>
      <trkpt lat="47.9841" lon="6.98246">
        <ele>1222.9</ele>
        <time>2023-05-19T11:02:42Z</time>
      </trkpt>
      <trkpt lat="47.98414" lon="6.9824">
        <ele>1222.3</ele>
        <time>2023-05-19T11:02:46Z</time>
      </trkpt>
      <trkpt lat="47.98416" lon="6.98234">
        <ele>1222.1</ele>
        <time>2023-05-19T11:02:50Z</time>
      </trkpt>
      <trkpt lat="47.98417" lon="6.98226">
        <ele>1222</ele>
        <time>2023-05-19T11:02:54Z</time>
      </trkpt>
      <trkpt lat="47.98416" lon="6.98218">
        <ele>1222.2</ele>
        <time>2023-05-19T11:02:58Z</time>
      </trkpt>
      <trkpt lat="47.98414" lon="6.98211">
        <ele>1222.6</ele>
        <time>2023-05-19T11:03:02Z</time>
      </trkpt>
      <trkpt lat="47.98414" lon="6.98204">
        <ele>1222.8</ele>
        <time>2023-05-19T11:03:06Z</time>
      </trkpt>
      <trkpt lat="47.9842" lon="6.98191">
        <ele>1223.1</ele>
        <time>2023-05-19T11:03:14Z</time>
      </trkpt>
      <trkpt lat="47.98424" lon="6.98188">
        <ele>1223.3</ele>
        <time>2023-05-19T11:03:19Z</time>
      </trkpt>
      <trkpt lat="47.98429" lon="6.98184">
        <ele>1223.4</ele>
        <time>2023-05-19T11:03:23Z</time>
      </trkpt>
      <trkpt lat="47.98434" lon="6.98178">
        <ele>1223.6</ele>
        <time>2023-05-19T11:03:30Z</time>
      </trkpt>
      <trkpt lat="47.98438" lon="6.98174">
        <ele>1223.8</ele>
        <time>2023-05-19T11:03:34Z</time>
      </trkpt>
      <trkpt lat="47.98442" lon="6.98171">
        <ele>1223.9</ele>
        <time>2023-05-19T11:03:37Z</time>
      </trkpt>
      <trkpt lat="47.98453" lon="6.98158">
        <ele>1223.7</ele>
        <time>2023-05-19T11:03:47Z</time>
      </trkpt>
      <trkpt lat="47.98457" lon="6.98154">
        <ele>1223.5</ele>
        <time>2023-05-19T11:03:50Z</time>
      </trkpt>
      <trkpt lat="47.98461" lon="6.98149">
        <ele>1223.4</ele>
        <time>2023-05-19T11:03:54Z</time>
      </trkpt>
      <trkpt lat="47.98465" lon="6.98143">
        <ele>1223.1</ele>
        <time>2023-05-19T11:03:58Z</time>
      </trkpt>
      <trkpt lat="47.98478" lon="6.98122">
        <ele>1223</ele>
        <time>2023-05-19T11:04:13Z</time>
      </trkpt>
      <trkpt lat="47.98488" lon="6.98106">
        <ele>1223</ele>
        <time>2023-05-19T11:04:24Z</time>
      </trkpt>
      <trkpt lat="47.98493" lon="6.98101">
        <ele>1223.2</ele>
        <time>2023-05-19T11:04:29Z</time>
      </trkpt>
      <trkpt lat="47.98499" lon="6.98089">
        <ele>1223.7</ele>
        <time>2023-05-19T11:04:37Z</time>
      </trkpt>
      <trkpt lat="47.98506" lon="6.9808">
        <ele>1224.4</ele>
        <time>2023-05-19T11:04:45Z</time>
      </trkpt>
      <trkpt lat="47.98509" lon="6.98074">
        <ele>1224.8</ele>
        <time>2023-05-19T11:04:49Z</time>
      </trkpt>
      <trkpt lat="47.98514" lon="6.98062">
        <ele>1225.7</ele>
        <time>2023-05-19T11:04:57Z</time>
      </trkpt>
      <trkpt lat="47.98525" lon="6.98054">
        <ele>1226.9</ele>
        <time>2023-05-19T11:05:08Z</time>
      </trkpt>
      <trkpt lat="47.98527" lon="6.98048">
        <ele>1227.5</ele>
        <time>2023-05-19T11:05:12Z</time>
      </trkpt>
      <trkpt lat="47.9853" lon="6.98043">
        <ele>1228.1</ele>
        <time>2023-05-19T11:05:17Z</time>
      </trkpt>
      <trkpt lat="47.98539" lon="6.98032">
        <ele>1229.9</ele>
        <time>2023-05-19T11:05:30Z</time>
      </trkpt>
      <trkpt lat="47.98555" lon="6.98023">
        <ele>1231.6</ele>
        <time>2023-05-19T11:05:47Z</time>
      </trkpt>
      <trkpt lat="47.9856" lon="6.98024">
        <ele>1231.6</ele>
        <time>2023-05-19T11:05:51Z</time>
      </trkpt>
      <trkpt lat="47.98567" lon="6.98023">
        <ele>1231.3</ele>
        <time>2023-05-19T11:05:57Z</time>
      </trkpt>
      <trkpt lat="47.98597" lon="6.98019">
        <ele>1231.2</ele>
        <time>2023-05-19T11:06:21Z</time>
      </trkpt>
      <trkpt lat="47.98635" lon="6.98009">
        <ele>1233.6</ele>
        <time>2023-05-19T11:06:54Z</time>
      </trkpt>
      <trkpt lat="47.98642" lon="6.98009">
        <ele>1234.4</ele>
        <time>2023-05-19T11:07:02Z</time>
      </trkpt>
      <trkpt lat="47.98657" lon="6.98006">
        <ele>1236.5</ele>
        <time>2023-05-19T11:07:18Z</time>
      </trkpt>
      <trkpt lat="47.98663" lon="6.98004">
        <ele>1237.3</ele>
        <time>2023-05-19T11:07:23Z</time>
      </trkpt>
      <trkpt lat="47.9867" lon="6.97996">
        <ele>1237.2</ele>
        <time>2023-05-19T11:07:31Z</time>
      </trkpt>
      <trkpt lat="47.98674" lon="6.97994">
        <ele>1236.7</ele>
        <time>2023-05-19T11:07:35Z</time>
      </trkpt>
      <trkpt lat="47.9868" lon="6.97995">
        <ele>1236.7</ele>
        <time>2023-05-19T11:07:39Z</time>
      </trkpt>
      <trkpt lat="47.98683" lon="6.98">
        <ele>1237.4</ele>
        <time>2023-05-19T11:07:43Z</time>
      </trkpt>
      <trkpt lat="47.98688" lon="6.97998">
        <ele>1236.9</ele>
        <time>2023-05-19T11:07:48Z</time>
      </trkpt>
      <trkpt lat="47.98693" lon="6.98001">
        <ele>1237.1</ele>
        <time>2023-05-19T11:07:53Z</time>
      </trkpt>
      <trkpt lat="47.98697" lon="6.98">
        <ele>1237</ele>
        <time>2023-05-19T11:07:57Z</time>
      </trkpt>
      <trkpt lat="47.98702" lon="6.98004">
        <ele>1237</ele>
        <time>2023-05-19T11:08:01Z</time>
      </trkpt>
      <trkpt lat="47.98712" lon="6.98006">
        <ele>1237.1</ele>
        <time>2023-05-19T11:08:09Z</time>
      </trkpt>
      <trkpt lat="47.98722" lon="6.98008">
        <ele>1237.3</ele>
        <time>2023-05-19T11:08:17Z</time>
      </trkpt>
      <trkpt lat="47.98736" lon="6.9801">
        <ele>1238</ele>
        <time>2023-05-19T11:08:27Z</time>
      </trkpt>
      <trkpt lat="47.98746" lon="6.98009">
        <ele>1238.5</ele>
        <time>2023-05-19T11:08:35Z</time>
      </trkpt>
      <trkpt lat="47.98751" lon="6.9801">
        <ele>1238.8</ele>
        <time>2023-05-19T11:08:39Z</time>
      </trkpt>
      <trkpt lat="47.98759" lon="6.98016">
        <ele>1240.1</ele>
        <time>2023-05-19T11:08:47Z</time>
      </trkpt>
      <trkpt lat="47.98768" lon="6.98023">
        <ele>1241.2</ele>
        <time>2023-05-19T11:08:56Z</time>
      </trkpt>
      <trkpt lat="47.98777" lon="6.98025">
        <ele>1241.9</ele>
        <time>2023-05-19T11:09:04Z</time>
      </trkpt>
      <trkpt lat="47.98782" lon="6.98027">
        <ele>1242.5</ele>
        <time>2023-05-19T11:09:08Z</time>
      </trkpt>
      <trkpt lat="47.98802" lon="6.98035">
        <ele>1244.6</ele>
        <time>2023-05-19T11:09:29Z</time>
      </trkpt>
      <trkpt lat="47.98811" lon="6.98037">
        <ele>1245.5</ele>
        <time>2023-05-19T11:09:37Z</time>
      </trkpt>
      <trkpt lat="47.9882" lon="6.98041">
        <ele>1246.1</ele>
        <time>2023-05-19T11:09:45Z</time>
      </trkpt>
      <trkpt lat="47.98825" lon="6.98041">
        <ele>1246.4</ele>
        <time>2023-05-19T11:09:48Z</time>
      </trkpt>
      <trkpt lat="47.98833" lon="6.98043">
        <ele>1246.9</ele>
        <time>2023-05-19T11:09:56Z</time>
      </trkpt>
      <trkpt lat="47.98862" lon="6.98048">
        <ele>1245.7</ele>
        <time>2023-05-19T11:10:20Z</time>
      </trkpt>
      <trkpt lat="47.98872" lon="6.98048">
        <ele>1245.4</ele>
        <time>2023-05-19T11:10:27Z</time>
      </trkpt>
      <trkpt lat="47.98887" lon="6.98049">
        <ele>1245.1</ele>
        <time>2023-05-19T11:10:39Z</time>
      </trkpt>
      <trkpt lat="47.98918" lon="6.98053">
        <ele>1248</ele>
        <time>2023-05-19T11:11:09Z</time>
      </trkpt>
      <trkpt lat="47.98923" lon="6.98055">
        <ele>1247.8</ele>
        <time>2023-05-19T11:11:13Z</time>
      </trkpt>
      <trkpt lat="47.98928" lon="6.98055">
        <ele>1247.6</ele>
        <time>2023-05-19T11:11:17Z</time>
      </trkpt>
      <trkpt lat="47.98933" lon="6.98057">
        <ele>1247.4</ele>
        <time>2023-05-19T11:11:21Z</time>
      </trkpt>
      <trkpt lat="47.98938" lon="6.98057">
        <ele>1247.2</ele>
        <time>2023-05-19T11:11:25Z</time>
      </trkpt>
      <trkpt lat="47.98943" lon="6.98057">
        <ele>1247</ele>
        <time>2023-05-19T11:11:28Z</time>
      </trkpt>
      <trkpt lat="47.98953" lon="6.98058">
        <ele>1247.2</ele>
        <time>2023-05-19T11:11:37Z</time>
      </trkpt>
      <trkpt lat="47.98976" lon="6.9806">
        <ele>1248.5</ele>
        <time>2023-05-19T11:11:56Z</time>
      </trkpt>
      <trkpt lat="47.99014" lon="6.98064">
        <ele>1251.8</ele>
        <time>2023-05-19T11:12:29Z</time>
      </trkpt>
      <trkpt lat="47.99028" lon="6.98067">
        <ele>1252</ele>
        <time>2023-05-19T11:12:40Z</time>
      </trkpt>
      <trkpt lat="47.99033" lon="6.98068">
        <ele>1252.5</ele>
        <time>2023-05-19T11:12:44Z</time>
      </trkpt>
      <trkpt lat="47.99038" lon="6.98069">
        <ele>1252.9</ele>
        <time>2023-05-19T11:12:47Z</time>
      </trkpt>
      <trkpt lat="47.99063" lon="6.98074">
        <ele>1255.5</ele>
        <time>2023-05-19T11:13:12Z</time>
      </trkpt>
      <trkpt lat="47.99068" lon="6.98075">
        <ele>1256</ele>
        <time>2023-05-19T11:13:17Z</time>
      </trkpt>
      <trkpt lat="47.99087" lon="6.9808">
        <ele>1258.3</ele>
        <time>2023-05-19T11:13:32Z</time>
      </trkpt>
      <trkpt lat="47.99092" lon="6.98081">
        <ele>1258.9</ele>
        <time>2023-05-19T11:13:36Z</time>
      </trkpt>
      <trkpt lat="47.99098" lon="6.98084">
        <ele>1259.6</ele>
        <time>2023-05-19T11:13:44Z</time>
      </trkpt>
      <trkpt lat="47.99102" lon="6.98085">
        <ele>1260</ele>
        <time>2023-05-19T11:13:48Z</time>
      </trkpt>
      <trkpt lat="47.99112" lon="6.98087">
        <ele>1261</ele>
        <time>2023-05-19T11:13:57Z</time>
      </trkpt>
      <trkpt lat="47.99117" lon="6.98087">
        <ele>1261.5</ele>
        <time>2023-05-19T11:14:02Z</time>
      </trkpt>
      <trkpt lat="47.99123" lon="6.98086">
        <ele>1262.2</ele>
        <time>2023-05-19T11:14:06Z</time>
      </trkpt>
      <trkpt lat="47.9913" lon="6.98087">
        <ele>1262.9</ele>
        <time>2023-05-19T11:14:13Z</time>
      </trkpt>
      <trkpt lat="47.99144" lon="6.9809">
        <ele>1264.7</ele>
        <time>2023-05-19T11:14:26Z</time>
      </trkpt>
      <trkpt lat="47.99153" lon="6.9809">
        <ele>1266.3</ele>
        <time>2023-05-19T11:14:33Z</time>
      </trkpt>
      <trkpt lat="47.99184" lon="6.98084">
        <ele>1272.7</ele>
        <time>2023-05-19T11:15:05Z</time>
      </trkpt>
      <trkpt lat="47.99192" lon="6.98083">
        <ele>1274.5</ele>
        <time>2023-05-19T11:15:14Z</time>
      </trkpt>
      <trkpt lat="47.99198" lon="6.98082">
        <ele>1275.8</ele>
        <time>2023-05-19T11:15:22Z</time>
      </trkpt>
      <trkpt lat="47.99203" lon="6.98081">
        <ele>1277.1</ele>
        <time>2023-05-19T11:15:28Z</time>
      </trkpt>
      <trkpt lat="47.99207" lon="6.98081">
        <ele>1278.1</ele>
        <time>2023-05-19T11:15:34Z</time>
      </trkpt>
      <trkpt lat="47.99218" lon="6.98079">
        <ele>1280.8</ele>
        <time>2023-05-19T11:15:51Z</time>
      </trkpt>
      <trkpt lat="47.99227" lon="6.98081">
        <ele>1282.6</ele>
        <time>2023-05-19T11:16:04Z</time>
      </trkpt>
      <trkpt lat="47.99235" lon="6.98079">
        <ele>1283.8</ele>
        <time>2023-05-19T11:16:14Z</time>
      </trkpt>
      <trkpt lat="47.99245" lon="6.98075">
        <ele>1285.2</ele>
        <time>2023-05-19T11:16:24Z</time>
      </trkpt>
      <trkpt lat="47.99256" lon="6.98073">
        <ele>1287</ele>
        <time>2023-05-19T11:16:36Z</time>
      </trkpt>
      <trkpt lat="47.99261" lon="6.98075">
        <ele>1287.9</ele>
        <time>2023-05-19T11:16:40Z</time>
      </trkpt>
      <trkpt lat="47.99265" lon="6.98076">
        <ele>1288.6</ele>
        <time>2023-05-19T11:16:45Z</time>
      </trkpt>
      <trkpt lat="47.99282" lon="6.98072">
        <ele>1291</ele>
        <time>2023-05-19T11:17:05Z</time>
      </trkpt>
      <trkpt lat="47.99287" lon="6.98072">
        <ele>1291.6</ele>
        <time>2023-05-19T11:17:09Z</time>
      </trkpt>
      <trkpt lat="47.99293" lon="6.98072">
        <ele>1292.2</ele>
        <time>2023-05-19T11:17:14Z</time>
      </trkpt>
      <trkpt lat="47.99297" lon="6.98069">
        <ele>1292.6</ele>
        <time>2023-05-19T11:17:19Z</time>
      </trkpt>
      <trkpt lat="47.99301" lon="6.9807">
        <ele>1293</ele>
        <time>2023-05-19T11:17:23Z</time>
      </trkpt>
      <trkpt lat="47.99306" lon="6.98072">
        <ele>1293.7</ele>
        <time>2023-05-19T11:17:28Z</time>
      </trkpt>
      <trkpt lat="47.99316" lon="6.98069">
        <ele>1295.2</ele>
        <time>2023-05-19T11:17:38Z</time>
      </trkpt>
      <trkpt lat="47.99335" lon="6.98068">
        <ele>1298.3</ele>
        <time>2023-05-19T11:18:01Z</time>
      </trkpt>
      <trkpt lat="47.99349" lon="6.98063">
        <ele>1301.5</ele>
        <time>2023-05-19T11:18:17Z</time>
      </trkpt>
      <trkpt lat="47.99354" lon="6.98059">
        <ele>1302.9</ele>
        <time>2023-05-19T11:18:24Z</time>
      </trkpt>
      <trkpt lat="47.99363" lon="6.98058">
        <ele>1305.1</ele>
        <time>2023-05-19T11:18:38Z</time>
      </trkpt>
      <trkpt lat="47.99368" lon="6.98053">
        <ele>1306.3</ele>
        <time>2023-05-19T11:18:49Z</time>
      </trkpt>
      <trkpt lat="47.99374" lon="6.98052">
        <ele>1307.5</ele>
        <time>2023-05-19T11:19:02Z</time>
      </trkpt>
      <trkpt lat="47.99379" lon="6.98049">
        <ele>1308.4</ele>
        <time>2023-05-19T11:19:20Z</time>
      </trkpt>
      <trkpt lat="47.99409" lon="6.98056">
        <ele>1309.5</ele>
        <time>2023-05-19T11:21:53Z</time>
      </trkpt>
      <trkpt lat="47.99417" lon="6.98062">
        <ele>1308.7</ele>
        <time>2023-05-19T11:22:04Z</time>
      </trkpt>
      <trkpt lat="47.99422" lon="6.9806">
        <ele>1307.3</ele>
        <time>2023-05-19T11:22:09Z</time>
      </trkpt>
      <trkpt lat="47.99428" lon="6.98059">
        <ele>1305.6</ele>
        <time>2023-05-19T11:22:18Z</time>
      </trkpt>
      <trkpt lat="47.99432" lon="6.98063">
        <ele>1304.3</ele>
        <time>2023-05-19T11:22:23Z</time>
      </trkpt>
      <trkpt lat="47.99442" lon="6.98066">
        <ele>1301.3</ele>
        <time>2023-05-19T11:22:37Z</time>
      </trkpt>
      <trkpt lat="47.99452" lon="6.98067">
        <ele>1298.7</ele>
        <time>2023-05-19T11:22:49Z</time>
      </trkpt>
      <trkpt lat="47.99456" lon="6.98066">
        <ele>1297.7</ele>
        <time>2023-05-19T11:22:54Z</time>
      </trkpt>
      <trkpt lat="47.99461" lon="6.98066">
        <ele>1296.5</ele>
        <time>2023-05-19T11:22:59Z</time>
      </trkpt>
      <trkpt lat="47.99488" lon="6.98074">
        <ele>1291.8</ele>
        <time>2023-05-19T11:23:21Z</time>
      </trkpt>
      <trkpt lat="47.99492" lon="6.98075">
        <ele>1291.4</ele>
        <time>2023-05-19T11:23:24Z</time>
      </trkpt>
      <trkpt lat="47.99513" lon="6.9808">
        <ele>1289.5</ele>
        <time>2023-05-19T11:23:39Z</time>
      </trkpt>
      <trkpt lat="47.99518" lon="6.98081">
        <ele>1289</ele>
        <time>2023-05-19T11:23:43Z</time>
      </trkpt>
      <trkpt lat="47.99528" lon="6.98082">
        <ele>1287.9</ele>
        <time>2023-05-19T11:23:50Z</time>
      </trkpt>
      <trkpt lat="47.9954" lon="6.98086">
        <ele>1287.1</ele>
        <time>2023-05-19T11:24:00Z</time>
      </trkpt>
      <trkpt lat="47.99555" lon="6.98087">
        <ele>1286</ele>
        <time>2023-05-19T11:24:13Z</time>
      </trkpt>
      <trkpt lat="47.9956" lon="6.98087">
        <ele>1285.4</ele>
        <time>2023-05-19T11:24:17Z</time>
      </trkpt>
      <trkpt lat="47.99565" lon="6.98088">
        <ele>1284.6</ele>
        <time>2023-05-19T11:24:21Z</time>
      </trkpt>
      <trkpt lat="47.99589" lon="6.98081">
        <ele>1281.6</ele>
        <time>2023-05-19T11:24:40Z</time>
      </trkpt>
      <trkpt lat="47.99593" lon="6.98078">
        <ele>1281.3</ele>
        <time>2023-05-19T11:24:44Z</time>
      </trkpt>
      <trkpt lat="47.99598" lon="6.98078">
        <ele>1280.9</ele>
        <time>2023-05-19T11:24:48Z</time>
      </trkpt>
      <trkpt lat="47.99603" lon="6.98077">
        <ele>1280.6</ele>
        <time>2023-05-19T11:24:51Z</time>
      </trkpt>
      <trkpt lat="47.99607" lon="6.98074">
        <ele>1280.3</ele>
        <time>2023-05-19T11:24:55Z</time>
      </trkpt>
      <trkpt lat="47.99628" lon="6.98065">
        <ele>1280</ele>
        <time>2023-05-19T11:25:10Z</time>
      </trkpt>
      <trkpt lat="47.99633" lon="6.98061">
        <ele>1280</ele>
        <time>2023-05-19T11:25:14Z</time>
      </trkpt>
      <trkpt lat="47.99637" lon="6.98061">
        <ele>1280</ele>
        <time>2023-05-19T11:25:17Z</time>
      </trkpt>
      <trkpt lat="47.99642" lon="6.98059">
        <ele>1280</ele>
        <time>2023-05-19T11:25:21Z</time>
      </trkpt>
      <trkpt lat="47.99647" lon="6.98058">
        <ele>1280</ele>
        <time>2023-05-19T11:25:25Z</time>
      </trkpt>
      <trkpt lat="47.99657" lon="6.98057">
        <ele>1280</ele>
        <time>2023-05-19T11:25:32Z</time>
      </trkpt>
      <trkpt lat="47.99661" lon="6.98054">
        <ele>1280</ele>
        <time>2023-05-19T11:25:35Z</time>
      </trkpt>
      <trkpt lat="47.99666" lon="6.98051">
        <ele>1280</ele>
        <time>2023-05-19T11:25:40Z</time>
      </trkpt>
      <trkpt lat="47.99681" lon="6.98048">
        <ele>1281</ele>
        <time>2023-05-19T11:25:51Z</time>
      </trkpt>
      <trkpt lat="47.99686" lon="6.98047">
        <ele>1281.4</ele>
        <time>2023-05-19T11:25:55Z</time>
      </trkpt>
      <trkpt lat="47.99709" lon="6.98036">
        <ele>1283.6</ele>
        <time>2023-05-19T11:26:12Z</time>
      </trkpt>
      <trkpt lat="47.99723" lon="6.98034">
        <ele>1285.1</ele>
        <time>2023-05-19T11:26:25Z</time>
      </trkpt>
      <trkpt lat="47.99727" lon="6.9803">
        <ele>1285.3</ele>
        <time>2023-05-19T11:26:29Z</time>
      </trkpt>
      <trkpt lat="47.99738" lon="6.98026">
        <ele>1286.1</ele>
        <time>2023-05-19T11:26:37Z</time>
      </trkpt>
      <trkpt lat="47.99743" lon="6.98026">
        <ele>1286.5</ele>
        <time>2023-05-19T11:26:41Z</time>
      </trkpt>
      <trkpt lat="47.99752" lon="6.98022">
        <ele>1287.2</ele>
        <time>2023-05-19T11:26:49Z</time>
      </trkpt>
      <trkpt lat="47.99777" lon="6.98017">
        <ele>1289.9</ele>
        <time>2023-05-19T11:27:10Z</time>
      </trkpt>
      <trkpt lat="47.99787" lon="6.98011">
        <ele>1290.8</ele>
        <time>2023-05-19T11:27:18Z</time>
      </trkpt>
      <trkpt lat="47.99792" lon="6.98012">
        <ele>1291.2</ele>
        <time>2023-05-19T11:27:22Z</time>
      </trkpt>
      <trkpt lat="47.99797" lon="6.98009">
        <ele>1291.6</ele>
        <time>2023-05-19T11:27:26Z</time>
      </trkpt>
      <trkpt lat="47.99802" lon="6.9801">
        <ele>1292.1</ele>
        <time>2023-05-19T11:27:30Z</time>
      </trkpt>
      <trkpt lat="47.99806" lon="6.98012">
        <ele>1292.4</ele>
        <time>2023-05-19T11:27:34Z</time>
      </trkpt>
      <trkpt lat="47.99817" lon="6.98012">
        <ele>1292.8</ele>
        <time>2023-05-19T11:27:42Z</time>
      </trkpt>
      <trkpt lat="47.99821" lon="6.98013">
        <ele>1293</ele>
        <time>2023-05-19T11:27:46Z</time>
      </trkpt>
      <trkpt lat="47.99829" lon="6.98016">
        <ele>1293.4</ele>
        <time>2023-05-19T11:27:53Z</time>
      </trkpt>
      <trkpt lat="47.99834" lon="6.98016">
        <ele>1293.6</ele>
        <time>2023-05-19T11:27:56Z</time>
      </trkpt>
      <trkpt lat="47.99839" lon="6.98017">
        <ele>1293.9</ele>
        <time>2023-05-19T11:28:00Z</time>
      </trkpt>
      <trkpt lat="47.99849" lon="6.98019">
        <ele>1294.4</ele>
        <time>2023-05-19T11:28:07Z</time>
      </trkpt>
      <trkpt lat="47.99854" lon="6.98019">
        <ele>1294.7</ele>
        <time>2023-05-19T11:28:11Z</time>
      </trkpt>
      <trkpt lat="47.99864" lon="6.98021">
        <ele>1295.4</ele>
        <time>2023-05-19T11:28:21Z</time>
      </trkpt>
      <trkpt lat="47.99869" lon="6.98022">
        <ele>1296.2</ele>
        <time>2023-05-19T11:28:25Z</time>
      </trkpt>
      <trkpt lat="47.99873" lon="6.98021">
        <ele>1296.8</ele>
        <time>2023-05-19T11:28:29Z</time>
      </trkpt>
      <trkpt lat="47.9988" lon="6.98025">
        <ele>1297.8</ele>
        <time>2023-05-19T11:28:35Z</time>
      </trkpt>
      <trkpt lat="47.99885" lon="6.98027">
        <ele>1298.5</ele>
        <time>2023-05-19T11:28:41Z</time>
      </trkpt>
      <trkpt lat="47.99896" lon="6.98024">
        <ele>1300.4</ele>
        <time>2023-05-19T11:28:52Z</time>
      </trkpt>
      <trkpt lat="47.99919" lon="6.98029">
        <ele>1303.8</ele>
        <time>2023-05-19T11:29:14Z</time>
      </trkpt>
      <trkpt lat="47.99929" lon="6.98029">
        <ele>1303.9</ele>
        <time>2023-05-19T11:29:22Z</time>
      </trkpt>
      <trkpt lat="47.99941" lon="6.9803">
        <ele>1303.9</ele>
        <time>2023-05-19T11:29:32Z</time>
      </trkpt>
      <trkpt lat="47.99946" lon="6.9803">
        <ele>1303.9</ele>
        <time>2023-05-19T11:29:36Z</time>
      </trkpt>
      <trkpt lat="47.99951" lon="6.98029">
        <ele>1304</ele>
        <time>2023-05-19T11:29:40Z</time>
      </trkpt>
      <trkpt lat="47.99956" lon="6.98029">
        <ele>1304</ele>
        <time>2023-05-19T11:29:44Z</time>
      </trkpt>
      <trkpt lat="47.99959" lon="6.98034">
        <ele>1303.8</ele>
        <time>2023-05-19T11:29:48Z</time>
      </trkpt>
      <trkpt lat="47.99969" lon="6.98039">
        <ele>1303.6</ele>
        <time>2023-05-19T11:29:56Z</time>
      </trkpt>
      <trkpt lat="47.99974" lon="6.98043">
        <ele>1303.4</ele>
        <time>2023-05-19T11:30:00Z</time>
      </trkpt>
      <trkpt lat="47.99979" lon="6.98043">
        <ele>1303.3</ele>
        <time>2023-05-19T11:30:04Z</time>
      </trkpt>
      <trkpt lat="47.99989" lon="6.98051">
        <ele>1303.1</ele>
        <time>2023-05-19T11:30:12Z</time>
      </trkpt>
      <trkpt lat="47.99998" lon="6.98056">
        <ele>1303</ele>
        <time>2023-05-19T11:30:19Z</time>
      </trkpt>
      <trkpt lat="48.00003" lon="6.98059">
        <ele>1303</ele>
        <time>2023-05-19T11:30:23Z</time>
      </trkpt>
      <trkpt lat="48.00008" lon="6.9806">
        <ele>1303.3</ele>
        <time>2023-05-19T11:30:28Z</time>
      </trkpt>
      <trkpt lat="48.00012" lon="6.98062">
        <ele>1303.5</ele>
        <time>2023-05-19T11:30:31Z</time>
      </trkpt>
      <trkpt lat="48.00017" lon="6.98064">
        <ele>1303.8</ele>
        <time>2023-05-19T11:30:35Z</time>
      </trkpt>
      <trkpt lat="48.00021" lon="6.98068">
        <ele>1304</ele>
        <time>2023-05-19T11:30:39Z</time>
      </trkpt>
      <trkpt lat="48.00026" lon="6.9807">
        <ele>1304.3</ele>
        <time>2023-05-19T11:30:43Z</time>
      </trkpt>
      <trkpt lat="48.0003" lon="6.98074">
        <ele>1304.6</ele>
        <time>2023-05-19T11:30:47Z</time>
      </trkpt>
      <trkpt lat="48.00042" lon="6.98079">
        <ele>1306</ele>
        <time>2023-05-19T11:30:58Z</time>
      </trkpt>
      <trkpt lat="48.00046" lon="6.98081">
        <ele>1306.5</ele>
        <time>2023-05-19T11:31:02Z</time>
      </trkpt>
      <trkpt lat="48.00051" lon="6.98082">
        <ele>1307.3</ele>
        <time>2023-05-19T11:31:06Z</time>
      </trkpt>
      <trkpt lat="48.00055" lon="6.98086">
        <ele>1307.9</ele>
        <time>2023-05-19T11:31:14Z</time>
      </trkpt>
      <trkpt lat="48.00061" lon="6.98086">
        <ele>1308.6</ele>
        <time>2023-05-19T11:31:19Z</time>
      </trkpt>
      <trkpt lat="48.00065" lon="6.98086">
        <ele>1309.1</ele>
        <time>2023-05-19T11:31:23Z</time>
      </trkpt>
      <trkpt lat="48.00071" lon="6.98092">
        <ele>1310</ele>
        <time>2023-05-19T11:31:32Z</time>
      </trkpt>
      <trkpt lat="48.00075" lon="6.98093">
        <ele>1310.6</ele>
        <time>2023-05-19T11:31:37Z</time>
      </trkpt>
      <trkpt lat="48.001" lon="6.98062">
        <ele>1302.3</ele>
        <time>2023-05-19T11:34:10Z</time>
      </trkpt>
      <trkpt lat="48.001" lon="6.98061">
        <ele>1302.1</ele>
        <time>2023-05-19T11:34:11Z</time>
      </trkpt>
      <trkpt lat="48.00099" lon="6.98048">
        <ele>1299.8</ele>
        <time>2023-05-19T11:34:24Z</time>
      </trkpt>
      <trkpt lat="48.00103" lon="6.98038">
        <ele>1297.3</ele>
        <time>2023-05-19T11:34:38Z</time>
      </trkpt>
      <trkpt lat="48.00111" lon="6.98035">
        <ele>1295.3</ele>
        <time>2023-05-19T11:34:48Z</time>
      </trkpt>
      <trkpt lat="48.00115" lon="6.98035">
        <ele>1294</ele>
        <time>2023-05-19T11:34:53Z</time>
      </trkpt>
      <trkpt lat="48.00118" lon="6.98028">
        <ele>1292</ele>
        <time>2023-05-19T11:34:59Z</time>
      </trkpt>
      <trkpt lat="48.00121" lon="6.98013">
        <ele>1289.8</ele>
        <time>2023-05-19T11:35:11Z</time>
      </trkpt>
      <trkpt lat="48.00133" lon="6.97983">
        <ele>1286.2</ele>
        <time>2023-05-19T11:35:32Z</time>
      </trkpt>
      <trkpt lat="48.00135" lon="6.97972">
        <ele>1285.5</ele>
        <time>2023-05-19T11:35:40Z</time>
      </trkpt>
      <trkpt lat="48.0014" lon="6.97972">
        <ele>1284.8</ele>
        <time>2023-05-19T11:35:44Z</time>
      </trkpt>
      <trkpt lat="48.00152" lon="6.97971">
        <ele>1282.6</ele>
        <time>2023-05-19T11:35:56Z</time>
      </trkpt>
      <trkpt lat="48.00157" lon="6.97969">
        <ele>1281.6</ele>
        <time>2023-05-19T11:36:03Z</time>
      </trkpt>
      <trkpt lat="48.00163" lon="6.97966">
        <ele>1280.4</ele>
        <time>2023-05-19T11:36:10Z</time>
      </trkpt>
      <trkpt lat="48.00168" lon="6.97967">
        <ele>1279.5</ele>
        <time>2023-05-19T11:36:15Z</time>
      </trkpt>
      <trkpt lat="48.00178" lon="6.97967">
        <ele>1277.4</ele>
        <time>2023-05-19T11:36:23Z</time>
      </trkpt>
      <trkpt lat="48.00195" lon="6.97967">
        <ele>1273.9</ele>
        <time>2023-05-19T11:36:41Z</time>
      </trkpt>
      <trkpt lat="48.00206" lon="6.97969">
        <ele>1271.5</ele>
        <time>2023-05-19T11:36:52Z</time>
      </trkpt>
      <trkpt lat="48.0021" lon="6.97969">
        <ele>1270.6</ele>
        <time>2023-05-19T11:36:56Z</time>
      </trkpt>
      <trkpt lat="48.00224" lon="6.97974">
        <ele>1267.5</ele>
        <time>2023-05-19T11:37:09Z</time>
      </trkpt>
      <trkpt lat="48.00233" lon="6.97974">
        <ele>1265.5</ele>
        <time>2023-05-19T11:37:18Z</time>
      </trkpt>
      <trkpt lat="48.00238" lon="6.97975">
        <ele>1264.4</ele>
        <time>2023-05-19T11:37:22Z</time>
      </trkpt>
      <trkpt lat="48.00257" lon="6.97975">
        <ele>1260.3</ele>
        <time>2023-05-19T11:37:37Z</time>
      </trkpt>
      <trkpt lat="48.00276" lon="6.97982">
        <ele>1255.7</ele>
        <time>2023-05-19T11:37:57Z</time>
      </trkpt>
      <trkpt lat="48.00281" lon="6.97982">
        <ele>1254.6</ele>
        <time>2023-05-19T11:38:01Z</time>
      </trkpt>
      <trkpt lat="48.00292" lon="6.97988">
        <ele>1251.9</ele>
        <time>2023-05-19T11:38:14Z</time>
      </trkpt>
      <trkpt lat="48.00297" lon="6.97987">
        <ele>1250.8</ele>
        <time>2023-05-19T11:38:18Z</time>
      </trkpt>
      <trkpt lat="48.00302" lon="6.97989">
        <ele>1249.7</ele>
        <time>2023-05-19T11:38:23Z</time>
      </trkpt>
      <trkpt lat="48.00325" lon="6.97988">
        <ele>1243.8</ele>
        <time>2023-05-19T11:38:48Z</time>
      </trkpt>
      <trkpt lat="48.00329" lon="6.97989">
        <ele>1242.8</ele>
        <time>2023-05-19T11:38:54Z</time>
      </trkpt>
      <trkpt lat="48.00333" lon="6.97993">
        <ele>1241.8</ele>
        <time>2023-05-19T11:39:00Z</time>
      </trkpt>
      <trkpt lat="48.0034" lon="6.97995">
        <ele>1239.9</ele>
        <time>2023-05-19T11:39:07Z</time>
      </trkpt>
      <trkpt lat="48.00344" lon="6.97991">
        <ele>1238.6</ele>
        <time>2023-05-19T11:39:11Z</time>
      </trkpt>
      <trkpt lat="48.00362" lon="6.97994">
        <ele>1233.6</ele>
        <time>2023-05-19T11:39:30Z</time>
      </trkpt>
      <trkpt lat="48.00367" lon="6.97994">
        <ele>1232.3</ele>
        <time>2023-05-19T11:39:34Z</time>
      </trkpt>
      <trkpt lat="48.00372" lon="6.97992">
        <ele>1231</ele>
        <time>2023-05-19T11:39:41Z</time>
      </trkpt>
      <trkpt lat="48.00384" lon="6.97999">
        <ele>1228.2</ele>
        <time>2023-05-19T11:39:52Z</time>
      </trkpt>
      <trkpt lat="48.00423" lon="6.98">
        <ele>1219.9</ele>
        <time>2023-05-19T11:40:24Z</time>
      </trkpt>
      <trkpt lat="48.00458" lon="6.98002">
        <ele>1213.5</ele>
        <time>2023-05-19T11:40:57Z</time>
      </trkpt>
      <trkpt lat="48.00469" lon="6.98003">
        <ele>1211.6</ele>
        <time>2023-05-19T11:41:06Z</time>
      </trkpt>
      <trkpt lat="48.00479" lon="6.98005">
        <ele>1210</ele>
        <time>2023-05-19T11:41:14Z</time>
      </trkpt>
      <trkpt lat="48.00494" lon="6.98006">
        <ele>1207.9</ele>
        <time>2023-05-19T11:41:26Z</time>
      </trkpt>
      <trkpt lat="48.00504" lon="6.98003">
        <ele>1206.6</ele>
        <time>2023-05-19T11:41:34Z</time>
      </trkpt>
      <trkpt lat="48.00509" lon="6.98003">
        <ele>1206</ele>
        <time>2023-05-19T11:41:38Z</time>
      </trkpt>
      <trkpt lat="48.00515" lon="6.98004">
        <ele>1205.3</ele>
        <time>2023-05-19T11:41:42Z</time>
      </trkpt>
      <trkpt lat="48.0052" lon="6.98002">
        <ele>1204.8</ele>
        <time>2023-05-19T11:41:46Z</time>
      </trkpt>
      <trkpt lat="48.00525" lon="6.98002">
        <ele>1204.2</ele>
        <time>2023-05-19T11:41:48Z</time>
      </trkpt>
      <trkpt lat="48.00534" lon="6.98001">
        <ele>1204</ele>
        <time>2023-05-19T11:41:56Z</time>
      </trkpt>
      <trkpt lat="48.00539" lon="6.98002">
        <ele>1204</ele>
        <time>2023-05-19T11:42:00Z</time>
      </trkpt>
      <trkpt lat="48.00543" lon="6.98002">
        <ele>1204</ele>
        <time>2023-05-19T11:42:04Z</time>
      </trkpt>
      <trkpt lat="48.00548" lon="6.98004">
        <ele>1204.1</ele>
        <time>2023-05-19T11:42:09Z</time>
      </trkpt>
      <trkpt lat="48.00552" lon="6.98006">
        <ele>1204.2</ele>
        <time>2023-05-19T11:42:13Z</time>
      </trkpt>
      <trkpt lat="48.00578" lon="6.9802">
        <ele>1206.9</ele>
        <time>2023-05-19T11:42:37Z</time>
      </trkpt>
      <trkpt lat="48.00582" lon="6.98022">
        <ele>1207.4</ele>
        <time>2023-05-19T11:42:41Z</time>
      </trkpt>
      <trkpt lat="48.00586" lon="6.98025">
        <ele>1208.3</ele>
        <time>2023-05-19T11:42:45Z</time>
      </trkpt>
      <trkpt lat="48.00591" lon="6.98026">
        <ele>1209.3</ele>
        <time>2023-05-19T11:42:50Z</time>
      </trkpt>
      <trkpt lat="48.00625" lon="6.98039">
        <ele>1216.6</ele>
        <time>2023-05-19T11:43:27Z</time>
      </trkpt>
      <trkpt lat="48.0063" lon="6.9804">
        <ele>1217.8</ele>
        <time>2023-05-19T11:43:35Z</time>
      </trkpt>
      <trkpt lat="48.00639" lon="6.98037">
        <ele>1219.7</ele>
        <time>2023-05-19T11:43:47Z</time>
      </trkpt>
      <trkpt lat="48.00655" lon="6.98042">
        <ele>1224.1</ele>
        <time>2023-05-19T11:44:07Z</time>
      </trkpt>
      <trkpt lat="48.00675" lon="6.98057">
        <ele>1230.4</ele>
        <time>2023-05-19T11:44:40Z</time>
      </trkpt>
      <trkpt lat="48.0069" lon="6.98062">
        <ele>1234.7</ele>
        <time>2023-05-19T11:45:00Z</time>
      </trkpt>
      <trkpt lat="48.00705" lon="6.98061">
        <ele>1239.1</ele>
        <time>2023-05-19T11:45:23Z</time>
      </trkpt>
      <trkpt lat="48.00729" lon="6.98067">
        <ele>1246.4</ele>
        <time>2023-05-19T11:45:59Z</time>
      </trkpt>
      <trkpt lat="48.00754" lon="6.98074">
        <ele>1253.9</ele>
        <time>2023-05-19T11:46:34Z</time>
      </trkpt>
      <trkpt lat="48.00766" lon="6.98079">
        <ele>1257.9</ele>
        <time>2023-05-19T11:46:52Z</time>
      </trkpt>
      <trkpt lat="48.00777" lon="6.98082">
        <ele>1261.7</ele>
        <time>2023-05-19T11:47:10Z</time>
      </trkpt>
      <trkpt lat="48.00784" lon="6.98084">
        <ele>1263.6</ele>
        <time>2023-05-19T11:47:24Z</time>
      </trkpt>
      <trkpt lat="48.00788" lon="6.98084">
        <ele>1264.6</ele>
        <time>2023-05-19T11:47:30Z</time>
      </trkpt>
      <trkpt lat="48.00802" lon="6.98094">
        <ele>1268.5</ele>
        <time>2023-05-19T11:47:52Z</time>
      </trkpt>
      <trkpt lat="48.00829" lon="6.98101">
        <ele>1275.5</ele>
        <time>2023-05-19T11:48:30Z</time>
      </trkpt>
      <trkpt lat="48.00835" lon="6.98103">
        <ele>1277.1</ele>
        <time>2023-05-19T11:48:39Z</time>
      </trkpt>
      <trkpt lat="48.00839" lon="6.98105">
        <ele>1278</ele>
        <time>2023-05-19T11:48:45Z</time>
      </trkpt>
      <trkpt lat="48.00851" lon="6.98109">
        <ele>1280.7</ele>
        <time>2023-05-19T11:48:58Z</time>
      </trkpt>
      <trkpt lat="48.00874" lon="6.98124">
        <ele>1285.8</ele>
        <time>2023-05-19T11:49:30Z</time>
      </trkpt>
      <trkpt lat="48.009" lon="6.9814">
        <ele>1291.1</ele>
        <time>2023-05-19T11:50:02Z</time>
      </trkpt>
      <trkpt lat="48.00923" lon="6.98157">
        <ele>1296</ele>
        <time>2023-05-19T11:50:33Z</time>
      </trkpt>
      <trkpt lat="48.00938" lon="6.98163">
        <ele>1298</ele>
        <time>2023-05-19T11:50:48Z</time>
      </trkpt>
      <trkpt lat="48.00947" lon="6.98165">
        <ele>1299</ele>
        <time>2023-05-19T11:50:57Z</time>
      </trkpt>
      <trkpt lat="48.00954" lon="6.9817">
        <ele>1299.5</ele>
        <time>2023-05-19T11:51:05Z</time>
      </trkpt>
      <trkpt lat="48.00969" lon="6.98218">
        <ele>1303.3</ele>
        <time>2023-05-19T11:51:39Z</time>
      </trkpt>
      <trkpt lat="48.0098" lon="6.98256">
        <ele>1304.2</ele>
        <time>2023-05-19T11:52:05Z</time>
      </trkpt>
      <trkpt lat="48.00983" lon="6.98263">
        <ele>1303.8</ele>
        <time>2023-05-19T11:52:10Z</time>
      </trkpt>
      <trkpt lat="48.00982" lon="6.98279">
        <ele>1303.8</ele>
        <time>2023-05-19T11:52:22Z</time>
      </trkpt>
      <trkpt lat="48.00982" lon="6.98287">
        <ele>1303.2</ele>
        <time>2023-05-19T11:52:30Z</time>
      </trkpt>
      <trkpt lat="48.00984" lon="6.98293">
        <ele>1302.4</ele>
        <time>2023-05-19T11:52:36Z</time>
      </trkpt>
      <trkpt lat="48.00987" lon="6.98305">
        <ele>1300.9</ele>
        <time>2023-05-19T11:52:48Z</time>
      </trkpt>
      <trkpt lat="48.00993" lon="6.98303">
        <ele>1300.3</ele>
        <time>2023-05-19T11:53:42Z</time>
      </trkpt>
      <trkpt lat="48.00998" lon="6.98302">
        <ele>1299.7</ele>
        <time>2023-05-19T11:53:48Z</time>
      </trkpt>
      <trkpt lat="48.01002" lon="6.98298">
        <ele>1299.1</ele>
        <time>2023-05-19T11:54:03Z</time>
      </trkpt>
      <trkpt lat="48.01006" lon="6.98294">
        <ele>1298.3</ele>
        <time>2023-05-19T11:54:09Z</time>
      </trkpt>
      <trkpt lat="48.0101" lon="6.98294">
        <ele>1297</ele>
        <time>2023-05-19T11:54:14Z</time>
      </trkpt>
      <trkpt lat="48.01029" lon="6.98291">
        <ele>1291.9</ele>
        <time>2023-05-19T11:54:34Z</time>
      </trkpt>
      <trkpt lat="48.01035" lon="6.98288">
        <ele>1291.4</ele>
        <time>2023-05-19T11:54:41Z</time>
      </trkpt>
      <trkpt lat="48.01041" lon="6.9829">
        <ele>1289.1</ele>
        <time>2023-05-19T11:54:49Z</time>
      </trkpt>
      <trkpt lat="48.01052" lon="6.98288">
        <ele>1286.9</ele>
        <time>2023-05-19T11:55:04Z</time>
      </trkpt>
      <trkpt lat="48.01067" lon="6.98291">
        <ele>1283</ele>
        <time>2023-05-19T11:55:23Z</time>
      </trkpt>
      <trkpt lat="48.01077" lon="6.98286">
        <ele>1282.4</ele>
        <time>2023-05-19T11:55:41Z</time>
      </trkpt>
      <trkpt lat="48.01081" lon="6.98282">
        <ele>1282.1</ele>
        <time>2023-05-19T11:55:45Z</time>
      </trkpt>
      <trkpt lat="48.01088" lon="6.98284">
        <ele>1279.7</ele>
        <time>2023-05-19T11:55:54Z</time>
      </trkpt>
      <trkpt lat="48.01094" lon="6.98294">
        <ele>1276.9</ele>
        <time>2023-05-19T11:56:03Z</time>
      </trkpt>
      <trkpt lat="48.01095" lon="6.98304">
        <ele>1275.8</ele>
        <time>2023-05-19T11:56:10Z</time>
      </trkpt>
      <trkpt lat="48.01098" lon="6.9831">
        <ele>1272.5</ele>
        <time>2023-05-19T11:56:15Z</time>
      </trkpt>
      <trkpt lat="48.01114" lon="6.98296">
        <ele>1270.1</ele>
        <time>2023-05-19T11:56:39Z</time>
      </trkpt>
      <trkpt lat="48.0112" lon="6.98308">
        <ele>1266.7</ele>
        <time>2023-05-19T11:56:52Z</time>
      </trkpt>
      <trkpt lat="48.01121" lon="6.98329">
        <ele>1262.1</ele>
        <time>2023-05-19T11:57:09Z</time>
      </trkpt>
      <trkpt lat="48.01126" lon="6.98329">
        <ele>1261</ele>
        <time>2023-05-19T11:57:20Z</time>
      </trkpt>
      <trkpt lat="48.0114" lon="6.9832">
        <ele>1258</ele>
        <time>2023-05-19T11:57:44Z</time>
      </trkpt>
      <trkpt lat="48.01144" lon="6.98328">
        <ele>1256.2</ele>
        <time>2023-05-19T11:57:55Z</time>
      </trkpt>
      <trkpt lat="48.01148" lon="6.98342">
        <ele>1252.8</ele>
        <time>2023-05-19T11:58:04Z</time>
      </trkpt>
      <trkpt lat="48.0115" lon="6.98349">
        <ele>1251</ele>
        <time>2023-05-19T11:58:08Z</time>
      </trkpt>
      <trkpt lat="48.01151" lon="6.98364">
        <ele>1247.8</ele>
        <time>2023-05-19T11:58:21Z</time>
      </trkpt>
      <trkpt lat="48.01154" lon="6.98359">
        <ele>1248.6</ele>
        <time>2023-05-19T11:58:26Z</time>
      </trkpt>
      <trkpt lat="48.01156" lon="6.98353">
        <ele>1248.9</ele>
        <time>2023-05-19T11:58:30Z</time>
      </trkpt>
      <trkpt lat="48.01166" lon="6.9834">
        <ele>1247</ele>
        <time>2023-05-19T11:58:41Z</time>
      </trkpt>
      <trkpt lat="48.01173" lon="6.98334">
        <ele>1244.5</ele>
        <time>2023-05-19T11:58:51Z</time>
      </trkpt>
      <trkpt lat="48.01176" lon="6.98341">
        <ele>1243.1</ele>
        <time>2023-05-19T11:58:55Z</time>
      </trkpt>
      <trkpt lat="48.01182" lon="6.98361">
        <ele>1240.5</ele>
        <time>2023-05-19T11:59:07Z</time>
      </trkpt>
      <trkpt lat="48.01186" lon="6.98367">
        <ele>1239.1</ele>
        <time>2023-05-19T11:59:14Z</time>
      </trkpt>
      <trkpt lat="48.01202" lon="6.98381">
        <ele>1234.8</ele>
        <time>2023-05-19T11:59:32Z</time>
      </trkpt>
      <trkpt lat="48.01214" lon="6.98393">
        <ele>1232.1</ele>
        <time>2023-05-19T11:59:43Z</time>
      </trkpt>
      <trkpt lat="48.01227" lon="6.98403">
        <ele>1229.8</ele>
        <time>2023-05-19T11:59:56Z</time>
      </trkpt>
      <trkpt lat="48.01229" lon="6.98408">
        <ele>1229.7</ele>
        <time>2023-05-19T12:00:00Z</time>
      </trkpt>
      <trkpt lat="48.01233" lon="6.98411">
        <ele>1229.2</ele>
        <time>2023-05-19T12:00:04Z</time>
      </trkpt>
      <trkpt lat="48.0124" lon="6.9842">
        <ele>1228.1</ele>
        <time>2023-05-19T12:00:10Z</time>
      </trkpt>
      <trkpt lat="48.01251" lon="6.98427">
        <ele>1226.5</ele>
        <time>2023-05-19T12:00:19Z</time>
      </trkpt>
      <trkpt lat="48.01287" lon="6.98463">
        <ele>1224.1</ele>
        <time>2023-05-19T12:00:52Z</time>
      </trkpt>
      <trkpt lat="48.01303" lon="6.98481">
        <ele>1222.8</ele>
        <time>2023-05-19T12:01:07Z</time>
      </trkpt>
      <trkpt lat="48.01306" lon="6.98484">
        <ele>1222.5</ele>
        <time>2023-05-19T12:01:11Z</time>
      </trkpt>
      <trkpt lat="48.01312" lon="6.9849">
        <ele>1220.9</ele>
        <time>2023-05-19T12:01:19Z</time>
      </trkpt>
      <trkpt lat="48.01315" lon="6.98496">
        <ele>1220.3</ele>
        <time>2023-05-19T12:01:26Z</time>
      </trkpt>
      <trkpt lat="48.01318" lon="6.98504">
        <ele>1218.9</ele>
        <time>2023-05-19T12:01:42Z</time>
      </trkpt>
      <trkpt lat="48.01325" lon="6.98506">
        <ele>1217.7</ele>
        <time>2023-05-19T12:01:49Z</time>
      </trkpt>
      <trkpt lat="48.01338" lon="6.9851">
        <ele>1215.5</ele>
        <time>2023-05-19T12:02:03Z</time>
      </trkpt>
      <trkpt lat="48.0134" lon="6.98516">
        <ele>1214.9</ele>
        <time>2023-05-19T12:02:07Z</time>
      </trkpt>
      <trkpt lat="48.01345" lon="6.98517">
        <ele>1213.8</ele>
        <time>2023-05-19T12:02:16Z</time>
      </trkpt>
      <trkpt lat="48.01353" lon="6.98517">
        <ele>1212</ele>
        <time>2023-05-19T12:02:26Z</time>
      </trkpt>
      <trkpt lat="48.01359" lon="6.98521">
        <ele>1210.9</ele>
        <time>2023-05-19T12:02:35Z</time>
      </trkpt>
      <trkpt lat="48.01365" lon="6.98522">
        <ele>1209.9</ele>
        <time>2023-05-19T12:02:38Z</time>
      </trkpt>
      <trkpt lat="48.01369" lon="6.98525">
        <ele>1209.4</ele>
        <time>2023-05-19T12:02:42Z</time>
      </trkpt>
      <trkpt lat="48.01373" lon="6.98524">
        <ele>1208.6</ele>
        <time>2023-05-19T12:02:46Z</time>
      </trkpt>
      <trkpt lat="48.01382" lon="6.98531">
        <ele>1207.3</ele>
        <time>2023-05-19T12:02:53Z</time>
      </trkpt>
      <trkpt lat="48.01391" lon="6.98539">
        <ele>1206.1</ele>
        <time>2023-05-19T12:03:03Z</time>
      </trkpt>
      <trkpt lat="48.01397" lon="6.98543">
        <ele>1205.5</ele>
        <time>2023-05-19T12:03:11Z</time>
      </trkpt>
      <trkpt lat="48.014" lon="6.98548">
        <ele>1205.4</ele>
        <time>2023-05-19T12:03:15Z</time>
      </trkpt>
      <trkpt lat="48.01404" lon="6.98552">
        <ele>1205.2</ele>
        <time>2023-05-19T12:03:22Z</time>
      </trkpt>
      <trkpt lat="48.01415" lon="6.98551">
        <ele>1203.9</ele>
        <time>2023-05-19T12:03:34Z</time>
      </trkpt>
      <trkpt lat="48.0143" lon="6.98558">
        <ele>1200.7</ele>
        <time>2023-05-19T12:03:48Z</time>
      </trkpt>
      <trkpt lat="48.01438" lon="6.98553">
        <ele>1199.2</ele>
        <time>2023-05-19T12:03:56Z</time>
      </trkpt>
      <trkpt lat="48.01448" lon="6.9856">
        <ele>1196.9</ele>
        <time>2023-05-19T12:04:09Z</time>
      </trkpt>
      <trkpt lat="48.01457" lon="6.98561">
        <ele>1195.3</ele>
        <time>2023-05-19T12:04:17Z</time>
      </trkpt>
      <trkpt lat="48.0146" lon="6.98565">
        <ele>1194.6</ele>
        <time>2023-05-19T12:04:21Z</time>
      </trkpt>
      <trkpt lat="48.01485" lon="6.9856">
        <ele>1192.1</ele>
        <time>2023-05-19T12:04:40Z</time>
      </trkpt>
      <trkpt lat="48.01489" lon="6.98561">
        <ele>1192</ele>
        <time>2023-05-19T12:04:44Z</time>
      </trkpt>
      <trkpt lat="48.01498" lon="6.98563">
        <ele>1191.6</ele>
        <time>2023-05-19T12:04:52Z</time>
      </trkpt>
      <trkpt lat="48.01504" lon="6.9856">
        <ele>1191.2</ele>
        <time>2023-05-19T12:04:58Z</time>
      </trkpt>
      <trkpt lat="48.01508" lon="6.98557">
        <ele>1190.8</ele>
        <time>2023-05-19T12:05:02Z</time>
      </trkpt>
      <trkpt lat="48.01523" lon="6.9856">
        <ele>1190.8</ele>
        <time>2023-05-19T12:05:14Z</time>
      </trkpt>
      <trkpt lat="48.01532" lon="6.98564">
        <ele>1191</ele>
        <time>2023-05-19T12:05:22Z</time>
      </trkpt>
      <trkpt lat="48.01536" lon="6.98567">
        <ele>1191.3</ele>
        <time>2023-05-19T12:05:26Z</time>
      </trkpt>
      <trkpt lat="48.01549" lon="6.98575">
        <ele>1192.3</ele>
        <time>2023-05-19T12:05:38Z</time>
      </trkpt>
      <trkpt lat="48.01573" lon="6.98586">
        <ele>1194.5</ele>
        <time>2023-05-19T12:06:03Z</time>
      </trkpt>
      <trkpt lat="48.01577" lon="6.9859">
        <ele>1195.2</ele>
        <time>2023-05-19T12:06:09Z</time>
      </trkpt>
      <trkpt lat="48.0158" lon="6.98595">
        <ele>1196.1</ele>
        <time>2023-05-19T12:06:14Z</time>
      </trkpt>
      <trkpt lat="48.01585" lon="6.98601">
        <ele>1197</ele>
        <time>2023-05-19T12:06:20Z</time>
      </trkpt>
      <trkpt lat="48.01595" lon="6.98616">
        <ele>1199.1</ele>
        <time>2023-05-19T12:06:34Z</time>
      </trkpt>
      <trkpt lat="48.01601" lon="6.98623">
        <ele>1200.1</ele>
        <time>2023-05-19T12:06:43Z</time>
      </trkpt>
      <trkpt lat="48.01609" lon="6.98637">
        <ele>1202.7</ele>
        <time>2023-05-19T12:06:55Z</time>
      </trkpt>
      <trkpt lat="48.0161" lon="6.98643">
        <ele>1203.5</ele>
        <time>2023-05-19T12:07:00Z</time>
      </trkpt>
      <trkpt lat="48.01622" lon="6.98679">
        <ele>1205.7</ele>
        <time>2023-05-19T12:07:32Z</time>
      </trkpt>
      <trkpt lat="48.01612" lon="6.98701">
        <ele>1205.6</ele>
        <time>2023-05-19T12:07:49Z</time>
      </trkpt>
      <trkpt lat="48.01612" lon="6.9869">
        <ele>1206</ele>
        <time>2023-05-19T12:08:39Z</time>
      </trkpt>
      <trkpt lat="48.01615" lon="6.98685">
        <ele>1206</ele>
        <time>2023-05-19T12:08:44Z</time>
      </trkpt>
      <trkpt lat="48.01617" lon="6.98679">
        <ele>1205.9</ele>
        <time>2023-05-19T12:08:48Z</time>
      </trkpt>
      <trkpt lat="48.0162" lon="6.98674">
        <ele>1205.6</ele>
        <time>2023-05-19T12:08:59Z</time>
      </trkpt>
      <trkpt lat="48.01623" lon="6.98667">
        <ele>1205.2</ele>
        <time>2023-05-19T12:09:26Z</time>
      </trkpt>
      <trkpt lat="48.01619" lon="6.98666">
        <ele>1205.4</ele>
        <time>2023-05-19T12:09:31Z</time>
      </trkpt>
      <trkpt lat="48.01619" lon="6.98672">
        <ele>1205.6</ele>
        <time>2023-05-19T12:10:13Z</time>
      </trkpt>
      <trkpt lat="48.0164" lon="6.98703">
        <ele>1207.6</ele>
        <time>2023-05-19T12:13:09Z</time>
      </trkpt>
      <trkpt lat="48.01648" lon="6.98712">
        <ele>1208.5</ele>
        <time>2023-05-19T12:13:16Z</time>
      </trkpt>
      <trkpt lat="48.01669" lon="6.98752">
        <ele>1212.2</ele>
        <time>2023-05-19T12:13:51Z</time>
      </trkpt>
      <trkpt lat="48.01672" lon="6.98757">
        <ele>1212.7</ele>
        <time>2023-05-19T12:13:56Z</time>
      </trkpt>
      <trkpt lat="48.01686" lon="6.98778">
        <ele>1214.3</ele>
        <time>2023-05-19T12:14:17Z</time>
      </trkpt>
      <trkpt lat="48.01689" lon="6.98784">
        <ele>1214.5</ele>
        <time>2023-05-19T12:14:22Z</time>
      </trkpt>
      <trkpt lat="48.01695" lon="6.98788">
        <ele>1214.8</ele>
        <time>2023-05-19T12:14:28Z</time>
      </trkpt>
      <trkpt lat="48.01705" lon="6.98802">
        <ele>1216.1</ele>
        <time>2023-05-19T12:14:42Z</time>
      </trkpt>
      <trkpt lat="48.01714" lon="6.98817">
        <ele>1217.2</ele>
        <time>2023-05-19T12:14:56Z</time>
      </trkpt>
      <trkpt lat="48.01718" lon="6.98823">
        <ele>1217.6</ele>
        <time>2023-05-19T12:15:02Z</time>
      </trkpt>
      <trkpt lat="48.01733" lon="6.9884">
        <ele>1219.9</ele>
        <time>2023-05-19T12:15:33Z</time>
      </trkpt>
      <trkpt lat="48.01754" lon="6.98859">
        <ele>1224.3</ele>
        <time>2023-05-19T12:16:04Z</time>
      </trkpt>
      <trkpt lat="48.01765" lon="6.9887">
        <ele>1226.5</ele>
        <time>2023-05-19T12:16:19Z</time>
      </trkpt>
      <trkpt lat="48.01771" lon="6.98873">
        <ele>1227.5</ele>
        <time>2023-05-19T12:16:26Z</time>
      </trkpt>
      <trkpt lat="48.0178" lon="6.9888">
        <ele>1229</ele>
        <time>2023-05-19T12:16:35Z</time>
      </trkpt>
      <trkpt lat="48.01795" lon="6.98897">
        <ele>1232</ele>
        <time>2023-05-19T12:16:59Z</time>
      </trkpt>
      <trkpt lat="48.0181" lon="6.98907">
        <ele>1234.9</ele>
        <time>2023-05-19T12:17:16Z</time>
      </trkpt>
      <trkpt lat="48.01833" lon="6.98931">
        <ele>1239.5</ele>
        <time>2023-05-19T12:17:47Z</time>
      </trkpt>
      <trkpt lat="48.01841" lon="6.98941">
        <ele>1240.9</ele>
        <time>2023-05-19T12:18:01Z</time>
      </trkpt>
      <trkpt lat="48.01846" lon="6.98947">
        <ele>1241.9</ele>
        <time>2023-05-19T12:18:10Z</time>
      </trkpt>
      <trkpt lat="48.01853" lon="6.98953">
        <ele>1243.1</ele>
        <time>2023-05-19T12:18:21Z</time>
      </trkpt>
      <trkpt lat="48.01857" lon="6.98957">
        <ele>1243.9</ele>
        <time>2023-05-19T12:18:25Z</time>
      </trkpt>
      <trkpt lat="48.01864" lon="6.9896">
        <ele>1244.9</ele>
        <time>2023-05-19T12:18:32Z</time>
      </trkpt>
      <trkpt lat="48.01873" lon="6.98968">
        <ele>1246.5</ele>
        <time>2023-05-19T12:18:45Z</time>
      </trkpt>
      <trkpt lat="48.01882" lon="6.9897">
        <ele>1247.9</ele>
        <time>2023-05-19T12:18:55Z</time>
      </trkpt>
      <trkpt lat="48.0189" lon="6.98978">
        <ele>1249.3</ele>
        <time>2023-05-19T12:19:04Z</time>
      </trkpt>
      <trkpt lat="48.01901" lon="6.98978">
        <ele>1250.6</ele>
        <time>2023-05-19T12:19:17Z</time>
      </trkpt>
      <trkpt lat="48.01904" lon="6.98982">
        <ele>1251.2</ele>
        <time>2023-05-19T12:19:21Z</time>
      </trkpt>
      <trkpt lat="48.01921" lon="6.98989">
        <ele>1253.8</ele>
        <time>2023-05-19T12:19:39Z</time>
      </trkpt>
      <trkpt lat="48.01925" lon="6.98993">
        <ele>1254.8</ele>
        <time>2023-05-19T12:19:42Z</time>
      </trkpt>
      <trkpt lat="48.01927" lon="6.98999">
        <ele>1255.7</ele>
        <time>2023-05-19T12:19:47Z</time>
      </trkpt>
      <trkpt lat="48.01936" lon="6.99008">
        <ele>1258.5</ele>
        <time>2023-05-19T12:20:01Z</time>
      </trkpt>
      <trkpt lat="48.01939" lon="6.99016">
        <ele>1260.1</ele>
        <time>2023-05-19T12:20:13Z</time>
      </trkpt>
      <trkpt lat="48.0194" lon="6.99023">
        <ele>1261.2</ele>
        <time>2023-05-19T12:20:19Z</time>
      </trkpt>
      <trkpt lat="48.01944" lon="6.99025">
        <ele>1262.5</ele>
        <time>2023-05-19T12:20:24Z</time>
      </trkpt>
      <trkpt lat="48.01947" lon="6.99031">
        <ele>1263.8</ele>
        <time>2023-05-19T12:20:30Z</time>
      </trkpt>
      <trkpt lat="48.01952" lon="6.99033">
        <ele>1265</ele>
        <time>2023-05-19T12:20:35Z</time>
      </trkpt>
      <trkpt lat="48.01965" lon="6.99047">
        <ele>1269.3</ele>
        <time>2023-05-19T12:21:02Z</time>
      </trkpt>
      <trkpt lat="48.01967" lon="6.99057">
        <ele>1271</ele>
        <time>2023-05-19T12:21:13Z</time>
      </trkpt>
      <trkpt lat="48.0197" lon="6.99064">
        <ele>1272.4</ele>
        <time>2023-05-19T12:21:21Z</time>
      </trkpt>
      <trkpt lat="48.0197" lon="6.99071">
        <ele>1273.1</ele>
        <time>2023-05-19T12:21:27Z</time>
      </trkpt>
      <trkpt lat="48.01974" lon="6.99088">
        <ele>1275.7</ele>
        <time>2023-05-19T12:21:43Z</time>
      </trkpt>
      <trkpt lat="48.01974" lon="6.99094">
        <ele>1276.2</ele>
        <time>2023-05-19T12:21:48Z</time>
      </trkpt>
      <trkpt lat="48.01981" lon="6.99126">
        <ele>1279.7</ele>
        <time>2023-05-19T12:22:14Z</time>
      </trkpt>
      <trkpt lat="48.01982" lon="6.99133">
        <ele>1280.3</ele>
        <time>2023-05-19T12:22:19Z</time>
      </trkpt>
      <trkpt lat="48.01989" lon="6.99163">
        <ele>1281.4</ele>
        <time>2023-05-19T12:22:40Z</time>
      </trkpt>
      <trkpt lat="48.01996" lon="6.99176">
        <ele>1281.2</ele>
        <time>2023-05-19T12:22:51Z</time>
      </trkpt>
      <trkpt lat="48.02" lon="6.99181">
        <ele>1281.4</ele>
        <time>2023-05-19T12:22:57Z</time>
      </trkpt>
      <trkpt lat="48.02008" lon="6.99187">
        <ele>1282.2</ele>
        <time>2023-05-19T12:23:05Z</time>
      </trkpt>
      <trkpt lat="48.02023" lon="6.99211">
        <ele>1282.5</ele>
        <time>2023-05-19T12:23:21Z</time>
      </trkpt>
      <trkpt lat="48.02024" lon="6.99217">
        <ele>1282.1</ele>
        <time>2023-05-19T12:23:25Z</time>
      </trkpt>
      <trkpt lat="48.02037" lon="6.99242">
        <ele>1282.4</ele>
        <time>2023-05-19T12:23:42Z</time>
      </trkpt>
      <trkpt lat="48.02046" lon="6.9926">
        <ele>1282.4</ele>
        <time>2023-05-19T12:23:58Z</time>
      </trkpt>
      <trkpt lat="48.02051" lon="6.99275">
        <ele>1282.2</ele>
        <time>2023-05-19T12:24:06Z</time>
      </trkpt>
      <trkpt lat="48.02055" lon="6.9928">
        <ele>1282.7</ele>
        <time>2023-05-19T12:24:10Z</time>
      </trkpt>
      <trkpt lat="48.02059" lon="6.99285">
        <ele>1282.3</ele>
        <time>2023-05-19T12:24:14Z</time>
      </trkpt>
      <trkpt lat="48.0206" lon="6.99299">
        <ele>1281.3</ele>
        <time>2023-05-19T12:24:20Z</time>
      </trkpt>
      <trkpt lat="48.02063" lon="6.99306">
        <ele>1280.8</ele>
        <time>2023-05-19T12:24:24Z</time>
      </trkpt>
      <trkpt lat="48.02066" lon="6.99311">
        <ele>1281</ele>
        <time>2023-05-19T12:24:27Z</time>
      </trkpt>
      <trkpt lat="48.02071" lon="6.99324">
        <ele>1281.8</ele>
        <time>2023-05-19T12:24:35Z</time>
      </trkpt>
      <trkpt lat="48.02072" lon="6.99331">
        <ele>1282.4</ele>
        <time>2023-05-19T12:24:40Z</time>
      </trkpt>
      <trkpt lat="48.02075" lon="6.99336">
        <ele>1282.8</ele>
        <time>2023-05-19T12:24:44Z</time>
      </trkpt>
      <trkpt lat="48.0208" lon="6.99339">
        <ele>1283.1</ele>
        <time>2023-05-19T12:24:49Z</time>
      </trkpt>
      <trkpt lat="48.02084" lon="6.99339">
        <ele>1283.2</ele>
        <time>2023-05-19T12:24:53Z</time>
      </trkpt>
      <trkpt lat="48.0209" lon="6.99339">
        <ele>1283.1</ele>
        <time>2023-05-19T12:24:58Z</time>
      </trkpt>
      <trkpt lat="48.02098" lon="6.99344">
        <ele>1283.3</ele>
        <time>2023-05-19T12:25:07Z</time>
      </trkpt>
      <trkpt lat="48.02103" lon="6.99346">
        <ele>1283.4</ele>
        <time>2023-05-19T12:25:11Z</time>
      </trkpt>
      <trkpt lat="48.02112" lon="6.9935">
        <ele>1283.8</ele>
        <time>2023-05-19T12:25:19Z</time>
      </trkpt>
      <trkpt lat="48.02117" lon="6.99352">
        <ele>1283.8</ele>
        <time>2023-05-19T12:25:24Z</time>
      </trkpt>
      <trkpt lat="48.02119" lon="6.99358">
        <ele>1284.4</ele>
        <time>2023-05-19T12:25:28Z</time>
      </trkpt>
      <trkpt lat="48.02148" lon="6.99392">
        <ele>1286.8</ele>
        <time>2023-05-19T12:25:59Z</time>
      </trkpt>
      <trkpt lat="48.02171" lon="6.99422">
        <ele>1289.5</ele>
        <time>2023-05-19T12:26:25Z</time>
      </trkpt>
      <trkpt lat="48.02176" lon="6.99425">
        <ele>1289.5</ele>
        <time>2023-05-19T12:26:30Z</time>
      </trkpt>
      <trkpt lat="48.02181" lon="6.99426">
        <ele>1289.3</ele>
        <time>2023-05-19T12:26:34Z</time>
      </trkpt>
      <trkpt lat="48.02185" lon="6.99431">
        <ele>1289.7</ele>
        <time>2023-05-19T12:26:39Z</time>
      </trkpt>
      <trkpt lat="48.02192" lon="6.99441">
        <ele>1290.7</ele>
        <time>2023-05-19T12:26:48Z</time>
      </trkpt>
      <trkpt lat="48.02196" lon="6.99447">
        <ele>1291.2</ele>
        <time>2023-05-19T12:26:53Z</time>
      </trkpt>
      <trkpt lat="48.02201" lon="6.9945">
        <ele>1291.1</ele>
        <time>2023-05-19T12:26:56Z</time>
      </trkpt>
      <trkpt lat="48.02209" lon="6.99459">
        <ele>1291.5</ele>
        <time>2023-05-19T12:27:04Z</time>
      </trkpt>
      <trkpt lat="48.02213" lon="6.99462">
        <ele>1291.6</ele>
        <time>2023-05-19T12:27:09Z</time>
      </trkpt>
      <trkpt lat="48.02223" lon="6.99471">
        <ele>1291.8</ele>
        <time>2023-05-19T12:27:20Z</time>
      </trkpt>
      <trkpt lat="48.02233" lon="6.9948">
        <ele>1292</ele>
        <time>2023-05-19T12:27:30Z</time>
      </trkpt>
      <trkpt lat="48.02257" lon="6.99515">
        <ele>1293.7</ele>
        <time>2023-05-19T12:27:57Z</time>
      </trkpt>
      <trkpt lat="48.02262" lon="6.9952">
        <ele>1293.7</ele>
        <time>2023-05-19T12:28:01Z</time>
      </trkpt>
      <trkpt lat="48.02289" lon="6.99558">
        <ele>1295.6</ele>
        <time>2023-05-19T12:28:33Z</time>
      </trkpt>
      <trkpt lat="48.02295" lon="6.9957">
        <ele>1296.1</ele>
        <time>2023-05-19T12:28:41Z</time>
      </trkpt>
      <trkpt lat="48.02303" lon="6.99578">
        <ele>1295.8</ele>
        <time>2023-05-19T12:28:49Z</time>
      </trkpt>
      <trkpt lat="48.02318" lon="6.99607">
        <ele>1297.2</ele>
        <time>2023-05-19T12:29:09Z</time>
      </trkpt>
      <trkpt lat="48.02333" lon="6.99636">
        <ele>1297.7</ele>
        <time>2023-05-19T12:29:30Z</time>
      </trkpt>
      <trkpt lat="48.02358" lon="6.99685">
        <ele>1299.2</ele>
        <time>2023-05-19T12:30:03Z</time>
      </trkpt>
      <trkpt lat="48.02369" lon="6.99707">
        <ele>1299.5</ele>
        <time>2023-05-19T12:30:17Z</time>
      </trkpt>
      <trkpt lat="48.02374" lon="6.99719">
        <ele>1299.8</ele>
        <time>2023-05-19T12:30:25Z</time>
      </trkpt>
      <trkpt lat="48.02376" lon="6.99726">
        <ele>1300.1</ele>
        <time>2023-05-19T12:30:29Z</time>
      </trkpt>
      <trkpt lat="48.02378" lon="6.99732">
        <ele>1300.3</ele>
        <time>2023-05-19T12:30:33Z</time>
      </trkpt>
      <trkpt lat="48.0238" lon="6.99738">
        <ele>1300.4</ele>
        <time>2023-05-19T12:30:37Z</time>
      </trkpt>
      <trkpt lat="48.02382" lon="6.99744">
        <ele>1300.6</ele>
        <time>2023-05-19T12:30:41Z</time>
      </trkpt>
      <trkpt lat="48.02384" lon="6.99752">
        <ele>1301</ele>
        <time>2023-05-19T12:30:46Z</time>
      </trkpt>
      <trkpt lat="48.02388" lon="6.99765">
        <ele>1301.3</ele>
        <time>2023-05-19T12:30:54Z</time>
      </trkpt>
      <trkpt lat="48.02393" lon="6.99778">
        <ele>1301.1</ele>
        <time>2023-05-19T12:31:02Z</time>
      </trkpt>
      <trkpt lat="48.02394" lon="6.99785">
        <ele>1301.7</ele>
        <time>2023-05-19T12:31:06Z</time>
      </trkpt>
      <trkpt lat="48.02402" lon="6.99805">
        <ele>1302.1</ele>
        <time>2023-05-19T12:31:18Z</time>
      </trkpt>
      <trkpt lat="48.02427" lon="6.99852">
        <ele>1300.2</ele>
        <time>2023-05-19T12:31:51Z</time>
      </trkpt>
      <trkpt lat="48.02456" lon="6.99895">
        <ele>1299.6</ele>
        <time>2023-05-19T12:32:22Z</time>
      </trkpt>
      <trkpt lat="48.02459" lon="6.999">
        <ele>1299.6</ele>
        <time>2023-05-19T12:32:26Z</time>
      </trkpt>
      <trkpt lat="48.02465" lon="6.99912">
        <ele>1299.8</ele>
        <time>2023-05-19T12:32:34Z</time>
      </trkpt>
      <trkpt lat="48.02469" lon="6.99924">
        <ele>1300.4</ele>
        <time>2023-05-19T12:32:42Z</time>
      </trkpt>
      <trkpt lat="48.02474" lon="6.99928">
        <ele>1300</ele>
        <time>2023-05-19T12:32:46Z</time>
      </trkpt>
      <trkpt lat="48.02504" lon="6.99965">
        <ele>1300.9</ele>
        <time>2023-05-19T12:33:18Z</time>
      </trkpt>
      <trkpt lat="48.02516" lon="6.99973">
        <ele>1300.9</ele>
        <time>2023-05-19T12:33:30Z</time>
      </trkpt>
      <trkpt lat="48.02526" lon="6.99977">
        <ele>1300.6</ele>
        <time>2023-05-19T12:33:37Z</time>
      </trkpt>
      <trkpt lat="48.02538" lon="6.99989">
        <ele>1300.7</ele>
        <time>2023-05-19T12:33:49Z</time>
      </trkpt>
      <trkpt lat="48.02553" lon="6.99999">
        <ele>1300.2</ele>
        <time>2023-05-19T12:34:01Z</time>
      </trkpt>
      <trkpt lat="48.02562" lon="7.00007">
        <ele>1300.3</ele>
        <time>2023-05-19T12:34:09Z</time>
      </trkpt>
      <trkpt lat="48.02575" lon="7.00019">
        <ele>1300.2</ele>
        <time>2023-05-19T12:34:20Z</time>
      </trkpt>
      <trkpt lat="48.02578" lon="7.00025">
        <ele>1300.4</ele>
        <time>2023-05-19T12:34:24Z</time>
      </trkpt>
      <trkpt lat="48.02583" lon="7.0003">
        <ele>1300.4</ele>
        <time>2023-05-19T12:34:28Z</time>
      </trkpt>
      <trkpt lat="48.02587" lon="7.00034">
        <ele>1300.4</ele>
        <time>2023-05-19T12:34:32Z</time>
      </trkpt>
      <trkpt lat="48.02595" lon="7.00044">
        <ele>1300.7</ele>
        <time>2023-05-19T12:34:40Z</time>
      </trkpt>
      <trkpt lat="48.02607" lon="7.0006">
        <ele>1300.9</ele>
        <time>2023-05-19T12:34:52Z</time>
      </trkpt>
      <trkpt lat="48.02615" lon="7.0007">
        <ele>1300.3</ele>
        <time>2023-05-19T12:35:00Z</time>
      </trkpt>
      <trkpt lat="48.02618" lon="7.00076">
        <ele>1300.2</ele>
        <time>2023-05-19T12:35:04Z</time>
      </trkpt>
      <trkpt lat="48.02621" lon="7.00082">
        <ele>1300.1</ele>
        <time>2023-05-19T12:35:08Z</time>
      </trkpt>
      <trkpt lat="48.02644" lon="7.00131">
        <ele>1300.1</ele>
        <time>2023-05-19T12:35:39Z</time>
      </trkpt>
      <trkpt lat="48.02646" lon="7.00137">
        <ele>1300.3</ele>
        <time>2023-05-19T12:35:43Z</time>
      </trkpt>
      <trkpt lat="48.02649" lon="7.00143">
        <ele>1300.1</ele>
        <time>2023-05-19T12:35:47Z</time>
      </trkpt>
      <trkpt lat="48.0265" lon="7.00151">
        <ele>1300.3</ele>
        <time>2023-05-19T12:35:51Z</time>
      </trkpt>
      <trkpt lat="48.02656" lon="7.00171">
        <ele>1299.9</ele>
        <time>2023-05-19T12:36:03Z</time>
      </trkpt>
      <trkpt lat="48.02658" lon="7.00178">
        <ele>1299.9</ele>
        <time>2023-05-19T12:36:07Z</time>
      </trkpt>
      <trkpt lat="48.02667" lon="7.00213">
        <ele>1299.6</ele>
        <time>2023-05-19T12:36:25Z</time>
      </trkpt>
      <trkpt lat="48.02668" lon="7.00221">
        <ele>1299.6</ele>
        <time>2023-05-19T12:36:29Z</time>
      </trkpt>
      <trkpt lat="48.02672" lon="7.00234">
        <ele>1299.2</ele>
        <time>2023-05-19T12:36:35Z</time>
      </trkpt>
      <trkpt lat="48.02675" lon="7.00249">
        <ele>1299.2</ele>
        <time>2023-05-19T12:36:43Z</time>
      </trkpt>
      <trkpt lat="48.02677" lon="7.00256">
        <ele>1299</ele>
        <time>2023-05-19T12:36:47Z</time>
      </trkpt>
      <trkpt lat="48.02679" lon="7.00263">
        <ele>1298.8</ele>
        <time>2023-05-19T12:36:51Z</time>
      </trkpt>
      <trkpt lat="48.0268" lon="7.00271">
        <ele>1298.9</ele>
        <time>2023-05-19T12:36:55Z</time>
      </trkpt>
      <trkpt lat="48.02682" lon="7.00287">
        <ele>1299</ele>
        <time>2023-05-19T12:37:03Z</time>
      </trkpt>
      <trkpt lat="48.02683" lon="7.00293">
        <ele>1299</ele>
        <time>2023-05-19T12:37:06Z</time>
      </trkpt>
      <trkpt lat="48.02687" lon="7.00316">
        <ele>1298.6</ele>
        <time>2023-05-19T12:37:18Z</time>
      </trkpt>
      <trkpt lat="48.02692" lon="7.00348">
        <ele>1298.1</ele>
        <time>2023-05-19T12:37:34Z</time>
      </trkpt>
      <trkpt lat="48.02703" lon="7.00407">
        <ele>1296.8</ele>
        <time>2023-05-19T12:38:07Z</time>
      </trkpt>
      <trkpt lat="48.02704" lon="7.00414">
        <ele>1296.8</ele>
        <time>2023-05-19T12:38:11Z</time>
      </trkpt>
      <trkpt lat="48.02708" lon="7.00426">
        <ele>1296.4</ele>
        <time>2023-05-19T12:38:18Z</time>
      </trkpt>
      <trkpt lat="48.02718" lon="7.0046">
        <ele>1295.4</ele>
        <time>2023-05-19T12:38:37Z</time>
      </trkpt>
      <trkpt lat="48.02724" lon="7.00474">
        <ele>1294.7</ele>
        <time>2023-05-19T12:38:45Z</time>
      </trkpt>
      <trkpt lat="48.02744" lon="7.0053">
        <ele>1292.2</ele>
        <time>2023-05-19T12:39:17Z</time>
      </trkpt>
      <trkpt lat="48.02753" lon="7.00549">
        <ele>1291.2</ele>
        <time>2023-05-19T12:39:29Z</time>
      </trkpt>
      <trkpt lat="48.02756" lon="7.00555">
        <ele>1290.9</ele>
        <time>2023-05-19T12:39:33Z</time>
      </trkpt>
      <trkpt lat="48.02765" lon="7.00574">
        <ele>1290.3</ele>
        <time>2023-05-19T12:39:46Z</time>
      </trkpt>
      <trkpt lat="48.02772" lon="7.00585">
        <ele>1289.9</ele>
        <time>2023-05-19T12:39:54Z</time>
      </trkpt>
      <trkpt lat="48.02779" lon="7.00596">
        <ele>1289.3</ele>
        <time>2023-05-19T12:40:02Z</time>
      </trkpt>
      <trkpt lat="48.02789" lon="7.0061">
        <ele>1288.7</ele>
        <time>2023-05-19T12:40:14Z</time>
      </trkpt>
      <trkpt lat="48.02793" lon="7.00615">
        <ele>1288.5</ele>
        <time>2023-05-19T12:40:18Z</time>
      </trkpt>
      <trkpt lat="48.02828" lon="7.00648">
        <ele>1286.8</ele>
        <time>2023-05-19T12:40:49Z</time>
      </trkpt>
      <trkpt lat="48.02863" lon="7.00681">
        <ele>1285.3</ele>
        <time>2023-05-19T12:41:20Z</time>
      </trkpt>
      <trkpt lat="48.02897" lon="7.00713">
        <ele>1284.3</ele>
        <time>2023-05-19T12:41:52Z</time>
      </trkpt>
      <trkpt lat="48.02901" lon="7.00717">
        <ele>1284.3</ele>
        <time>2023-05-19T12:41:56Z</time>
      </trkpt>
      <trkpt lat="48.02906" lon="7.0072">
        <ele>1284.3</ele>
        <time>2023-05-19T12:42:00Z</time>
      </trkpt>
      <trkpt lat="48.02941" lon="7.00752">
        <ele>1284.3</ele>
        <time>2023-05-19T12:42:32Z</time>
      </trkpt>
      <trkpt lat="48.02949" lon="7.0076">
        <ele>1284.6</ele>
        <time>2023-05-19T12:42:40Z</time>
      </trkpt>
      <trkpt lat="48.02954" lon="7.00764">
        <ele>1284.7</ele>
        <time>2023-05-19T12:42:43Z</time>
      </trkpt>
      <trkpt lat="48.02989" lon="7.00792">
        <ele>1286.5</ele>
        <time>2023-05-19T12:43:15Z</time>
      </trkpt>
      <trkpt lat="48.03003" lon="7.00798">
        <ele>1287.1</ele>
        <time>2023-05-19T12:43:27Z</time>
      </trkpt>
      <trkpt lat="48.03014" lon="7.00801">
        <ele>1287</ele>
        <time>2023-05-19T12:43:35Z</time>
      </trkpt>
      <trkpt lat="48.03051" lon="7.0082">
        <ele>1288.6</ele>
        <time>2023-05-19T12:44:08Z</time>
      </trkpt>
      <trkpt lat="48.03089" lon="7.00838">
        <ele>1288.6</ele>
        <time>2023-05-19T12:44:40Z</time>
      </trkpt>
      <trkpt lat="48.03093" lon="7.0084">
        <ele>1288.9</ele>
        <time>2023-05-19T12:44:43Z</time>
      </trkpt>
      <trkpt lat="48.03097" lon="7.00843">
        <ele>1289.2</ele>
        <time>2023-05-19T12:44:47Z</time>
      </trkpt>
      <trkpt lat="48.03103" lon="7.00845">
        <ele>1289.4</ele>
        <time>2023-05-19T12:44:51Z</time>
      </trkpt>
      <trkpt lat="48.03142" lon="7.00858">
        <ele>1292.2</ele>
        <time>2023-05-19T12:45:24Z</time>
      </trkpt>
      <trkpt lat="48.03177" lon="7.00871">
        <ele>1296.5</ele>
        <time>2023-05-19T12:45:57Z</time>
      </trkpt>
      <trkpt lat="48.03212" lon="7.00885">
        <ele>1300.2</ele>
        <time>2023-05-19T12:46:31Z</time>
      </trkpt>
      <trkpt lat="48.03245" lon="7.00897">
        <ele>1303.5</ele>
        <time>2023-05-19T12:47:02Z</time>
      </trkpt>
      <trkpt lat="48.03264" lon="7.00904">
        <ele>1304.5</ele>
        <time>2023-05-19T12:47:20Z</time>
      </trkpt>
      <trkpt lat="48.03269" lon="7.00905">
        <ele>1304.7</ele>
        <time>2023-05-19T12:47:24Z</time>
      </trkpt>
      <trkpt lat="48.03292" lon="7.00919">
        <ele>1305</ele>
        <time>2023-05-19T12:47:44Z</time>
      </trkpt>
      <trkpt lat="48.03296" lon="7.00924">
        <ele>1304.9</ele>
        <time>2023-05-19T12:47:49Z</time>
      </trkpt>
      <trkpt lat="48.03304" lon="7.00931">
        <ele>1305</ele>
        <time>2023-05-19T12:47:57Z</time>
      </trkpt>
      <trkpt lat="48.03309" lon="7.00936">
        <ele>1304.7</ele>
        <time>2023-05-19T12:48:02Z</time>
      </trkpt>
      <trkpt lat="48.03317" lon="7.00944">
        <ele>1303.8</ele>
        <time>2023-05-19T12:48:12Z</time>
      </trkpt>
      <trkpt lat="48.03337" lon="7.00956">
        <ele>1301.6</ele>
        <time>2023-05-19T12:48:31Z</time>
      </trkpt>
      <trkpt lat="48.03341" lon="7.0096">
        <ele>1301.2</ele>
        <time>2023-05-19T12:48:35Z</time>
      </trkpt>
      <trkpt lat="48.03346" lon="7.00962">
        <ele>1300.6</ele>
        <time>2023-05-19T12:48:40Z</time>
      </trkpt>
      <trkpt lat="48.03377" lon="7.00988">
        <ele>1296.5</ele>
        <time>2023-05-19T12:49:10Z</time>
      </trkpt>
      <trkpt lat="48.03408" lon="7.01018">
        <ele>1290.5</ele>
        <time>2023-05-19T12:49:44Z</time>
      </trkpt>
      <trkpt lat="48.03425" lon="7.0104">
        <ele>1285.4</ele>
        <time>2023-05-19T12:50:19Z</time>
      </trkpt>
      <trkpt lat="48.03444" lon="7.01063">
        <ele>1280.2</ele>
        <time>2023-05-19T12:50:41Z</time>
      </trkpt>
      <trkpt lat="48.03449" lon="7.01078">
        <ele>1278.5</ele>
        <time>2023-05-19T12:50:51Z</time>
      </trkpt>
      <trkpt lat="48.03453" lon="7.01084">
        <ele>1277.9</ele>
        <time>2023-05-19T12:50:55Z</time>
      </trkpt>
      <trkpt lat="48.03462" lon="7.0109">
        <ele>1277.1</ele>
        <time>2023-05-19T12:51:09Z</time>
      </trkpt>
      <trkpt lat="48.03465" lon="7.01094">
        <ele>1276.7</ele>
        <time>2023-05-19T12:51:13Z</time>
      </trkpt>
      <trkpt lat="48.03469" lon="7.011">
        <ele>1276.5</ele>
        <time>2023-05-19T12:51:58Z</time>
      </trkpt>
      <trkpt lat="48.03477" lon="7.01107">
        <ele>1276.6</ele>
        <time>2023-05-19T12:52:09Z</time>
      </trkpt>
      <trkpt lat="48.03481" lon="7.0111">
        <ele>1276.7</ele>
        <time>2023-05-19T12:52:14Z</time>
      </trkpt>
      <trkpt lat="48.03484" lon="7.01114">
        <ele>1276.5</ele>
        <time>2023-05-19T12:52:31Z</time>
      </trkpt>
      <trkpt lat="48.03488" lon="7.01116">
        <ele>1276.7</ele>
        <time>2023-05-19T12:52:55Z</time>
      </trkpt>
      <trkpt lat="48.03515" lon="7.01134">
        <ele>1280.1</ele>
        <time>2023-05-19T12:54:24Z</time>
      </trkpt>
      <trkpt lat="48.03516" lon="7.01134">
        <ele>1280.2</ele>
        <time>2023-05-19T12:54:26Z</time>
      </trkpt>
      <trkpt lat="48.03522" lon="7.01142">
        <ele>1281.2</ele>
        <time>2023-05-19T12:54:34Z</time>
      </trkpt>
      <trkpt lat="48.03529" lon="7.01143">
        <ele>1282.3</ele>
        <time>2023-05-19T12:54:43Z</time>
      </trkpt>
      <trkpt lat="48.03535" lon="7.01142">
        <ele>1283.2</ele>
        <time>2023-05-19T12:54:47Z</time>
      </trkpt>
      <trkpt lat="48.03559" lon="7.01133">
        <ele>1285.8</ele>
        <time>2023-05-19T12:55:09Z</time>
      </trkpt>
      <trkpt lat="48.03563" lon="7.01133">
        <ele>1286.4</ele>
        <time>2023-05-19T12:55:14Z</time>
      </trkpt>
      <trkpt lat="48.03557" lon="7.01164">
        <ele>1289.9</ele>
        <time>2023-05-19T12:55:40Z</time>
      </trkpt>
      <trkpt lat="48.03556" lon="7.01172">
        <ele>1290.7</ele>
        <time>2023-05-19T12:55:52Z</time>
      </trkpt>
      <trkpt lat="48.03554" lon="7.01179">
        <ele>1290.9</ele>
        <time>2023-05-19T12:55:57Z</time>
      </trkpt>
      <trkpt lat="48.03552" lon="7.01187">
        <ele>1291.1</ele>
        <time>2023-05-19T12:56:16Z</time>
      </trkpt>
      <trkpt lat="48.03553" lon="7.01193">
        <ele>1292</ele>
        <time>2023-05-19T12:56:20Z</time>
      </trkpt>
      <trkpt lat="48.03555" lon="7.01221">
        <ele>1294.7</ele>
        <time>2023-05-19T12:56:37Z</time>
      </trkpt>
      <trkpt lat="48.03556" lon="7.01228">
        <ele>1294.9</ele>
        <time>2023-05-19T12:56:41Z</time>
      </trkpt>
      <trkpt lat="48.03557" lon="7.01234">
        <ele>1294.9</ele>
        <time>2023-05-19T12:56:44Z</time>
      </trkpt>
      <trkpt lat="48.03558" lon="7.0124">
        <ele>1295</ele>
        <time>2023-05-19T12:56:48Z</time>
      </trkpt>
      <trkpt lat="48.03562" lon="7.01245">
        <ele>1296</ele>
        <time>2023-05-19T12:56:53Z</time>
      </trkpt>
      <trkpt lat="48.03567" lon="7.0125">
        <ele>1297.3</ele>
        <time>2023-05-19T12:56:59Z</time>
      </trkpt>
      <trkpt lat="48.03583" lon="7.01264">
        <ele>1299.8</ele>
        <time>2023-05-19T12:57:16Z</time>
      </trkpt>
      <trkpt lat="48.03589" lon="7.01267">
        <ele>1301.1</ele>
        <time>2023-05-19T12:57:23Z</time>
      </trkpt>
      <trkpt lat="48.03592" lon="7.01251">
        <ele>1303.2</ele>
        <time>2023-05-19T12:57:33Z</time>
      </trkpt>
      <trkpt lat="48.03602" lon="7.01249">
        <ele>1304.6</ele>
        <time>2023-05-19T12:57:44Z</time>
      </trkpt>
      <trkpt lat="48.03606" lon="7.01248">
        <ele>1305.1</ele>
        <time>2023-05-19T12:57:48Z</time>
      </trkpt>
      <trkpt lat="48.03628" lon="7.01243">
        <ele>1307.8</ele>
        <time>2023-05-19T12:58:08Z</time>
      </trkpt>
      <trkpt lat="48.03636" lon="7.0124">
        <ele>1308.5</ele>
        <time>2023-05-19T12:58:16Z</time>
      </trkpt>
      <trkpt lat="48.03641" lon="7.01238">
        <ele>1309</ele>
        <time>2023-05-19T12:58:20Z</time>
      </trkpt>
      <trkpt lat="48.03641" lon="7.01248">
        <ele>1310.1</ele>
        <time>2023-05-19T12:58:29Z</time>
      </trkpt>
      <trkpt lat="48.03641" lon="7.01255">
        <ele>1310.9</ele>
        <time>2023-05-19T12:58:34Z</time>
      </trkpt>
      <trkpt lat="48.03644" lon="7.01264">
        <ele>1312.3</ele>
        <time>2023-05-19T12:58:44Z</time>
      </trkpt>
      <trkpt lat="48.03649" lon="7.01261">
        <ele>1312.8</ele>
        <time>2023-05-19T12:59:08Z</time>
      </trkpt>
      <trkpt lat="48.03654" lon="7.01258">
        <ele>1313.2</ele>
        <time>2023-05-19T12:59:14Z</time>
      </trkpt>
      <trkpt lat="48.03687" lon="7.01242">
        <ele>1314.3</ele>
        <time>2023-05-19T12:59:44Z</time>
      </trkpt>
      <trkpt lat="48.03725" lon="7.01237">
        <ele>1316.1</ele>
        <time>2023-05-19T13:00:16Z</time>
      </trkpt>
      <trkpt lat="48.0373" lon="7.01236">
        <ele>1316</ele>
        <time>2023-05-19T13:00:20Z</time>
      </trkpt>
      <trkpt lat="48.03734" lon="7.01233">
        <ele>1315.6</ele>
        <time>2023-05-19T13:00:24Z</time>
      </trkpt>
      <trkpt lat="48.03739" lon="7.01232">
        <ele>1315.4</ele>
        <time>2023-05-19T13:00:28Z</time>
      </trkpt>
      <trkpt lat="48.03773" lon="7.01218">
        <ele>1313.2</ele>
        <time>2023-05-19T13:01:00Z</time>
      </trkpt>
      <trkpt lat="48.03779" lon="7.01215">
        <ele>1312.7</ele>
        <time>2023-05-19T13:01:04Z</time>
      </trkpt>
      <trkpt lat="48.03807" lon="7.01202">
        <ele>1311.4</ele>
        <time>2023-05-19T13:01:28Z</time>
      </trkpt>
      <trkpt lat="48.03812" lon="7.01199">
        <ele>1311</ele>
        <time>2023-05-19T13:01:32Z</time>
      </trkpt>
      <trkpt lat="48.03821" lon="7.01194">
        <ele>1310.5</ele>
        <time>2023-05-19T13:01:39Z</time>
      </trkpt>
      <trkpt lat="48.03856" lon="7.01169">
        <ele>1307.2</ele>
        <time>2023-05-19T13:02:11Z</time>
      </trkpt>
      <trkpt lat="48.0387" lon="7.01162">
        <ele>1306.1</ele>
        <time>2023-05-19T13:02:24Z</time>
      </trkpt>
      <trkpt lat="48.0391" lon="7.0115">
        <ele>1303.9</ele>
        <time>2023-05-19T13:02:56Z</time>
      </trkpt>
      <trkpt lat="48.03947" lon="7.01136">
        <ele>1300.5</ele>
        <time>2023-05-19T13:03:27Z</time>
      </trkpt>
      <trkpt lat="48.03982" lon="7.01127">
        <ele>1298.9</ele>
        <time>2023-05-19T13:03:54Z</time>
      </trkpt>
      <trkpt lat="48.04" lon="7.01114">
        <ele>1296.5</ele>
        <time>2023-05-19T13:04:10Z</time>
      </trkpt>
      <trkpt lat="48.0402" lon="7.01106">
        <ele>1295.8</ele>
        <time>2023-05-19T13:04:26Z</time>
      </trkpt>
      <trkpt lat="48.04059" lon="7.01086">
        <ele>1292.5</ele>
        <time>2023-05-19T13:05:00Z</time>
      </trkpt>
      <trkpt lat="48.04069" lon="7.01081">
        <ele>1291.7</ele>
        <time>2023-05-19T13:05:08Z</time>
      </trkpt>
      <trkpt lat="48.04073" lon="7.01081">
        <ele>1291.7</ele>
        <time>2023-05-19T13:05:12Z</time>
      </trkpt>
      <trkpt lat="48.04079" lon="7.01081">
        <ele>1291.7</ele>
        <time>2023-05-19T13:05:19Z</time>
      </trkpt>
      <trkpt lat="48.04103" lon="7.01076">
        <ele>1292.4</ele>
        <time>2023-05-19T13:05:39Z</time>
      </trkpt>
      <trkpt lat="48.04108" lon="7.01075">
        <ele>1292.6</ele>
        <time>2023-05-19T13:05:43Z</time>
      </trkpt>
      <trkpt lat="48.04113" lon="7.01076">
        <ele>1293</ele>
        <time>2023-05-19T13:05:47Z</time>
      </trkpt>
      <trkpt lat="48.04122" lon="7.01077">
        <ele>1293.3</ele>
        <time>2023-05-19T13:05:54Z</time>
      </trkpt>
      <trkpt lat="48.04127" lon="7.01079">
        <ele>1293.6</ele>
        <time>2023-05-19T13:05:58Z</time>
      </trkpt>
      <trkpt lat="48.04132" lon="7.01082">
        <ele>1293.9</ele>
        <time>2023-05-19T13:06:02Z</time>
      </trkpt>
      <trkpt lat="48.04141" lon="7.01087">
        <ele>1294.3</ele>
        <time>2023-05-19T13:06:09Z</time>
      </trkpt>
      <trkpt lat="48.04145" lon="7.01091">
        <ele>1294.4</ele>
        <time>2023-05-19T13:06:13Z</time>
      </trkpt>
      <trkpt lat="48.04149" lon="7.01094">
        <ele>1294.2</ele>
        <time>2023-05-19T13:06:17Z</time>
      </trkpt>
      <trkpt lat="48.04159" lon="7.01099">
        <ele>1293.3</ele>
        <time>2023-05-19T13:06:26Z</time>
      </trkpt>
      <trkpt lat="48.04163" lon="7.01104">
        <ele>1292.8</ele>
        <time>2023-05-19T13:06:31Z</time>
      </trkpt>
      <trkpt lat="48.04169" lon="7.01108">
        <ele>1292.1</ele>
        <time>2023-05-19T13:06:36Z</time>
      </trkpt>
      <trkpt lat="48.04183" lon="7.01111">
        <ele>1292</ele>
        <time>2023-05-19T13:06:48Z</time>
      </trkpt>
      <trkpt lat="48.04188" lon="7.01113">
        <ele>1291.8</ele>
        <time>2023-05-19T13:06:52Z</time>
      </trkpt>
      <trkpt lat="48.04203" lon="7.01119">
        <ele>1291.9</ele>
        <time>2023-05-19T13:07:05Z</time>
      </trkpt>
      <trkpt lat="48.04208" lon="7.01121">
        <ele>1292.2</ele>
        <time>2023-05-19T13:07:09Z</time>
      </trkpt>
      <trkpt lat="48.04214" lon="7.01125">
        <ele>1292.5</ele>
        <time>2023-05-19T13:07:15Z</time>
      </trkpt>
      <trkpt lat="48.04236" lon="7.01138">
        <ele>1295</ele>
        <time>2023-05-19T13:07:36Z</time>
      </trkpt>
      <trkpt lat="48.04243" lon="7.01145">
        <ele>1294.7</ele>
        <time>2023-05-19T13:07:46Z</time>
      </trkpt>
      <trkpt lat="48.04248" lon="7.01145">
        <ele>1295.7</ele>
        <time>2023-05-19T13:08:03Z</time>
      </trkpt>
      <trkpt lat="48.04254" lon="7.01148">
        <ele>1295.8</ele>
        <time>2023-05-19T13:08:39Z</time>
      </trkpt>
      <trkpt lat="48.04259" lon="7.0115">
        <ele>1296.3</ele>
        <time>2023-05-19T13:08:45Z</time>
      </trkpt>
      <trkpt lat="48.04265" lon="7.01152">
        <ele>1297.2</ele>
        <time>2023-05-19T13:08:54Z</time>
      </trkpt>
      <trkpt lat="48.04279" lon="7.01164">
        <ele>1299.2</ele>
        <time>2023-05-19T13:09:16Z</time>
      </trkpt>
      <trkpt lat="48.04283" lon="7.01166">
        <ele>1299</ele>
        <time>2023-05-19T13:09:20Z</time>
      </trkpt>
      <trkpt lat="48.04293" lon="7.01171">
        <ele>1297.2</ele>
        <time>2023-05-19T13:09:29Z</time>
      </trkpt>
      <trkpt lat="48.04298" lon="7.01174">
        <ele>1296.3</ele>
        <time>2023-05-19T13:09:33Z</time>
      </trkpt>
      <trkpt lat="48.04303" lon="7.01178">
        <ele>1295.4</ele>
        <time>2023-05-19T13:09:39Z</time>
      </trkpt>
      <trkpt lat="48.04309" lon="7.01182">
        <ele>1294.8</ele>
        <time>2023-05-19T13:09:45Z</time>
      </trkpt>
      <trkpt lat="48.0433" lon="7.01193">
        <ele>1294.7</ele>
        <time>2023-05-19T13:10:02Z</time>
      </trkpt>
      <trkpt lat="48.04345" lon="7.01197">
        <ele>1294.5</ele>
        <time>2023-05-19T13:10:16Z</time>
      </trkpt>
      <trkpt lat="48.04356" lon="7.01197">
        <ele>1294.7</ele>
        <time>2023-05-19T13:10:24Z</time>
      </trkpt>
      <trkpt lat="48.04366" lon="7.01201">
        <ele>1294.7</ele>
        <time>2023-05-19T13:10:32Z</time>
      </trkpt>
      <trkpt lat="48.04371" lon="7.01203">
        <ele>1294.6</ele>
        <time>2023-05-19T13:10:36Z</time>
      </trkpt>
      <trkpt lat="48.04376" lon="7.01203">
        <ele>1294.8</ele>
        <time>2023-05-19T13:10:40Z</time>
      </trkpt>
      <trkpt lat="48.0438" lon="7.01205">
        <ele>1294.7</ele>
        <time>2023-05-19T13:10:43Z</time>
      </trkpt>
      <trkpt lat="48.04389" lon="7.01211">
        <ele>1294.2</ele>
        <time>2023-05-19T13:10:51Z</time>
      </trkpt>
      <trkpt lat="48.04394" lon="7.01211">
        <ele>1293.4</ele>
        <time>2023-05-19T13:10:55Z</time>
      </trkpt>
      <trkpt lat="48.04398" lon="7.01212">
        <ele>1292.7</ele>
        <time>2023-05-19T13:10:59Z</time>
      </trkpt>
      <trkpt lat="48.04404" lon="7.01212">
        <ele>1291.7</ele>
        <time>2023-05-19T13:11:04Z</time>
      </trkpt>
      <trkpt lat="48.04408" lon="7.01208">
        <ele>1292.2</ele>
        <time>2023-05-19T13:11:08Z</time>
      </trkpt>
      <trkpt lat="48.04413" lon="7.01206">
        <ele>1292.2</ele>
        <time>2023-05-19T13:11:13Z</time>
      </trkpt>
      <trkpt lat="48.04417" lon="7.01206">
        <ele>1291.9</ele>
        <time>2023-05-19T13:11:17Z</time>
      </trkpt>
      <trkpt lat="48.04422" lon="7.01207">
        <ele>1292.2</ele>
        <time>2023-05-19T13:11:21Z</time>
      </trkpt>
      <trkpt lat="48.04427" lon="7.0121">
        <ele>1292.1</ele>
        <time>2023-05-19T13:11:25Z</time>
      </trkpt>
      <trkpt lat="48.0443" lon="7.01214">
        <ele>1291.7</ele>
        <time>2023-05-19T13:11:29Z</time>
      </trkpt>
      <trkpt lat="48.04438" lon="7.01226">
        <ele>1290.7</ele>
        <time>2023-05-19T13:11:40Z</time>
      </trkpt>
      <trkpt lat="48.04445" lon="7.01234">
        <ele>1291.9</ele>
        <time>2023-05-19T13:11:48Z</time>
      </trkpt>
      <trkpt lat="48.04451" lon="7.01236">
        <ele>1291.6</ele>
        <time>2023-05-19T13:11:52Z</time>
      </trkpt>
      <trkpt lat="48.04455" lon="7.0124">
        <ele>1291.1</ele>
        <time>2023-05-19T13:11:56Z</time>
      </trkpt>
      <trkpt lat="48.04491" lon="7.01264">
        <ele>1286.8</ele>
        <time>2023-05-19T13:12:28Z</time>
      </trkpt>
      <trkpt lat="48.04504" lon="7.01273">
        <ele>1287.2</ele>
        <time>2023-05-19T13:12:39Z</time>
      </trkpt>
      <trkpt lat="48.04508" lon="7.01277">
        <ele>1286.8</ele>
        <time>2023-05-19T13:12:43Z</time>
      </trkpt>
      <trkpt lat="48.04512" lon="7.0128">
        <ele>1285.5</ele>
        <time>2023-05-19T13:12:46Z</time>
      </trkpt>
      <trkpt lat="48.04521" lon="7.01287">
        <ele>1284</ele>
        <time>2023-05-19T13:12:54Z</time>
      </trkpt>
      <trkpt lat="48.04542" lon="7.01304">
        <ele>1283.6</ele>
        <time>2023-05-19T13:13:14Z</time>
      </trkpt>
      <trkpt lat="48.04551" lon="7.01308">
        <ele>1282.7</ele>
        <time>2023-05-19T13:13:21Z</time>
      </trkpt>
      <trkpt lat="48.04559" lon="7.01316">
        <ele>1281.7</ele>
        <time>2023-05-19T13:13:29Z</time>
      </trkpt>
      <trkpt lat="48.04569" lon="7.0132">
        <ele>1281</ele>
        <time>2023-05-19T13:13:37Z</time>
      </trkpt>
      <trkpt lat="48.04576" lon="7.0132">
        <ele>1280.7</ele>
        <time>2023-05-19T13:13:43Z</time>
      </trkpt>
      <trkpt lat="48.04592" lon="7.01338">
        <ele>1278.5</ele>
        <time>2023-05-19T13:13:59Z</time>
      </trkpt>
      <trkpt lat="48.04594" lon="7.01345">
        <ele>1277.7</ele>
        <time>2023-05-19T13:14:03Z</time>
      </trkpt>
      <trkpt lat="48.04603" lon="7.01351">
        <ele>1277.1</ele>
        <time>2023-05-19T13:14:09Z</time>
      </trkpt>
      <trkpt lat="48.04607" lon="7.01355">
        <ele>1276.7</ele>
        <time>2023-05-19T13:14:13Z</time>
      </trkpt>
      <trkpt lat="48.04611" lon="7.01359">
        <ele>1276.2</ele>
        <time>2023-05-19T13:14:17Z</time>
      </trkpt>
      <trkpt lat="48.04616" lon="7.0136">
        <ele>1276.1</ele>
        <time>2023-05-19T13:14:21Z</time>
      </trkpt>
      <trkpt lat="48.04621" lon="7.01363">
        <ele>1275.8</ele>
        <time>2023-05-19T13:14:25Z</time>
      </trkpt>
      <trkpt lat="48.04626" lon="7.01365">
        <ele>1275.7</ele>
        <time>2023-05-19T13:14:29Z</time>
      </trkpt>
      <trkpt lat="48.0464" lon="7.01371">
        <ele>1275.3</ele>
        <time>2023-05-19T13:14:40Z</time>
      </trkpt>
      <trkpt lat="48.04644" lon="7.01374">
        <ele>1275.2</ele>
        <time>2023-05-19T13:14:44Z</time>
      </trkpt>
      <trkpt lat="48.04649" lon="7.01375">
        <ele>1275.2</ele>
        <time>2023-05-19T13:14:47Z</time>
      </trkpt>
      <trkpt lat="48.04668" lon="7.0139">
        <ele>1274.9</ele>
        <time>2023-05-19T13:15:03Z</time>
      </trkpt>
      <trkpt lat="48.04676" lon="7.014">
        <ele>1274.3</ele>
        <time>2023-05-19T13:15:11Z</time>
      </trkpt>
      <trkpt lat="48.04679" lon="7.01405">
        <ele>1274.1</ele>
        <time>2023-05-19T13:15:15Z</time>
      </trkpt>
      <trkpt lat="48.04687" lon="7.01415">
        <ele>1273.8</ele>
        <time>2023-05-19T13:15:23Z</time>
      </trkpt>
      <trkpt lat="48.04694" lon="7.01425">
        <ele>1274</ele>
        <time>2023-05-19T13:15:32Z</time>
      </trkpt>
      <trkpt lat="48.04697" lon="7.01431">
        <ele>1273.9</ele>
        <time>2023-05-19T13:15:36Z</time>
      </trkpt>
      <trkpt lat="48.04704" lon="7.01443">
        <ele>1273.7</ele>
        <time>2023-05-19T13:15:44Z</time>
      </trkpt>
      <trkpt lat="48.04704" lon="7.0145">
        <ele>1273.4</ele>
        <time>2023-05-19T13:15:48Z</time>
      </trkpt>
      <trkpt lat="48.04706" lon="7.01456">
        <ele>1273.1</ele>
        <time>2023-05-19T13:15:52Z</time>
      </trkpt>
      <trkpt lat="48.0471" lon="7.01462">
        <ele>1272.9</ele>
        <time>2023-05-19T13:15:56Z</time>
      </trkpt>
      <trkpt lat="48.04714" lon="7.01467">
        <ele>1272.8</ele>
        <time>2023-05-19T13:16:00Z</time>
      </trkpt>
      <trkpt lat="48.04716" lon="7.01472">
        <ele>1272.8</ele>
        <time>2023-05-19T13:16:04Z</time>
      </trkpt>
      <trkpt lat="48.0472" lon="7.01477">
        <ele>1272.9</ele>
        <time>2023-05-19T13:16:08Z</time>
      </trkpt>
      <trkpt lat="48.04728" lon="7.01486">
        <ele>1272.6</ele>
        <time>2023-05-19T13:16:16Z</time>
      </trkpt>
      <trkpt lat="48.04733" lon="7.01489">
        <ele>1272.2</ele>
        <time>2023-05-19T13:16:19Z</time>
      </trkpt>
      <trkpt lat="48.04748" lon="7.01492">
        <ele>1271.1</ele>
        <time>2023-05-19T13:16:31Z</time>
      </trkpt>
      <trkpt lat="48.04752" lon="7.01491">
        <ele>1270.9</ele>
        <time>2023-05-19T13:16:34Z</time>
      </trkpt>
      <trkpt lat="48.0476" lon="7.0148">
        <ele>1270.3</ele>
        <time>2023-05-19T13:16:42Z</time>
      </trkpt>
      <trkpt lat="48.04768" lon="7.01471">
        <ele>1269.7</ele>
        <time>2023-05-19T13:16:50Z</time>
      </trkpt>
      <trkpt lat="48.04773" lon="7.0147">
        <ele>1269.4</ele>
        <time>2023-05-19T13:16:54Z</time>
      </trkpt>
      <trkpt lat="48.04784" lon="7.01458">
        <ele>1268.7</ele>
        <time>2023-05-19T13:17:06Z</time>
      </trkpt>
      <trkpt lat="48.04787" lon="7.01452">
        <ele>1268.5</ele>
        <time>2023-05-19T13:17:11Z</time>
      </trkpt>
      <trkpt lat="48.04792" lon="7.01449">
        <ele>1267.9</ele>
        <time>2023-05-19T13:17:15Z</time>
      </trkpt>
      <trkpt lat="48.04796" lon="7.01447">
        <ele>1267.3</ele>
        <time>2023-05-19T13:17:19Z</time>
      </trkpt>
      <trkpt lat="48.04801" lon="7.01447">
        <ele>1266.6</ele>
        <time>2023-05-19T13:17:23Z</time>
      </trkpt>
      <trkpt lat="48.04832" lon="7.01456">
        <ele>1263.1</ele>
        <time>2023-05-19T13:17:51Z</time>
      </trkpt>
      <trkpt lat="48.04837" lon="7.0146">
        <ele>1262.5</ele>
        <time>2023-05-19T13:17:55Z</time>
      </trkpt>
      <trkpt lat="48.04842" lon="7.01462">
        <ele>1261.8</ele>
        <time>2023-05-19T13:18:00Z</time>
      </trkpt>
      <trkpt lat="48.04847" lon="7.01462">
        <ele>1261</ele>
        <time>2023-05-19T13:18:04Z</time>
      </trkpt>
      <trkpt lat="48.04881" lon="7.0148">
        <ele>1255.6</ele>
        <time>2023-05-19T13:18:29Z</time>
      </trkpt>
      <trkpt lat="48.04892" lon="7.01491">
        <ele>1254.2</ele>
        <time>2023-05-19T13:18:41Z</time>
      </trkpt>
      <trkpt lat="48.04897" lon="7.01492">
        <ele>1253.4</ele>
        <time>2023-05-19T13:18:44Z</time>
      </trkpt>
      <trkpt lat="48.0494" lon="7.01518">
        <ele>1247.8</ele>
        <time>2023-05-19T13:19:18Z</time>
      </trkpt>
      <trkpt lat="48.04951" lon="7.01523">
        <ele>1246.7</ele>
        <time>2023-05-19T13:19:29Z</time>
      </trkpt>
      <trkpt lat="48.04956" lon="7.01527">
        <ele>1246.2</ele>
        <time>2023-05-19T13:19:33Z</time>
      </trkpt>
      <trkpt lat="48.04986" lon="7.01541">
        <ele>1244</ele>
        <time>2023-05-19T13:19:57Z</time>
      </trkpt>
      <trkpt lat="48.0499" lon="7.01545">
        <ele>1243.7</ele>
        <time>2023-05-19T13:20:02Z</time>
      </trkpt>
      <trkpt lat="48.04995" lon="7.01548">
        <ele>1243.4</ele>
        <time>2023-05-19T13:20:09Z</time>
      </trkpt>
      <trkpt lat="48.05" lon="7.01546">
        <ele>1243</ele>
        <time>2023-05-19T13:20:17Z</time>
      </trkpt>
      <trkpt lat="48.05041" lon="7.01564">
        <ele>1239.5</ele>
        <time>2023-05-19T13:20:50Z</time>
      </trkpt>
      <trkpt lat="48.05074" lon="7.01572">
        <ele>1237.5</ele>
        <time>2023-05-19T13:21:18Z</time>
      </trkpt>
      <trkpt lat="48.05093" lon="7.0158">
        <ele>1236.7</ele>
        <time>2023-05-19T13:21:32Z</time>
      </trkpt>
      <trkpt lat="48.05104" lon="7.01578">
        <ele>1236.3</ele>
        <time>2023-05-19T13:21:45Z</time>
      </trkpt>
      <trkpt lat="48.05143" lon="7.01587">
        <ele>1234.7</ele>
        <time>2023-05-19T13:22:16Z</time>
      </trkpt>
      <trkpt lat="48.05162" lon="7.01598">
        <ele>1233.8</ele>
        <time>2023-05-19T13:22:32Z</time>
      </trkpt>
      <trkpt lat="48.05166" lon="7.01601">
        <ele>1233.7</ele>
        <time>2023-05-19T13:22:35Z</time>
      </trkpt>
      <trkpt lat="48.05184" lon="7.01613">
        <ele>1232.8</ele>
        <time>2023-05-19T13:22:49Z</time>
      </trkpt>
      <trkpt lat="48.05186" lon="7.01619">
        <ele>1232.7</ele>
        <time>2023-05-19T13:22:53Z</time>
      </trkpt>
      <trkpt lat="48.05188" lon="7.01634">
        <ele>1232.9</ele>
        <time>2023-05-19T13:23:01Z</time>
      </trkpt>
      <trkpt lat="48.05185" lon="7.0165">
        <ele>1232.7</ele>
        <time>2023-05-19T13:23:09Z</time>
      </trkpt>
      <trkpt lat="48.05184" lon="7.01658">
        <ele>1232.5</ele>
        <time>2023-05-19T13:23:13Z</time>
      </trkpt>
      <trkpt lat="48.05184" lon="7.01665">
        <ele>1232.3</ele>
        <time>2023-05-19T13:23:17Z</time>
      </trkpt>
      <trkpt lat="48.05183" lon="7.01672">
        <ele>1232.1</ele>
        <time>2023-05-19T13:23:21Z</time>
      </trkpt>
      <trkpt lat="48.05182" lon="7.01695">
        <ele>1231.7</ele>
        <time>2023-05-19T13:23:33Z</time>
      </trkpt>
      <trkpt lat="48.05181" lon="7.01711">
        <ele>1231.5</ele>
        <time>2023-05-19T13:23:41Z</time>
      </trkpt>
      <trkpt lat="48.0518" lon="7.01725">
        <ele>1231.4</ele>
        <time>2023-05-19T13:23:49Z</time>
      </trkpt>
      <trkpt lat="48.0518" lon="7.01748">
        <ele>1231.4</ele>
        <time>2023-05-19T13:24:01Z</time>
      </trkpt>
      <trkpt lat="48.05179" lon="7.01762">
        <ele>1231.1</ele>
        <time>2023-05-19T13:24:08Z</time>
      </trkpt>
      <trkpt lat="48.05176" lon="7.01787">
        <ele>1230.3</ele>
        <time>2023-05-19T13:24:22Z</time>
      </trkpt>
      <trkpt lat="48.05176" lon="7.01802">
        <ele>1230.3</ele>
        <time>2023-05-19T13:24:31Z</time>
      </trkpt>
      <trkpt lat="48.05174" lon="7.01815">
        <ele>1230.1</ele>
        <time>2023-05-19T13:24:38Z</time>
      </trkpt>
      <trkpt lat="48.05174" lon="7.01821">
        <ele>1230.1</ele>
        <time>2023-05-19T13:24:41Z</time>
      </trkpt>
      <trkpt lat="48.05173" lon="7.01829">
        <ele>1229.9</ele>
        <time>2023-05-19T13:24:45Z</time>
      </trkpt>
      <trkpt lat="48.05174" lon="7.01843">
        <ele>1230.1</ele>
        <time>2023-05-19T13:24:53Z</time>
      </trkpt>
      <trkpt lat="48.05172" lon="7.0185">
        <ele>1229.8</ele>
        <time>2023-05-19T13:24:57Z</time>
      </trkpt>
      <trkpt lat="48.05172" lon="7.01858">
        <ele>1229.8</ele>
        <time>2023-05-19T13:25:01Z</time>
      </trkpt>
      <trkpt lat="48.05171" lon="7.01873">
        <ele>1229.2</ele>
        <time>2023-05-19T13:25:09Z</time>
      </trkpt>
      <trkpt lat="48.05171" lon="7.0188">
        <ele>1228.9</ele>
        <time>2023-05-19T13:25:13Z</time>
      </trkpt>
      <trkpt lat="48.0517" lon="7.01895">
        <ele>1228.5</ele>
        <time>2023-05-19T13:25:21Z</time>
      </trkpt>
      <trkpt lat="48.05168" lon="7.0191">
        <ele>1228.2</ele>
        <time>2023-05-19T13:25:29Z</time>
      </trkpt>
      <trkpt lat="48.05171" lon="7.01924">
        <ele>1228.2</ele>
        <time>2023-05-19T13:25:36Z</time>
      </trkpt>
      <trkpt lat="48.05176" lon="7.01935">
        <ele>1228.3</ele>
        <time>2023-05-19T13:25:44Z</time>
      </trkpt>
      <trkpt lat="48.05189" lon="7.0195">
        <ele>1229.3</ele>
        <time>2023-05-19T13:26:06Z</time>
      </trkpt>
      <trkpt lat="48.05186" lon="7.01956">
        <ele>1228.8</ele>
        <time>2023-05-19T13:26:20Z</time>
      </trkpt>
      <trkpt lat="48.0519" lon="7.01963">
        <ele>1229</ele>
        <time>2023-05-19T13:26:31Z</time>
      </trkpt>
      <trkpt lat="48.05193" lon="7.01968">
        <ele>1229</ele>
        <time>2023-05-19T13:26:36Z</time>
      </trkpt>
      <trkpt lat="48.05196" lon="7.01973">
        <ele>1229.1</ele>
        <time>2023-05-19T13:26:40Z</time>
      </trkpt>
      <trkpt lat="48.05198" lon="7.01979">
        <ele>1229.1</ele>
        <time>2023-05-19T13:26:44Z</time>
      </trkpt>
      <trkpt lat="48.05196" lon="7.01984">
        <ele>1228.7</ele>
        <time>2023-05-19T13:27:03Z</time>
      </trkpt>
      <trkpt lat="48.05198" lon="7.0199">
        <ele>1228.7</ele>
        <time>2023-05-19T13:27:37Z</time>
      </trkpt>
      <trkpt lat="48.05204" lon="7.02002">
        <ele>1228.5</ele>
        <time>2023-05-19T13:27:47Z</time>
      </trkpt>
      <trkpt lat="48.05207" lon="7.02009">
        <ele>1228.3</ele>
        <time>2023-05-19T13:27:51Z</time>
      </trkpt>
      <trkpt lat="48.05222" lon="7.02065">
        <ele>1226.3</ele>
        <time>2023-05-19T13:28:24Z</time>
      </trkpt>
      <trkpt lat="48.05241" lon="7.02127">
        <ele>1223.8</ele>
        <time>2023-05-19T13:28:57Z</time>
      </trkpt>
      <trkpt lat="48.05259" lon="7.02186">
        <ele>1222.1</ele>
        <time>2023-05-19T13:29:31Z</time>
      </trkpt>
      <trkpt lat="48.05261" lon="7.02192">
        <ele>1221.9</ele>
        <time>2023-05-19T13:29:35Z</time>
      </trkpt>
      <trkpt lat="48.05263" lon="7.02198">
        <ele>1221.7</ele>
        <time>2023-05-19T13:29:38Z</time>
      </trkpt>
      <trkpt lat="48.0527" lon="7.02223">
        <ele>1220.4</ele>
        <time>2023-05-19T13:29:51Z</time>
      </trkpt>
      <trkpt lat="48.05273" lon="7.02237">
        <ele>1220.1</ele>
        <time>2023-05-19T13:29:58Z</time>
      </trkpt>
      <trkpt lat="48.05282" lon="7.02276">
        <ele>1218.4</ele>
        <time>2023-05-19T13:30:19Z</time>
      </trkpt>
      <trkpt lat="48.05293" lon="7.02302">
        <ele>1218.2</ele>
        <time>2023-05-19T13:30:34Z</time>
      </trkpt>
      <trkpt lat="48.05309" lon="7.02364">
        <ele>1216.1</ele>
        <time>2023-05-19T13:31:07Z</time>
      </trkpt>
      <trkpt lat="48.0531" lon="7.0237">
        <ele>1216</ele>
        <time>2023-05-19T13:31:11Z</time>
      </trkpt>
      <trkpt lat="48.05323" lon="7.02417">
        <ele>1216.5</ele>
        <time>2023-05-19T13:31:36Z</time>
      </trkpt>
      <trkpt lat="48.05323" lon="7.02425">
        <ele>1216.3</ele>
        <time>2023-05-19T13:31:40Z</time>
      </trkpt>
      <trkpt lat="48.05334" lon="7.02466">
        <ele>1216.3</ele>
        <time>2023-05-19T13:32:05Z</time>
      </trkpt>
      <trkpt lat="48.05334" lon="7.02479">
        <ele>1216.1</ele>
        <time>2023-05-19T14:18:19Z</time>
      </trkpt>
      <trkpt lat="48.05334" lon="7.02479">
        <ele>1216.1</ele>
        <time>2023-05-19T14:18:20Z</time>
      </trkpt>
      <trkpt lat="48.05334" lon="7.02485">
        <ele>1216.1</ele>
        <time>2023-05-19T14:18:24Z</time>
      </trkpt>
      <trkpt lat="48.05336" lon="7.02491">
        <ele>1216.4</ele>
        <time>2023-05-19T14:18:28Z</time>
      </trkpt>
      <trkpt lat="48.05338" lon="7.02497">
        <ele>1216.7</ele>
        <time>2023-05-19T14:18:32Z</time>
      </trkpt>
      <trkpt lat="48.0534" lon="7.02506">
        <ele>1216.6</ele>
        <time>2023-05-19T14:18:42Z</time>
      </trkpt>
      <trkpt lat="48.05354" lon="7.02524">
        <ele>1217.9</ele>
        <time>2023-05-19T14:19:10Z</time>
      </trkpt>
      <trkpt lat="48.05357" lon="7.02529">
        <ele>1218.2</ele>
        <time>2023-05-19T14:19:22Z</time>
      </trkpt>
      <trkpt lat="48.05361" lon="7.02533">
        <ele>1218.6</ele>
        <time>2023-05-19T14:19:26Z</time>
      </trkpt>
      <trkpt lat="48.05364" lon="7.02539">
        <ele>1218.6</ele>
        <time>2023-05-19T14:19:31Z</time>
      </trkpt>
      <trkpt lat="48.05385" lon="7.02561">
        <ele>1219.9</ele>
        <time>2023-05-19T14:19:54Z</time>
      </trkpt>
      <trkpt lat="48.05395" lon="7.02563">
        <ele>1221.2</ele>
        <time>2023-05-19T14:20:06Z</time>
      </trkpt>
      <trkpt lat="48.05399" lon="7.02557">
        <ele>1222.6</ele>
        <time>2023-05-19T14:20:13Z</time>
      </trkpt>
      <trkpt lat="48.05402" lon="7.02541">
        <ele>1224.4</ele>
        <time>2023-05-19T14:20:25Z</time>
      </trkpt>
      <trkpt lat="48.05405" lon="7.02536">
        <ele>1225.3</ele>
        <time>2023-05-19T14:20:29Z</time>
      </trkpt>
      <trkpt lat="48.05411" lon="7.02534">
        <ele>1226.5</ele>
        <time>2023-05-19T14:20:36Z</time>
      </trkpt>
      <trkpt lat="48.0542" lon="7.02527">
        <ele>1228.4</ele>
        <time>2023-05-19T14:20:45Z</time>
      </trkpt>
      <trkpt lat="48.05442" lon="7.02516">
        <ele>1231.5</ele>
        <time>2023-05-19T14:21:09Z</time>
      </trkpt>
      <trkpt lat="48.05446" lon="7.02513">
        <ele>1232.3</ele>
        <time>2023-05-19T14:21:14Z</time>
      </trkpt>
      <trkpt lat="48.05451" lon="7.02511">
        <ele>1233</ele>
        <time>2023-05-19T14:21:22Z</time>
      </trkpt>
      <trkpt lat="48.05456" lon="7.02511">
        <ele>1233.6</ele>
        <time>2023-05-19T14:21:28Z</time>
      </trkpt>
      <trkpt lat="48.05469" lon="7.02504">
        <ele>1235.5</ele>
        <time>2023-05-19T14:21:43Z</time>
      </trkpt>
      <trkpt lat="48.0548" lon="7.02506">
        <ele>1236.3</ele>
        <time>2023-05-19T14:21:55Z</time>
      </trkpt>
      <trkpt lat="48.05484" lon="7.025">
        <ele>1236.8</ele>
        <time>2023-05-19T14:22:00Z</time>
      </trkpt>
      <trkpt lat="48.05489" lon="7.02499">
        <ele>1237.2</ele>
        <time>2023-05-19T14:22:04Z</time>
      </trkpt>
      <trkpt lat="48.05498" lon="7.02491">
        <ele>1238.2</ele>
        <time>2023-05-19T14:22:14Z</time>
      </trkpt>
      <trkpt lat="48.05513" lon="7.02488">
        <ele>1239.4</ele>
        <time>2023-05-19T14:22:34Z</time>
      </trkpt>
      <trkpt lat="48.05519" lon="7.02489">
        <ele>1239.8</ele>
        <time>2023-05-19T14:22:38Z</time>
      </trkpt>
      <trkpt lat="48.05538" lon="7.02484">
        <ele>1240.9</ele>
        <time>2023-05-19T14:22:55Z</time>
      </trkpt>
      <trkpt lat="48.05559" lon="7.02474">
        <ele>1242.1</ele>
        <time>2023-05-19T14:23:16Z</time>
      </trkpt>
      <trkpt lat="48.05566" lon="7.02476">
        <ele>1242.2</ele>
        <time>2023-05-19T14:23:22Z</time>
      </trkpt>
      <trkpt lat="48.0557" lon="7.02481">
        <ele>1242.2</ele>
        <time>2023-05-19T14:23:26Z</time>
      </trkpt>
      <trkpt lat="48.05575" lon="7.02485">
        <ele>1242.2</ele>
        <time>2023-05-19T14:23:30Z</time>
      </trkpt>
      <trkpt lat="48.05583" lon="7.02495">
        <ele>1242.2</ele>
        <time>2023-05-19T14:23:40Z</time>
      </trkpt>
      <trkpt lat="48.05593" lon="7.02495">
        <ele>1241.8</ele>
        <time>2023-05-19T14:23:49Z</time>
      </trkpt>
      <trkpt lat="48.05602" lon="7.02487">
        <ele>1241.8</ele>
        <time>2023-05-19T14:23:58Z</time>
      </trkpt>
      <trkpt lat="48.05606" lon="7.02479">
        <ele>1241.9</ele>
        <time>2023-05-19T14:24:04Z</time>
      </trkpt>
      <trkpt lat="48.05604" lon="7.02462">
        <ele>1242.3</ele>
        <time>2023-05-19T14:24:13Z</time>
      </trkpt>
      <trkpt lat="48.05607" lon="7.02452">
        <ele>1242.1</ele>
        <time>2023-05-19T14:24:22Z</time>
      </trkpt>
      <trkpt lat="48.05608" lon="7.02431">
        <ele>1242.1</ele>
        <time>2023-05-19T14:24:35Z</time>
      </trkpt>
      <trkpt lat="48.05607" lon="7.02424">
        <ele>1242.1</ele>
        <time>2023-05-19T14:24:40Z</time>
      </trkpt>
      <trkpt lat="48.05607" lon="7.02408">
        <ele>1242.1</ele>
        <time>2023-05-19T14:24:50Z</time>
      </trkpt>
      <trkpt lat="48.05607" lon="7.02401">
        <ele>1242.1</ele>
        <time>2023-05-19T14:24:55Z</time>
      </trkpt>
      <trkpt lat="48.05613" lon="7.02402">
        <ele>1241.9</ele>
        <time>2023-05-19T14:25:03Z</time>
      </trkpt>
      <trkpt lat="48.05618" lon="7.02403">
        <ele>1241.5</ele>
        <time>2023-05-19T14:25:07Z</time>
      </trkpt>
      <trkpt lat="48.05622" lon="7.02406">
        <ele>1241.2</ele>
        <time>2023-05-19T14:25:12Z</time>
      </trkpt>
      <trkpt lat="48.0563" lon="7.02413">
        <ele>1240.6</ele>
        <time>2023-05-19T14:25:21Z</time>
      </trkpt>
      <trkpt lat="48.05636" lon="7.02415">
        <ele>1240.2</ele>
        <time>2023-05-19T14:25:24Z</time>
      </trkpt>
      <trkpt lat="48.05652" lon="7.02423">
        <ele>1237.8</ele>
        <time>2023-05-19T14:25:40Z</time>
      </trkpt>
      <trkpt lat="48.05657" lon="7.02423">
        <ele>1237.1</ele>
        <time>2023-05-19T14:25:44Z</time>
      </trkpt>
      <trkpt lat="48.05672" lon="7.0242">
        <ele>1233.8</ele>
        <time>2023-05-19T14:26:01Z</time>
      </trkpt>
      <trkpt lat="48.05676" lon="7.02414">
        <ele>1233.3</ele>
        <time>2023-05-19T14:26:09Z</time>
      </trkpt>
      <trkpt lat="48.05687" lon="7.02401">
        <ele>1232.1</ele>
        <time>2023-05-19T14:26:24Z</time>
      </trkpt>
      <trkpt lat="48.05698" lon="7.02401">
        <ele>1229.2</ele>
        <time>2023-05-19T14:26:31Z</time>
      </trkpt>
      <trkpt lat="48.05717" lon="7.0239">
        <ele>1229.5</ele>
        <time>2023-05-19T14:26:53Z</time>
      </trkpt>
      <trkpt lat="48.05722" lon="7.02388">
        <ele>1229.1</ele>
        <time>2023-05-19T14:26:58Z</time>
      </trkpt>
      <trkpt lat="48.05736" lon="7.02379">
        <ele>1226.2</ele>
        <time>2023-05-19T14:27:15Z</time>
      </trkpt>
      <trkpt lat="48.05745" lon="7.02359">
        <ele>1225.3</ele>
        <time>2023-05-19T14:27:32Z</time>
      </trkpt>
      <trkpt lat="48.05755" lon="7.02353">
        <ele>1222.6</ele>
        <time>2023-05-19T14:27:39Z</time>
      </trkpt>
      <trkpt lat="48.05756" lon="7.02345">
        <ele>1222.8</ele>
        <time>2023-05-19T14:27:45Z</time>
      </trkpt>
      <trkpt lat="48.0576" lon="7.02341">
        <ele>1221.9</ele>
        <time>2023-05-19T14:27:50Z</time>
      </trkpt>
      <trkpt lat="48.05762" lon="7.02334">
        <ele>1221.9</ele>
        <time>2023-05-19T14:27:54Z</time>
      </trkpt>
      <trkpt lat="48.05766" lon="7.0233">
        <ele>1221</ele>
        <time>2023-05-19T14:27:57Z</time>
      </trkpt>
      <trkpt lat="48.05767" lon="7.02324">
        <ele>1220.8</ele>
        <time>2023-05-19T14:28:01Z</time>
      </trkpt>
      <trkpt lat="48.05772" lon="7.02312">
        <ele>1219.9</ele>
        <time>2023-05-19T14:28:09Z</time>
      </trkpt>
      <trkpt lat="48.05776" lon="7.02308">
        <ele>1219.2</ele>
        <time>2023-05-19T14:28:14Z</time>
      </trkpt>
      <trkpt lat="48.05785" lon="7.02305">
        <ele>1217.7</ele>
        <time>2023-05-19T14:28:21Z</time>
      </trkpt>
      <trkpt lat="48.05794" lon="7.02298">
        <ele>1216.2</ele>
        <time>2023-05-19T14:28:29Z</time>
      </trkpt>
      <trkpt lat="48.05806" lon="7.02297">
        <ele>1214.3</ele>
        <time>2023-05-19T14:28:40Z</time>
      </trkpt>
      <trkpt lat="48.05828" lon="7.02299">
        <ele>1211.8</ele>
        <time>2023-05-19T14:28:56Z</time>
      </trkpt>
      <trkpt lat="48.05831" lon="7.02292">
        <ele>1211.7</ele>
        <time>2023-05-19T14:29:03Z</time>
      </trkpt>
      <trkpt lat="48.05846" lon="7.02295">
        <ele>1209.6</ele>
        <time>2023-05-19T14:29:15Z</time>
      </trkpt>
      <trkpt lat="48.0585" lon="7.02298">
        <ele>1208.9</ele>
        <time>2023-05-19T14:29:18Z</time>
      </trkpt>
      <trkpt lat="48.05859" lon="7.02301">
        <ele>1207.5</ele>
        <time>2023-05-19T14:29:25Z</time>
      </trkpt>
      <trkpt lat="48.05864" lon="7.02298">
        <ele>1207.1</ele>
        <time>2023-05-19T14:29:31Z</time>
      </trkpt>
      <trkpt lat="48.05869" lon="7.02295">
        <ele>1207</ele>
        <time>2023-05-19T14:29:35Z</time>
      </trkpt>
      <trkpt lat="48.05878" lon="7.023">
        <ele>1206.5</ele>
        <time>2023-05-19T14:29:41Z</time>
      </trkpt>
      <trkpt lat="48.05887" lon="7.02308">
        <ele>1205.6</ele>
        <time>2023-05-19T14:29:49Z</time>
      </trkpt>
      <trkpt lat="48.05895" lon="7.02316">
        <ele>1204.2</ele>
        <time>2023-05-19T14:29:56Z</time>
      </trkpt>
      <trkpt lat="48.05897" lon="7.02325">
        <ele>1203.1</ele>
        <time>2023-05-19T14:30:03Z</time>
      </trkpt>
      <trkpt lat="48.05903" lon="7.02327">
        <ele>1203.5</ele>
        <time>2023-05-19T14:30:10Z</time>
      </trkpt>
      <trkpt lat="48.05906" lon="7.02332">
        <ele>1203.5</ele>
        <time>2023-05-19T14:30:14Z</time>
      </trkpt>
      <trkpt lat="48.0592" lon="7.02339">
        <ele>1204.2</ele>
        <time>2023-05-19T14:30:25Z</time>
      </trkpt>
      <trkpt lat="48.05929" lon="7.02348">
        <ele>1203.5</ele>
        <time>2023-05-19T14:30:34Z</time>
      </trkpt>
      <trkpt lat="48.05937" lon="7.02354">
        <ele>1203.5</ele>
        <time>2023-05-19T14:30:40Z</time>
      </trkpt>
      <trkpt lat="48.05941" lon="7.02358">
        <ele>1203.7</ele>
        <time>2023-05-19T14:30:45Z</time>
      </trkpt>
      <trkpt lat="48.05951" lon="7.02367">
        <ele>1202.5</ele>
        <time>2023-05-19T14:30:55Z</time>
      </trkpt>
      <trkpt lat="48.05957" lon="7.0238">
        <ele>1200.6</ele>
        <time>2023-05-19T14:31:07Z</time>
      </trkpt>
      <trkpt lat="48.05961" lon="7.02383">
        <ele>1200.4</ele>
        <time>2023-05-19T14:31:12Z</time>
      </trkpt>
      <trkpt lat="48.05978" lon="7.02395">
        <ele>1198.4</ele>
        <time>2023-05-19T14:31:31Z</time>
      </trkpt>
      <trkpt lat="48.05984" lon="7.02395">
        <ele>1197.9</ele>
        <time>2023-05-19T14:31:35Z</time>
      </trkpt>
      <trkpt lat="48.05989" lon="7.02398">
        <ele>1196.7</ele>
        <time>2023-05-19T14:31:39Z</time>
      </trkpt>
      <trkpt lat="48.05993" lon="7.02398">
        <ele>1196.5</ele>
        <time>2023-05-19T14:31:43Z</time>
      </trkpt>
      <trkpt lat="48.06025" lon="7.02411">
        <ele>1193.4</ele>
        <time>2023-05-19T14:32:11Z</time>
      </trkpt>
      <trkpt lat="48.06039" lon="7.02429">
        <ele>1190.3</ele>
        <time>2023-05-19T14:32:26Z</time>
      </trkpt>
      <trkpt lat="48.06052" lon="7.0245">
        <ele>1188.7</ele>
        <time>2023-05-19T14:32:43Z</time>
      </trkpt>
      <trkpt lat="48.0606" lon="7.02459">
        <ele>1187.4</ele>
        <time>2023-05-19T14:32:51Z</time>
      </trkpt>
      <trkpt lat="48.06075" lon="7.02483">
        <ele>1183.3</ele>
        <time>2023-05-19T14:33:14Z</time>
      </trkpt>
      <trkpt lat="48.06086" lon="7.02493">
        <ele>1183.1</ele>
        <time>2023-05-19T14:33:27Z</time>
      </trkpt>
      <trkpt lat="48.06091" lon="7.02495">
        <ele>1181.9</ele>
        <time>2023-05-19T14:33:31Z</time>
      </trkpt>
      <trkpt lat="48.06105" lon="7.0249">
        <ele>1180.8</ele>
        <time>2023-05-19T14:33:47Z</time>
      </trkpt>
      <trkpt lat="48.06117" lon="7.0249">
        <ele>1178.3</ele>
        <time>2023-05-19T14:33:57Z</time>
      </trkpt>
      <trkpt lat="48.06126" lon="7.02486">
        <ele>1176.8</ele>
        <time>2023-05-19T14:34:04Z</time>
      </trkpt>
      <trkpt lat="48.0613" lon="7.02481">
        <ele>1176.7</ele>
        <time>2023-05-19T14:34:11Z</time>
      </trkpt>
      <trkpt lat="48.0614" lon="7.02452">
        <ele>1177</ele>
        <time>2023-05-19T14:34:36Z</time>
      </trkpt>
      <trkpt lat="48.06142" lon="7.02445">
        <ele>1176.8</ele>
        <time>2023-05-19T14:34:40Z</time>
      </trkpt>
      <trkpt lat="48.06145" lon="7.0244">
        <ele>1175.9</ele>
        <time>2023-05-19T14:34:44Z</time>
      </trkpt>
      <trkpt lat="48.0615" lon="7.02435">
        <ele>1174.3</ele>
        <time>2023-05-19T14:34:49Z</time>
      </trkpt>
      <trkpt lat="48.06153" lon="7.02422">
        <ele>1173.7</ele>
        <time>2023-05-19T14:34:58Z</time>
      </trkpt>
      <trkpt lat="48.06156" lon="7.02417">
        <ele>1173.1</ele>
        <time>2023-05-19T14:35:02Z</time>
      </trkpt>
      <trkpt lat="48.06161" lon="7.02404">
        <ele>1172.5</ele>
        <time>2023-05-19T14:35:11Z</time>
      </trkpt>
      <trkpt lat="48.0617" lon="7.02397">
        <ele>1170.8</ele>
        <time>2023-05-19T14:35:19Z</time>
      </trkpt>
      <trkpt lat="48.06173" lon="7.02391">
        <ele>1170.7</ele>
        <time>2023-05-19T14:35:24Z</time>
      </trkpt>
      <trkpt lat="48.06177" lon="7.02387">
        <ele>1170.2</ele>
        <time>2023-05-19T14:35:28Z</time>
      </trkpt>
      <trkpt lat="48.06181" lon="7.02386">
        <ele>1169.5</ele>
        <time>2023-05-19T14:35:32Z</time>
      </trkpt>
      <trkpt lat="48.06185" lon="7.02386">
        <ele>1168.8</ele>
        <time>2023-05-19T14:35:35Z</time>
      </trkpt>
      <trkpt lat="48.0619" lon="7.02388">
        <ele>1167.8</ele>
        <time>2023-05-19T14:35:38Z</time>
      </trkpt>
      <trkpt lat="48.06203" lon="7.024">
        <ele>1164.6</ele>
        <time>2023-05-19T14:35:48Z</time>
      </trkpt>
      <trkpt lat="48.06206" lon="7.02405">
        <ele>1163.9</ele>
        <time>2023-05-19T14:35:52Z</time>
      </trkpt>
      <trkpt lat="48.06215" lon="7.02412">
        <ele>1162.7</ele>
        <time>2023-05-19T14:36:01Z</time>
      </trkpt>
      <trkpt lat="48.06217" lon="7.02405">
        <ele>1162.6</ele>
        <time>2023-05-19T14:36:07Z</time>
      </trkpt>
      <trkpt lat="48.06215" lon="7.02398">
        <ele>1163</ele>
        <time>2023-05-19T14:36:11Z</time>
      </trkpt>
      <trkpt lat="48.06214" lon="7.02391">
        <ele>1163.4</ele>
        <time>2023-05-19T14:36:15Z</time>
      </trkpt>
      <trkpt lat="48.06215" lon="7.02377">
        <ele>1163.4</ele>
        <time>2023-05-19T14:36:24Z</time>
      </trkpt>
      <trkpt lat="48.06222" lon="7.02359">
        <ele>1162.1</ele>
        <time>2023-05-19T14:36:36Z</time>
      </trkpt>
      <trkpt lat="48.06226" lon="7.02355">
        <ele>1161.7</ele>
        <time>2023-05-19T14:36:39Z</time>
      </trkpt>
      <trkpt lat="48.0624" lon="7.02346">
        <ele>1160.3</ele>
        <time>2023-05-19T14:36:50Z</time>
      </trkpt>
      <trkpt lat="48.06245" lon="7.02345">
        <ele>1159.8</ele>
        <time>2023-05-19T14:36:53Z</time>
      </trkpt>
      <trkpt lat="48.06265" lon="7.02334">
        <ele>1158.9</ele>
        <time>2023-05-19T14:37:11Z</time>
      </trkpt>
      <trkpt lat="48.06269" lon="7.02333">
        <ele>1158.6</ele>
        <time>2023-05-19T14:37:16Z</time>
      </trkpt>
      <trkpt lat="48.06278" lon="7.02328">
        <ele>1157.8</ele>
        <time>2023-05-19T14:37:24Z</time>
      </trkpt>
      <trkpt lat="48.06283" lon="7.02321">
        <ele>1156.9</ele>
        <time>2023-05-19T14:37:31Z</time>
      </trkpt>
      <trkpt lat="48.06299" lon="7.0232">
        <ele>1154.9</ele>
        <time>2023-05-19T14:37:47Z</time>
      </trkpt>
      <trkpt lat="48.06306" lon="7.02327">
        <ele>1154.5</ele>
        <time>2023-05-19T14:37:55Z</time>
      </trkpt>
      <trkpt lat="48.06315" lon="7.02344">
        <ele>1151.8</ele>
        <time>2023-05-19T14:38:06Z</time>
      </trkpt>
      <trkpt lat="48.06317" lon="7.02352">
        <ele>1150.2</ele>
        <time>2023-05-19T14:38:10Z</time>
      </trkpt>
      <trkpt lat="48.0632" lon="7.02356">
        <ele>1148.5</ele>
        <time>2023-05-19T14:38:14Z</time>
      </trkpt>
      <trkpt lat="48.06323" lon="7.02344">
        <ele>1149.4</ele>
        <time>2023-05-19T14:38:27Z</time>
      </trkpt>
      <trkpt lat="48.06326" lon="7.02337">
        <ele>1149.9</ele>
        <time>2023-05-19T14:38:32Z</time>
      </trkpt>
      <trkpt lat="48.06349" lon="7.02297">
        <ele>1143.9</ele>
        <time>2023-05-19T14:39:06Z</time>
      </trkpt>
      <trkpt lat="48.0635" lon="7.02288">
        <ele>1143.1</ele>
        <time>2023-05-19T14:39:14Z</time>
      </trkpt>
      <trkpt lat="48.06357" lon="7.02295">
        <ele>1141.7</ele>
        <time>2023-05-19T14:39:27Z</time>
      </trkpt>
      <trkpt lat="48.06367" lon="7.02312">
        <ele>1140.6</ele>
        <time>2023-05-19T14:39:39Z</time>
      </trkpt>
      <trkpt lat="48.06372" lon="7.02317">
        <ele>1140.4</ele>
        <time>2023-05-19T14:39:47Z</time>
      </trkpt>
      <trkpt lat="48.06374" lon="7.02324">
        <ele>1140.2</ele>
        <time>2023-05-19T14:39:52Z</time>
      </trkpt>
      <trkpt lat="48.06367" lon="7.02361">
        <ele>1139</ele>
        <time>2023-05-19T14:40:13Z</time>
      </trkpt>
      <trkpt lat="48.06365" lon="7.02366">
        <ele>1138.9</ele>
        <time>2023-05-19T14:40:16Z</time>
      </trkpt>
      <trkpt lat="48.06361" lon="7.02371">
        <ele>1138.7</ele>
        <time>2023-05-19T14:40:21Z</time>
      </trkpt>
      <trkpt lat="48.06358" lon="7.02386">
        <ele>1138.2</ele>
        <time>2023-05-19T14:40:33Z</time>
      </trkpt>
      <trkpt lat="48.06355" lon="7.02391">
        <ele>1138.1</ele>
        <time>2023-05-19T14:40:37Z</time>
      </trkpt>
      <trkpt lat="48.06346" lon="7.02397">
        <ele>1138.1</ele>
        <time>2023-05-19T14:41:08Z</time>
      </trkpt>
      <trkpt lat="48.06341" lon="7.024">
        <ele>1138</ele>
        <time>2023-05-19T14:41:12Z</time>
      </trkpt>
      <trkpt lat="48.0633" lon="7.0242">
        <ele>1136</ele>
        <time>2023-05-19T14:41:30Z</time>
      </trkpt>
      <trkpt lat="48.06327" lon="7.02425">
        <ele>1134.2</ele>
        <time>2023-05-19T14:41:38Z</time>
      </trkpt>
      <trkpt lat="48.0632" lon="7.0243">
        <ele>1132.9</ele>
        <time>2023-05-19T14:41:50Z</time>
      </trkpt>
      <trkpt lat="48.06311" lon="7.0244">
        <ele>1129.4</ele>
        <time>2023-05-19T14:42:00Z</time>
      </trkpt>
      <trkpt lat="48.06308" lon="7.02445">
        <ele>1127.4</ele>
        <time>2023-05-19T14:42:04Z</time>
      </trkpt>
      <trkpt lat="48.06299" lon="7.02453">
        <ele>1125.1</ele>
        <time>2023-05-19T14:42:13Z</time>
      </trkpt>
      <trkpt lat="48.06295" lon="7.02453">
        <ele>1125.7</ele>
        <time>2023-05-19T14:42:17Z</time>
      </trkpt>
      <trkpt lat="48.06286" lon="7.02459">
        <ele>1125.1</ele>
        <time>2023-05-19T14:42:24Z</time>
      </trkpt>
      <trkpt lat="48.06284" lon="7.02464">
        <ele>1123.9</ele>
        <time>2023-05-19T14:42:26Z</time>
      </trkpt>
      <trkpt lat="48.0628" lon="7.02468">
        <ele>1123.6</ele>
        <time>2023-05-19T14:42:32Z</time>
      </trkpt>
      <trkpt lat="48.06277" lon="7.02473">
        <ele>1122.9</ele>
        <time>2023-05-19T14:42:37Z</time>
      </trkpt>
      <trkpt lat="48.06268" lon="7.02481">
        <ele>1121.1</ele>
        <time>2023-05-19T14:42:45Z</time>
      </trkpt>
      <trkpt lat="48.06249" lon="7.02489">
        <ele>1119.6</ele>
        <time>2023-05-19T14:43:00Z</time>
      </trkpt>
      <trkpt lat="48.06244" lon="7.02493">
        <ele>1119.8</ele>
        <time>2023-05-19T14:43:04Z</time>
      </trkpt>
      <trkpt lat="48.06242" lon="7.02499">
        <ele>1117.7</ele>
        <time>2023-05-19T14:43:07Z</time>
      </trkpt>
      <trkpt lat="48.06237" lon="7.02504">
        <ele>1117.1</ele>
        <time>2023-05-19T14:43:14Z</time>
      </trkpt>
      <trkpt lat="48.06232" lon="7.02515">
        <ele>1113.4</ele>
        <time>2023-05-19T14:43:22Z</time>
      </trkpt>
      <trkpt lat="48.06229" lon="7.02519">
        <ele>1112.6</ele>
        <time>2023-05-19T14:43:25Z</time>
      </trkpt>
      <trkpt lat="48.06227" lon="7.02524">
        <ele>1110.9</ele>
        <time>2023-05-19T14:43:29Z</time>
      </trkpt>
      <trkpt lat="48.06204" lon="7.02536">
        <ele>1115.1</ele>
        <time>2023-05-19T14:43:48Z</time>
      </trkpt>
      <trkpt lat="48.062" lon="7.02545">
        <ele>1113.2</ele>
        <time>2023-05-19T14:43:56Z</time>
      </trkpt>
      <trkpt lat="48.06197" lon="7.02549">
        <ele>1113.1</ele>
        <time>2023-05-19T14:44:01Z</time>
      </trkpt>
      <trkpt lat="48.06192" lon="7.02554">
        <ele>1114.7</ele>
        <time>2023-05-19T14:44:08Z</time>
      </trkpt>
      <trkpt lat="48.06189" lon="7.02562">
        <ele>1114.4</ele>
        <time>2023-05-19T14:44:15Z</time>
      </trkpt>
      <trkpt lat="48.06188" lon="7.02569">
        <ele>1112.6</ele>
        <time>2023-05-19T14:44:19Z</time>
      </trkpt>
      <trkpt lat="48.06186" lon="7.02583">
        <ele>1108.4</ele>
        <time>2023-05-19T14:44:27Z</time>
      </trkpt>
      <trkpt lat="48.06182" lon="7.02584">
        <ele>1109.8</ele>
        <time>2023-05-19T14:44:31Z</time>
      </trkpt>
      <trkpt lat="48.06178" lon="7.02585">
        <ele>1110.9</ele>
        <time>2023-05-19T14:44:34Z</time>
      </trkpt>
      <trkpt lat="48.06174" lon="7.02588">
        <ele>1110.4</ele>
        <time>2023-05-19T14:44:38Z</time>
      </trkpt>
      <trkpt lat="48.06155" lon="7.02587">
        <ele>1120.6</ele>
        <time>2023-05-19T14:44:54Z</time>
      </trkpt>
      <trkpt lat="48.06149" lon="7.02589">
        <ele>1121.9</ele>
        <time>2023-05-19T14:44:58Z</time>
      </trkpt>
      <trkpt lat="48.06146" lon="7.02594">
        <ele>1119.1</ele>
        <time>2023-05-19T14:45:01Z</time>
      </trkpt>
      <trkpt lat="48.06145" lon="7.026">
        <ele>1114.4</ele>
        <time>2023-05-19T14:45:05Z</time>
      </trkpt>
      <trkpt lat="48.0614" lon="7.02599">
        <ele>1117.9</ele>
        <time>2023-05-19T14:45:11Z</time>
      </trkpt>
      <trkpt lat="48.06135" lon="7.02597">
        <ele>1119.3</ele>
        <time>2023-05-19T14:45:16Z</time>
      </trkpt>
      <trkpt lat="48.06131" lon="7.02599">
        <ele>1116.8</ele>
        <time>2023-05-19T14:45:21Z</time>
      </trkpt>
      <trkpt lat="48.06124" lon="7.02609">
        <ele>1108.8</ele>
        <time>2023-05-19T14:45:30Z</time>
      </trkpt>
      <trkpt lat="48.0612" lon="7.02601">
        <ele>1113.3</ele>
        <time>2023-05-19T14:45:44Z</time>
      </trkpt>
      <trkpt lat="48.06117" lon="7.02593">
        <ele>1117.2</ele>
        <time>2023-05-19T14:45:48Z</time>
      </trkpt>
      <trkpt lat="48.06106" lon="7.02586">
        <ele>1120.4</ele>
        <time>2023-05-19T14:45:59Z</time>
      </trkpt>
      <trkpt lat="48.061" lon="7.02591">
        <ele>1120</ele>
        <time>2023-05-19T14:46:10Z</time>
      </trkpt>
      <trkpt lat="48.06096" lon="7.02593">
        <ele>1120.4</ele>
        <time>2023-05-19T14:46:16Z</time>
      </trkpt>
      <trkpt lat="48.06091" lon="7.02594">
        <ele>1121.5</ele>
        <time>2023-05-19T14:46:21Z</time>
      </trkpt>
      <trkpt lat="48.06089" lon="7.02604">
        <ele>1117.5</ele>
        <time>2023-05-19T14:46:28Z</time>
      </trkpt>
      <trkpt lat="48.06089" lon="7.02614">
        <ele>1111.6</ele>
        <time>2023-05-19T14:46:34Z</time>
      </trkpt>
      <trkpt lat="48.06085" lon="7.02618">
        <ele>1108</ele>
        <time>2023-05-19T14:46:44Z</time>
      </trkpt>
      <trkpt lat="48.06078" lon="7.02615">
        <ele>1110.5</ele>
        <time>2023-05-19T14:46:56Z</time>
      </trkpt>
      <trkpt lat="48.06074" lon="7.02611">
        <ele>1113.7</ele>
        <time>2023-05-19T14:47:03Z</time>
      </trkpt>
      <trkpt lat="48.06067" lon="7.0261">
        <ele>1112.7</ele>
        <time>2023-05-19T14:47:15Z</time>
      </trkpt>
      <trkpt lat="48.06063" lon="7.02607">
        <ele>1114.3</ele>
        <time>2023-05-19T14:47:19Z</time>
      </trkpt>
      <trkpt lat="48.06058" lon="7.02605">
        <ele>1115.3</ele>
        <time>2023-05-19T14:47:27Z</time>
      </trkpt>
      <trkpt lat="48.06054" lon="7.02609">
        <ele>1109.3</ele>
        <time>2023-05-19T14:47:33Z</time>
      </trkpt>
      <trkpt lat="48.06046" lon="7.02605">
        <ele>1103.9</ele>
        <time>2023-05-19T14:47:57Z</time>
      </trkpt>
      <trkpt lat="48.06042" lon="7.026">
        <ele>1104</ele>
        <time>2023-05-19T14:48:05Z</time>
      </trkpt>
      <trkpt lat="48.06032" lon="7.02597">
        <ele>1095.1</ele>
        <time>2023-05-19T14:48:22Z</time>
      </trkpt>
      <trkpt lat="48.06031" lon="7.02585">
        <ele>1105.3</ele>
        <time>2023-05-19T14:48:31Z</time>
      </trkpt>
      <trkpt lat="48.06027" lon="7.0258">
        <ele>1103.1</ele>
        <time>2023-05-19T14:48:39Z</time>
      </trkpt>
      <trkpt lat="48.06026" lon="7.02572">
        <ele>1104.5</ele>
        <time>2023-05-19T14:48:50Z</time>
      </trkpt>
      <trkpt lat="48.06021" lon="7.02572">
        <ele>1099.4</ele>
        <time>2023-05-19T14:48:56Z</time>
      </trkpt>
      <trkpt lat="48.06016" lon="7.02565">
        <ele>1097.1</ele>
        <time>2023-05-19T14:49:04Z</time>
      </trkpt>
      <trkpt lat="48.06011" lon="7.02557">
        <ele>1095.9</ele>
        <time>2023-05-19T14:49:13Z</time>
      </trkpt>
      <trkpt lat="48.06009" lon="7.02551">
        <ele>1097.1</ele>
        <time>2023-05-19T14:49:18Z</time>
      </trkpt>
      <trkpt lat="48.06008" lon="7.02543">
        <ele>1100.1</ele>
        <time>2023-05-19T14:49:28Z</time>
      </trkpt>
      <trkpt lat="48.06014" lon="7.02531">
        <ele>1112.4</ele>
        <time>2023-05-19T14:49:54Z</time>
      </trkpt>
      <trkpt lat="48.06006" lon="7.02525">
        <ele>1107.7</ele>
        <time>2023-05-19T14:50:14Z</time>
      </trkpt>
      <trkpt lat="48.06001" lon="7.02526">
        <ele>1101.5</ele>
        <time>2023-05-19T14:50:19Z</time>
      </trkpt>
      <trkpt lat="48.05991" lon="7.02533">
        <ele>1092.8</ele>
        <time>2023-05-19T14:50:30Z</time>
      </trkpt>
      <trkpt lat="48.05987" lon="7.02531">
        <ele>1091.9</ele>
        <time>2023-05-19T14:50:34Z</time>
      </trkpt>
      <trkpt lat="48.05982" lon="7.02525">
        <ele>1094.1</ele>
        <time>2023-05-19T14:50:41Z</time>
      </trkpt>
      <trkpt lat="48.05977" lon="7.02527">
        <ele>1089.9</ele>
        <time>2023-05-19T14:50:47Z</time>
      </trkpt>
      <trkpt lat="48.05971" lon="7.02522">
        <ele>1093.6</ele>
        <time>2023-05-19T14:50:56Z</time>
      </trkpt>
      <trkpt lat="48.05968" lon="7.02518">
        <ele>1097.3</ele>
        <time>2023-05-19T14:51:01Z</time>
      </trkpt>
      <trkpt lat="48.05962" lon="7.02511">
        <ele>1102.2</ele>
        <time>2023-05-19T14:51:15Z</time>
      </trkpt>
      <trkpt lat="48.05952" lon="7.02517">
        <ele>1093.3</ele>
        <time>2023-05-19T14:51:28Z</time>
      </trkpt>
      <trkpt lat="48.05948" lon="7.02517">
        <ele>1092</ele>
        <time>2023-05-19T14:51:32Z</time>
      </trkpt>
      <trkpt lat="48.0594" lon="7.02514">
        <ele>1092</ele>
        <time>2023-05-19T14:51:42Z</time>
      </trkpt>
      <trkpt lat="48.05935" lon="7.0251">
        <ele>1093.8</ele>
        <time>2023-05-19T14:51:54Z</time>
      </trkpt>
      <trkpt lat="48.05921" lon="7.02499">
        <ele>1099</ele>
        <time>2023-05-19T14:52:23Z</time>
      </trkpt>
      <trkpt lat="48.05925" lon="7.02493">
        <ele>1103.4</ele>
        <time>2023-05-19T14:52:35Z</time>
      </trkpt>
      <trkpt lat="48.0594" lon="7.02494">
        <ele>1103.5</ele>
        <time>2023-05-19T14:52:44Z</time>
      </trkpt>
      <trkpt lat="48.05948" lon="7.02488">
        <ele>1110.9</ele>
        <time>2023-05-19T14:52:55Z</time>
      </trkpt>
      <trkpt lat="48.05941" lon="7.02487">
        <ele>1107.9</ele>
        <time>2023-05-19T14:53:09Z</time>
      </trkpt>
      <trkpt lat="48.05936" lon="7.02482">
        <ele>1111</ele>
        <time>2023-05-19T14:53:35Z</time>
      </trkpt>
      <trkpt lat="48.0593" lon="7.02482">
        <ele>1111</ele>
        <time>2023-05-19T14:53:40Z</time>
      </trkpt>
      <trkpt lat="48.05923" lon="7.02478">
        <ele>1113.8</ele>
        <time>2023-05-19T14:53:46Z</time>
      </trkpt>
      <trkpt lat="48.05917" lon="7.0248">
        <ele>1112.4</ele>
        <time>2023-05-19T14:53:55Z</time>
      </trkpt>
      <trkpt lat="48.05923" lon="7.02487">
        <ele>1107.5</ele>
        <time>2023-05-19T14:54:00Z</time>
      </trkpt>
      <trkpt lat="48.05922" lon="7.02491">
        <ele>1104.7</ele>
        <time>2023-05-19T14:54:08Z</time>
      </trkpt>
      <trkpt lat="48.05914" lon="7.02497">
        <ele>1099.8</ele>
        <time>2023-05-19T14:54:16Z</time>
      </trkpt>
      <trkpt lat="48.05909" lon="7.02496">
        <ele>1099.9</ele>
        <time>2023-05-19T14:54:20Z</time>
      </trkpt>
      <trkpt lat="48.05899" lon="7.0249">
        <ele>1103.6</ele>
        <time>2023-05-19T14:54:32Z</time>
      </trkpt>
      <trkpt lat="48.05893" lon="7.0249">
        <ele>1103</ele>
        <time>2023-05-19T14:54:38Z</time>
      </trkpt>
      <trkpt lat="48.05889" lon="7.02484">
        <ele>1107.8</ele>
        <time>2023-05-19T14:54:52Z</time>
      </trkpt>
      <trkpt lat="48.0588" lon="7.02476">
        <ele>1115</ele>
        <time>2023-05-19T14:55:03Z</time>
      </trkpt>
      <trkpt lat="48.05873" lon="7.02477">
        <ele>1114.7</ele>
        <time>2023-05-19T14:55:10Z</time>
      </trkpt>
      <trkpt lat="48.05869" lon="7.02477">
        <ele>1114.9</ele>
        <time>2023-05-19T14:55:20Z</time>
      </trkpt>
      <trkpt lat="48.05863" lon="7.02479">
        <ele>1114.4</ele>
        <time>2023-05-19T14:55:36Z</time>
      </trkpt>
      <trkpt lat="48.05858" lon="7.02481">
        <ele>1115.6</ele>
        <time>2023-05-19T14:55:40Z</time>
      </trkpt>
      <trkpt lat="48.05854" lon="7.02501">
        <ele>1111.2</ele>
        <time>2023-05-19T14:56:02Z</time>
      </trkpt>
      <trkpt lat="48.05859" lon="7.02503">
        <ele>1108.3</ele>
        <time>2023-05-19T14:56:08Z</time>
      </trkpt>
      <trkpt lat="48.05861" lon="7.02518">
        <ele>1108.3</ele>
        <time>2023-05-19T14:56:22Z</time>
      </trkpt>
      <trkpt lat="48.05877" lon="7.02519">
        <ele>1093.9</ele>
        <time>2023-05-19T14:56:32Z</time>
      </trkpt>
      <trkpt lat="48.05872" lon="7.02524">
        <ele>1097.5</ele>
        <time>2023-05-19T14:56:35Z</time>
      </trkpt>
      <trkpt lat="48.05868" lon="7.02527">
        <ele>1101.4</ele>
        <time>2023-05-19T14:56:37Z</time>
      </trkpt>
      <trkpt lat="48.05862" lon="7.02528">
        <ele>1107.8</ele>
        <time>2023-05-19T14:56:40Z</time>
      </trkpt>
      <trkpt lat="48.05849" lon="7.02527">
        <ele>1105.8</ele>
        <time>2023-05-19T14:56:51Z</time>
      </trkpt>
      <trkpt lat="48.05845" lon="7.02522">
        <ele>1107</ele>
        <time>2023-05-19T14:56:56Z</time>
      </trkpt>
      <trkpt lat="48.05832" lon="7.02525">
        <ele>1104</ele>
        <time>2023-05-19T14:57:08Z</time>
      </trkpt>
      <trkpt lat="48.05828" lon="7.02525">
        <ele>1106</ele>
        <time>2023-05-19T14:57:18Z</time>
      </trkpt>
      <trkpt lat="48.05829" lon="7.02533">
        <ele>1100.4</ele>
        <time>2023-05-19T14:57:25Z</time>
      </trkpt>
      <trkpt lat="48.05823" lon="7.02541">
        <ele>1099.9</ele>
        <time>2023-05-19T14:57:34Z</time>
      </trkpt>
      <trkpt lat="48.0582" lon="7.02543">
        <ele>1101</ele>
        <time>2023-05-19T14:57:38Z</time>
      </trkpt>
      <trkpt lat="48.05815" lon="7.02544">
        <ele>1104.1</ele>
        <time>2023-05-19T14:57:41Z</time>
      </trkpt>
      <trkpt lat="48.0581" lon="7.02545">
        <ele>1107.2</ele>
        <time>2023-05-19T14:57:49Z</time>
      </trkpt>
      <trkpt lat="48.05807" lon="7.02551">
        <ele>1107.3</ele>
        <time>2023-05-19T14:58:01Z</time>
      </trkpt>
      <trkpt lat="48.05805" lon="7.02561">
        <ele>1106.1</ele>
        <time>2023-05-19T14:58:13Z</time>
      </trkpt>
      <trkpt lat="48.05799" lon="7.02571">
        <ele>1105.9</ele>
        <time>2023-05-19T14:58:26Z</time>
      </trkpt>
      <trkpt lat="48.05794" lon="7.02572">
        <ele>1107.4</ele>
        <time>2023-05-19T14:58:30Z</time>
      </trkpt>
      <trkpt lat="48.05781" lon="7.02587">
        <ele>1105.6</ele>
        <time>2023-05-19T14:58:51Z</time>
      </trkpt>
      <trkpt lat="48.05775" lon="7.02589">
        <ele>1106.8</ele>
        <time>2023-05-19T14:58:59Z</time>
      </trkpt>
      <trkpt lat="48.0577" lon="7.02592">
        <ele>1107.5</ele>
        <time>2023-05-19T14:59:02Z</time>
      </trkpt>
      <trkpt lat="48.05764" lon="7.02601">
        <ele>1106.3</ele>
        <time>2023-05-19T14:59:13Z</time>
      </trkpt>
      <trkpt lat="48.05759" lon="7.02603">
        <ele>1107.5</ele>
        <time>2023-05-19T14:59:17Z</time>
      </trkpt>
      <trkpt lat="48.05756" lon="7.02607">
        <ele>1107.1</ele>
        <time>2023-05-19T14:59:21Z</time>
      </trkpt>
      <trkpt lat="48.05753" lon="7.02614">
        <ele>1105.7</ele>
        <time>2023-05-19T14:59:29Z</time>
      </trkpt>
      <trkpt lat="48.0575" lon="7.02622">
        <ele>1104.5</ele>
        <time>2023-05-19T14:59:35Z</time>
      </trkpt>
      <trkpt lat="48.05744" lon="7.0263">
        <ele>1105.7</ele>
        <time>2023-05-19T14:59:48Z</time>
      </trkpt>
      <trkpt lat="48.05741" lon="7.02637">
        <ele>1105.4</ele>
        <time>2023-05-19T14:59:56Z</time>
      </trkpt>
      <trkpt lat="48.05743" lon="7.02646">
        <ele>1102.4</ele>
        <time>2023-05-19T15:00:07Z</time>
      </trkpt>
      <trkpt lat="48.05739" lon="7.02651">
        <ele>1103.8</ele>
        <time>2023-05-19T15:00:11Z</time>
      </trkpt>
      <trkpt lat="48.0573" lon="7.02662">
        <ele>1105.9</ele>
        <time>2023-05-19T15:00:26Z</time>
      </trkpt>
      <trkpt lat="48.05727" lon="7.02667">
        <ele>1105.8</ele>
        <time>2023-05-19T15:00:30Z</time>
      </trkpt>
      <trkpt lat="48.0572" lon="7.02673">
        <ele>1106.9</ele>
        <time>2023-05-19T15:00:38Z</time>
      </trkpt>
      <trkpt lat="48.05719" lon="7.02679">
        <ele>1105.4</ele>
        <time>2023-05-19T15:00:43Z</time>
      </trkpt>
      <trkpt lat="48.05715" lon="7.02684">
        <ele>1106.1</ele>
        <time>2023-05-19T15:00:48Z</time>
      </trkpt>
      <trkpt lat="48.05713" lon="7.02697">
        <ele>1103.6</ele>
        <time>2023-05-19T15:00:57Z</time>
      </trkpt>
      <trkpt lat="48.0571" lon="7.02703">
        <ele>1103.9</ele>
        <time>2023-05-19T15:01:01Z</time>
      </trkpt>
      <trkpt lat="48.05711" lon="7.0271">
        <ele>1101.2</ele>
        <time>2023-05-19T15:01:05Z</time>
      </trkpt>
      <trkpt lat="48.05699" lon="7.02742">
        <ele>1099.9</ele>
        <time>2023-05-19T15:01:44Z</time>
      </trkpt>
      <trkpt lat="48.05691" lon="7.02759">
        <ele>1096.5</ele>
        <time>2023-05-19T15:02:02Z</time>
      </trkpt>
      <trkpt lat="48.05686" lon="7.02762">
        <ele>1096</ele>
        <time>2023-05-19T15:02:06Z</time>
      </trkpt>
      <trkpt lat="48.05675" lon="7.02757">
        <ele>1100.9</ele>
        <time>2023-05-19T15:02:17Z</time>
      </trkpt>
      <trkpt lat="48.05669" lon="7.02766">
        <ele>1096.8</ele>
        <time>2023-05-19T15:02:26Z</time>
      </trkpt>
      <trkpt lat="48.05666" lon="7.02769">
        <ele>1095.6</ele>
        <time>2023-05-19T15:02:30Z</time>
      </trkpt>
      <trkpt lat="48.05662" lon="7.02769">
        <ele>1096.9</ele>
        <time>2023-05-19T15:02:34Z</time>
      </trkpt>
      <trkpt lat="48.05653" lon="7.02771">
        <ele>1098.7</ele>
        <time>2023-05-19T15:02:42Z</time>
      </trkpt>
      <trkpt lat="48.05646" lon="7.02775">
        <ele>1098.9</ele>
        <time>2023-05-19T15:02:56Z</time>
      </trkpt>
      <trkpt lat="48.05642" lon="7.02781">
        <ele>1097.3</ele>
        <time>2023-05-19T15:03:06Z</time>
      </trkpt>
      <trkpt lat="48.05638" lon="7.02776">
        <ele>1101.2</ele>
        <time>2023-05-19T15:03:13Z</time>
      </trkpt>
      <trkpt lat="48.05624" lon="7.02783">
        <ele>1101.8</ele>
        <time>2023-05-19T15:03:25Z</time>
      </trkpt>
      <trkpt lat="48.0562" lon="7.02782">
        <ele>1103.4</ele>
        <time>2023-05-19T15:03:29Z</time>
      </trkpt>
      <trkpt lat="48.05613" lon="7.02784">
        <ele>1104.5</ele>
        <time>2023-05-19T15:03:39Z</time>
      </trkpt>
      <trkpt lat="48.05611" lon="7.0279">
        <ele>1102.3</ele>
        <time>2023-05-19T15:03:44Z</time>
      </trkpt>
      <trkpt lat="48.05603" lon="7.02798">
        <ele>1101.7</ele>
        <time>2023-05-19T15:03:51Z</time>
      </trkpt>
      <trkpt lat="48.05594" lon="7.02802">
        <ele>1103.4</ele>
        <time>2023-05-19T15:03:58Z</time>
      </trkpt>
      <trkpt lat="48.05588" lon="7.02806">
        <ele>1104</ele>
        <time>2023-05-19T15:04:06Z</time>
      </trkpt>
      <trkpt lat="48.05582" lon="7.02805">
        <ele>1106.4</ele>
        <time>2023-05-19T15:04:14Z</time>
      </trkpt>
      <trkpt lat="48.05577" lon="7.02805">
        <ele>1106.7</ele>
        <time>2023-05-19T15:04:17Z</time>
      </trkpt>
      <trkpt lat="48.05572" lon="7.02808">
        <ele>1105.9</ele>
        <time>2023-05-19T15:04:24Z</time>
      </trkpt>
      <trkpt lat="48.05569" lon="7.0281">
        <ele>1105.3</ele>
        <time>2023-05-19T15:04:29Z</time>
      </trkpt>
      <trkpt lat="48.05561" lon="7.02808">
        <ele>1106.6</ele>
        <time>2023-05-19T15:04:41Z</time>
      </trkpt>
      <trkpt lat="48.05555" lon="7.02813">
        <ele>1105.5</ele>
        <time>2023-05-19T15:04:49Z</time>
      </trkpt>
      <trkpt lat="48.05552" lon="7.0282">
        <ele>1106.5</ele>
        <time>2023-05-19T15:04:57Z</time>
      </trkpt>
      <trkpt lat="48.05548" lon="7.02824">
        <ele>1110.6</ele>
        <time>2023-05-19T15:05:04Z</time>
      </trkpt>
      <trkpt lat="48.05545" lon="7.02833">
        <ele>1112.4</ele>
        <time>2023-05-19T15:05:33Z</time>
      </trkpt>
      <trkpt lat="48.05544" lon="7.02852">
        <ele>1103.5</ele>
        <time>2023-05-19T15:05:48Z</time>
      </trkpt>
      <trkpt lat="48.05548" lon="7.0286">
        <ele>1095.3</ele>
        <time>2023-05-19T15:05:55Z</time>
      </trkpt>
      <trkpt lat="48.05537" lon="7.02857">
        <ele>1107.7</ele>
        <time>2023-05-19T15:06:46Z</time>
      </trkpt>
      <trkpt lat="48.05537" lon="7.0286">
        <ele>1105.5</ele>
        <time>2023-05-19T15:07:06Z</time>
      </trkpt>
      <trkpt lat="48.05533" lon="7.02861">
        <ele>1108.4</ele>
        <time>2023-05-19T15:07:13Z</time>
      </trkpt>
      <trkpt lat="48.05533" lon="7.0287">
        <ele>1105</ele>
        <time>2023-05-19T15:07:36Z</time>
      </trkpt>
      <trkpt lat="48.05532" lon="7.02876">
        <ele>1103.3</ele>
        <time>2023-05-19T15:07:42Z</time>
      </trkpt>
      <trkpt lat="48.0553" lon="7.02882">
        <ele>1101.7</ele>
        <time>2023-05-19T15:07:47Z</time>
      </trkpt>
      <trkpt lat="48.05526" lon="7.02876">
        <ele>1103.7</ele>
        <time>2023-05-19T15:08:12Z</time>
      </trkpt>
      <trkpt lat="48.05526" lon="7.02871">
        <ele>1106.2</ele>
        <time>2023-05-19T15:08:23Z</time>
      </trkpt>
      <trkpt lat="48.05522" lon="7.02863">
        <ele>1106.2</ele>
        <time>2023-05-19T15:08:32Z</time>
      </trkpt>
      <trkpt lat="48.05514" lon="7.02866">
        <ele>1096.6</ele>
        <time>2023-05-19T15:08:44Z</time>
      </trkpt>
      <trkpt lat="48.0552" lon="7.02873">
        <ele>1099</ele>
        <time>2023-05-19T15:09:19Z</time>
      </trkpt>
      <trkpt lat="48.05517" lon="7.02878">
        <ele>1093.4</ele>
        <time>2023-05-19T15:09:31Z</time>
      </trkpt>
      <trkpt lat="48.05513" lon="7.02878">
        <ele>1089.3</ele>
        <time>2023-05-19T15:09:37Z</time>
      </trkpt>
      <trkpt lat="48.05508" lon="7.02879">
        <ele>1083.6</ele>
        <time>2023-05-19T15:09:48Z</time>
      </trkpt>
      <trkpt lat="48.0551" lon="7.02873">
        <ele>1088.8</ele>
        <time>2023-05-19T15:10:36Z</time>
      </trkpt>
      <trkpt lat="48.05514" lon="7.02881">
        <ele>1088.7</ele>
        <time>2023-05-19T15:10:44Z</time>
      </trkpt>
      <trkpt lat="48.05519" lon="7.02887">
        <ele>1090.8</ele>
        <time>2023-05-19T15:10:54Z</time>
      </trkpt>
      <trkpt lat="48.05505" lon="7.02883">
        <ele>1078.4</ele>
        <time>2023-05-19T15:11:15Z</time>
      </trkpt>
      <trkpt lat="48.055" lon="7.0288">
        <ele>1074.8</ele>
        <time>2023-05-19T15:11:21Z</time>
      </trkpt>
      <trkpt lat="48.05493" lon="7.02873">
        <ele>1074.6</ele>
        <time>2023-05-19T15:11:35Z</time>
      </trkpt>
      <trkpt lat="48.05493" lon="7.02868">
        <ele>1077.4</ele>
        <time>2023-05-19T15:12:04Z</time>
      </trkpt>
      <trkpt lat="48.05485" lon="7.02864">
        <ele>1075.2</ele>
        <time>2023-05-19T15:12:28Z</time>
      </trkpt>
      <trkpt lat="48.05478" lon="7.02865">
        <ele>1070.8</ele>
        <time>2023-05-19T15:12:35Z</time>
      </trkpt>
      <trkpt lat="48.05472" lon="7.02862">
        <ele>1069.4</ele>
        <time>2023-05-19T15:12:42Z</time>
      </trkpt>
      <trkpt lat="48.05468" lon="7.02863">
        <ele>1067.5</ele>
        <time>2023-05-19T15:12:45Z</time>
      </trkpt>
      <trkpt lat="48.05462" lon="7.02861">
        <ele>1066.8</ele>
        <time>2023-05-19T15:12:51Z</time>
      </trkpt>
      <trkpt lat="48.05458" lon="7.02863">
        <ele>1064.3</ele>
        <time>2023-05-19T15:12:55Z</time>
      </trkpt>
      <trkpt lat="48.05453" lon="7.02861">
        <ele>1063.8</ele>
        <time>2023-05-19T15:13:01Z</time>
      </trkpt>
      <trkpt lat="48.0544" lon="7.02865">
        <ele>1061.1</ele>
        <time>2023-05-19T15:13:14Z</time>
      </trkpt>
      <trkpt lat="48.05435" lon="7.02867">
        <ele>1062.5</ele>
        <time>2023-05-19T15:13:16Z</time>
      </trkpt>
      <trkpt lat="48.05429" lon="7.02867">
        <ele>1065.4</ele>
        <time>2023-05-19T15:13:22Z</time>
      </trkpt>
      <trkpt lat="48.05436" lon="7.02856">
        <ele>1067.1</ele>
        <time>2023-05-19T15:13:34Z</time>
      </trkpt>
      <trkpt lat="48.05428" lon="7.02857">
        <ele>1069.7</ele>
        <time>2023-05-19T15:13:41Z</time>
      </trkpt>
      <trkpt lat="48.05424" lon="7.02856">
        <ele>1071.6</ele>
        <time>2023-05-19T15:13:50Z</time>
      </trkpt>
      <trkpt lat="48.05433" lon="7.02864">
        <ele>1064.7</ele>
        <time>2023-05-19T15:14:11Z</time>
      </trkpt>
      <trkpt lat="48.05443" lon="7.02868">
        <ele>1058.2</ele>
        <time>2023-05-19T15:14:13Z</time>
      </trkpt>
      <trkpt lat="48.05437" lon="7.02869">
        <ele>1060.7</ele>
        <time>2023-05-19T15:14:16Z</time>
      </trkpt>
      <trkpt lat="48.05433" lon="7.02874">
        <ele>1060.6</ele>
        <time>2023-05-19T15:14:20Z</time>
      </trkpt>
      <trkpt lat="48.0543" lon="7.02878">
        <ele>1060.6</ele>
        <time>2023-05-19T15:14:33Z</time>
      </trkpt>
      <trkpt lat="48.05424" lon="7.02889">
        <ele>1060.2</ele>
        <time>2023-05-19T15:14:51Z</time>
      </trkpt>
      <trkpt lat="48.05422" lon="7.02902">
        <ele>1058.5</ele>
        <time>2023-05-19T15:15:03Z</time>
      </trkpt>
      <trkpt lat="48.0542" lon="7.02908">
        <ele>1058.5</ele>
        <time>2023-05-19T15:15:09Z</time>
      </trkpt>
      <trkpt lat="48.05423" lon="7.02912">
        <ele>1055.5</ele>
        <time>2023-05-19T15:15:23Z</time>
      </trkpt>
      <trkpt lat="48.05427" lon="7.0292">
        <ele>1052</ele>
        <time>2023-05-19T15:15:31Z</time>
      </trkpt>
      <trkpt lat="48.05431" lon="7.02925">
        <ele>1049</ele>
        <time>2023-05-19T15:15:36Z</time>
      </trkpt>
      <trkpt lat="48.05435" lon="7.02918">
        <ele>1045.7</ele>
        <time>2023-05-19T15:15:39Z</time>
      </trkpt>
      <trkpt lat="48.05438" lon="7.02912">
        <ele>1044.9</ele>
        <time>2023-05-19T15:15:42Z</time>
      </trkpt>
      <trkpt lat="48.05432" lon="7.02908">
        <ele>1050.2</ele>
        <time>2023-05-19T15:15:46Z</time>
      </trkpt>
      <trkpt lat="48.05434" lon="7.02901">
        <ele>1050.6</ele>
        <time>2023-05-19T15:15:55Z</time>
      </trkpt>
      <trkpt lat="48.05446" lon="7.02897">
        <ele>1044.9</ele>
        <time>2023-05-19T15:16:01Z</time>
      </trkpt>
      <trkpt lat="48.0544" lon="7.02895">
        <ele>1048.2</ele>
        <time>2023-05-19T15:16:04Z</time>
      </trkpt>
      <trkpt lat="48.05442" lon="7.02887">
        <ele>1049.5</ele>
        <time>2023-05-19T15:16:12Z</time>
      </trkpt>
      <trkpt lat="48.05447" lon="7.02882">
        <ele>1051.1</ele>
        <time>2023-05-19T15:16:16Z</time>
      </trkpt>
      <trkpt lat="48.05441" lon="7.02877">
        <ele>1054.9</ele>
        <time>2023-05-19T15:16:20Z</time>
      </trkpt>
      <trkpt lat="48.05445" lon="7.02872">
        <ele>1055.7</ele>
        <time>2023-05-19T15:16:28Z</time>
      </trkpt>
      <trkpt lat="48.0545" lon="7.0288">
        <ele>1052.9</ele>
        <time>2023-05-19T15:16:38Z</time>
      </trkpt>
      <trkpt lat="48.05455" lon="7.02884">
        <ele>1051.9</ele>
        <time>2023-05-19T15:16:43Z</time>
      </trkpt>
      <trkpt lat="48.05457" lon="7.02894">
        <ele>1047.7</ele>
        <time>2023-05-19T15:16:53Z</time>
      </trkpt>
      <trkpt lat="48.05476" lon="7.02904">
        <ele>1047.4</ele>
        <time>2023-05-19T15:17:39Z</time>
      </trkpt>
      <trkpt lat="48.05477" lon="7.0291">
        <ele>1044.8</ele>
        <time>2023-05-19T15:17:57Z</time>
      </trkpt>
      <trkpt lat="48.05481" lon="7.02913">
        <ele>1045.1</ele>
        <time>2023-05-19T15:18:02Z</time>
      </trkpt>
      <trkpt lat="48.05489" lon="7.0292">
        <ele>1045</ele>
        <time>2023-05-19T15:18:13Z</time>
      </trkpt>
      <trkpt lat="48.05493" lon="7.02922">
        <ele>1045.7</ele>
        <time>2023-05-19T15:18:18Z</time>
      </trkpt>
      <trkpt lat="48.05498" lon="7.02925">
        <ele>1046.3</ele>
        <time>2023-05-19T15:18:22Z</time>
      </trkpt>
      <trkpt lat="48.05501" lon="7.02931">
        <ele>1044.6</ele>
        <time>2023-05-19T15:18:26Z</time>
      </trkpt>
      <trkpt lat="48.05508" lon="7.02933">
        <ele>1049</ele>
        <time>2023-05-19T15:18:36Z</time>
      </trkpt>
      <trkpt lat="48.05507" lon="7.02943">
        <ele>1041.1</ele>
        <time>2023-05-19T15:18:55Z</time>
      </trkpt>
      <trkpt lat="48.055" lon="7.02956">
        <ele>1028.5</ele>
        <time>2023-05-19T15:19:02Z</time>
      </trkpt>
      <trkpt lat="48.0547" lon="7.02955">
        <ele>1020.3</ele>
        <time>2023-05-19T15:19:33Z</time>
      </trkpt>
      <trkpt lat="48.05451" lon="7.02962">
        <ele>1022.7</ele>
        <time>2023-05-19T15:19:45Z</time>
      </trkpt>
      <trkpt lat="48.05445" lon="7.02965">
        <ele>1023.4</ele>
        <time>2023-05-19T15:19:47Z</time>
      </trkpt>
      <trkpt lat="48.05443" lon="7.02973">
        <ele>1023.8</ele>
        <time>2023-05-19T15:20:19Z</time>
      </trkpt>
      <trkpt lat="48.0544" lon="7.02984">
        <ele>1026.6</ele>
        <time>2023-05-19T15:20:31Z</time>
      </trkpt>
      <trkpt lat="48.05439" lon="7.02993">
        <ele>1025.9</ele>
        <time>2023-05-19T15:20:42Z</time>
      </trkpt>
      <trkpt lat="48.05436" lon="7.03">
        <ele>1030.2</ele>
        <time>2023-05-19T15:20:48Z</time>
      </trkpt>
      <trkpt lat="48.05435" lon="7.03009">
        <ele>1027.5</ele>
        <time>2023-05-19T15:20:58Z</time>
      </trkpt>
      <trkpt lat="48.05436" lon="7.03017">
        <ele>1021.2</ele>
        <time>2023-05-19T15:21:05Z</time>
      </trkpt>
      <trkpt lat="48.05434" lon="7.03027">
        <ele>1019.6</ele>
        <time>2023-05-19T15:21:20Z</time>
      </trkpt>
      <trkpt lat="48.05428" lon="7.03032">
        <ele>1027.1</ele>
        <time>2023-05-19T15:21:38Z</time>
      </trkpt>
      <trkpt lat="48.05427" lon="7.03051">
        <ele>1014.9</ele>
        <time>2023-05-19T15:22:08Z</time>
      </trkpt>
      <trkpt lat="48.0542" lon="7.03067">
        <ele>1009.5</ele>
        <time>2023-05-19T15:22:25Z</time>
      </trkpt>
      <trkpt lat="48.05415" lon="7.03067">
        <ele>1013.9</ele>
        <time>2023-05-19T15:22:29Z</time>
      </trkpt>
      <trkpt lat="48.0541" lon="7.03067">
        <ele>1015.7</ele>
        <time>2023-05-19T15:22:32Z</time>
      </trkpt>
      <trkpt lat="48.05406" lon="7.03069">
        <ele>1015</ele>
        <time>2023-05-19T15:22:37Z</time>
      </trkpt>
      <trkpt lat="48.05402" lon="7.03071">
        <ele>1014.3</ele>
        <time>2023-05-19T15:22:43Z</time>
      </trkpt>
      <trkpt lat="48.05399" lon="7.03076">
        <ele>1010</ele>
        <time>2023-05-19T15:22:49Z</time>
      </trkpt>
      <trkpt lat="48.0539" lon="7.03081">
        <ele>1008.1</ele>
        <time>2023-05-19T15:23:01Z</time>
      </trkpt>
      <trkpt lat="48.05386" lon="7.03086">
        <ele>1007.7</ele>
        <time>2023-05-19T15:23:04Z</time>
      </trkpt>
      <trkpt lat="48.05381" lon="7.03084">
        <ele>1012.7</ele>
        <time>2023-05-19T15:23:18Z</time>
      </trkpt>
      <trkpt lat="48.05374" lon="7.0308">
        <ele>1021</ele>
        <time>2023-05-19T15:23:30Z</time>
      </trkpt>
      <trkpt lat="48.05372" lon="7.03089">
        <ele>1020.1</ele>
        <time>2023-05-19T15:23:42Z</time>
      </trkpt>
      <trkpt lat="48.05371" lon="7.03097">
        <ele>1020.5</ele>
        <time>2023-05-19T15:23:54Z</time>
      </trkpt>
      <trkpt lat="48.05373" lon="7.03104">
        <ele>1017.7</ele>
        <time>2023-05-19T15:23:58Z</time>
      </trkpt>
      <trkpt lat="48.05371" lon="7.03111">
        <ele>1019.5</ele>
        <time>2023-05-19T15:24:12Z</time>
      </trkpt>
      <trkpt lat="48.05371" lon="7.0311">
        <ele>1019.6</ele>
        <time>2023-05-19T15:24:35Z</time>
      </trkpt>
      <trkpt lat="48.05367" lon="7.03105">
        <ele>1024.7</ele>
        <time>2023-05-19T15:24:41Z</time>
      </trkpt>
      <trkpt lat="48.05361" lon="7.03098">
        <ele>1031.1</ele>
        <time>2023-05-19T15:24:45Z</time>
      </trkpt>
      <trkpt lat="48.05359" lon="7.03107">
        <ele>1032.2</ele>
        <time>2023-05-19T15:24:54Z</time>
      </trkpt>
      <trkpt lat="48.05362" lon="7.03113">
        <ele>1030.8</ele>
        <time>2023-05-19T15:24:58Z</time>
      </trkpt>
      <trkpt lat="48.05363" lon="7.0312">
        <ele>1029.1</ele>
        <time>2023-05-19T15:25:06Z</time>
      </trkpt>
      <trkpt lat="48.05365" lon="7.03126">
        <ele>1025.7</ele>
        <time>2023-05-19T15:25:11Z</time>
      </trkpt>
      <trkpt lat="48.05364" lon="7.03138">
        <ele>1026.3</ele>
        <time>2023-05-19T15:25:25Z</time>
      </trkpt>
      <trkpt lat="48.0536" lon="7.03143">
        <ele>1028.4</ele>
        <time>2023-05-19T15:25:37Z</time>
      </trkpt>
      <trkpt lat="48.05354" lon="7.03146">
        <ele>1025.2</ele>
        <time>2023-05-19T15:25:49Z</time>
      </trkpt>
      <trkpt lat="48.0535" lon="7.03141">
        <ele>1027</ele>
        <time>2023-05-19T15:26:01Z</time>
      </trkpt>
      <trkpt lat="48.0534" lon="7.03127">
        <ele>1029.7</ele>
        <time>2023-05-19T15:26:30Z</time>
      </trkpt>
      <trkpt lat="48.05335" lon="7.03123">
        <ele>1030.9</ele>
        <time>2023-05-19T15:26:42Z</time>
      </trkpt>
      <trkpt lat="48.0533" lon="7.03128">
        <ele>1026.5</ele>
        <time>2023-05-19T15:27:06Z</time>
      </trkpt>
      <trkpt lat="48.05323" lon="7.03121">
        <ele>1025.6</ele>
        <time>2023-05-19T15:27:16Z</time>
      </trkpt>
      <trkpt lat="48.05321" lon="7.03115">
        <ele>1027.7</ele>
        <time>2023-05-19T15:27:20Z</time>
      </trkpt>
      <trkpt lat="48.05318" lon="7.03109">
        <ele>1029.5</ele>
        <time>2023-05-19T15:27:23Z</time>
      </trkpt>
      <trkpt lat="48.05314" lon="7.03106">
        <ele>1029.5</ele>
        <time>2023-05-19T15:27:41Z</time>
      </trkpt>
      <trkpt lat="48.0531" lon="7.03102">
        <ele>1030.2</ele>
        <time>2023-05-19T15:27:46Z</time>
      </trkpt>
      <trkpt lat="48.05304" lon="7.03097">
        <ele>1030.3</ele>
        <time>2023-05-19T15:27:55Z</time>
      </trkpt>
      <trkpt lat="48.05298" lon="7.03097">
        <ele>1024.9</ele>
        <time>2023-05-19T15:28:02Z</time>
      </trkpt>
      <trkpt lat="48.05294" lon="7.03091">
        <ele>1025.5</ele>
        <time>2023-05-19T15:28:09Z</time>
      </trkpt>
      <trkpt lat="48.05293" lon="7.03083">
        <ele>1030.4</ele>
        <time>2023-05-19T15:28:17Z</time>
      </trkpt>
      <trkpt lat="48.05289" lon="7.03081">
        <ele>1028.3</ele>
        <time>2023-05-19T15:28:23Z</time>
      </trkpt>
      <trkpt lat="48.05284" lon="7.03082">
        <ele>1023.3</ele>
        <time>2023-05-19T15:28:47Z</time>
      </trkpt>
      <trkpt lat="48.05273" lon="7.03072">
        <ele>1021.5</ele>
        <time>2023-05-19T15:29:04Z</time>
      </trkpt>
      <trkpt lat="48.05265" lon="7.03065">
        <ele>1019.9</ele>
        <time>2023-05-19T15:29:13Z</time>
      </trkpt>
      <trkpt lat="48.05262" lon="7.0306">
        <ele>1020.6</ele>
        <time>2023-05-19T15:29:21Z</time>
      </trkpt>
      <trkpt lat="48.05257" lon="7.03061">
        <ele>1015.9</ele>
        <time>2023-05-19T15:29:26Z</time>
      </trkpt>
      <trkpt lat="48.05248" lon="7.03057">
        <ele>1012.6</ele>
        <time>2023-05-19T15:29:57Z</time>
      </trkpt>
      <trkpt lat="48.05246" lon="7.03065">
        <ele>1008.7</ele>
        <time>2023-05-19T15:30:03Z</time>
      </trkpt>
      <trkpt lat="48.05244" lon="7.03072">
        <ele>1005.3</ele>
        <time>2023-05-19T15:30:23Z</time>
      </trkpt>
      <trkpt lat="48.05237" lon="7.03073">
        <ele>1006.1</ele>
        <time>2023-05-19T15:30:46Z</time>
      </trkpt>
      <trkpt lat="48.05227" lon="7.0308">
        <ele>1004</ele>
        <time>2023-05-19T15:31:04Z</time>
      </trkpt>
      <trkpt lat="48.05214" lon="7.0308">
        <ele>1007.5</ele>
        <time>2023-05-19T15:31:20Z</time>
      </trkpt>
      <trkpt lat="48.0521" lon="7.03085">
        <ele>1005.2</ele>
        <time>2023-05-19T15:31:27Z</time>
      </trkpt>
      <trkpt lat="48.05204" lon="7.03085">
        <ele>1006.9</ele>
        <time>2023-05-19T15:31:39Z</time>
      </trkpt>
      <trkpt lat="48.05199" lon="7.03091">
        <ele>1002.9</ele>
        <time>2023-05-19T15:31:51Z</time>
      </trkpt>
      <trkpt lat="48.05196" lon="7.03097">
        <ele>998</ele>
        <time>2023-05-19T15:32:02Z</time>
      </trkpt>
      <trkpt lat="48.05192" lon="7.03101">
        <ele>995.3</ele>
        <time>2023-05-19T15:32:06Z</time>
      </trkpt>
      <trkpt lat="48.05182" lon="7.03095">
        <ele>1004.7</ele>
        <time>2023-05-19T15:32:19Z</time>
      </trkpt>
      <trkpt lat="48.05176" lon="7.03093">
        <ele>1009</ele>
        <time>2023-05-19T15:32:27Z</time>
      </trkpt>
      <trkpt lat="48.05171" lon="7.03094">
        <ele>1009.8</ele>
        <time>2023-05-19T15:32:32Z</time>
      </trkpt>
      <trkpt lat="48.05166" lon="7.03095">
        <ele>1010.3</ele>
        <time>2023-05-19T15:32:40Z</time>
      </trkpt>
      <trkpt lat="48.05155" lon="7.03095">
        <ele>1009.3</ele>
        <time>2023-05-19T15:32:58Z</time>
      </trkpt>
      <trkpt lat="48.05148" lon="7.03095">
        <ele>1008.6</ele>
        <time>2023-05-19T15:33:09Z</time>
      </trkpt>
      <trkpt lat="48.05143" lon="7.03092">
        <ele>1010</ele>
        <time>2023-05-19T15:33:17Z</time>
      </trkpt>
      <trkpt lat="48.05141" lon="7.03085">
        <ele>1013.7</ele>
        <time>2023-05-19T15:34:24Z</time>
      </trkpt>
      <trkpt lat="48.05135" lon="7.03085">
        <ele>1011.1</ele>
        <time>2023-05-19T15:34:34Z</time>
      </trkpt>
      <trkpt lat="48.05131" lon="7.03083">
        <ele>1010.2</ele>
        <time>2023-05-19T15:34:39Z</time>
      </trkpt>
      <trkpt lat="48.05126" lon="7.0308">
        <ele>1009.3</ele>
        <time>2023-05-19T15:34:47Z</time>
      </trkpt>
      <trkpt lat="48.05118" lon="7.03074">
        <ele>1007.9</ele>
        <time>2023-05-19T15:34:57Z</time>
      </trkpt>
      <trkpt lat="48.05111" lon="7.03067">
        <ele>1007</ele>
        <time>2023-05-19T15:35:08Z</time>
      </trkpt>
      <trkpt lat="48.05103" lon="7.03063">
        <ele>1004.6</ele>
        <time>2023-05-19T15:35:22Z</time>
      </trkpt>
      <trkpt lat="48.05099" lon="7.03065">
        <ele>1001.5</ele>
        <time>2023-05-19T15:35:27Z</time>
      </trkpt>
      <trkpt lat="48.05095" lon="7.03066">
        <ele>998.9</ele>
        <time>2023-05-19T15:35:59Z</time>
      </trkpt>
      <trkpt lat="48.0509" lon="7.03064">
        <ele>997.3</ele>
        <time>2023-05-19T15:36:10Z</time>
      </trkpt>
      <trkpt lat="48.05082" lon="7.03064">
        <ele>993.4</ele>
        <time>2023-05-19T15:36:21Z</time>
      </trkpt>
      <trkpt lat="48.05071" lon="7.03059">
        <ele>993</ele>
        <time>2023-05-19T15:36:41Z</time>
      </trkpt>
      <trkpt lat="48.05067" lon="7.03059">
        <ele>991.7</ele>
        <time>2023-05-19T15:36:44Z</time>
      </trkpt>
      <trkpt lat="48.05063" lon="7.03057">
        <ele>991.6</ele>
        <time>2023-05-19T15:36:47Z</time>
      </trkpt>
      <trkpt lat="48.05058" lon="7.03054">
        <ele>992</ele>
        <time>2023-05-19T15:36:53Z</time>
      </trkpt>
      <trkpt lat="48.05054" lon="7.03048">
        <ele>996.1</ele>
        <time>2023-05-19T15:37:01Z</time>
      </trkpt>
      <trkpt lat="48.0505" lon="7.03045">
        <ele>998.6</ele>
        <time>2023-05-19T15:37:06Z</time>
      </trkpt>
      <trkpt lat="48.05046" lon="7.03047">
        <ele>997.4</ele>
        <time>2023-05-19T15:37:18Z</time>
      </trkpt>
      <trkpt lat="48.05041" lon="7.0305">
        <ele>995.8</ele>
        <time>2023-05-19T15:37:26Z</time>
      </trkpt>
      <trkpt lat="48.05036" lon="7.03047">
        <ele>998.1</ele>
        <time>2023-05-19T15:37:43Z</time>
      </trkpt>
      <trkpt lat="48.05028" lon="7.03049">
        <ele>997.5</ele>
        <time>2023-05-19T15:37:54Z</time>
      </trkpt>
      <trkpt lat="48.05024" lon="7.03051">
        <ele>997.8</ele>
        <time>2023-05-19T15:37:58Z</time>
      </trkpt>
      <trkpt lat="48.05014" lon="7.03053">
        <ele>1000.2</ele>
        <time>2023-05-19T15:38:12Z</time>
      </trkpt>
      <trkpt lat="48.05008" lon="7.03055">
        <ele>1001.4</ele>
        <time>2023-05-19T15:38:20Z</time>
      </trkpt>
      <trkpt lat="48.05003" lon="7.03058">
        <ele>1002</ele>
        <time>2023-05-19T15:38:34Z</time>
      </trkpt>
      <trkpt lat="48.0498" lon="7.0309">
        <ele>1005.5</ele>
        <time>2023-05-19T15:39:05Z</time>
      </trkpt>
      <trkpt lat="48.04972" lon="7.03092">
        <ele>1010.5</ele>
        <time>2023-05-19T15:39:16Z</time>
      </trkpt>
      <trkpt lat="48.04968" lon="7.03102">
        <ele>1010.4</ele>
        <time>2023-05-19T15:39:28Z</time>
      </trkpt>
      <trkpt lat="48.04964" lon="7.03098">
        <ele>1012.6</ele>
        <time>2023-05-19T15:39:45Z</time>
      </trkpt>
      <trkpt lat="48.04963" lon="7.03091">
        <ele>1014.1</ele>
        <time>2023-05-19T15:39:48Z</time>
      </trkpt>
      <trkpt lat="48.04959" lon="7.0309">
        <ele>1015.8</ele>
        <time>2023-05-19T15:40:07Z</time>
      </trkpt>
      <trkpt lat="48.04955" lon="7.03096">
        <ele>1016.5</ele>
        <time>2023-05-19T15:40:15Z</time>
      </trkpt>
      <trkpt lat="48.0495" lon="7.03099">
        <ele>1018.1</ele>
        <time>2023-05-19T15:40:26Z</time>
      </trkpt>
      <trkpt lat="48.04946" lon="7.03097">
        <ele>1019.9</ele>
        <time>2023-05-19T15:40:30Z</time>
      </trkpt>
      <trkpt lat="48.04941" lon="7.03093">
        <ele>1019.5</ele>
        <time>2023-05-19T15:40:34Z</time>
      </trkpt>
      <trkpt lat="48.04936" lon="7.03089">
        <ele>1018</ele>
        <time>2023-05-19T15:40:42Z</time>
      </trkpt>
      <trkpt lat="48.04925" lon="7.03076">
        <ele>1017.5</ele>
        <time>2023-05-19T15:40:54Z</time>
      </trkpt>
      <trkpt lat="48.04923" lon="7.0307">
        <ele>1018.8</ele>
        <time>2023-05-19T15:40:58Z</time>
      </trkpt>
      <trkpt lat="48.04918" lon="7.03067">
        <ele>1017.8</ele>
        <time>2023-05-19T15:41:01Z</time>
      </trkpt>
      <trkpt lat="48.04914" lon="7.03065">
        <ele>1016.4</ele>
        <time>2023-05-19T15:41:05Z</time>
      </trkpt>
      <trkpt lat="48.04911" lon="7.0306">
        <ele>1016.3</ele>
        <time>2023-05-19T15:41:14Z</time>
      </trkpt>
      <trkpt lat="48.04912" lon="7.03053">
        <ele>1019.1</ele>
        <time>2023-05-19T15:41:18Z</time>
      </trkpt>
      <trkpt lat="48.04907" lon="7.03054">
        <ele>1015.9</ele>
        <time>2023-05-19T15:41:43Z</time>
      </trkpt>
      <trkpt lat="48.04908" lon="7.03056">
        <ele>1015.9</ele>
        <time>2023-05-19T15:42:24Z</time>
      </trkpt>
      <trkpt lat="48.04907" lon="7.0306">
        <ele>1014</ele>
        <time>2023-05-19T15:44:18Z</time>
      </trkpt>
      <trkpt lat="48.04906" lon="7.03044">
        <ele>1018.3</ele>
        <time>2023-05-19T15:44:39Z</time>
      </trkpt>
      <trkpt lat="48.04902" lon="7.03051">
        <ele>1014</ele>
        <time>2023-05-19T15:44:48Z</time>
      </trkpt>
      <trkpt lat="48.04905" lon="7.03059">
        <ele>1013.2</ele>
        <time>2023-05-19T15:44:52Z</time>
      </trkpt>
      <trkpt lat="48.0491" lon="7.03064">
        <ele>1014.4</ele>
        <time>2023-05-19T15:44:59Z</time>
      </trkpt>
      <trkpt lat="48.04906" lon="7.0307">
        <ele>1010.2</ele>
        <time>2023-05-19T15:45:05Z</time>
      </trkpt>
      <trkpt lat="48.04902" lon="7.03069">
        <ele>1008.2</ele>
        <time>2023-05-19T15:45:09Z</time>
      </trkpt>
      <trkpt lat="48.04898" lon="7.03066">
        <ele>1006.9</ele>
        <time>2023-05-19T15:45:14Z</time>
      </trkpt>
      <trkpt lat="48.04893" lon="7.03055">
        <ele>1007.5</ele>
        <time>2023-05-19T15:45:21Z</time>
      </trkpt>
      <trkpt lat="48.0489" lon="7.03059">
        <ele>1004.5</ele>
        <time>2023-05-19T15:45:26Z</time>
      </trkpt>
      <trkpt lat="48.04886" lon="7.03055">
        <ele>1003.4</ele>
        <time>2023-05-19T15:45:32Z</time>
      </trkpt>
      <trkpt lat="48.04882" lon="7.03051">
        <ele>1002.3</ele>
        <time>2023-05-19T15:45:35Z</time>
      </trkpt>
      <trkpt lat="48.0488" lon="7.03042">
        <ele>1004</ele>
        <time>2023-05-19T15:45:39Z</time>
      </trkpt>
      <trkpt lat="48.04877" lon="7.03036">
        <ele>1004.1</ele>
        <time>2023-05-19T15:45:43Z</time>
      </trkpt>
      <trkpt lat="48.04872" lon="7.03033">
        <ele>1002</ele>
        <time>2023-05-19T15:45:46Z</time>
      </trkpt>
      <trkpt lat="48.04868" lon="7.03031">
        <ele>1000.2</ele>
        <time>2023-05-19T15:45:49Z</time>
      </trkpt>
      <trkpt lat="48.04865" lon="7.03026">
        <ele>999.8</ele>
        <time>2023-05-19T15:45:54Z</time>
      </trkpt>
      <trkpt lat="48.0486" lon="7.03022">
        <ele>997.8</ele>
        <time>2023-05-19T15:45:59Z</time>
      </trkpt>
      <trkpt lat="48.0486" lon="7.03014">
        <ele>999.9</ele>
        <time>2023-05-19T15:46:03Z</time>
      </trkpt>
      <trkpt lat="48.04855" lon="7.03011">
        <ele>997.8</ele>
        <time>2023-05-19T15:46:07Z</time>
      </trkpt>
      <trkpt lat="48.04852" lon="7.03006">
        <ele>997.5</ele>
        <time>2023-05-19T15:46:11Z</time>
      </trkpt>
      <trkpt lat="48.04849" lon="7.02999">
        <ele>997.8</ele>
        <time>2023-05-19T15:46:17Z</time>
      </trkpt>
      <trkpt lat="48.04844" lon="7.02995">
        <ele>996.3</ele>
        <time>2023-05-19T15:46:21Z</time>
      </trkpt>
      <trkpt lat="48.04843" lon="7.02989">
        <ele>997.5</ele>
        <time>2023-05-19T15:46:25Z</time>
      </trkpt>
      <trkpt lat="48.04839" lon="7.02985">
        <ele>996.5</ele>
        <time>2023-05-19T15:46:29Z</time>
      </trkpt>
      <trkpt lat="48.04835" lon="7.02983">
        <ele>994.8</ele>
        <time>2023-05-19T15:46:32Z</time>
      </trkpt>
      <trkpt lat="48.0483" lon="7.0298">
        <ele>992.8</ele>
        <time>2023-05-19T15:46:41Z</time>
      </trkpt>
      <trkpt lat="48.04828" lon="7.02974">
        <ele>993.2</ele>
        <time>2023-05-19T15:46:46Z</time>
      </trkpt>
      <trkpt lat="48.04823" lon="7.02973">
        <ele>990.5</ele>
        <time>2023-05-19T15:46:50Z</time>
      </trkpt>
      <trkpt lat="48.04819" lon="7.02963">
        <ele>990.7</ele>
        <time>2023-05-19T15:46:58Z</time>
      </trkpt>
      <trkpt lat="48.04815" lon="7.02959">
        <ele>989.3</ele>
        <time>2023-05-19T15:47:01Z</time>
      </trkpt>
      <trkpt lat="48.04812" lon="7.02953">
        <ele>988.9</ele>
        <time>2023-05-19T15:47:05Z</time>
      </trkpt>
      <trkpt lat="48.04811" lon="7.02943">
        <ele>990.9</ele>
        <time>2023-05-19T15:47:12Z</time>
      </trkpt>
      <trkpt lat="48.04801" lon="7.02935">
        <ele>986.7</ele>
        <time>2023-05-19T15:47:20Z</time>
      </trkpt>
      <trkpt lat="48.04797" lon="7.02933">
        <ele>984.8</ele>
        <time>2023-05-19T15:47:23Z</time>
      </trkpt>
      <trkpt lat="48.04795" lon="7.02925">
        <ele>985.6</ele>
        <time>2023-05-19T15:47:31Z</time>
      </trkpt>
      <trkpt lat="48.04794" lon="7.02919">
        <ele>986.4</ele>
        <time>2023-05-19T15:47:34Z</time>
      </trkpt>
      <trkpt lat="48.0478" lon="7.029">
        <ele>982</ele>
        <time>2023-05-19T15:47:52Z</time>
      </trkpt>
      <trkpt lat="48.04775" lon="7.02897">
        <ele>979.7</ele>
        <time>2023-05-19T15:47:59Z</time>
      </trkpt>
      <trkpt lat="48.04774" lon="7.02889">
        <ele>980.9</ele>
        <time>2023-05-19T15:48:03Z</time>
      </trkpt>
      <trkpt lat="48.0477" lon="7.02884">
        <ele>980</ele>
        <time>2023-05-19T15:48:08Z</time>
      </trkpt>
      <trkpt lat="48.04768" lon="7.02875">
        <ele>981</ele>
        <time>2023-05-19T15:48:15Z</time>
      </trkpt>
      <trkpt lat="48.04764" lon="7.02874">
        <ele>979</ele>
        <time>2023-05-19T15:48:22Z</time>
      </trkpt>
      <trkpt lat="48.04765" lon="7.02881">
        <ele>978</ele>
        <time>2023-05-19T15:48:28Z</time>
      </trkpt>
      <trkpt lat="48.04758" lon="7.02874">
        <ele>975.7</ele>
        <time>2023-05-19T15:48:39Z</time>
      </trkpt>
      <trkpt lat="48.0475" lon="7.0287">
        <ele>972.1</ele>
        <time>2023-05-19T15:48:49Z</time>
      </trkpt>
      <trkpt lat="48.04747" lon="7.02862">
        <ele>972.1</ele>
        <time>2023-05-19T15:48:52Z</time>
      </trkpt>
      <trkpt lat="48.04741" lon="7.02851">
        <ele>970.5</ele>
        <time>2023-05-19T15:48:59Z</time>
      </trkpt>
      <trkpt lat="48.04741" lon="7.02843">
        <ele>971.8</ele>
        <time>2023-05-19T15:49:04Z</time>
      </trkpt>
      <trkpt lat="48.04736" lon="7.02843">
        <ele>969.2</ele>
        <time>2023-05-19T15:49:07Z</time>
      </trkpt>
      <trkpt lat="48.0473" lon="7.02837">
        <ele>967.2</ele>
        <time>2023-05-19T15:49:13Z</time>
      </trkpt>
      <trkpt lat="48.04729" lon="7.02827">
        <ele>968.3</ele>
        <time>2023-05-19T15:49:22Z</time>
      </trkpt>
      <trkpt lat="48.04722" lon="7.02816">
        <ele>965.8</ele>
        <time>2023-05-19T15:49:33Z</time>
      </trkpt>
      <trkpt lat="48.04723" lon="7.02808">
        <ele>967.2</ele>
        <time>2023-05-19T15:49:38Z</time>
      </trkpt>
      <trkpt lat="48.04716" lon="7.02795">
        <ele>965.6</ele>
        <time>2023-05-19T15:49:45Z</time>
      </trkpt>
      <trkpt lat="48.04713" lon="7.02791">
        <ele>964.8</ele>
        <time>2023-05-19T15:49:49Z</time>
      </trkpt>
      <trkpt lat="48.04709" lon="7.02786">
        <ele>963.6</ele>
        <time>2023-05-19T15:49:57Z</time>
      </trkpt>
      <trkpt lat="48.04704" lon="7.02782">
        <ele>961.9</ele>
        <time>2023-05-19T15:50:01Z</time>
      </trkpt>
      <trkpt lat="48.047" lon="7.02774">
        <ele>961.3</ele>
        <time>2023-05-19T15:50:09Z</time>
      </trkpt>
      <trkpt lat="48.04696" lon="7.02769">
        <ele>960.3</ele>
        <time>2023-05-19T15:50:17Z</time>
      </trkpt>
      <trkpt lat="48.04691" lon="7.02751">
        <ele>961.6</ele>
        <time>2023-05-19T15:50:25Z</time>
      </trkpt>
      <trkpt lat="48.04689" lon="7.02745">
        <ele>962</ele>
        <time>2023-05-19T15:50:29Z</time>
      </trkpt>
      <trkpt lat="48.04685" lon="7.02737">
        <ele>962.1</ele>
        <time>2023-05-19T15:50:35Z</time>
      </trkpt>
      <trkpt lat="48.04675" lon="7.02735">
        <ele>959.1</ele>
        <time>2023-05-19T15:50:48Z</time>
      </trkpt>
      <trkpt lat="48.04671" lon="7.0273">
        <ele>958.8</ele>
        <time>2023-05-19T15:50:51Z</time>
      </trkpt>
      <trkpt lat="48.04667" lon="7.02718">
        <ele>959.7</ele>
        <time>2023-05-19T15:51:00Z</time>
      </trkpt>
      <trkpt lat="48.04668" lon="7.02711">
        <ele>961</ele>
        <time>2023-05-19T15:51:04Z</time>
      </trkpt>
      <trkpt lat="48.04662" lon="7.02704">
        <ele>960.4</ele>
        <time>2023-05-19T15:51:10Z</time>
      </trkpt>
      <trkpt lat="48.04659" lon="7.027">
        <ele>960.3</ele>
        <time>2023-05-19T15:51:16Z</time>
      </trkpt>
      <trkpt lat="48.04656" lon="7.02693">
        <ele>961</ele>
        <time>2023-05-19T15:51:36Z</time>
      </trkpt>
      <trkpt lat="48.04658" lon="7.02685">
        <ele>963.3</ele>
        <time>2023-05-19T15:51:44Z</time>
      </trkpt>
      <trkpt lat="48.04661" lon="7.02679">
        <ele>965.2</ele>
        <time>2023-05-19T15:51:46Z</time>
      </trkpt>
      <trkpt lat="48.04657" lon="7.02675">
        <ele>965.4</ele>
        <time>2023-05-19T15:51:52Z</time>
      </trkpt>
      <trkpt lat="48.04646" lon="7.02671">
        <ele>964.2</ele>
        <time>2023-05-19T15:51:57Z</time>
      </trkpt>
      <trkpt lat="48.04643" lon="7.02666">
        <ele>964.9</ele>
        <time>2023-05-19T15:52:00Z</time>
      </trkpt>
      <trkpt lat="48.04632" lon="7.02661">
        <ele>964.5</ele>
        <time>2023-05-19T15:52:07Z</time>
      </trkpt>
      <trkpt lat="48.04631" lon="7.02654">
        <ele>965.9</ele>
        <time>2023-05-19T15:52:09Z</time>
      </trkpt>
      <trkpt lat="48.04616" lon="7.02641">
        <ele>967.1</ele>
        <time>2023-05-19T15:52:22Z</time>
      </trkpt>
      <trkpt lat="48.04612" lon="7.02634">
        <ele>967.3</ele>
        <time>2023-05-19T15:52:28Z</time>
      </trkpt>
      <trkpt lat="48.0461" lon="7.02628">
        <ele>967.2</ele>
        <time>2023-05-19T15:52:31Z</time>
      </trkpt>
      <trkpt lat="48.04609" lon="7.0262">
        <ele>967.3</ele>
        <time>2023-05-19T15:52:33Z</time>
      </trkpt>
      <trkpt lat="48.0461" lon="7.02612">
        <ele>967.8</ele>
        <time>2023-05-19T15:52:37Z</time>
      </trkpt>
      <trkpt lat="48.04612" lon="7.02606">
        <ele>968.1</ele>
        <time>2023-05-19T15:52:41Z</time>
      </trkpt>
      <trkpt lat="48.04615" lon="7.026">
        <ele>968.4</ele>
        <time>2023-05-19T15:52:45Z</time>
      </trkpt>
      <trkpt lat="48.0462" lon="7.02595">
        <ele>968.9</ele>
        <time>2023-05-19T15:52:49Z</time>
      </trkpt>
      <trkpt lat="48.04625" lon="7.02593">
        <ele>969.3</ele>
        <time>2023-05-19T15:52:54Z</time>
      </trkpt>
      <trkpt lat="48.04647" lon="7.02562">
        <ele>970.2</ele>
        <time>2023-05-19T15:53:25Z</time>
      </trkpt>
      <trkpt lat="48.04652" lon="7.02562">
        <ele>970.8</ele>
        <time>2023-05-19T15:53:28Z</time>
      </trkpt>
      <trkpt lat="48.04654" lon="7.02554">
        <ele>971.2</ele>
        <time>2023-05-19T15:53:31Z</time>
      </trkpt>
      <trkpt lat="48.04658" lon="7.02549">
        <ele>971.7</ele>
        <time>2023-05-19T15:53:36Z</time>
      </trkpt>
      <trkpt lat="48.04663" lon="7.02545">
        <ele>972.4</ele>
        <time>2023-05-19T15:53:38Z</time>
      </trkpt>
      <trkpt lat="48.04668" lon="7.02524">
        <ele>973.4</ele>
        <time>2023-05-19T15:53:48Z</time>
      </trkpt>
      <trkpt lat="48.04672" lon="7.0252">
        <ele>974.7</ele>
        <time>2023-05-19T15:53:52Z</time>
      </trkpt>
      <trkpt lat="48.04675" lon="7.02511">
        <ele>975.6</ele>
        <time>2023-05-19T15:54:01Z</time>
      </trkpt>
      <trkpt lat="48.04673" lon="7.02504">
        <ele>974.6</ele>
        <time>2023-05-19T15:54:04Z</time>
      </trkpt>
      <trkpt lat="48.04675" lon="7.02491">
        <ele>975.1</ele>
        <time>2023-05-19T15:54:12Z</time>
      </trkpt>
      <trkpt lat="48.04679" lon="7.02482">
        <ele>976.5</ele>
        <time>2023-05-19T15:54:19Z</time>
      </trkpt>
      <trkpt lat="48.0468" lon="7.02462">
        <ele>977.7</ele>
        <time>2023-05-19T15:54:35Z</time>
      </trkpt>
      <trkpt lat="48.04676" lon="7.02449">
        <ele>977.3</ele>
        <time>2023-05-19T15:54:43Z</time>
      </trkpt>
      <trkpt lat="48.04673" lon="7.02442">
        <ele>976.8</ele>
        <time>2023-05-19T15:54:46Z</time>
      </trkpt>
      <trkpt lat="48.04662" lon="7.02439">
        <ele>973.2</ele>
        <time>2023-05-19T15:54:51Z</time>
      </trkpt>
      <trkpt lat="48.04669" lon="7.02432">
        <ele>976.3</ele>
        <time>2023-05-19T15:54:54Z</time>
      </trkpt>
      <trkpt lat="48.04669" lon="7.0241">
        <ele>978.1</ele>
        <time>2023-05-19T15:55:08Z</time>
      </trkpt>
      <trkpt lat="48.04672" lon="7.02403">
        <ele>979.6</ele>
        <time>2023-05-19T15:55:12Z</time>
      </trkpt>
      <trkpt lat="48.04669" lon="7.0239">
        <ele>978.2</ele>
        <time>2023-05-19T15:55:19Z</time>
      </trkpt>
      <trkpt lat="48.04672" lon="7.02369">
        <ele>980.2</ele>
        <time>2023-05-19T15:55:31Z</time>
      </trkpt>
      <trkpt lat="48.04679" lon="7.02341">
        <ele>984.2</ele>
        <time>2023-05-19T15:55:46Z</time>
      </trkpt>
      <trkpt lat="48.04682" lon="7.02333">
        <ele>985.9</ele>
        <time>2023-05-19T15:55:54Z</time>
      </trkpt>
      <trkpt lat="48.04679" lon="7.02308">
        <ele>985.4</ele>
        <time>2023-05-19T15:56:12Z</time>
      </trkpt>
      <trkpt lat="48.04684" lon="7.02291">
        <ele>990.4</ele>
        <time>2023-05-19T15:56:19Z</time>
      </trkpt>
      <trkpt lat="48.04683" lon="7.02284">
        <ele>990.6</ele>
        <time>2023-05-19T15:56:24Z</time>
      </trkpt>
      <trkpt lat="48.04684" lon="7.02277">
        <ele>992.1</ele>
        <time>2023-05-19T15:56:30Z</time>
      </trkpt>
      <trkpt lat="48.04679" lon="7.02269">
        <ele>990.8</ele>
        <time>2023-05-19T15:56:37Z</time>
      </trkpt>
      <trkpt lat="48.04678" lon="7.02262">
        <ele>991.6</ele>
        <time>2023-05-19T15:56:40Z</time>
      </trkpt>
      <trkpt lat="48.04669" lon="7.02266">
        <ele>985.5</ele>
        <time>2023-05-19T15:56:45Z</time>
      </trkpt>
      <trkpt lat="48.04669" lon="7.02255">
        <ele>987.5</ele>
        <time>2023-05-19T15:56:47Z</time>
      </trkpt>
      <trkpt lat="48.04669" lon="7.02247">
        <ele>989.3</ele>
        <time>2023-05-19T15:56:51Z</time>
      </trkpt>
      <trkpt lat="48.04671" lon="7.02231">
        <ele>994.9</ele>
        <time>2023-05-19T15:57:01Z</time>
      </trkpt>
      <trkpt lat="48.04665" lon="7.02226">
        <ele>993.1</ele>
        <time>2023-05-19T15:57:08Z</time>
      </trkpt>
      <trkpt lat="48.04663" lon="7.02219">
        <ele>993.7</ele>
        <time>2023-05-19T15:57:13Z</time>
      </trkpt>
      <trkpt lat="48.04659" lon="7.02209">
        <ele>993.6</ele>
        <time>2023-05-19T15:57:22Z</time>
      </trkpt>
      <trkpt lat="48.04661" lon="7.02168">
        <ele>998.1</ele>
        <time>2023-05-19T15:57:39Z</time>
      </trkpt>
      <trkpt lat="48.0466" lon="7.02153">
        <ele>999.4</ele>
        <time>2023-05-19T15:57:50Z</time>
      </trkpt>
      <trkpt lat="48.04662" lon="7.02146">
        <ele>1000.8</ele>
        <time>2023-05-19T15:57:54Z</time>
      </trkpt>
      <trkpt lat="48.04661" lon="7.02138">
        <ele>1001.6</ele>
        <time>2023-05-19T15:57:57Z</time>
      </trkpt>
      <trkpt lat="48.04662" lon="7.02131">
        <ele>1003.7</ele>
        <time>2023-05-19T15:57:59Z</time>
      </trkpt>
      <trkpt lat="48.0466" lon="7.02125">
        <ele>1004.8</ele>
        <time>2023-05-19T15:58:03Z</time>
      </trkpt>
      <trkpt lat="48.04657" lon="7.02116">
        <ele>1006.6</ele>
        <time>2023-05-19T15:58:11Z</time>
      </trkpt>
      <trkpt lat="48.04648" lon="7.02109">
        <ele>1006.8</ele>
        <time>2023-05-19T15:58:19Z</time>
      </trkpt>
      <trkpt lat="48.04635" lon="7.02107">
        <ele>1005.4</ele>
        <time>2023-05-19T15:58:33Z</time>
      </trkpt>
      <trkpt lat="48.04625" lon="7.02098">
        <ele>1008.7</ele>
        <time>2023-05-19T15:58:47Z</time>
      </trkpt>
      <trkpt lat="48.04613" lon="7.02094">
        <ele>1010.1</ele>
        <time>2023-05-19T15:59:01Z</time>
      </trkpt>
      <trkpt lat="48.04609" lon="7.0209">
        <ele>1011.9</ele>
        <time>2023-05-19T15:59:05Z</time>
      </trkpt>
      <trkpt lat="48.04604" lon="7.02089">
        <ele>1012.3</ele>
        <time>2023-05-19T15:59:08Z</time>
      </trkpt>
      <trkpt lat="48.04592" lon="7.02087">
        <ele>1013</ele>
        <time>2023-05-19T15:59:23Z</time>
      </trkpt>
      <trkpt lat="48.04582" lon="7.02082">
        <ele>1014.3</ele>
        <time>2023-05-19T15:59:33Z</time>
      </trkpt>
      <trkpt lat="48.04576" lon="7.02082">
        <ele>1013.4</ele>
        <time>2023-05-19T15:59:37Z</time>
      </trkpt>
      <trkpt lat="48.04573" lon="7.02077">
        <ele>1014.8</ele>
        <time>2023-05-19T15:59:40Z</time>
      </trkpt>
      <trkpt lat="48.04568" lon="7.02075">
        <ele>1014.8</ele>
        <time>2023-05-19T15:59:44Z</time>
      </trkpt>
      <trkpt lat="48.04563" lon="7.0207">
        <ele>1015.9</ele>
        <time>2023-05-19T15:59:52Z</time>
      </trkpt>
      <trkpt lat="48.04558" lon="7.02065">
        <ele>1017</ele>
        <time>2023-05-19T15:59:58Z</time>
      </trkpt>
      <trkpt lat="48.04554" lon="7.02063">
        <ele>1017.6</ele>
        <time>2023-05-19T16:00:02Z</time>
      </trkpt>
      <trkpt lat="48.04543" lon="7.02049">
        <ele>1023.6</ele>
        <time>2023-05-19T16:00:14Z</time>
      </trkpt>
      <trkpt lat="48.04537" lon="7.02034">
        <ele>1027.1</ele>
        <time>2023-05-19T16:00:24Z</time>
      </trkpt>
      <trkpt lat="48.04538" lon="7.02023">
        <ele>1029.3</ele>
        <time>2023-05-19T16:00:31Z</time>
      </trkpt>
      <trkpt lat="48.04531" lon="7.0202">
        <ele>1029</ele>
        <time>2023-05-19T16:00:41Z</time>
      </trkpt>
      <trkpt lat="48.04526" lon="7.02028">
        <ele>1027.6</ele>
        <time>2023-05-19T16:00:47Z</time>
      </trkpt>
      <trkpt lat="48.04523" lon="7.02045">
        <ele>1026.6</ele>
        <time>2023-05-19T16:00:59Z</time>
      </trkpt>
      <trkpt lat="48.04519" lon="7.02055">
        <ele>1026.6</ele>
        <time>2023-05-19T16:01:09Z</time>
      </trkpt>
      <trkpt lat="48.04516" lon="7.02062">
        <ele>1026.2</ele>
        <time>2023-05-19T16:01:13Z</time>
      </trkpt>
      <trkpt lat="48.04512" lon="7.02065">
        <ele>1026.8</ele>
        <time>2023-05-19T16:01:19Z</time>
      </trkpt>
      <trkpt lat="48.04507" lon="7.02068">
        <ele>1027.7</ele>
        <time>2023-05-19T16:01:24Z</time>
      </trkpt>
      <trkpt lat="48.04502" lon="7.02072">
        <ele>1028.5</ele>
        <time>2023-05-19T16:01:28Z</time>
      </trkpt>
      <trkpt lat="48.04472" lon="7.0209">
        <ele>1028.8</ele>
        <time>2023-05-19T16:01:58Z</time>
      </trkpt>
      <trkpt lat="48.04468" lon="7.02095">
        <ele>1027.1</ele>
        <time>2023-05-19T16:02:02Z</time>
      </trkpt>
      <trkpt lat="48.0446" lon="7.021">
        <ele>1026</ele>
        <time>2023-05-19T16:02:11Z</time>
      </trkpt>
      <trkpt lat="48.04451" lon="7.02104">
        <ele>1025.8</ele>
        <time>2023-05-19T16:02:18Z</time>
      </trkpt>
      <trkpt lat="48.04446" lon="7.02107">
        <ele>1026</ele>
        <time>2023-05-19T16:02:21Z</time>
      </trkpt>
      <trkpt lat="48.04443" lon="7.02108">
        <ele>1026.1</ele>
        <time>2023-05-19T16:02:25Z</time>
      </trkpt>
      <trkpt lat="48.04436" lon="7.02109">
        <ele>1026.2</ele>
        <time>2023-05-19T16:02:34Z</time>
      </trkpt>
      <trkpt lat="48.0443" lon="7.02111">
        <ele>1026.5</ele>
        <time>2023-05-19T16:02:38Z</time>
      </trkpt>
      <trkpt lat="48.04426" lon="7.0211">
        <ele>1026.5</ele>
        <time>2023-05-19T16:02:42Z</time>
      </trkpt>
      <trkpt lat="48.04421" lon="7.02112">
        <ele>1026.6</ele>
        <time>2023-05-19T16:02:44Z</time>
      </trkpt>
      <trkpt lat="48.04417" lon="7.0211">
        <ele>1026.8</ele>
        <time>2023-05-19T16:03:00Z</time>
      </trkpt>
      <trkpt lat="48.04404" lon="7.02118">
        <ele>1026.4</ele>
        <time>2023-05-19T16:03:17Z</time>
      </trkpt>
      <trkpt lat="48.044" lon="7.0212">
        <ele>1026.4</ele>
        <time>2023-05-19T16:03:21Z</time>
      </trkpt>
      <trkpt lat="48.04396" lon="7.02119">
        <ele>1026.9</ele>
        <time>2023-05-19T16:03:26Z</time>
      </trkpt>
      <trkpt lat="48.04392" lon="7.02122">
        <ele>1026.9</ele>
        <time>2023-05-19T16:03:30Z</time>
      </trkpt>
      <trkpt lat="48.04387" lon="7.02129">
        <ele>1027</ele>
        <time>2023-05-19T16:03:36Z</time>
      </trkpt>
      <trkpt lat="48.04382" lon="7.02131">
        <ele>1027.5</ele>
        <time>2023-05-19T16:03:42Z</time>
      </trkpt>
      <trkpt lat="48.04377" lon="7.02131">
        <ele>1028.1</ele>
        <time>2023-05-19T16:03:46Z</time>
      </trkpt>
      <trkpt lat="48.04369" lon="7.02136">
        <ele>1028.5</ele>
        <time>2023-05-19T16:03:52Z</time>
      </trkpt>
      <trkpt lat="48.0435" lon="7.02136">
        <ele>1030.2</ele>
        <time>2023-05-19T16:04:12Z</time>
      </trkpt>
      <trkpt lat="48.04343" lon="7.02136">
        <ele>1030.7</ele>
        <time>2023-05-19T16:04:18Z</time>
      </trkpt>
      <trkpt lat="48.04338" lon="7.02138">
        <ele>1030.8</ele>
        <time>2023-05-19T16:04:25Z</time>
      </trkpt>
      <trkpt lat="48.04332" lon="7.02141">
        <ele>1031</ele>
        <time>2023-05-19T16:04:31Z</time>
      </trkpt>
      <trkpt lat="48.04328" lon="7.02145">
        <ele>1031</ele>
        <time>2023-05-19T16:04:35Z</time>
      </trkpt>
      <trkpt lat="48.04323" lon="7.02145">
        <ele>1031.3</ele>
        <time>2023-05-19T16:04:39Z</time>
      </trkpt>
      <trkpt lat="48.04319" lon="7.02142">
        <ele>1031.7</ele>
        <time>2023-05-19T16:04:43Z</time>
      </trkpt>
      <trkpt lat="48.04292" lon="7.02177">
        <ele>1026.5</ele>
        <time>2023-05-19T16:09:57Z</time>
      </trkpt>
      <trkpt lat="48.04281" lon="7.02181">
        <ele>1025.4</ele>
        <time>2023-05-19T16:10:05Z</time>
      </trkpt>
      <trkpt lat="48.04276" lon="7.02183">
        <ele>1024.8</ele>
        <time>2023-05-19T16:10:09Z</time>
      </trkpt>
      <trkpt lat="48.04273" lon="7.02187">
        <ele>1023.6</ele>
        <time>2023-05-19T16:10:13Z</time>
      </trkpt>
      <trkpt lat="48.04264" lon="7.02202">
        <ele>1021.3</ele>
        <time>2023-05-19T16:10:25Z</time>
      </trkpt>
      <trkpt lat="48.04262" lon="7.02208">
        <ele>1020.9</ele>
        <time>2023-05-19T16:10:29Z</time>
      </trkpt>
      <trkpt lat="48.04253" lon="7.02238">
        <ele>1018.8</ele>
        <time>2023-05-19T16:10:47Z</time>
      </trkpt>
      <trkpt lat="48.04247" lon="7.0225">
        <ele>1018.2</ele>
        <time>2023-05-19T16:10:58Z</time>
      </trkpt>
      <trkpt lat="48.04245" lon="7.02256">
        <ele>1019.5</ele>
        <time>2023-05-19T16:11:02Z</time>
      </trkpt>
      <trkpt lat="48.04243" lon="7.02266">
        <ele>1021.5</ele>
        <time>2023-05-19T16:11:09Z</time>
      </trkpt>
      <trkpt lat="48.04247" lon="7.02271">
        <ele>1022.1</ele>
        <time>2023-05-19T16:11:17Z</time>
      </trkpt>
      <trkpt lat="48.04246" lon="7.0228">
        <ele>1023.7</ele>
        <time>2023-05-19T16:11:25Z</time>
      </trkpt>
      <trkpt lat="48.04247" lon="7.02289">
        <ele>1024.8</ele>
        <time>2023-05-19T16:11:37Z</time>
      </trkpt>
      <trkpt lat="48.04245" lon="7.023">
        <ele>1026.7</ele>
        <time>2023-05-19T16:11:47Z</time>
      </trkpt>
      <trkpt lat="48.04243" lon="7.0231">
        <ele>1028.3</ele>
        <time>2023-05-19T16:11:59Z</time>
      </trkpt>
      <trkpt lat="48.04239" lon="7.02316">
        <ele>1030</ele>
        <time>2023-05-19T16:12:11Z</time>
      </trkpt>
      <trkpt lat="48.04241" lon="7.02322">
        <ele>1029.8</ele>
        <time>2023-05-19T16:12:17Z</time>
      </trkpt>
      <trkpt lat="48.04242" lon="7.02332">
        <ele>1030.1</ele>
        <time>2023-05-19T16:12:29Z</time>
      </trkpt>
      <trkpt lat="48.04238" lon="7.0234">
        <ele>1030.5</ele>
        <time>2023-05-19T16:12:40Z</time>
      </trkpt>
      <trkpt lat="48.04232" lon="7.02339">
        <ele>1033.5</ele>
        <time>2023-05-19T16:12:45Z</time>
      </trkpt>
      <trkpt lat="48.0423" lon="7.02348">
        <ele>1033.6</ele>
        <time>2023-05-19T16:12:51Z</time>
      </trkpt>
      <trkpt lat="48.04228" lon="7.02355">
        <ele>1034.3</ele>
        <time>2023-05-19T16:13:00Z</time>
      </trkpt>
      <trkpt lat="48.04222" lon="7.02363">
        <ele>1037.5</ele>
        <time>2023-05-19T16:13:11Z</time>
      </trkpt>
      <trkpt lat="48.0422" lon="7.02353">
        <ele>1038.8</ele>
        <time>2023-05-19T16:13:17Z</time>
      </trkpt>
      <trkpt lat="48.04212" lon="7.02345">
        <ele>1042</ele>
        <time>2023-05-19T16:13:26Z</time>
      </trkpt>
      <trkpt lat="48.04209" lon="7.0234">
        <ele>1043.4</ele>
        <time>2023-05-19T16:13:30Z</time>
      </trkpt>
      <trkpt lat="48.04209" lon="7.0235">
        <ele>1042.9</ele>
        <time>2023-05-19T16:13:43Z</time>
      </trkpt>
      <trkpt lat="48.04206" lon="7.02355">
        <ele>1043.6</ele>
        <time>2023-05-19T16:13:47Z</time>
      </trkpt>
      <trkpt lat="48.04198" lon="7.02352">
        <ele>1046.7</ele>
        <time>2023-05-19T16:13:58Z</time>
      </trkpt>
      <trkpt lat="48.04195" lon="7.02343">
        <ele>1048.7</ele>
        <time>2023-05-19T16:14:09Z</time>
      </trkpt>
      <trkpt lat="48.04189" lon="7.0234">
        <ele>1051.6</ele>
        <time>2023-05-19T16:14:14Z</time>
      </trkpt>
      <trkpt lat="48.04187" lon="7.02334">
        <ele>1052.7</ele>
        <time>2023-05-19T16:14:18Z</time>
      </trkpt>
      <trkpt lat="48.04182" lon="7.02329">
        <ele>1053.1</ele>
        <time>2023-05-19T16:14:24Z</time>
      </trkpt>
      <trkpt lat="48.04182" lon="7.02337">
        <ele>1054.5</ele>
        <time>2023-05-19T16:14:30Z</time>
      </trkpt>
      <trkpt lat="48.04188" lon="7.02342">
        <ele>1051.9</ele>
        <time>2023-05-19T16:14:37Z</time>
      </trkpt>
      <trkpt lat="48.04189" lon="7.02352">
        <ele>1050.9</ele>
        <time>2023-05-19T16:14:45Z</time>
      </trkpt>
      <trkpt lat="48.04186" lon="7.02359">
        <ele>1052.2</ele>
        <time>2023-05-19T16:14:57Z</time>
      </trkpt>
      <trkpt lat="48.04181" lon="7.02364">
        <ele>1054.2</ele>
        <time>2023-05-19T16:15:02Z</time>
      </trkpt>
      <trkpt lat="48.04178" lon="7.02374">
        <ele>1052.6</ele>
        <time>2023-05-19T16:15:12Z</time>
      </trkpt>
      <trkpt lat="48.04173" lon="7.02378">
        <ele>1054.2</ele>
        <time>2023-05-19T16:15:18Z</time>
      </trkpt>
      <trkpt lat="48.04168" lon="7.02375">
        <ele>1058.2</ele>
        <time>2023-05-19T16:15:27Z</time>
      </trkpt>
      <trkpt lat="48.04164" lon="7.02371">
        <ele>1062</ele>
        <time>2023-05-19T16:15:32Z</time>
      </trkpt>
      <trkpt lat="48.04159" lon="7.02369">
        <ele>1065.5</ele>
        <time>2023-05-19T16:15:36Z</time>
      </trkpt>
      <trkpt lat="48.04157" lon="7.0236">
        <ele>1069.1</ele>
        <time>2023-05-19T16:15:50Z</time>
      </trkpt>
      <trkpt lat="48.04155" lon="7.02354">
        <ele>1069.4</ele>
        <time>2023-05-19T16:15:54Z</time>
      </trkpt>
      <trkpt lat="48.04152" lon="7.0236">
        <ele>1071.8</ele>
        <time>2023-05-19T16:15:57Z</time>
      </trkpt>
      <trkpt lat="48.04151" lon="7.02351">
        <ele>1071.2</ele>
        <time>2023-05-19T16:16:24Z</time>
      </trkpt>
      <trkpt lat="48.04151" lon="7.02344">
        <ele>1070.3</ele>
        <time>2023-05-19T16:16:29Z</time>
      </trkpt>
      <trkpt lat="48.04148" lon="7.0234">
        <ele>1071.6</ele>
        <time>2023-05-19T16:16:35Z</time>
      </trkpt>
      <trkpt lat="48.04142" lon="7.02342">
        <ele>1075.2</ele>
        <time>2023-05-19T16:16:53Z</time>
      </trkpt>
      <trkpt lat="48.04139" lon="7.02341">
        <ele>1076.8</ele>
        <time>2023-05-19T16:17:14Z</time>
      </trkpt>
      <trkpt lat="48.04126" lon="7.0233">
        <ele>1089.4</ele>
        <time>2023-05-19T16:17:36Z</time>
      </trkpt>
      <trkpt lat="48.04122" lon="7.02325">
        <ele>1090.2</ele>
        <time>2023-05-19T16:17:39Z</time>
      </trkpt>
      <trkpt lat="48.04121" lon="7.02317">
        <ele>1085</ele>
        <time>2023-05-19T16:17:43Z</time>
      </trkpt>
      <trkpt lat="48.04116" lon="7.0231">
        <ele>1083.4</ele>
        <time>2023-05-19T16:17:52Z</time>
      </trkpt>
      <trkpt lat="48.04116" lon="7.02302">
        <ele>1078.3</ele>
        <time>2023-05-19T16:17:58Z</time>
      </trkpt>
      <trkpt lat="48.04112" lon="7.02298">
        <ele>1079.9</ele>
        <time>2023-05-19T16:18:02Z</time>
      </trkpt>
      <trkpt lat="48.04099" lon="7.02285">
        <ele>1086.1</ele>
        <time>2023-05-19T16:18:18Z</time>
      </trkpt>
      <trkpt lat="48.04097" lon="7.02276">
        <ele>1084.8</ele>
        <time>2023-05-19T16:18:28Z</time>
      </trkpt>
      <trkpt lat="48.04094" lon="7.02269">
        <ele>1087.5</ele>
        <time>2023-05-19T16:18:36Z</time>
      </trkpt>
      <trkpt lat="48.04085" lon="7.02264">
        <ele>1094.3</ele>
        <time>2023-05-19T16:18:48Z</time>
      </trkpt>
      <trkpt lat="48.0408" lon="7.02253">
        <ele>1097.5</ele>
        <time>2023-05-19T16:19:02Z</time>
      </trkpt>
      <trkpt lat="48.04082" lon="7.02247">
        <ele>1097.1</ele>
        <time>2023-05-19T16:19:11Z</time>
      </trkpt>
      <trkpt lat="48.04081" lon="7.02239">
        <ele>1098.9</ele>
        <time>2023-05-19T16:19:23Z</time>
      </trkpt>
      <trkpt lat="48.04077" lon="7.0223">
        <ele>1101.9</ele>
        <time>2023-05-19T16:19:41Z</time>
      </trkpt>
      <trkpt lat="48.0408" lon="7.02224">
        <ele>1101.8</ele>
        <time>2023-05-19T16:19:46Z</time>
      </trkpt>
      <trkpt lat="48.04083" lon="7.02215">
        <ele>1102.7</ele>
        <time>2023-05-19T16:19:55Z</time>
      </trkpt>
      <trkpt lat="48.04078" lon="7.02211">
        <ele>1104.8</ele>
        <time>2023-05-19T16:20:07Z</time>
      </trkpt>
      <trkpt lat="48.0408" lon="7.02203">
        <ele>1105.9</ele>
        <time>2023-05-19T16:20:12Z</time>
      </trkpt>
      <trkpt lat="48.04078" lon="7.02197">
        <ele>1107.5</ele>
        <time>2023-05-19T16:20:21Z</time>
      </trkpt>
      <trkpt lat="48.04073" lon="7.02192">
        <ele>1109.2</ele>
        <time>2023-05-19T16:20:39Z</time>
      </trkpt>
      <trkpt lat="48.04066" lon="7.02201">
        <ele>1109.3</ele>
        <time>2023-05-19T16:21:25Z</time>
      </trkpt>
      <trkpt lat="48.04055" lon="7.02205">
        <ele>1111.4</ele>
        <time>2023-05-19T16:21:37Z</time>
      </trkpt>
      <trkpt lat="48.0405" lon="7.02211">
        <ele>1112.5</ele>
        <time>2023-05-19T16:21:42Z</time>
      </trkpt>
      <trkpt lat="48.04051" lon="7.02218">
        <ele>1111.8</ele>
        <time>2023-05-19T16:21:47Z</time>
      </trkpt>
      <trkpt lat="48.04048" lon="7.02224">
        <ele>1112.7</ele>
        <time>2023-05-19T16:21:51Z</time>
      </trkpt>
      <trkpt lat="48.04048" lon="7.02231">
        <ele>1112.7</ele>
        <time>2023-05-19T16:21:58Z</time>
      </trkpt>
      <trkpt lat="48.04043" lon="7.02232">
        <ele>1114.8</ele>
        <time>2023-05-19T16:22:02Z</time>
      </trkpt>
      <trkpt lat="48.04034" lon="7.02219">
        <ele>1117.6</ele>
        <time>2023-05-19T16:22:11Z</time>
      </trkpt>
      <trkpt lat="48.04033" lon="7.02224">
        <ele>1118.3</ele>
        <time>2023-05-19T16:22:23Z</time>
      </trkpt>
      <trkpt lat="48.04028" lon="7.02246">
        <ele>1122.5</ele>
        <time>2023-05-19T16:22:47Z</time>
      </trkpt>
      <trkpt lat="48.04022" lon="7.0224">
        <ele>1124.8</ele>
        <time>2023-05-19T16:22:51Z</time>
      </trkpt>
      <trkpt lat="48.04014" lon="7.02229">
        <ele>1127</ele>
        <time>2023-05-19T16:22:59Z</time>
      </trkpt>
      <trkpt lat="48.04012" lon="7.02221">
        <ele>1126.7</ele>
        <time>2023-05-19T16:23:02Z</time>
      </trkpt>
      <trkpt lat="48.04012" lon="7.02225">
        <ele>1127.3</ele>
        <time>2023-05-19T16:23:23Z</time>
      </trkpt>
      <trkpt lat="48.04004" lon="7.02228">
        <ele>1131.4</ele>
        <time>2023-05-19T16:23:34Z</time>
      </trkpt>
      <trkpt lat="48.04006" lon="7.02238">
        <ele>1132.4</ele>
        <time>2023-05-19T16:23:42Z</time>
      </trkpt>
      <trkpt lat="48.04011" lon="7.02241">
        <ele>1130.5</ele>
        <time>2023-05-19T16:23:46Z</time>
      </trkpt>
      <trkpt lat="48.04015" lon="7.02248">
        <ele>1129.6</ele>
        <time>2023-05-19T16:23:54Z</time>
      </trkpt>
      <trkpt lat="48.04018" lon="7.02256">
        <ele>1130</ele>
        <time>2023-05-19T16:24:02Z</time>
      </trkpt>
      <trkpt lat="48.04022" lon="7.02266">
        <ele>1130.5</ele>
        <time>2023-05-19T16:24:13Z</time>
      </trkpt>
      <trkpt lat="48.04021" lon="7.02273">
        <ele>1133.1</ele>
        <time>2023-05-19T16:24:25Z</time>
      </trkpt>
      <trkpt lat="48.04016" lon="7.02274">
        <ele>1136.5</ele>
        <time>2023-05-19T16:24:33Z</time>
      </trkpt>
      <trkpt lat="48.0401" lon="7.02268">
        <ele>1138.4</ele>
        <time>2023-05-19T16:24:37Z</time>
      </trkpt>
      <trkpt lat="48.04008" lon="7.02262">
        <ele>1137.6</ele>
        <time>2023-05-19T16:24:40Z</time>
      </trkpt>
      <trkpt lat="48.0401" lon="7.02268">
        <ele>1138.4</ele>
        <time>2023-05-19T16:24:58Z</time>
      </trkpt>
      <trkpt lat="48.04014" lon="7.02273">
        <ele>1137.5</ele>
        <time>2023-05-19T16:25:06Z</time>
      </trkpt>
      <trkpt lat="48.04008" lon="7.02277">
        <ele>1142.6</ele>
        <time>2023-05-19T16:25:11Z</time>
      </trkpt>
      <trkpt lat="48.04003" lon="7.02274">
        <ele>1144.7</ele>
        <time>2023-05-19T16:25:19Z</time>
      </trkpt>
      <trkpt lat="48.04003" lon="7.02286">
        <ele>1149.1</ele>
        <time>2023-05-19T16:25:49Z</time>
      </trkpt>
      <trkpt lat="48.03998" lon="7.02285">
        <ele>1151.9</ele>
        <time>2023-05-19T16:25:55Z</time>
      </trkpt>
      <trkpt lat="48.03994" lon="7.02286">
        <ele>1155</ele>
        <time>2023-05-19T16:26:16Z</time>
      </trkpt>
      <trkpt lat="48.0399" lon="7.02281">
        <ele>1156</ele>
        <time>2023-05-19T16:26:20Z</time>
      </trkpt>
      <trkpt lat="48.03989" lon="7.02271">
        <ele>1153.2</ele>
        <time>2023-05-19T16:26:27Z</time>
      </trkpt>
      <trkpt lat="48.03981" lon="7.02258">
        <ele>1154.4</ele>
        <time>2023-05-19T16:26:40Z</time>
      </trkpt>
      <trkpt lat="48.03975" lon="7.02257">
        <ele>1158.3</ele>
        <time>2023-05-19T16:26:45Z</time>
      </trkpt>
      <trkpt lat="48.03975" lon="7.02265">
        <ele>1160.9</ele>
        <time>2023-05-19T16:26:49Z</time>
      </trkpt>
      <trkpt lat="48.03971" lon="7.02264">
        <ele>1163.2</ele>
        <time>2023-05-19T16:26:57Z</time>
      </trkpt>
      <trkpt lat="48.0396" lon="7.02275">
        <ele>1171.7</ele>
        <time>2023-05-19T16:27:39Z</time>
      </trkpt>
      <trkpt lat="48.03955" lon="7.02278">
        <ele>1174.5</ele>
        <time>2023-05-19T16:27:47Z</time>
      </trkpt>
      <trkpt lat="48.0394" lon="7.02266">
        <ele>1181.4</ele>
        <time>2023-05-19T16:28:07Z</time>
      </trkpt>
      <trkpt lat="48.03937" lon="7.02262">
        <ele>1183.4</ele>
        <time>2023-05-19T16:28:12Z</time>
      </trkpt>
      <trkpt lat="48.03939" lon="7.02273">
        <ele>1182.5</ele>
        <time>2023-05-19T16:28:27Z</time>
      </trkpt>
      <trkpt lat="48.03948" lon="7.02278">
        <ele>1177.5</ele>
        <time>2023-05-19T16:28:37Z</time>
      </trkpt>
      <trkpt lat="48.03947" lon="7.02299">
        <ele>1183.4</ele>
        <time>2023-05-19T16:28:59Z</time>
      </trkpt>
      <trkpt lat="48.03949" lon="7.02306">
        <ele>1184.5</ele>
        <time>2023-05-19T16:29:05Z</time>
      </trkpt>
      <trkpt lat="48.03947" lon="7.02316">
        <ele>1188.2</ele>
        <time>2023-05-19T16:29:15Z</time>
      </trkpt>
      <trkpt lat="48.03951" lon="7.0232">
        <ele>1188.2</ele>
        <time>2023-05-19T16:29:21Z</time>
      </trkpt>
      <trkpt lat="48.03954" lon="7.0233">
        <ele>1190.5</ele>
        <time>2023-05-19T16:29:31Z</time>
      </trkpt>
      <trkpt lat="48.03957" lon="7.02338">
        <ele>1192.2</ele>
        <time>2023-05-19T16:29:40Z</time>
      </trkpt>
      <trkpt lat="48.03952" lon="7.02347">
        <ele>1195.5</ele>
        <time>2023-05-19T16:29:52Z</time>
      </trkpt>
      <trkpt lat="48.03949" lon="7.02351">
        <ele>1196.8</ele>
        <time>2023-05-19T16:29:57Z</time>
      </trkpt>
      <trkpt lat="48.03946" lon="7.02358">
        <ele>1198.4</ele>
        <time>2023-05-19T16:30:05Z</time>
      </trkpt>
      <trkpt lat="48.03944" lon="7.02364">
        <ele>1198.2</ele>
        <time>2023-05-19T16:30:11Z</time>
      </trkpt>
      <trkpt lat="48.0394" lon="7.02366">
        <ele>1198.4</ele>
        <time>2023-05-19T16:30:39Z</time>
      </trkpt>
      <trkpt lat="48.03913" lon="7.02378">
        <ele>1201.2</ele>
        <time>2023-05-19T16:32:17Z</time>
      </trkpt>
      <trkpt lat="48.03913" lon="7.02378">
        <ele>1201.2</ele>
        <time>2023-05-19T16:32:18Z</time>
      </trkpt>
      <trkpt lat="48.03909" lon="7.02384">
        <ele>1201.4</ele>
        <time>2023-05-19T16:32:24Z</time>
      </trkpt>
      <trkpt lat="48.03907" lon="7.0239">
        <ele>1200.8</ele>
        <time>2023-05-19T16:32:28Z</time>
      </trkpt>
      <trkpt lat="48.03903" lon="7.02395">
        <ele>1200.8</ele>
        <time>2023-05-19T16:32:33Z</time>
      </trkpt>
      <trkpt lat="48.03896" lon="7.02399">
        <ele>1202.7</ele>
        <time>2023-05-19T16:32:41Z</time>
      </trkpt>
      <trkpt lat="48.03886" lon="7.02404">
        <ele>1205.3</ele>
        <time>2023-05-19T16:32:51Z</time>
      </trkpt>
      <trkpt lat="48.03882" lon="7.02406">
        <ele>1205.6</ele>
        <time>2023-05-19T16:32:56Z</time>
      </trkpt>
      <trkpt lat="48.03878" lon="7.0241">
        <ele>1205.3</ele>
        <time>2023-05-19T16:33:01Z</time>
      </trkpt>
      <trkpt lat="48.03874" lon="7.02412">
        <ele>1205.6</ele>
        <time>2023-05-19T16:33:04Z</time>
      </trkpt>
      <trkpt lat="48.03869" lon="7.02414">
        <ele>1206.1</ele>
        <time>2023-05-19T16:33:08Z</time>
      </trkpt>
      <trkpt lat="48.03861" lon="7.02421">
        <ele>1205.3</ele>
        <time>2023-05-19T16:33:17Z</time>
      </trkpt>
      <trkpt lat="48.0385" lon="7.02427">
        <ele>1206</ele>
        <time>2023-05-19T16:33:26Z</time>
      </trkpt>
      <trkpt lat="48.03846" lon="7.02431">
        <ele>1205.7</ele>
        <time>2023-05-19T16:33:30Z</time>
      </trkpt>
      <trkpt lat="48.03842" lon="7.02434">
        <ele>1205.8</ele>
        <time>2023-05-19T16:33:34Z</time>
      </trkpt>
      <trkpt lat="48.03833" lon="7.02446">
        <ele>1204.6</ele>
        <time>2023-05-19T16:33:46Z</time>
      </trkpt>
      <trkpt lat="48.03828" lon="7.02457">
        <ele>1203.7</ele>
        <time>2023-05-19T16:33:52Z</time>
      </trkpt>
      <trkpt lat="48.03824" lon="7.02471">
        <ele>1202</ele>
        <time>2023-05-19T16:33:59Z</time>
      </trkpt>
      <trkpt lat="48.03825" lon="7.02478">
        <ele>1201.4</ele>
        <time>2023-05-19T16:34:03Z</time>
      </trkpt>
      <trkpt lat="48.03827" lon="7.02484">
        <ele>1200.7</ele>
        <time>2023-05-19T16:34:08Z</time>
      </trkpt>
      <trkpt lat="48.03827" lon="7.02492">
        <ele>1201.2</ele>
        <time>2023-05-19T16:34:13Z</time>
      </trkpt>
      <trkpt lat="48.03826" lon="7.02498">
        <ele>1202</ele>
        <time>2023-05-19T16:34:17Z</time>
      </trkpt>
      <trkpt lat="48.03822" lon="7.0251">
        <ele>1202.7</ele>
        <time>2023-05-19T16:34:25Z</time>
      </trkpt>
      <trkpt lat="48.03817" lon="7.02514">
        <ele>1204.2</ele>
        <time>2023-05-19T16:34:29Z</time>
      </trkpt>
      <trkpt lat="48.0381" lon="7.02525">
        <ele>1205.6</ele>
        <time>2023-05-19T16:34:37Z</time>
      </trkpt>
      <trkpt lat="48.03806" lon="7.02539">
        <ele>1206.4</ele>
        <time>2023-05-19T16:34:45Z</time>
      </trkpt>
      <trkpt lat="48.03805" lon="7.02546">
        <ele>1206.5</ele>
        <time>2023-05-19T16:34:49Z</time>
      </trkpt>
      <trkpt lat="48.03806" lon="7.02553">
        <ele>1205.9</ele>
        <time>2023-05-19T16:34:53Z</time>
      </trkpt>
      <trkpt lat="48.03804" lon="7.02574">
        <ele>1206.4</ele>
        <time>2023-05-19T16:35:04Z</time>
      </trkpt>
      <trkpt lat="48.03795" lon="7.02597">
        <ele>1207.1</ele>
        <time>2023-05-19T16:35:20Z</time>
      </trkpt>
      <trkpt lat="48.03786" lon="7.02607">
        <ele>1207.9</ele>
        <time>2023-05-19T16:35:30Z</time>
      </trkpt>
      <trkpt lat="48.03781" lon="7.0261">
        <ele>1208.5</ele>
        <time>2023-05-19T16:35:35Z</time>
      </trkpt>
      <trkpt lat="48.03775" lon="7.02617">
        <ele>1209.1</ele>
        <time>2023-05-19T16:35:42Z</time>
      </trkpt>
      <trkpt lat="48.03773" lon="7.02631">
        <ele>1208.6</ele>
        <time>2023-05-19T16:35:48Z</time>
      </trkpt>
      <trkpt lat="48.03769" lon="7.02639">
        <ele>1208.9</ele>
        <time>2023-05-19T16:35:56Z</time>
      </trkpt>
      <trkpt lat="48.03766" lon="7.02644">
        <ele>1209.1</ele>
        <time>2023-05-19T16:36:01Z</time>
      </trkpt>
      <trkpt lat="48.03761" lon="7.02656">
        <ele>1209.1</ele>
        <time>2023-05-19T16:36:09Z</time>
      </trkpt>
      <trkpt lat="48.0376" lon="7.02669">
        <ele>1208.1</ele>
        <time>2023-05-19T16:36:23Z</time>
      </trkpt>
      <trkpt lat="48.03758" lon="7.02662">
        <ele>1209.4</ele>
        <time>2023-05-19T16:36:31Z</time>
      </trkpt>
      <trkpt lat="48.03756" lon="7.02655">
        <ele>1210.4</ele>
        <time>2023-05-19T16:36:43Z</time>
      </trkpt>
      <trkpt lat="48.03762" lon="7.02653">
        <ele>1209.2</ele>
        <time>2023-05-19T16:37:23Z</time>
      </trkpt>
      <trkpt lat="48.03758" lon="7.02663">
        <ele>1209.3</ele>
        <time>2023-05-19T16:39:08Z</time>
      </trkpt>
      <trkpt lat="48.03755" lon="7.02671">
        <ele>1208.9</ele>
        <time>2023-05-19T16:39:16Z</time>
      </trkpt>
      <trkpt lat="48.03749" lon="7.02668">
        <ele>1210.8</ele>
        <time>2023-05-19T16:39:30Z</time>
      </trkpt>
      <trkpt lat="48.03753" lon="7.02663">
        <ele>1210.5</ele>
        <time>2023-05-19T16:39:36Z</time>
      </trkpt>
      <trkpt lat="48.03756" lon="7.02651">
        <ele>1210.7</ele>
        <time>2023-05-19T16:40:11Z</time>
      </trkpt>
      <trkpt lat="48.03761" lon="7.02651">
        <ele>1209.6</ele>
        <time>2023-05-19T16:40:23Z</time>
      </trkpt>
      <trkpt lat="48.03765" lon="7.02643">
        <ele>1209.4</ele>
        <time>2023-05-19T16:41:21Z</time>
      </trkpt>
      <trkpt lat="48.0376" lon="7.02643">
        <ele>1210.5</ele>
        <time>2023-05-19T16:42:14Z</time>
      </trkpt>
      <trkpt lat="48.03762" lon="7.02651">
        <ele>1209.3</ele>
        <time>2023-05-19T16:42:31Z</time>
      </trkpt>
    </trkseg>
  </trk>
</gpx>